<?xml version="1.0" encoding="UTF-8"?>
<gpx version="1.1" creator="https://www.youtrack.es" xsi:schemaLocation="http://www.topografix.com/GPX/1/1 http://www.topografix.com/GPX/1/1/gpx.xsd http://www.garmin.com/xmlschemas/GpxExtensions/v3 http://www.garmin.com/xmlschemas/GpxExtensionsv3.xsd http://www.garmin.com/xmlschemas/TrackPointExtension/v1 http://www.garmin.com/xmlschemas/TrackPointExtensionv1.xsd" xmlns:gpxtpx="http://www.garmin.com/xmlschemas/TrackPointExtension/v1" xmlns:gpxx="http://www.garmin.com/xmlschemas/GpxExtensions/v3" xmlns:xsi="http://www.w3.org/2001/XMLSchema-instance">
  <metadata>
    <link href="https://www.youtrack.es">
      <text>YouTrack.es</text>
    </link>
    <time>2026-05-10T13:39:57Z</time>
  </metadata>
  <trk>
    <src>https://www.youtrack.es</src>
    <link href="https://www.youtrack.es/ruta/35467-paseito-con-mi-evica">
      <text>YouTrack.es</text>
    </link>
    <trkseg>
      <trkpt lat="41.58842" lon="-0.92924">
        <ele>299</ele>
        <time>2022-08-23 18:20:11</time>
      </trkpt>
      <trkpt lat="41.58842" lon="-0.92925">
        <ele>298.4</ele>
        <time>2022-08-23 18:20:12</time>
      </trkpt>
      <trkpt lat="41.58842" lon="-0.92927">
        <ele>298</ele>
        <time>2022-08-23 18:20:13</time>
      </trkpt>
      <trkpt lat="41.58842" lon="-0.92928">
        <ele>297.8</ele>
        <time>2022-08-23 18:20:14</time>
      </trkpt>
      <trkpt lat="41.58842" lon="-0.92931">
        <ele>297.4</ele>
        <time>2022-08-23 18:20:15</time>
      </trkpt>
      <trkpt lat="41.58843" lon="-0.92934">
        <ele>297.4</ele>
        <time>2022-08-23 18:20:16</time>
      </trkpt>
      <trkpt lat="41.58843" lon="-0.92937">
        <ele>297.4</ele>
        <time>2022-08-23 18:20:17</time>
      </trkpt>
      <trkpt lat="41.58843" lon="-0.92941">
        <ele>297.4</ele>
        <time>2022-08-23 18:20:18</time>
      </trkpt>
      <trkpt lat="41.58847" lon="-0.92943">
        <ele>297.2</ele>
        <time>2022-08-23 18:20:19</time>
      </trkpt>
      <trkpt lat="41.5885" lon="-0.92945">
        <ele>296.8</ele>
        <time>2022-08-23 18:20:20</time>
      </trkpt>
      <trkpt lat="41.58852" lon="-0.92947">
        <ele>296.6</ele>
        <time>2022-08-23 18:20:21</time>
      </trkpt>
      <trkpt lat="41.58853" lon="-0.92949">
        <ele>296.2</ele>
        <time>2022-08-23 18:20:22</time>
      </trkpt>
      <trkpt lat="41.58854" lon="-0.92951">
        <ele>295.8</ele>
        <time>2022-08-23 18:20:23</time>
      </trkpt>
      <trkpt lat="41.58859" lon="-0.92952">
        <ele>295.4</ele>
        <time>2022-08-23 18:20:24</time>
      </trkpt>
      <trkpt lat="41.58862" lon="-0.92954">
        <ele>295</ele>
        <time>2022-08-23 18:20:25</time>
      </trkpt>
      <trkpt lat="41.58862" lon="-0.92955">
        <ele>294.8</ele>
        <time>2022-08-23 18:20:26</time>
      </trkpt>
      <trkpt lat="41.58863" lon="-0.92958">
        <ele>294.4</ele>
        <time>2022-08-23 18:20:27</time>
      </trkpt>
      <trkpt lat="41.58866" lon="-0.9296">
        <ele>294.2</ele>
        <time>2022-08-23 18:20:28</time>
      </trkpt>
      <trkpt lat="41.58868" lon="-0.92961">
        <ele>293.8</ele>
        <time>2022-08-23 18:20:29</time>
      </trkpt>
      <trkpt lat="41.58869" lon="-0.92964">
        <ele>293.6</ele>
        <time>2022-08-23 18:20:30</time>
      </trkpt>
      <trkpt lat="41.58871" lon="-0.92966">
        <ele>293.4</ele>
        <time>2022-08-23 18:20:31</time>
      </trkpt>
      <trkpt lat="41.58872" lon="-0.92969">
        <ele>293</ele>
        <time>2022-08-23 18:20:32</time>
      </trkpt>
      <trkpt lat="41.58873" lon="-0.92973">
        <ele>292.6</ele>
        <time>2022-08-23 18:20:33</time>
      </trkpt>
      <trkpt lat="41.58874" lon="-0.92978">
        <ele>292.4</ele>
        <time>2022-08-23 18:20:34</time>
      </trkpt>
      <trkpt lat="41.58875" lon="-0.92981">
        <ele>292</ele>
        <time>2022-08-23 18:20:35</time>
      </trkpt>
      <trkpt lat="41.58876" lon="-0.92984">
        <ele>291.8</ele>
        <time>2022-08-23 18:20:36</time>
      </trkpt>
      <trkpt lat="41.58877" lon="-0.92988">
        <ele>291.4</ele>
        <time>2022-08-23 18:20:37</time>
      </trkpt>
      <trkpt lat="41.58879" lon="-0.9299">
        <ele>291.2</ele>
        <time>2022-08-23 18:20:38</time>
      </trkpt>
      <trkpt lat="41.58881" lon="-0.92993">
        <ele>291.2</ele>
        <time>2022-08-23 18:20:39</time>
      </trkpt>
      <trkpt lat="41.58882" lon="-0.92995">
        <ele>291</ele>
        <time>2022-08-23 18:20:40</time>
      </trkpt>
      <trkpt lat="41.58884" lon="-0.92996">
        <ele>290.8</ele>
        <time>2022-08-23 18:20:41</time>
      </trkpt>
      <trkpt lat="41.58886" lon="-0.92997">
        <ele>290.6</ele>
        <time>2022-08-23 18:20:42</time>
      </trkpt>
      <trkpt lat="41.58888" lon="-0.92999">
        <ele>290.2</ele>
        <time>2022-08-23 18:20:43</time>
      </trkpt>
      <trkpt lat="41.58891" lon="-0.93">
        <ele>290</ele>
        <time>2022-08-23 18:20:44</time>
      </trkpt>
      <trkpt lat="41.58894" lon="-0.93001">
        <ele>289.6</ele>
        <time>2022-08-23 18:20:45</time>
      </trkpt>
      <trkpt lat="41.58897" lon="-0.93002">
        <ele>289.4</ele>
        <time>2022-08-23 18:20:46</time>
      </trkpt>
      <trkpt lat="41.58898" lon="-0.93002">
        <ele>289.2</ele>
        <time>2022-08-23 18:20:47</time>
      </trkpt>
      <trkpt lat="41.589" lon="-0.93003">
        <ele>289</ele>
        <time>2022-08-23 18:20:48</time>
      </trkpt>
      <trkpt lat="41.58902" lon="-0.93004">
        <ele>288.8</ele>
        <time>2022-08-23 18:20:49</time>
      </trkpt>
      <trkpt lat="41.58904" lon="-0.93004">
        <ele>288.6</ele>
        <time>2022-08-23 18:20:50</time>
      </trkpt>
      <trkpt lat="41.58905" lon="-0.93005">
        <ele>288.4</ele>
        <time>2022-08-23 18:20:51</time>
      </trkpt>
      <trkpt lat="41.58907" lon="-0.93005">
        <ele>288.2</ele>
        <time>2022-08-23 18:20:52</time>
      </trkpt>
      <trkpt lat="41.58909" lon="-0.93005">
        <ele>288</ele>
        <time>2022-08-23 18:20:53</time>
      </trkpt>
      <trkpt lat="41.58911" lon="-0.93006">
        <ele>287.8</ele>
        <time>2022-08-23 18:20:54</time>
      </trkpt>
      <trkpt lat="41.58915" lon="-0.93006">
        <ele>287.6</ele>
        <time>2022-08-23 18:20:55</time>
      </trkpt>
      <trkpt lat="41.58917" lon="-0.93006">
        <ele>287.2</ele>
        <time>2022-08-23 18:20:56</time>
      </trkpt>
      <trkpt lat="41.58919" lon="-0.93007">
        <ele>287</ele>
        <time>2022-08-23 18:20:57</time>
      </trkpt>
      <trkpt lat="41.5892" lon="-0.93008">
        <ele>286.4</ele>
        <time>2022-08-23 18:20:58</time>
      </trkpt>
      <trkpt lat="41.5892" lon="-0.9301">
        <ele>286.2</ele>
        <time>2022-08-23 18:20:59</time>
      </trkpt>
      <trkpt lat="41.5892" lon="-0.93011">
        <ele>285.8</ele>
        <time>2022-08-23 18:21:00</time>
      </trkpt>
      <trkpt lat="41.58919" lon="-0.93013">
        <ele>285.6</ele>
        <time>2022-08-23 18:21:01</time>
      </trkpt>
      <trkpt lat="41.58917" lon="-0.93015">
        <ele>285.2</ele>
        <time>2022-08-23 18:21:02</time>
      </trkpt>
      <trkpt lat="41.58916" lon="-0.93016">
        <ele>284.8</ele>
        <time>2022-08-23 18:21:03</time>
      </trkpt>
      <trkpt lat="41.58915" lon="-0.93019">
        <ele>284.4</ele>
        <time>2022-08-23 18:21:04</time>
      </trkpt>
      <trkpt lat="41.58915" lon="-0.93021">
        <ele>284</ele>
        <time>2022-08-23 18:21:05</time>
      </trkpt>
      <trkpt lat="41.58916" lon="-0.93021">
        <ele>283.4</ele>
        <time>2022-08-23 18:21:06</time>
      </trkpt>
      <trkpt lat="41.58916" lon="-0.93022">
        <ele>282.8</ele>
        <time>2022-08-23 18:21:07</time>
      </trkpt>
      <trkpt lat="41.58914" lon="-0.93023">
        <ele>282.4</ele>
        <time>2022-08-23 18:21:08</time>
      </trkpt>
      <trkpt lat="41.58913" lon="-0.93023">
        <ele>282.2</ele>
        <time>2022-08-23 18:21:09</time>
      </trkpt>
      <trkpt lat="41.5891" lon="-0.93024">
        <ele>282</ele>
        <time>2022-08-23 18:21:10</time>
      </trkpt>
      <trkpt lat="41.58908" lon="-0.93024">
        <ele>282</ele>
        <time>2022-08-23 18:21:11</time>
      </trkpt>
      <trkpt lat="41.58906" lon="-0.93025">
        <ele>282</ele>
        <time>2022-08-23 18:21:12</time>
      </trkpt>
      <trkpt lat="41.58906" lon="-0.93025">
        <ele>282.2</ele>
        <time>2022-08-23 18:21:13</time>
      </trkpt>
      <trkpt lat="41.58907" lon="-0.93023">
        <ele>282.2</ele>
        <time>2022-08-23 18:21:14</time>
      </trkpt>
      <trkpt lat="41.58906" lon="-0.93023">
        <ele>282</ele>
        <time>2022-08-23 18:21:15</time>
      </trkpt>
      <trkpt lat="41.58904" lon="-0.93022">
        <ele>282</ele>
        <time>2022-08-23 18:21:16</time>
      </trkpt>
      <trkpt lat="41.58902" lon="-0.93021">
        <ele>282</ele>
        <time>2022-08-23 18:21:17</time>
      </trkpt>
      <trkpt lat="41.589" lon="-0.93019">
        <ele>282</ele>
        <time>2022-08-23 18:21:18</time>
      </trkpt>
      <trkpt lat="41.58898" lon="-0.93017">
        <ele>281.8</ele>
        <time>2022-08-23 18:21:19</time>
      </trkpt>
      <trkpt lat="41.58898" lon="-0.93016">
        <ele>281.8</ele>
        <time>2022-08-23 18:21:20</time>
      </trkpt>
      <trkpt lat="41.58897" lon="-0.93015">
        <ele>281.8</ele>
        <time>2022-08-23 18:21:21</time>
      </trkpt>
      <trkpt lat="41.58895" lon="-0.93014">
        <ele>281.6</ele>
        <time>2022-08-23 18:21:22</time>
      </trkpt>
      <trkpt lat="41.58893" lon="-0.93015">
        <ele>281.6</ele>
        <time>2022-08-23 18:21:23</time>
      </trkpt>
      <trkpt lat="41.58891" lon="-0.93016">
        <ele>281.4</ele>
        <time>2022-08-23 18:21:24</time>
      </trkpt>
      <trkpt lat="41.5889" lon="-0.93017">
        <ele>281.4</ele>
        <time>2022-08-23 18:21:25</time>
      </trkpt>
      <trkpt lat="41.58887" lon="-0.93016">
        <ele>281.2</ele>
        <time>2022-08-23 18:21:26</time>
      </trkpt>
      <trkpt lat="41.58884" lon="-0.93014">
        <ele>281</ele>
        <time>2022-08-23 18:21:27</time>
      </trkpt>
      <trkpt lat="41.58881" lon="-0.93015">
        <ele>280.8</ele>
        <time>2022-08-23 18:21:28</time>
      </trkpt>
      <trkpt lat="41.58879" lon="-0.93014">
        <ele>280.6</ele>
        <time>2022-08-23 18:21:29</time>
      </trkpt>
      <trkpt lat="41.58876" lon="-0.93014">
        <ele>280.4</ele>
        <time>2022-08-23 18:21:30</time>
      </trkpt>
      <trkpt lat="41.58874" lon="-0.93012">
        <ele>280</ele>
        <time>2022-08-23 18:21:31</time>
      </trkpt>
      <trkpt lat="41.58872" lon="-0.93013">
        <ele>279.8</ele>
        <time>2022-08-23 18:21:32</time>
      </trkpt>
      <trkpt lat="41.58869" lon="-0.93015">
        <ele>279.6</ele>
        <time>2022-08-23 18:21:33</time>
      </trkpt>
      <trkpt lat="41.58866" lon="-0.93016">
        <ele>279.2</ele>
        <time>2022-08-23 18:21:34</time>
      </trkpt>
      <trkpt lat="41.58864" lon="-0.93018">
        <ele>279</ele>
        <time>2022-08-23 18:21:35</time>
      </trkpt>
      <trkpt lat="41.58861" lon="-0.9302">
        <ele>278.6</ele>
        <time>2022-08-23 18:21:36</time>
      </trkpt>
      <trkpt lat="41.58857" lon="-0.93022">
        <ele>278.4</ele>
        <time>2022-08-23 18:21:37</time>
      </trkpt>
      <trkpt lat="41.58855" lon="-0.93023">
        <ele>278.4</ele>
        <time>2022-08-23 18:21:38</time>
      </trkpt>
      <trkpt lat="41.58852" lon="-0.93024">
        <ele>278.2</ele>
        <time>2022-08-23 18:21:39</time>
      </trkpt>
      <trkpt lat="41.5885" lon="-0.93025">
        <ele>278.2</ele>
        <time>2022-08-23 18:21:40</time>
      </trkpt>
      <trkpt lat="41.58848" lon="-0.93026">
        <ele>278</ele>
        <time>2022-08-23 18:21:41</time>
      </trkpt>
      <trkpt lat="41.58846" lon="-0.9303">
        <ele>277.8</ele>
        <time>2022-08-23 18:21:42</time>
      </trkpt>
      <trkpt lat="41.58843" lon="-0.93032">
        <ele>277.6</ele>
        <time>2022-08-23 18:21:43</time>
      </trkpt>
      <trkpt lat="41.58841" lon="-0.93037">
        <ele>277.4</ele>
        <time>2022-08-23 18:21:44</time>
      </trkpt>
      <trkpt lat="41.58838" lon="-0.93041">
        <ele>277.2</ele>
        <time>2022-08-23 18:21:45</time>
      </trkpt>
      <trkpt lat="41.58836" lon="-0.93044">
        <ele>277.2</ele>
        <time>2022-08-23 18:21:46</time>
      </trkpt>
      <trkpt lat="41.58834" lon="-0.93049">
        <ele>277</ele>
        <time>2022-08-23 18:21:47</time>
      </trkpt>
      <trkpt lat="41.58832" lon="-0.93053">
        <ele>277</ele>
        <time>2022-08-23 18:21:48</time>
      </trkpt>
      <trkpt lat="41.58831" lon="-0.93059">
        <ele>277</ele>
        <time>2022-08-23 18:21:49</time>
      </trkpt>
      <trkpt lat="41.58829" lon="-0.93063">
        <ele>277</ele>
        <time>2022-08-23 18:21:50</time>
      </trkpt>
      <trkpt lat="41.5883" lon="-0.93067">
        <ele>277</ele>
        <time>2022-08-23 18:21:51</time>
      </trkpt>
      <trkpt lat="41.5883" lon="-0.93072">
        <ele>277</ele>
        <time>2022-08-23 18:21:52</time>
      </trkpt>
      <trkpt lat="41.58828" lon="-0.93075">
        <ele>276.8</ele>
        <time>2022-08-23 18:21:53</time>
      </trkpt>
      <trkpt lat="41.58826" lon="-0.93078">
        <ele>276.8</ele>
        <time>2022-08-23 18:21:54</time>
      </trkpt>
      <trkpt lat="41.58824" lon="-0.93081">
        <ele>276.6</ele>
        <time>2022-08-23 18:21:55</time>
      </trkpt>
      <trkpt lat="41.58822" lon="-0.93084">
        <ele>276.6</ele>
        <time>2022-08-23 18:21:56</time>
      </trkpt>
      <trkpt lat="41.58821" lon="-0.93086">
        <ele>276.6</ele>
        <time>2022-08-23 18:21:57</time>
      </trkpt>
      <trkpt lat="41.58818" lon="-0.9309">
        <ele>276.4</ele>
        <time>2022-08-23 18:21:58</time>
      </trkpt>
      <trkpt lat="41.58817" lon="-0.93091">
        <ele>276.4</ele>
        <time>2022-08-23 18:21:59</time>
      </trkpt>
      <trkpt lat="41.58815" lon="-0.93092">
        <ele>276.4</ele>
        <time>2022-08-23 18:22:00</time>
      </trkpt>
      <trkpt lat="41.58813" lon="-0.93093">
        <ele>276.4</ele>
        <time>2022-08-23 18:22:01</time>
      </trkpt>
      <trkpt lat="41.58812" lon="-0.93092">
        <ele>276.4</ele>
        <time>2022-08-23 18:22:02</time>
      </trkpt>
      <trkpt lat="41.5881" lon="-0.93094">
        <ele>276.4</ele>
        <time>2022-08-23 18:22:03</time>
      </trkpt>
      <trkpt lat="41.58808" lon="-0.93097">
        <ele>276.4</ele>
        <time>2022-08-23 18:22:04</time>
      </trkpt>
      <trkpt lat="41.58807" lon="-0.93101">
        <ele>276.2</ele>
        <time>2022-08-23 18:22:05</time>
      </trkpt>
      <trkpt lat="41.58805" lon="-0.93103">
        <ele>276.2</ele>
        <time>2022-08-23 18:22:06</time>
      </trkpt>
      <trkpt lat="41.58804" lon="-0.93104">
        <ele>276.2</ele>
        <time>2022-08-23 18:22:07</time>
      </trkpt>
      <trkpt lat="41.58802" lon="-0.93106">
        <ele>276.2</ele>
        <time>2022-08-23 18:22:08</time>
      </trkpt>
      <trkpt lat="41.588" lon="-0.93107">
        <ele>276.2</ele>
        <time>2022-08-23 18:22:09</time>
      </trkpt>
      <trkpt lat="41.58798" lon="-0.93108">
        <ele>276.2</ele>
        <time>2022-08-23 18:22:10</time>
      </trkpt>
      <trkpt lat="41.58796" lon="-0.93109">
        <ele>276</ele>
        <time>2022-08-23 18:22:11</time>
      </trkpt>
      <trkpt lat="41.58793" lon="-0.93112">
        <ele>276</ele>
        <time>2022-08-23 18:22:12</time>
      </trkpt>
      <trkpt lat="41.58791" lon="-0.93113">
        <ele>276</ele>
        <time>2022-08-23 18:22:13</time>
      </trkpt>
      <trkpt lat="41.58789" lon="-0.93116">
        <ele>276</ele>
        <time>2022-08-23 18:22:14</time>
      </trkpt>
      <trkpt lat="41.58787" lon="-0.93117">
        <ele>276</ele>
        <time>2022-08-23 18:22:15</time>
      </trkpt>
      <trkpt lat="41.58786" lon="-0.93118">
        <ele>276.2</ele>
        <time>2022-08-23 18:22:16</time>
      </trkpt>
      <trkpt lat="41.58784" lon="-0.9312">
        <ele>276.2</ele>
        <time>2022-08-23 18:22:17</time>
      </trkpt>
      <trkpt lat="41.58783" lon="-0.93122">
        <ele>276.2</ele>
        <time>2022-08-23 18:22:18</time>
      </trkpt>
      <trkpt lat="41.58781" lon="-0.93124">
        <ele>276.2</ele>
        <time>2022-08-23 18:22:19</time>
      </trkpt>
      <trkpt lat="41.58779" lon="-0.93126">
        <ele>276.4</ele>
        <time>2022-08-23 18:22:20</time>
      </trkpt>
      <trkpt lat="41.58777" lon="-0.93129">
        <ele>276.4</ele>
        <time>2022-08-23 18:22:21</time>
      </trkpt>
      <trkpt lat="41.58774" lon="-0.93132">
        <ele>276.6</ele>
        <time>2022-08-23 18:22:22</time>
      </trkpt>
      <trkpt lat="41.58772" lon="-0.93133">
        <ele>276.6</ele>
        <time>2022-08-23 18:22:23</time>
      </trkpt>
      <trkpt lat="41.58771" lon="-0.93135">
        <ele>276.6</ele>
        <time>2022-08-23 18:22:24</time>
      </trkpt>
      <trkpt lat="41.58769" lon="-0.93137">
        <ele>276.6</ele>
        <time>2022-08-23 18:22:25</time>
      </trkpt>
      <trkpt lat="41.58768" lon="-0.93138">
        <ele>276.6</ele>
        <time>2022-08-23 18:22:26</time>
      </trkpt>
      <trkpt lat="41.58765" lon="-0.9314">
        <ele>276.6</ele>
        <time>2022-08-23 18:22:27</time>
      </trkpt>
      <trkpt lat="41.58763" lon="-0.93143">
        <ele>276.6</ele>
        <time>2022-08-23 18:22:28</time>
      </trkpt>
      <trkpt lat="41.5876" lon="-0.93144">
        <ele>276.6</ele>
        <time>2022-08-23 18:22:29</time>
      </trkpt>
      <trkpt lat="41.58758" lon="-0.93147">
        <ele>276.4</ele>
        <time>2022-08-23 18:22:30</time>
      </trkpt>
      <trkpt lat="41.58756" lon="-0.93147">
        <ele>276.4</ele>
        <time>2022-08-23 18:22:31</time>
      </trkpt>
      <trkpt lat="41.58755" lon="-0.93148">
        <ele>276.4</ele>
        <time>2022-08-23 18:22:32</time>
      </trkpt>
      <trkpt lat="41.58755" lon="-0.93174">
        <ele>276.2</ele>
        <time>2022-08-23 18:22:43</time>
      </trkpt>
      <trkpt lat="41.58758" lon="-0.9318">
        <ele>276.2</ele>
        <time>2022-08-23 18:22:44</time>
      </trkpt>
      <trkpt lat="41.58759" lon="-0.93183">
        <ele>276.2</ele>
        <time>2022-08-23 18:22:45</time>
      </trkpt>
      <trkpt lat="41.58762" lon="-0.93189">
        <ele>276.2</ele>
        <time>2022-08-23 18:22:46</time>
      </trkpt>
      <trkpt lat="41.58761" lon="-0.93192">
        <ele>276</ele>
        <time>2022-08-23 18:22:47</time>
      </trkpt>
      <trkpt lat="41.58759" lon="-0.93193">
        <ele>276</ele>
        <time>2022-08-23 18:22:48</time>
      </trkpt>
      <trkpt lat="41.58759" lon="-0.93195">
        <ele>276</ele>
        <time>2022-08-23 18:22:49</time>
      </trkpt>
      <trkpt lat="41.58757" lon="-0.93195">
        <ele>276</ele>
        <time>2022-08-23 18:22:50</time>
      </trkpt>
      <trkpt lat="41.58755" lon="-0.93193">
        <ele>276</ele>
        <time>2022-08-23 18:22:51</time>
      </trkpt>
      <trkpt lat="41.58754" lon="-0.93192">
        <ele>276</ele>
        <time>2022-08-23 18:22:52</time>
      </trkpt>
      <trkpt lat="41.58752" lon="-0.93189">
        <ele>276</ele>
        <time>2022-08-23 18:22:53</time>
      </trkpt>
      <trkpt lat="41.5875" lon="-0.93187">
        <ele>276.2</ele>
        <time>2022-08-23 18:22:54</time>
      </trkpt>
      <trkpt lat="41.58747" lon="-0.93183">
        <ele>276.2</ele>
        <time>2022-08-23 18:22:55</time>
      </trkpt>
      <trkpt lat="41.58745" lon="-0.93181">
        <ele>276.2</ele>
        <time>2022-08-23 18:22:56</time>
      </trkpt>
      <trkpt lat="41.58742" lon="-0.93179">
        <ele>276.2</ele>
        <time>2022-08-23 18:22:57</time>
      </trkpt>
      <trkpt lat="41.58739" lon="-0.93176">
        <ele>276.2</ele>
        <time>2022-08-23 18:22:58</time>
      </trkpt>
      <trkpt lat="41.58737" lon="-0.93173">
        <ele>276.4</ele>
        <time>2022-08-23 18:22:59</time>
      </trkpt>
      <trkpt lat="41.58734" lon="-0.9317">
        <ele>276.4</ele>
        <time>2022-08-23 18:23:00</time>
      </trkpt>
      <trkpt lat="41.58732" lon="-0.93169">
        <ele>276.4</ele>
        <time>2022-08-23 18:23:01</time>
      </trkpt>
      <trkpt lat="41.58729" lon="-0.93167">
        <ele>276.4</ele>
        <time>2022-08-23 18:23:02</time>
      </trkpt>
      <trkpt lat="41.58727" lon="-0.93166">
        <ele>276.4</ele>
        <time>2022-08-23 18:23:03</time>
      </trkpt>
      <trkpt lat="41.58724" lon="-0.93164">
        <ele>276.4</ele>
        <time>2022-08-23 18:23:04</time>
      </trkpt>
      <trkpt lat="41.58721" lon="-0.9316">
        <ele>276.4</ele>
        <time>2022-08-23 18:23:05</time>
      </trkpt>
      <trkpt lat="41.58719" lon="-0.93155">
        <ele>276.4</ele>
        <time>2022-08-23 18:23:06</time>
      </trkpt>
      <trkpt lat="41.58716" lon="-0.93147">
        <ele>276.4</ele>
        <time>2022-08-23 18:23:07</time>
      </trkpt>
      <trkpt lat="41.58714" lon="-0.93137">
        <ele>276.4</ele>
        <time>2022-08-23 18:23:08</time>
      </trkpt>
      <trkpt lat="41.58712" lon="-0.93131">
        <ele>276.4</ele>
        <time>2022-08-23 18:23:09</time>
      </trkpt>
      <trkpt lat="41.5871" lon="-0.93126">
        <ele>276.4</ele>
        <time>2022-08-23 18:23:10</time>
      </trkpt>
      <trkpt lat="41.58709" lon="-0.93123">
        <ele>276.4</ele>
        <time>2022-08-23 18:23:11</time>
      </trkpt>
      <trkpt lat="41.58708" lon="-0.93121">
        <ele>276.4</ele>
        <time>2022-08-23 18:23:12</time>
      </trkpt>
      <trkpt lat="41.58706" lon="-0.93121">
        <ele>276.6</ele>
        <time>2022-08-23 18:23:13</time>
      </trkpt>
      <trkpt lat="41.58705" lon="-0.9312">
        <ele>276.6</ele>
        <time>2022-08-23 18:23:14</time>
      </trkpt>
      <trkpt lat="41.58702" lon="-0.9312">
        <ele>276.6</ele>
        <time>2022-08-23 18:23:15</time>
      </trkpt>
      <trkpt lat="41.587" lon="-0.9312">
        <ele>276.6</ele>
        <time>2022-08-23 18:23:16</time>
      </trkpt>
      <trkpt lat="41.58697" lon="-0.93121">
        <ele>276.6</ele>
        <time>2022-08-23 18:23:17</time>
      </trkpt>
      <trkpt lat="41.58695" lon="-0.93122">
        <ele>276.4</ele>
        <time>2022-08-23 18:23:18</time>
      </trkpt>
      <trkpt lat="41.58692" lon="-0.93123">
        <ele>276.4</ele>
        <time>2022-08-23 18:23:19</time>
      </trkpt>
      <trkpt lat="41.5869" lon="-0.93124">
        <ele>276.4</ele>
        <time>2022-08-23 18:23:20</time>
      </trkpt>
      <trkpt lat="41.58687" lon="-0.93125">
        <ele>276.2</ele>
        <time>2022-08-23 18:23:21</time>
      </trkpt>
      <trkpt lat="41.58685" lon="-0.93127">
        <ele>276.2</ele>
        <time>2022-08-23 18:23:22</time>
      </trkpt>
      <trkpt lat="41.58683" lon="-0.93128">
        <ele>276</ele>
        <time>2022-08-23 18:23:23</time>
      </trkpt>
      <trkpt lat="41.5868" lon="-0.9313">
        <ele>275.6</ele>
        <time>2022-08-23 18:23:24</time>
      </trkpt>
      <trkpt lat="41.58677" lon="-0.93132">
        <ele>275.2</ele>
        <time>2022-08-23 18:23:25</time>
      </trkpt>
      <trkpt lat="41.58675" lon="-0.93134">
        <ele>275</ele>
        <time>2022-08-23 18:23:26</time>
      </trkpt>
      <trkpt lat="41.58673" lon="-0.93137">
        <ele>274.8</ele>
        <time>2022-08-23 18:23:27</time>
      </trkpt>
      <trkpt lat="41.58671" lon="-0.93139">
        <ele>274.8</ele>
        <time>2022-08-23 18:23:28</time>
      </trkpt>
      <trkpt lat="41.58669" lon="-0.93142">
        <ele>274.6</ele>
        <time>2022-08-23 18:23:29</time>
      </trkpt>
      <trkpt lat="41.58666" lon="-0.93143">
        <ele>274.4</ele>
        <time>2022-08-23 18:23:30</time>
      </trkpt>
      <trkpt lat="41.58663" lon="-0.93144">
        <ele>274.2</ele>
        <time>2022-08-23 18:23:31</time>
      </trkpt>
      <trkpt lat="41.58661" lon="-0.93145">
        <ele>274</ele>
        <time>2022-08-23 18:23:32</time>
      </trkpt>
      <trkpt lat="41.58658" lon="-0.93147">
        <ele>273.6</ele>
        <time>2022-08-23 18:23:33</time>
      </trkpt>
      <trkpt lat="41.58655" lon="-0.93147">
        <ele>273.2</ele>
        <time>2022-08-23 18:23:34</time>
      </trkpt>
      <trkpt lat="41.58652" lon="-0.93148">
        <ele>273</ele>
        <time>2022-08-23 18:23:35</time>
      </trkpt>
      <trkpt lat="41.58649" lon="-0.93148">
        <ele>272.8</ele>
        <time>2022-08-23 18:23:36</time>
      </trkpt>
      <trkpt lat="41.58646" lon="-0.93148">
        <ele>272.6</ele>
        <time>2022-08-23 18:23:37</time>
      </trkpt>
      <trkpt lat="41.58643" lon="-0.93148">
        <ele>272.4</ele>
        <time>2022-08-23 18:23:38</time>
      </trkpt>
      <trkpt lat="41.5864" lon="-0.93148">
        <ele>272.2</ele>
        <time>2022-08-23 18:23:39</time>
      </trkpt>
      <trkpt lat="41.58637" lon="-0.93148">
        <ele>272</ele>
        <time>2022-08-23 18:23:40</time>
      </trkpt>
      <trkpt lat="41.58634" lon="-0.93148">
        <ele>272</ele>
        <time>2022-08-23 18:23:41</time>
      </trkpt>
      <trkpt lat="41.58632" lon="-0.93149">
        <ele>272</ele>
        <time>2022-08-23 18:23:42</time>
      </trkpt>
      <trkpt lat="41.58629" lon="-0.93149">
        <ele>271.8</ele>
        <time>2022-08-23 18:23:43</time>
      </trkpt>
      <trkpt lat="41.58626" lon="-0.93149">
        <ele>271.8</ele>
        <time>2022-08-23 18:23:44</time>
      </trkpt>
      <trkpt lat="41.58624" lon="-0.93149">
        <ele>271.6</ele>
        <time>2022-08-23 18:23:45</time>
      </trkpt>
      <trkpt lat="41.58621" lon="-0.9315">
        <ele>271.4</ele>
        <time>2022-08-23 18:23:46</time>
      </trkpt>
      <trkpt lat="41.58618" lon="-0.93151">
        <ele>271.2</ele>
        <time>2022-08-23 18:23:47</time>
      </trkpt>
      <trkpt lat="41.58615" lon="-0.93151">
        <ele>271.2</ele>
        <time>2022-08-23 18:23:48</time>
      </trkpt>
      <trkpt lat="41.58613" lon="-0.93152">
        <ele>271</ele>
        <time>2022-08-23 18:23:49</time>
      </trkpt>
      <trkpt lat="41.58609" lon="-0.93156">
        <ele>271</ele>
        <time>2022-08-23 18:23:50</time>
      </trkpt>
      <trkpt lat="41.58605" lon="-0.93159">
        <ele>271</ele>
        <time>2022-08-23 18:23:51</time>
      </trkpt>
      <trkpt lat="41.58603" lon="-0.9316">
        <ele>271</ele>
        <time>2022-08-23 18:23:52</time>
      </trkpt>
      <trkpt lat="41.586" lon="-0.93161">
        <ele>271</ele>
        <time>2022-08-23 18:23:53</time>
      </trkpt>
      <trkpt lat="41.58598" lon="-0.93162">
        <ele>271</ele>
        <time>2022-08-23 18:23:54</time>
      </trkpt>
      <trkpt lat="41.58596" lon="-0.93163">
        <ele>271</ele>
        <time>2022-08-23 18:23:55</time>
      </trkpt>
      <trkpt lat="41.58593" lon="-0.93164">
        <ele>271</ele>
        <time>2022-08-23 18:23:56</time>
      </trkpt>
      <trkpt lat="41.58591" lon="-0.93165">
        <ele>271</ele>
        <time>2022-08-23 18:23:57</time>
      </trkpt>
      <trkpt lat="41.58589" lon="-0.93167">
        <ele>271.2</ele>
        <time>2022-08-23 18:23:58</time>
      </trkpt>
      <trkpt lat="41.58586" lon="-0.93169">
        <ele>271.2</ele>
        <time>2022-08-23 18:23:59</time>
      </trkpt>
      <trkpt lat="41.58584" lon="-0.93171">
        <ele>271.2</ele>
        <time>2022-08-23 18:24:00</time>
      </trkpt>
      <trkpt lat="41.58582" lon="-0.93173">
        <ele>271.2</ele>
        <time>2022-08-23 18:24:01</time>
      </trkpt>
      <trkpt lat="41.58579" lon="-0.93175">
        <ele>271.2</ele>
        <time>2022-08-23 18:24:02</time>
      </trkpt>
      <trkpt lat="41.58578" lon="-0.93178">
        <ele>271.2</ele>
        <time>2022-08-23 18:24:03</time>
      </trkpt>
      <trkpt lat="41.58576" lon="-0.9318">
        <ele>271.2</ele>
        <time>2022-08-23 18:24:04</time>
      </trkpt>
      <trkpt lat="41.58573" lon="-0.93183">
        <ele>271.2</ele>
        <time>2022-08-23 18:24:05</time>
      </trkpt>
      <trkpt lat="41.58571" lon="-0.93184">
        <ele>271.2</ele>
        <time>2022-08-23 18:24:06</time>
      </trkpt>
      <trkpt lat="41.58569" lon="-0.93186">
        <ele>271.2</ele>
        <time>2022-08-23 18:24:07</time>
      </trkpt>
      <trkpt lat="41.58567" lon="-0.93187">
        <ele>271.2</ele>
        <time>2022-08-23 18:24:08</time>
      </trkpt>
      <trkpt lat="41.58564" lon="-0.93188">
        <ele>271.4</ele>
        <time>2022-08-23 18:24:09</time>
      </trkpt>
      <trkpt lat="41.58562" lon="-0.93189">
        <ele>271.4</ele>
        <time>2022-08-23 18:24:10</time>
      </trkpt>
      <trkpt lat="41.58559" lon="-0.93189">
        <ele>271.6</ele>
        <time>2022-08-23 18:24:11</time>
      </trkpt>
      <trkpt lat="41.58557" lon="-0.93189">
        <ele>271.8</ele>
        <time>2022-08-23 18:24:12</time>
      </trkpt>
      <trkpt lat="41.58555" lon="-0.93189">
        <ele>272</ele>
        <time>2022-08-23 18:24:13</time>
      </trkpt>
      <trkpt lat="41.58552" lon="-0.93189">
        <ele>272</ele>
        <time>2022-08-23 18:24:14</time>
      </trkpt>
      <trkpt lat="41.5855" lon="-0.93189">
        <ele>272.2</ele>
        <time>2022-08-23 18:24:15</time>
      </trkpt>
      <trkpt lat="41.58547" lon="-0.9319">
        <ele>272.2</ele>
        <time>2022-08-23 18:24:16</time>
      </trkpt>
      <trkpt lat="41.58545" lon="-0.93192">
        <ele>272.4</ele>
        <time>2022-08-23 18:24:17</time>
      </trkpt>
      <trkpt lat="41.58541" lon="-0.93198">
        <ele>272.6</ele>
        <time>2022-08-23 18:24:18</time>
      </trkpt>
      <trkpt lat="41.58537" lon="-0.93205">
        <ele>272.8</ele>
        <time>2022-08-23 18:24:19</time>
      </trkpt>
      <trkpt lat="41.58535" lon="-0.93206">
        <ele>273</ele>
        <time>2022-08-23 18:24:20</time>
      </trkpt>
      <trkpt lat="41.58533" lon="-0.93207">
        <ele>273.2</ele>
        <time>2022-08-23 18:24:21</time>
      </trkpt>
      <trkpt lat="41.58531" lon="-0.93208">
        <ele>273.4</ele>
        <time>2022-08-23 18:24:22</time>
      </trkpt>
      <trkpt lat="41.58529" lon="-0.93209">
        <ele>273.6</ele>
        <time>2022-08-23 18:24:23</time>
      </trkpt>
      <trkpt lat="41.58526" lon="-0.93216">
        <ele>273.6</ele>
        <time>2022-08-23 18:24:24</time>
      </trkpt>
      <trkpt lat="41.58523" lon="-0.93222">
        <ele>273.8</ele>
        <time>2022-08-23 18:24:25</time>
      </trkpt>
      <trkpt lat="41.5852" lon="-0.93228">
        <ele>274</ele>
        <time>2022-08-23 18:24:26</time>
      </trkpt>
      <trkpt lat="41.58517" lon="-0.93233">
        <ele>274</ele>
        <time>2022-08-23 18:24:27</time>
      </trkpt>
      <trkpt lat="41.58514" lon="-0.93238">
        <ele>274</ele>
        <time>2022-08-23 18:24:28</time>
      </trkpt>
      <trkpt lat="41.58511" lon="-0.93242">
        <ele>274</ele>
        <time>2022-08-23 18:24:29</time>
      </trkpt>
      <trkpt lat="41.58509" lon="-0.93243">
        <ele>274</ele>
        <time>2022-08-23 18:24:30</time>
      </trkpt>
      <trkpt lat="41.58507" lon="-0.93244">
        <ele>274.2</ele>
        <time>2022-08-23 18:24:31</time>
      </trkpt>
      <trkpt lat="41.58507" lon="-0.93241">
        <ele>274.4</ele>
        <time>2022-08-23 18:24:32</time>
      </trkpt>
      <trkpt lat="41.58505" lon="-0.9324">
        <ele>274.6</ele>
        <time>2022-08-23 18:24:33</time>
      </trkpt>
      <trkpt lat="41.58504" lon="-0.93241">
        <ele>274.6</ele>
        <time>2022-08-23 18:24:34</time>
      </trkpt>
      <trkpt lat="41.58502" lon="-0.93243">
        <ele>274.8</ele>
        <time>2022-08-23 18:24:35</time>
      </trkpt>
      <trkpt lat="41.585" lon="-0.93245">
        <ele>274.8</ele>
        <time>2022-08-23 18:24:36</time>
      </trkpt>
      <trkpt lat="41.58498" lon="-0.93246">
        <ele>275</ele>
        <time>2022-08-23 18:24:37</time>
      </trkpt>
      <trkpt lat="41.58496" lon="-0.93247">
        <ele>275</ele>
        <time>2022-08-23 18:24:38</time>
      </trkpt>
      <trkpt lat="41.58494" lon="-0.93249">
        <ele>275</ele>
        <time>2022-08-23 18:24:39</time>
      </trkpt>
      <trkpt lat="41.58492" lon="-0.93252">
        <ele>275</ele>
        <time>2022-08-23 18:24:40</time>
      </trkpt>
      <trkpt lat="41.5849" lon="-0.93254">
        <ele>275.2</ele>
        <time>2022-08-23 18:24:41</time>
      </trkpt>
      <trkpt lat="41.58488" lon="-0.93256">
        <ele>275.2</ele>
        <time>2022-08-23 18:24:42</time>
      </trkpt>
      <trkpt lat="41.58486" lon="-0.93257">
        <ele>275.2</ele>
        <time>2022-08-23 18:24:43</time>
      </trkpt>
      <trkpt lat="41.58483" lon="-0.9326">
        <ele>275.4</ele>
        <time>2022-08-23 18:24:44</time>
      </trkpt>
      <trkpt lat="41.5848" lon="-0.93262">
        <ele>275.4</ele>
        <time>2022-08-23 18:24:45</time>
      </trkpt>
      <trkpt lat="41.58479" lon="-0.93264">
        <ele>275.4</ele>
        <time>2022-08-23 18:24:46</time>
      </trkpt>
      <trkpt lat="41.58476" lon="-0.93267">
        <ele>275.4</ele>
        <time>2022-08-23 18:24:47</time>
      </trkpt>
      <trkpt lat="41.58474" lon="-0.93269">
        <ele>275.4</ele>
        <time>2022-08-23 18:24:48</time>
      </trkpt>
      <trkpt lat="41.58471" lon="-0.9327">
        <ele>275.4</ele>
        <time>2022-08-23 18:24:49</time>
      </trkpt>
      <trkpt lat="41.58469" lon="-0.93272">
        <ele>275.4</ele>
        <time>2022-08-23 18:24:50</time>
      </trkpt>
      <trkpt lat="41.58467" lon="-0.93274">
        <ele>275.4</ele>
        <time>2022-08-23 18:24:51</time>
      </trkpt>
      <trkpt lat="41.58465" lon="-0.93275">
        <ele>275.6</ele>
        <time>2022-08-23 18:24:52</time>
      </trkpt>
      <trkpt lat="41.58462" lon="-0.93277">
        <ele>275.6</ele>
        <time>2022-08-23 18:24:53</time>
      </trkpt>
      <trkpt lat="41.5846" lon="-0.93278">
        <ele>275.6</ele>
        <time>2022-08-23 18:24:54</time>
      </trkpt>
      <trkpt lat="41.58457" lon="-0.93279">
        <ele>275.8</ele>
        <time>2022-08-23 18:24:55</time>
      </trkpt>
      <trkpt lat="41.58455" lon="-0.9328">
        <ele>275.8</ele>
        <time>2022-08-23 18:24:56</time>
      </trkpt>
      <trkpt lat="41.58452" lon="-0.93281">
        <ele>275.8</ele>
        <time>2022-08-23 18:24:57</time>
      </trkpt>
      <trkpt lat="41.5845" lon="-0.93283">
        <ele>276</ele>
        <time>2022-08-23 18:24:58</time>
      </trkpt>
      <trkpt lat="41.58448" lon="-0.93284">
        <ele>276</ele>
        <time>2022-08-23 18:24:59</time>
      </trkpt>
      <trkpt lat="41.58445" lon="-0.93285">
        <ele>276</ele>
        <time>2022-08-23 18:25:00</time>
      </trkpt>
      <trkpt lat="41.58443" lon="-0.93286">
        <ele>276</ele>
        <time>2022-08-23 18:25:01</time>
      </trkpt>
      <trkpt lat="41.5844" lon="-0.93287">
        <ele>276</ele>
        <time>2022-08-23 18:25:02</time>
      </trkpt>
      <trkpt lat="41.58437" lon="-0.93287">
        <ele>276</ele>
        <time>2022-08-23 18:25:03</time>
      </trkpt>
      <trkpt lat="41.58435" lon="-0.93289">
        <ele>276.2</ele>
        <time>2022-08-23 18:25:04</time>
      </trkpt>
      <trkpt lat="41.58433" lon="-0.9329">
        <ele>276.2</ele>
        <time>2022-08-23 18:25:05</time>
      </trkpt>
      <trkpt lat="41.58431" lon="-0.93291">
        <ele>276.4</ele>
        <time>2022-08-23 18:25:06</time>
      </trkpt>
      <trkpt lat="41.58428" lon="-0.93292">
        <ele>276.4</ele>
        <time>2022-08-23 18:25:07</time>
      </trkpt>
      <trkpt lat="41.58425" lon="-0.93292">
        <ele>276.4</ele>
        <time>2022-08-23 18:25:08</time>
      </trkpt>
      <trkpt lat="41.58423" lon="-0.93293">
        <ele>276.6</ele>
        <time>2022-08-23 18:25:09</time>
      </trkpt>
      <trkpt lat="41.58421" lon="-0.93293">
        <ele>276.6</ele>
        <time>2022-08-23 18:25:10</time>
      </trkpt>
      <trkpt lat="41.58419" lon="-0.93295">
        <ele>276.6</ele>
        <time>2022-08-23 18:25:11</time>
      </trkpt>
      <trkpt lat="41.58416" lon="-0.93295">
        <ele>276.6</ele>
        <time>2022-08-23 18:25:12</time>
      </trkpt>
      <trkpt lat="41.58415" lon="-0.93297">
        <ele>276.6</ele>
        <time>2022-08-23 18:25:13</time>
      </trkpt>
      <trkpt lat="41.58414" lon="-0.93299">
        <ele>276.6</ele>
        <time>2022-08-23 18:25:14</time>
      </trkpt>
      <trkpt lat="41.58412" lon="-0.933">
        <ele>276.8</ele>
        <time>2022-08-23 18:25:15</time>
      </trkpt>
      <trkpt lat="41.58409" lon="-0.93301">
        <ele>276.8</ele>
        <time>2022-08-23 18:25:16</time>
      </trkpt>
      <trkpt lat="41.58407" lon="-0.93303">
        <ele>276.8</ele>
        <time>2022-08-23 18:25:17</time>
      </trkpt>
      <trkpt lat="41.58405" lon="-0.93303">
        <ele>276.8</ele>
        <time>2022-08-23 18:25:18</time>
      </trkpt>
      <trkpt lat="41.58402" lon="-0.93304">
        <ele>277</ele>
        <time>2022-08-23 18:25:19</time>
      </trkpt>
      <trkpt lat="41.584" lon="-0.93305">
        <ele>277</ele>
        <time>2022-08-23 18:25:20</time>
      </trkpt>
      <trkpt lat="41.58398" lon="-0.93307">
        <ele>277</ele>
        <time>2022-08-23 18:25:21</time>
      </trkpt>
      <trkpt lat="41.58395" lon="-0.93308">
        <ele>277</ele>
        <time>2022-08-23 18:25:22</time>
      </trkpt>
      <trkpt lat="41.58393" lon="-0.93309">
        <ele>277.2</ele>
        <time>2022-08-23 18:25:23</time>
      </trkpt>
      <trkpt lat="41.58391" lon="-0.93311">
        <ele>277.2</ele>
        <time>2022-08-23 18:25:24</time>
      </trkpt>
      <trkpt lat="41.58389" lon="-0.93313">
        <ele>277.2</ele>
        <time>2022-08-23 18:25:25</time>
      </trkpt>
      <trkpt lat="41.58387" lon="-0.93315">
        <ele>277.4</ele>
        <time>2022-08-23 18:25:26</time>
      </trkpt>
      <trkpt lat="41.58385" lon="-0.93317">
        <ele>277.4</ele>
        <time>2022-08-23 18:25:27</time>
      </trkpt>
      <trkpt lat="41.58382" lon="-0.93319">
        <ele>277.4</ele>
        <time>2022-08-23 18:25:28</time>
      </trkpt>
      <trkpt lat="41.58381" lon="-0.93321">
        <ele>277.4</ele>
        <time>2022-08-23 18:25:29</time>
      </trkpt>
      <trkpt lat="41.58379" lon="-0.93323">
        <ele>277.6</ele>
        <time>2022-08-23 18:25:30</time>
      </trkpt>
      <trkpt lat="41.58376" lon="-0.93325">
        <ele>277.6</ele>
        <time>2022-08-23 18:25:31</time>
      </trkpt>
      <trkpt lat="41.58375" lon="-0.93328">
        <ele>277.8</ele>
        <time>2022-08-23 18:25:32</time>
      </trkpt>
      <trkpt lat="41.58372" lon="-0.9333">
        <ele>277.8</ele>
        <time>2022-08-23 18:25:33</time>
      </trkpt>
      <trkpt lat="41.5837" lon="-0.93332">
        <ele>278</ele>
        <time>2022-08-23 18:25:34</time>
      </trkpt>
      <trkpt lat="41.58368" lon="-0.93334">
        <ele>278.2</ele>
        <time>2022-08-23 18:25:35</time>
      </trkpt>
      <trkpt lat="41.58365" lon="-0.93336">
        <ele>278.2</ele>
        <time>2022-08-23 18:25:36</time>
      </trkpt>
      <trkpt lat="41.58363" lon="-0.93338">
        <ele>278.4</ele>
        <time>2022-08-23 18:25:37</time>
      </trkpt>
      <trkpt lat="41.58361" lon="-0.93339">
        <ele>278.6</ele>
        <time>2022-08-23 18:25:38</time>
      </trkpt>
      <trkpt lat="41.58358" lon="-0.93341">
        <ele>278.6</ele>
        <time>2022-08-23 18:25:39</time>
      </trkpt>
      <trkpt lat="41.58355" lon="-0.93342">
        <ele>278.6</ele>
        <time>2022-08-23 18:25:40</time>
      </trkpt>
      <trkpt lat="41.58353" lon="-0.93344">
        <ele>278.6</ele>
        <time>2022-08-23 18:25:41</time>
      </trkpt>
      <trkpt lat="41.5835" lon="-0.93345">
        <ele>278.6</ele>
        <time>2022-08-23 18:25:42</time>
      </trkpt>
      <trkpt lat="41.58348" lon="-0.93346">
        <ele>278.6</ele>
        <time>2022-08-23 18:25:43</time>
      </trkpt>
      <trkpt lat="41.58345" lon="-0.93347">
        <ele>278.8</ele>
        <time>2022-08-23 18:25:44</time>
      </trkpt>
      <trkpt lat="41.58342" lon="-0.93349">
        <ele>278.8</ele>
        <time>2022-08-23 18:25:45</time>
      </trkpt>
      <trkpt lat="41.5834" lon="-0.9335">
        <ele>278.8</ele>
        <time>2022-08-23 18:25:46</time>
      </trkpt>
      <trkpt lat="41.58337" lon="-0.93352">
        <ele>278.8</ele>
        <time>2022-08-23 18:25:47</time>
      </trkpt>
      <trkpt lat="41.58335" lon="-0.93353">
        <ele>279</ele>
        <time>2022-08-23 18:25:48</time>
      </trkpt>
      <trkpt lat="41.58332" lon="-0.93354">
        <ele>279</ele>
        <time>2022-08-23 18:25:49</time>
      </trkpt>
      <trkpt lat="41.5833" lon="-0.93355">
        <ele>279</ele>
        <time>2022-08-23 18:25:50</time>
      </trkpt>
      <trkpt lat="41.58327" lon="-0.93357">
        <ele>279</ele>
        <time>2022-08-23 18:25:51</time>
      </trkpt>
      <trkpt lat="41.58325" lon="-0.93358">
        <ele>279</ele>
        <time>2022-08-23 18:25:52</time>
      </trkpt>
      <trkpt lat="41.58322" lon="-0.93359">
        <ele>279.2</ele>
        <time>2022-08-23 18:25:53</time>
      </trkpt>
      <trkpt lat="41.5832" lon="-0.9336">
        <ele>279.4</ele>
        <time>2022-08-23 18:25:54</time>
      </trkpt>
      <trkpt lat="41.58317" lon="-0.93361">
        <ele>279.4</ele>
        <time>2022-08-23 18:25:55</time>
      </trkpt>
      <trkpt lat="41.58316" lon="-0.93363">
        <ele>279.6</ele>
        <time>2022-08-23 18:25:56</time>
      </trkpt>
      <trkpt lat="41.58314" lon="-0.93364">
        <ele>279.8</ele>
        <time>2022-08-23 18:25:57</time>
      </trkpt>
      <trkpt lat="41.58312" lon="-0.93366">
        <ele>279.8</ele>
        <time>2022-08-23 18:25:58</time>
      </trkpt>
      <trkpt lat="41.58309" lon="-0.93367">
        <ele>279.8</ele>
        <time>2022-08-23 18:25:59</time>
      </trkpt>
      <trkpt lat="41.58307" lon="-0.93369">
        <ele>280</ele>
        <time>2022-08-23 18:26:00</time>
      </trkpt>
      <trkpt lat="41.58305" lon="-0.9337">
        <ele>280</ele>
        <time>2022-08-23 18:26:01</time>
      </trkpt>
      <trkpt lat="41.58303" lon="-0.93372">
        <ele>280.2</ele>
        <time>2022-08-23 18:26:02</time>
      </trkpt>
      <trkpt lat="41.583" lon="-0.93373">
        <ele>280.2</ele>
        <time>2022-08-23 18:26:03</time>
      </trkpt>
      <trkpt lat="41.58298" lon="-0.93374">
        <ele>280.4</ele>
        <time>2022-08-23 18:26:04</time>
      </trkpt>
      <trkpt lat="41.58295" lon="-0.93376">
        <ele>280.6</ele>
        <time>2022-08-23 18:26:05</time>
      </trkpt>
      <trkpt lat="41.58293" lon="-0.93377">
        <ele>280.6</ele>
        <time>2022-08-23 18:26:06</time>
      </trkpt>
      <trkpt lat="41.58291" lon="-0.93379">
        <ele>280.8</ele>
        <time>2022-08-23 18:26:07</time>
      </trkpt>
      <trkpt lat="41.58288" lon="-0.9338">
        <ele>281</ele>
        <time>2022-08-23 18:26:08</time>
      </trkpt>
      <trkpt lat="41.58286" lon="-0.93382">
        <ele>281</ele>
        <time>2022-08-23 18:26:09</time>
      </trkpt>
      <trkpt lat="41.58284" lon="-0.93384">
        <ele>281.2</ele>
        <time>2022-08-23 18:26:10</time>
      </trkpt>
      <trkpt lat="41.58281" lon="-0.93386">
        <ele>281.2</ele>
        <time>2022-08-23 18:26:11</time>
      </trkpt>
      <trkpt lat="41.58279" lon="-0.93388">
        <ele>281.4</ele>
        <time>2022-08-23 18:26:12</time>
      </trkpt>
      <trkpt lat="41.58277" lon="-0.93389">
        <ele>281.4</ele>
        <time>2022-08-23 18:26:13</time>
      </trkpt>
      <trkpt lat="41.58275" lon="-0.93391">
        <ele>281.6</ele>
        <time>2022-08-23 18:26:14</time>
      </trkpt>
      <trkpt lat="41.58273" lon="-0.93393">
        <ele>281.6</ele>
        <time>2022-08-23 18:26:15</time>
      </trkpt>
      <trkpt lat="41.58271" lon="-0.93394">
        <ele>281.8</ele>
        <time>2022-08-23 18:26:16</time>
      </trkpt>
      <trkpt lat="41.58269" lon="-0.93396">
        <ele>281.8</ele>
        <time>2022-08-23 18:26:17</time>
      </trkpt>
      <trkpt lat="41.58267" lon="-0.93398">
        <ele>282</ele>
        <time>2022-08-23 18:26:18</time>
      </trkpt>
      <trkpt lat="41.58265" lon="-0.934">
        <ele>282.2</ele>
        <time>2022-08-23 18:26:19</time>
      </trkpt>
      <trkpt lat="41.58263" lon="-0.93402">
        <ele>282.2</ele>
        <time>2022-08-23 18:26:20</time>
      </trkpt>
      <trkpt lat="41.58261" lon="-0.93404">
        <ele>282.4</ele>
        <time>2022-08-23 18:26:21</time>
      </trkpt>
      <trkpt lat="41.58259" lon="-0.93405">
        <ele>282.4</ele>
        <time>2022-08-23 18:26:22</time>
      </trkpt>
      <trkpt lat="41.58257" lon="-0.93407">
        <ele>282.6</ele>
        <time>2022-08-23 18:26:23</time>
      </trkpt>
      <trkpt lat="41.58255" lon="-0.93408">
        <ele>282.6</ele>
        <time>2022-08-23 18:26:24</time>
      </trkpt>
      <trkpt lat="41.58252" lon="-0.9341">
        <ele>282.6</ele>
        <time>2022-08-23 18:26:25</time>
      </trkpt>
      <trkpt lat="41.5825" lon="-0.93412">
        <ele>282.6</ele>
        <time>2022-08-23 18:26:26</time>
      </trkpt>
      <trkpt lat="41.58248" lon="-0.93413">
        <ele>282.8</ele>
        <time>2022-08-23 18:26:27</time>
      </trkpt>
      <trkpt lat="41.58245" lon="-0.93414">
        <ele>283</ele>
        <time>2022-08-23 18:26:28</time>
      </trkpt>
      <trkpt lat="41.58243" lon="-0.93416">
        <ele>283</ele>
        <time>2022-08-23 18:26:29</time>
      </trkpt>
      <trkpt lat="41.5824" lon="-0.93417">
        <ele>283</ele>
        <time>2022-08-23 18:26:30</time>
      </trkpt>
      <trkpt lat="41.58238" lon="-0.93418">
        <ele>283.2</ele>
        <time>2022-08-23 18:26:31</time>
      </trkpt>
      <trkpt lat="41.58235" lon="-0.93419">
        <ele>283.2</ele>
        <time>2022-08-23 18:26:32</time>
      </trkpt>
      <trkpt lat="41.58234" lon="-0.93421">
        <ele>283.2</ele>
        <time>2022-08-23 18:26:33</time>
      </trkpt>
      <trkpt lat="41.58232" lon="-0.93422">
        <ele>283.2</ele>
        <time>2022-08-23 18:26:34</time>
      </trkpt>
      <trkpt lat="41.5823" lon="-0.93424">
        <ele>283.2</ele>
        <time>2022-08-23 18:26:35</time>
      </trkpt>
      <trkpt lat="41.58228" lon="-0.93425">
        <ele>283.2</ele>
        <time>2022-08-23 18:26:36</time>
      </trkpt>
      <trkpt lat="41.58226" lon="-0.93427">
        <ele>283.2</ele>
        <time>2022-08-23 18:26:37</time>
      </trkpt>
      <trkpt lat="41.58223" lon="-0.93429">
        <ele>283.2</ele>
        <time>2022-08-23 18:26:38</time>
      </trkpt>
      <trkpt lat="41.58221" lon="-0.93431">
        <ele>283.2</ele>
        <time>2022-08-23 18:26:39</time>
      </trkpt>
      <trkpt lat="41.58218" lon="-0.93432">
        <ele>283.4</ele>
        <time>2022-08-23 18:26:40</time>
      </trkpt>
      <trkpt lat="41.58216" lon="-0.93434">
        <ele>283.4</ele>
        <time>2022-08-23 18:26:41</time>
      </trkpt>
      <trkpt lat="41.58214" lon="-0.93435">
        <ele>283.6</ele>
        <time>2022-08-23 18:26:42</time>
      </trkpt>
      <trkpt lat="41.58212" lon="-0.93437">
        <ele>283.6</ele>
        <time>2022-08-23 18:26:43</time>
      </trkpt>
      <trkpt lat="41.5821" lon="-0.93438">
        <ele>283.8</ele>
        <time>2022-08-23 18:26:44</time>
      </trkpt>
      <trkpt lat="41.58207" lon="-0.9344">
        <ele>283.8</ele>
        <time>2022-08-23 18:26:45</time>
      </trkpt>
      <trkpt lat="41.58205" lon="-0.93442">
        <ele>284</ele>
        <time>2022-08-23 18:26:46</time>
      </trkpt>
      <trkpt lat="41.58203" lon="-0.93444">
        <ele>284</ele>
        <time>2022-08-23 18:26:47</time>
      </trkpt>
      <trkpt lat="41.58201" lon="-0.93446">
        <ele>284</ele>
        <time>2022-08-23 18:26:48</time>
      </trkpt>
      <trkpt lat="41.58198" lon="-0.93448">
        <ele>284</ele>
        <time>2022-08-23 18:26:49</time>
      </trkpt>
      <trkpt lat="41.58196" lon="-0.9345">
        <ele>284</ele>
        <time>2022-08-23 18:26:50</time>
      </trkpt>
      <trkpt lat="41.58194" lon="-0.93451">
        <ele>283.8</ele>
        <time>2022-08-23 18:26:51</time>
      </trkpt>
      <trkpt lat="41.58191" lon="-0.93453">
        <ele>283.8</ele>
        <time>2022-08-23 18:26:52</time>
      </trkpt>
      <trkpt lat="41.58189" lon="-0.93454">
        <ele>283.8</ele>
        <time>2022-08-23 18:26:53</time>
      </trkpt>
      <trkpt lat="41.58187" lon="-0.93456">
        <ele>283.8</ele>
        <time>2022-08-23 18:26:54</time>
      </trkpt>
      <trkpt lat="41.58184" lon="-0.93457">
        <ele>283.8</ele>
        <time>2022-08-23 18:26:55</time>
      </trkpt>
      <trkpt lat="41.58182" lon="-0.93459">
        <ele>284</ele>
        <time>2022-08-23 18:26:56</time>
      </trkpt>
      <trkpt lat="41.58179" lon="-0.9346">
        <ele>284</ele>
        <time>2022-08-23 18:26:57</time>
      </trkpt>
      <trkpt lat="41.58177" lon="-0.93461">
        <ele>284.2</ele>
        <time>2022-08-23 18:26:58</time>
      </trkpt>
      <trkpt lat="41.58175" lon="-0.93462">
        <ele>284.4</ele>
        <time>2022-08-23 18:26:59</time>
      </trkpt>
      <trkpt lat="41.58173" lon="-0.93464">
        <ele>284.4</ele>
        <time>2022-08-23 18:27:00</time>
      </trkpt>
      <trkpt lat="41.5817" lon="-0.93465">
        <ele>284.4</ele>
        <time>2022-08-23 18:27:01</time>
      </trkpt>
      <trkpt lat="41.58168" lon="-0.93467">
        <ele>284.4</ele>
        <time>2022-08-23 18:27:02</time>
      </trkpt>
      <trkpt lat="41.58166" lon="-0.93468">
        <ele>284.6</ele>
        <time>2022-08-23 18:27:03</time>
      </trkpt>
      <trkpt lat="41.58164" lon="-0.93469">
        <ele>284.6</ele>
        <time>2022-08-23 18:27:04</time>
      </trkpt>
      <trkpt lat="41.58161" lon="-0.9347">
        <ele>284.6</ele>
        <time>2022-08-23 18:27:05</time>
      </trkpt>
      <trkpt lat="41.58159" lon="-0.93471">
        <ele>284.6</ele>
        <time>2022-08-23 18:27:06</time>
      </trkpt>
      <trkpt lat="41.58156" lon="-0.93472">
        <ele>284.6</ele>
        <time>2022-08-23 18:27:07</time>
      </trkpt>
      <trkpt lat="41.58155" lon="-0.93473">
        <ele>284.8</ele>
        <time>2022-08-23 18:27:08</time>
      </trkpt>
      <trkpt lat="41.58152" lon="-0.93474">
        <ele>284.8</ele>
        <time>2022-08-23 18:27:09</time>
      </trkpt>
      <trkpt lat="41.5815" lon="-0.93475">
        <ele>284.8</ele>
        <time>2022-08-23 18:27:10</time>
      </trkpt>
      <trkpt lat="41.58148" lon="-0.93476">
        <ele>284.8</ele>
        <time>2022-08-23 18:27:11</time>
      </trkpt>
      <trkpt lat="41.58145" lon="-0.93477">
        <ele>284.8</ele>
        <time>2022-08-23 18:27:12</time>
      </trkpt>
      <trkpt lat="41.58143" lon="-0.93478">
        <ele>285</ele>
        <time>2022-08-23 18:27:13</time>
      </trkpt>
      <trkpt lat="41.58141" lon="-0.93479">
        <ele>285.2</ele>
        <time>2022-08-23 18:27:14</time>
      </trkpt>
      <trkpt lat="41.58139" lon="-0.9348">
        <ele>285.2</ele>
        <time>2022-08-23 18:27:15</time>
      </trkpt>
      <trkpt lat="41.58137" lon="-0.93482">
        <ele>285.4</ele>
        <time>2022-08-23 18:27:16</time>
      </trkpt>
      <trkpt lat="41.58138" lon="-0.93485">
        <ele>285.4</ele>
        <time>2022-08-23 18:27:17</time>
      </trkpt>
      <trkpt lat="41.5814" lon="-0.93486">
        <ele>285.6</ele>
        <time>2022-08-23 18:27:18</time>
      </trkpt>
      <trkpt lat="41.58142" lon="-0.93487">
        <ele>285.6</ele>
        <time>2022-08-23 18:27:19</time>
      </trkpt>
      <trkpt lat="41.58145" lon="-0.93487">
        <ele>285.6</ele>
        <time>2022-08-23 18:27:20</time>
      </trkpt>
      <trkpt lat="41.58147" lon="-0.93487">
        <ele>285.6</ele>
        <time>2022-08-23 18:27:21</time>
      </trkpt>
      <trkpt lat="41.5815" lon="-0.93486">
        <ele>285.4</ele>
        <time>2022-08-23 18:27:22</time>
      </trkpt>
      <trkpt lat="41.58153" lon="-0.93486">
        <ele>285.2</ele>
        <time>2022-08-23 18:27:23</time>
      </trkpt>
      <trkpt lat="41.58156" lon="-0.93485">
        <ele>285</ele>
        <time>2022-08-23 18:27:24</time>
      </trkpt>
      <trkpt lat="41.58159" lon="-0.93484">
        <ele>285</ele>
        <time>2022-08-23 18:27:25</time>
      </trkpt>
      <trkpt lat="41.58162" lon="-0.93483">
        <ele>285</ele>
        <time>2022-08-23 18:27:26</time>
      </trkpt>
      <trkpt lat="41.58165" lon="-0.93482">
        <ele>285</ele>
        <time>2022-08-23 18:27:27</time>
      </trkpt>
      <trkpt lat="41.58168" lon="-0.93481">
        <ele>285</ele>
        <time>2022-08-23 18:27:28</time>
      </trkpt>
      <trkpt lat="41.58171" lon="-0.93479">
        <ele>285</ele>
        <time>2022-08-23 18:27:29</time>
      </trkpt>
      <trkpt lat="41.58173" lon="-0.93478">
        <ele>285</ele>
        <time>2022-08-23 18:27:30</time>
      </trkpt>
      <trkpt lat="41.58176" lon="-0.93477">
        <ele>285</ele>
        <time>2022-08-23 18:27:31</time>
      </trkpt>
      <trkpt lat="41.58179" lon="-0.93476">
        <ele>284.8</ele>
        <time>2022-08-23 18:27:32</time>
      </trkpt>
      <trkpt lat="41.58182" lon="-0.93475">
        <ele>284.8</ele>
        <time>2022-08-23 18:27:33</time>
      </trkpt>
      <trkpt lat="41.58185" lon="-0.93474">
        <ele>284.6</ele>
        <time>2022-08-23 18:27:34</time>
      </trkpt>
      <trkpt lat="41.58188" lon="-0.93473">
        <ele>284.6</ele>
        <time>2022-08-23 18:27:35</time>
      </trkpt>
      <trkpt lat="41.58191" lon="-0.93473">
        <ele>284.6</ele>
        <time>2022-08-23 18:27:36</time>
      </trkpt>
      <trkpt lat="41.58194" lon="-0.93472">
        <ele>284.4</ele>
        <time>2022-08-23 18:27:37</time>
      </trkpt>
      <trkpt lat="41.58197" lon="-0.93471">
        <ele>284.2</ele>
        <time>2022-08-23 18:27:38</time>
      </trkpt>
      <trkpt lat="41.58199" lon="-0.9347">
        <ele>284.2</ele>
        <time>2022-08-23 18:27:39</time>
      </trkpt>
      <trkpt lat="41.58202" lon="-0.93469">
        <ele>284</ele>
        <time>2022-08-23 18:27:40</time>
      </trkpt>
      <trkpt lat="41.58204" lon="-0.93468">
        <ele>284</ele>
        <time>2022-08-23 18:27:41</time>
      </trkpt>
      <trkpt lat="41.58206" lon="-0.93465">
        <ele>284</ele>
        <time>2022-08-23 18:27:42</time>
      </trkpt>
      <trkpt lat="41.58206" lon="-0.93463">
        <ele>284</ele>
        <time>2022-08-23 18:27:43</time>
      </trkpt>
      <trkpt lat="41.58205" lon="-0.93462">
        <ele>284</ele>
        <time>2022-08-23 18:27:44</time>
      </trkpt>
      <trkpt lat="41.58204" lon="-0.93462">
        <ele>284</ele>
        <time>2022-08-23 18:27:45</time>
      </trkpt>
      <trkpt lat="41.58201" lon="-0.93463">
        <ele>284</ele>
        <time>2022-08-23 18:27:46</time>
      </trkpt>
      <trkpt lat="41.582" lon="-0.93465">
        <ele>284</ele>
        <time>2022-08-23 18:27:47</time>
      </trkpt>
      <trkpt lat="41.58198" lon="-0.93467">
        <ele>284</ele>
        <time>2022-08-23 18:27:48</time>
      </trkpt>
      <trkpt lat="41.58196" lon="-0.93469">
        <ele>284</ele>
        <time>2022-08-23 18:27:49</time>
      </trkpt>
      <trkpt lat="41.58193" lon="-0.9347">
        <ele>284</ele>
        <time>2022-08-23 18:27:50</time>
      </trkpt>
      <trkpt lat="41.58191" lon="-0.93471">
        <ele>284.2</ele>
        <time>2022-08-23 18:27:51</time>
      </trkpt>
      <trkpt lat="41.58189" lon="-0.93472">
        <ele>284.4</ele>
        <time>2022-08-23 18:27:52</time>
      </trkpt>
      <trkpt lat="41.58187" lon="-0.93474">
        <ele>284.6</ele>
        <time>2022-08-23 18:27:53</time>
      </trkpt>
      <trkpt lat="41.58185" lon="-0.93475">
        <ele>284.8</ele>
        <time>2022-08-23 18:27:54</time>
      </trkpt>
      <trkpt lat="41.58183" lon="-0.93476">
        <ele>284.6</ele>
        <time>2022-08-23 18:27:55</time>
      </trkpt>
      <trkpt lat="41.5818" lon="-0.93477">
        <ele>284.4</ele>
        <time>2022-08-23 18:27:56</time>
      </trkpt>
      <trkpt lat="41.58178" lon="-0.93477">
        <ele>284.6</ele>
        <time>2022-08-23 18:27:57</time>
      </trkpt>
      <trkpt lat="41.58176" lon="-0.93478">
        <ele>284.6</ele>
        <time>2022-08-23 18:27:58</time>
      </trkpt>
      <trkpt lat="41.58174" lon="-0.93479">
        <ele>284.6</ele>
        <time>2022-08-23 18:27:59</time>
      </trkpt>
      <trkpt lat="41.58172" lon="-0.9348">
        <ele>284.6</ele>
        <time>2022-08-23 18:28:00</time>
      </trkpt>
      <trkpt lat="41.5817" lon="-0.93482">
        <ele>284.6</ele>
        <time>2022-08-23 18:28:01</time>
      </trkpt>
      <trkpt lat="41.58168" lon="-0.93483">
        <ele>284.6</ele>
        <time>2022-08-23 18:28:02</time>
      </trkpt>
      <trkpt lat="41.58165" lon="-0.93484">
        <ele>284.6</ele>
        <time>2022-08-23 18:28:03</time>
      </trkpt>
      <trkpt lat="41.58163" lon="-0.93485">
        <ele>284.6</ele>
        <time>2022-08-23 18:28:04</time>
      </trkpt>
      <trkpt lat="41.58161" lon="-0.93486">
        <ele>284.8</ele>
        <time>2022-08-23 18:28:05</time>
      </trkpt>
      <trkpt lat="41.58159" lon="-0.93486">
        <ele>284.8</ele>
        <time>2022-08-23 18:28:06</time>
      </trkpt>
      <trkpt lat="41.58157" lon="-0.93487">
        <ele>285</ele>
        <time>2022-08-23 18:28:07</time>
      </trkpt>
      <trkpt lat="41.58154" lon="-0.93488">
        <ele>285</ele>
        <time>2022-08-23 18:28:08</time>
      </trkpt>
      <trkpt lat="41.58152" lon="-0.93489">
        <ele>285.2</ele>
        <time>2022-08-23 18:28:09</time>
      </trkpt>
      <trkpt lat="41.5815" lon="-0.9349">
        <ele>285.2</ele>
        <time>2022-08-23 18:28:10</time>
      </trkpt>
      <trkpt lat="41.58148" lon="-0.9349">
        <ele>285.4</ele>
        <time>2022-08-23 18:28:11</time>
      </trkpt>
      <trkpt lat="41.58145" lon="-0.93491">
        <ele>285.4</ele>
        <time>2022-08-23 18:28:12</time>
      </trkpt>
      <trkpt lat="41.58143" lon="-0.93492">
        <ele>285.6</ele>
        <time>2022-08-23 18:28:13</time>
      </trkpt>
      <trkpt lat="41.58141" lon="-0.93492">
        <ele>285.6</ele>
        <time>2022-08-23 18:28:14</time>
      </trkpt>
      <trkpt lat="41.58139" lon="-0.93493">
        <ele>285.8</ele>
        <time>2022-08-23 18:28:15</time>
      </trkpt>
      <trkpt lat="41.58137" lon="-0.93493">
        <ele>285.8</ele>
        <time>2022-08-23 18:28:16</time>
      </trkpt>
      <trkpt lat="41.58136" lon="-0.93493">
        <ele>286</ele>
        <time>2022-08-23 18:28:17</time>
      </trkpt>
      <trkpt lat="41.58134" lon="-0.93494">
        <ele>286</ele>
        <time>2022-08-23 18:28:18</time>
      </trkpt>
      <trkpt lat="41.58132" lon="-0.93495">
        <ele>286</ele>
        <time>2022-08-23 18:28:19</time>
      </trkpt>
      <trkpt lat="41.5813" lon="-0.93496">
        <ele>286</ele>
        <time>2022-08-23 18:28:20</time>
      </trkpt>
      <trkpt lat="41.58128" lon="-0.93497">
        <ele>286</ele>
        <time>2022-08-23 18:28:21</time>
      </trkpt>
      <trkpt lat="41.58126" lon="-0.93499">
        <ele>286</ele>
        <time>2022-08-23 18:28:22</time>
      </trkpt>
      <trkpt lat="41.58123" lon="-0.93501">
        <ele>286</ele>
        <time>2022-08-23 18:28:23</time>
      </trkpt>
      <trkpt lat="41.58121" lon="-0.93503">
        <ele>286</ele>
        <time>2022-08-23 18:28:24</time>
      </trkpt>
      <trkpt lat="41.58119" lon="-0.93505">
        <ele>286</ele>
        <time>2022-08-23 18:28:25</time>
      </trkpt>
      <trkpt lat="41.58116" lon="-0.93507">
        <ele>285.8</ele>
        <time>2022-08-23 18:28:26</time>
      </trkpt>
      <trkpt lat="41.58114" lon="-0.93509">
        <ele>285.8</ele>
        <time>2022-08-23 18:28:27</time>
      </trkpt>
      <trkpt lat="41.58112" lon="-0.9351">
        <ele>285.4</ele>
        <time>2022-08-23 18:28:28</time>
      </trkpt>
      <trkpt lat="41.58109" lon="-0.93512">
        <ele>285.4</ele>
        <time>2022-08-23 18:28:29</time>
      </trkpt>
      <trkpt lat="41.58107" lon="-0.93513">
        <ele>285.2</ele>
        <time>2022-08-23 18:28:30</time>
      </trkpt>
      <trkpt lat="41.58105" lon="-0.93515">
        <ele>285.2</ele>
        <time>2022-08-23 18:28:31</time>
      </trkpt>
      <trkpt lat="41.58102" lon="-0.93516">
        <ele>285.2</ele>
        <time>2022-08-23 18:28:32</time>
      </trkpt>
      <trkpt lat="41.581" lon="-0.93518">
        <ele>285.2</ele>
        <time>2022-08-23 18:28:33</time>
      </trkpt>
      <trkpt lat="41.58097" lon="-0.93519">
        <ele>285.4</ele>
        <time>2022-08-23 18:28:34</time>
      </trkpt>
      <trkpt lat="41.58095" lon="-0.9352">
        <ele>285.4</ele>
        <time>2022-08-23 18:28:35</time>
      </trkpt>
      <trkpt lat="41.58093" lon="-0.93522">
        <ele>285.4</ele>
        <time>2022-08-23 18:28:36</time>
      </trkpt>
      <trkpt lat="41.58091" lon="-0.93523">
        <ele>285.4</ele>
        <time>2022-08-23 18:28:37</time>
      </trkpt>
      <trkpt lat="41.58088" lon="-0.93525">
        <ele>285.4</ele>
        <time>2022-08-23 18:28:38</time>
      </trkpt>
      <trkpt lat="41.58086" lon="-0.93526">
        <ele>285.4</ele>
        <time>2022-08-23 18:28:39</time>
      </trkpt>
      <trkpt lat="41.58084" lon="-0.93527">
        <ele>285.4</ele>
        <time>2022-08-23 18:28:40</time>
      </trkpt>
      <trkpt lat="41.58081" lon="-0.93527">
        <ele>285.2</ele>
        <time>2022-08-23 18:28:41</time>
      </trkpt>
      <trkpt lat="41.58079" lon="-0.93528">
        <ele>285.2</ele>
        <time>2022-08-23 18:28:42</time>
      </trkpt>
      <trkpt lat="41.58077" lon="-0.93529">
        <ele>285.2</ele>
        <time>2022-08-23 18:28:43</time>
      </trkpt>
      <trkpt lat="41.58074" lon="-0.93529">
        <ele>285.2</ele>
        <time>2022-08-23 18:28:44</time>
      </trkpt>
      <trkpt lat="41.58071" lon="-0.9353">
        <ele>285.4</ele>
        <time>2022-08-23 18:28:45</time>
      </trkpt>
      <trkpt lat="41.58069" lon="-0.9353">
        <ele>285.6</ele>
        <time>2022-08-23 18:28:46</time>
      </trkpt>
      <trkpt lat="41.58067" lon="-0.93529">
        <ele>285.6</ele>
        <time>2022-08-23 18:28:47</time>
      </trkpt>
      <trkpt lat="41.58065" lon="-0.93529">
        <ele>285.8</ele>
        <time>2022-08-23 18:28:48</time>
      </trkpt>
      <trkpt lat="41.58062" lon="-0.93528">
        <ele>285.8</ele>
        <time>2022-08-23 18:28:49</time>
      </trkpt>
      <trkpt lat="41.5806" lon="-0.93527">
        <ele>285.8</ele>
        <time>2022-08-23 18:28:50</time>
      </trkpt>
      <trkpt lat="41.58058" lon="-0.93526">
        <ele>285.8</ele>
        <time>2022-08-23 18:28:51</time>
      </trkpt>
      <trkpt lat="41.58056" lon="-0.93525">
        <ele>285.8</ele>
        <time>2022-08-23 18:28:52</time>
      </trkpt>
      <trkpt lat="41.58054" lon="-0.93524">
        <ele>285.8</ele>
        <time>2022-08-23 18:28:53</time>
      </trkpt>
      <trkpt lat="41.58052" lon="-0.93523">
        <ele>285.8</ele>
        <time>2022-08-23 18:28:54</time>
      </trkpt>
      <trkpt lat="41.58049" lon="-0.93521">
        <ele>285.8</ele>
        <time>2022-08-23 18:28:55</time>
      </trkpt>
      <trkpt lat="41.58047" lon="-0.9352">
        <ele>285.8</ele>
        <time>2022-08-23 18:28:56</time>
      </trkpt>
      <trkpt lat="41.58044" lon="-0.93518">
        <ele>285.8</ele>
        <time>2022-08-23 18:28:57</time>
      </trkpt>
      <trkpt lat="41.58043" lon="-0.93517">
        <ele>286</ele>
        <time>2022-08-23 18:28:58</time>
      </trkpt>
      <trkpt lat="41.5804" lon="-0.93516">
        <ele>286</ele>
        <time>2022-08-23 18:28:59</time>
      </trkpt>
      <trkpt lat="41.58038" lon="-0.93515">
        <ele>286</ele>
        <time>2022-08-23 18:29:00</time>
      </trkpt>
      <trkpt lat="41.58035" lon="-0.93514">
        <ele>286.2</ele>
        <time>2022-08-23 18:29:01</time>
      </trkpt>
      <trkpt lat="41.58033" lon="-0.93514">
        <ele>286.2</ele>
        <time>2022-08-23 18:29:02</time>
      </trkpt>
      <trkpt lat="41.5803" lon="-0.93515">
        <ele>286.2</ele>
        <time>2022-08-23 18:29:03</time>
      </trkpt>
      <trkpt lat="41.58028" lon="-0.93516">
        <ele>286.4</ele>
        <time>2022-08-23 18:29:04</time>
      </trkpt>
      <trkpt lat="41.58026" lon="-0.93518">
        <ele>286.6</ele>
        <time>2022-08-23 18:29:05</time>
      </trkpt>
      <trkpt lat="41.58024" lon="-0.9352">
        <ele>286.6</ele>
        <time>2022-08-23 18:29:06</time>
      </trkpt>
      <trkpt lat="41.58022" lon="-0.93522">
        <ele>286.8</ele>
        <time>2022-08-23 18:29:07</time>
      </trkpt>
      <trkpt lat="41.5802" lon="-0.93525">
        <ele>286.8</ele>
        <time>2022-08-23 18:29:08</time>
      </trkpt>
      <trkpt lat="41.58018" lon="-0.93528">
        <ele>286.8</ele>
        <time>2022-08-23 18:29:09</time>
      </trkpt>
      <trkpt lat="41.58017" lon="-0.93531">
        <ele>287</ele>
        <time>2022-08-23 18:29:10</time>
      </trkpt>
      <trkpt lat="41.58015" lon="-0.93534">
        <ele>287</ele>
        <time>2022-08-23 18:29:11</time>
      </trkpt>
      <trkpt lat="41.58014" lon="-0.93538">
        <ele>287.2</ele>
        <time>2022-08-23 18:29:12</time>
      </trkpt>
      <trkpt lat="41.58013" lon="-0.93541">
        <ele>287.2</ele>
        <time>2022-08-23 18:29:13</time>
      </trkpt>
      <trkpt lat="41.58012" lon="-0.93545">
        <ele>287.4</ele>
        <time>2022-08-23 18:29:14</time>
      </trkpt>
      <trkpt lat="41.58011" lon="-0.93548">
        <ele>287.4</ele>
        <time>2022-08-23 18:29:15</time>
      </trkpt>
      <trkpt lat="41.5801" lon="-0.93552">
        <ele>287.6</ele>
        <time>2022-08-23 18:29:16</time>
      </trkpt>
      <trkpt lat="41.5801" lon="-0.93554">
        <ele>287.6</ele>
        <time>2022-08-23 18:29:17</time>
      </trkpt>
      <trkpt lat="41.58008" lon="-0.93557">
        <ele>288</ele>
        <time>2022-08-23 18:29:18</time>
      </trkpt>
      <trkpt lat="41.58014" lon="-0.93568">
        <ele>288.2</ele>
        <time>2022-08-23 18:29:19</time>
      </trkpt>
      <trkpt lat="41.58012" lon="-0.93571">
        <ele>288.4</ele>
        <time>2022-08-23 18:29:20</time>
      </trkpt>
      <trkpt lat="41.58011" lon="-0.93573">
        <ele>288.6</ele>
        <time>2022-08-23 18:29:21</time>
      </trkpt>
      <trkpt lat="41.58009" lon="-0.93575">
        <ele>288.8</ele>
        <time>2022-08-23 18:29:22</time>
      </trkpt>
      <trkpt lat="41.58024" lon="-0.93594">
        <ele>289.2</ele>
        <time>2022-08-23 18:29:23</time>
      </trkpt>
      <trkpt lat="41.58025" lon="-0.93593">
        <ele>289.6</ele>
        <time>2022-08-23 18:29:24</time>
      </trkpt>
      <trkpt lat="41.58009" lon="-0.93595">
        <ele>289.8</ele>
        <time>2022-08-23 18:30:05</time>
      </trkpt>
      <trkpt lat="41.58004" lon="-0.93596">
        <ele>289.8</ele>
        <time>2022-08-23 18:30:06</time>
      </trkpt>
      <trkpt lat="41.58006" lon="-0.93604">
        <ele>289.8</ele>
        <time>2022-08-23 18:30:07</time>
      </trkpt>
      <trkpt lat="41.58004" lon="-0.93607">
        <ele>289.8</ele>
        <time>2022-08-23 18:30:08</time>
      </trkpt>
      <trkpt lat="41.58001" lon="-0.9361">
        <ele>289.8</ele>
        <time>2022-08-23 18:30:09</time>
      </trkpt>
      <trkpt lat="41.57998" lon="-0.93612">
        <ele>289.6</ele>
        <time>2022-08-23 18:30:10</time>
      </trkpt>
      <trkpt lat="41.57995" lon="-0.93614">
        <ele>289.6</ele>
        <time>2022-08-23 18:30:11</time>
      </trkpt>
      <trkpt lat="41.57992" lon="-0.93616">
        <ele>289.6</ele>
        <time>2022-08-23 18:30:12</time>
      </trkpt>
      <trkpt lat="41.57989" lon="-0.93618">
        <ele>289.4</ele>
        <time>2022-08-23 18:30:13</time>
      </trkpt>
      <trkpt lat="41.57985" lon="-0.9362">
        <ele>289.4</ele>
        <time>2022-08-23 18:30:14</time>
      </trkpt>
      <trkpt lat="41.57982" lon="-0.93621">
        <ele>289.4</ele>
        <time>2022-08-23 18:30:15</time>
      </trkpt>
      <trkpt lat="41.57978" lon="-0.93622">
        <ele>289.2</ele>
        <time>2022-08-23 18:30:16</time>
      </trkpt>
      <trkpt lat="41.57975" lon="-0.93623">
        <ele>289</ele>
        <time>2022-08-23 18:30:17</time>
      </trkpt>
      <trkpt lat="41.57972" lon="-0.93624">
        <ele>289</ele>
        <time>2022-08-23 18:30:18</time>
      </trkpt>
      <trkpt lat="41.57968" lon="-0.93625">
        <ele>288.8</ele>
        <time>2022-08-23 18:30:19</time>
      </trkpt>
      <trkpt lat="41.57965" lon="-0.93626">
        <ele>288.6</ele>
        <time>2022-08-23 18:30:20</time>
      </trkpt>
      <trkpt lat="41.57961" lon="-0.93627">
        <ele>288.4</ele>
        <time>2022-08-23 18:30:21</time>
      </trkpt>
      <trkpt lat="41.57958" lon="-0.93628">
        <ele>288.2</ele>
        <time>2022-08-23 18:30:22</time>
      </trkpt>
      <trkpt lat="41.57954" lon="-0.93629">
        <ele>288</ele>
        <time>2022-08-23 18:30:23</time>
      </trkpt>
      <trkpt lat="41.57951" lon="-0.9363">
        <ele>287.8</ele>
        <time>2022-08-23 18:30:24</time>
      </trkpt>
      <trkpt lat="41.57948" lon="-0.93631">
        <ele>287.6</ele>
        <time>2022-08-23 18:30:25</time>
      </trkpt>
      <trkpt lat="41.57945" lon="-0.93632">
        <ele>287.6</ele>
        <time>2022-08-23 18:30:26</time>
      </trkpt>
      <trkpt lat="41.57942" lon="-0.93633">
        <ele>287.6</ele>
        <time>2022-08-23 18:30:27</time>
      </trkpt>
      <trkpt lat="41.5794" lon="-0.93635">
        <ele>287.6</ele>
        <time>2022-08-23 18:30:28</time>
      </trkpt>
      <trkpt lat="41.57937" lon="-0.93636">
        <ele>287.4</ele>
        <time>2022-08-23 18:30:29</time>
      </trkpt>
      <trkpt lat="41.57934" lon="-0.93638">
        <ele>287.4</ele>
        <time>2022-08-23 18:30:30</time>
      </trkpt>
      <trkpt lat="41.57932" lon="-0.9364">
        <ele>287.4</ele>
        <time>2022-08-23 18:30:31</time>
      </trkpt>
      <trkpt lat="41.57929" lon="-0.93641">
        <ele>287.4</ele>
        <time>2022-08-23 18:30:32</time>
      </trkpt>
      <trkpt lat="41.57927" lon="-0.93643">
        <ele>287.2</ele>
        <time>2022-08-23 18:30:33</time>
      </trkpt>
      <trkpt lat="41.57925" lon="-0.93645">
        <ele>287</ele>
        <time>2022-08-23 18:30:34</time>
      </trkpt>
      <trkpt lat="41.57923" lon="-0.93647">
        <ele>287</ele>
        <time>2022-08-23 18:30:35</time>
      </trkpt>
      <trkpt lat="41.5792" lon="-0.93649">
        <ele>286.8</ele>
        <time>2022-08-23 18:30:36</time>
      </trkpt>
      <trkpt lat="41.57918" lon="-0.93651">
        <ele>286.6</ele>
        <time>2022-08-23 18:30:37</time>
      </trkpt>
      <trkpt lat="41.57915" lon="-0.93652">
        <ele>286.4</ele>
        <time>2022-08-23 18:30:38</time>
      </trkpt>
      <trkpt lat="41.57913" lon="-0.93654">
        <ele>286.4</ele>
        <time>2022-08-23 18:30:39</time>
      </trkpt>
      <trkpt lat="41.5791" lon="-0.93655">
        <ele>286.2</ele>
        <time>2022-08-23 18:30:40</time>
      </trkpt>
      <trkpt lat="41.57907" lon="-0.93656">
        <ele>286.2</ele>
        <time>2022-08-23 18:30:41</time>
      </trkpt>
      <trkpt lat="41.57905" lon="-0.93658">
        <ele>286</ele>
        <time>2022-08-23 18:30:42</time>
      </trkpt>
      <trkpt lat="41.57902" lon="-0.93659">
        <ele>286.2</ele>
        <time>2022-08-23 18:30:43</time>
      </trkpt>
      <trkpt lat="41.57899" lon="-0.9366">
        <ele>286.2</ele>
        <time>2022-08-23 18:30:44</time>
      </trkpt>
      <trkpt lat="41.57897" lon="-0.93661">
        <ele>286</ele>
        <time>2022-08-23 18:30:45</time>
      </trkpt>
      <trkpt lat="41.57894" lon="-0.93663">
        <ele>286.2</ele>
        <time>2022-08-23 18:30:46</time>
      </trkpt>
      <trkpt lat="41.57891" lon="-0.93664">
        <ele>286.2</ele>
        <time>2022-08-23 18:30:47</time>
      </trkpt>
      <trkpt lat="41.57889" lon="-0.93665">
        <ele>286.2</ele>
        <time>2022-08-23 18:30:48</time>
      </trkpt>
      <trkpt lat="41.57886" lon="-0.93666">
        <ele>286.2</ele>
        <time>2022-08-23 18:30:49</time>
      </trkpt>
      <trkpt lat="41.57884" lon="-0.93667">
        <ele>286.4</ele>
        <time>2022-08-23 18:30:50</time>
      </trkpt>
      <trkpt lat="41.57881" lon="-0.93668">
        <ele>286.4</ele>
        <time>2022-08-23 18:30:51</time>
      </trkpt>
      <trkpt lat="41.57879" lon="-0.93669">
        <ele>286.4</ele>
        <time>2022-08-23 18:30:52</time>
      </trkpt>
      <trkpt lat="41.57876" lon="-0.9367">
        <ele>286.4</ele>
        <time>2022-08-23 18:30:53</time>
      </trkpt>
      <trkpt lat="41.57874" lon="-0.93671">
        <ele>286.4</ele>
        <time>2022-08-23 18:30:54</time>
      </trkpt>
      <trkpt lat="41.57871" lon="-0.93672">
        <ele>286.4</ele>
        <time>2022-08-23 18:30:55</time>
      </trkpt>
      <trkpt lat="41.57868" lon="-0.93673">
        <ele>286.4</ele>
        <time>2022-08-23 18:30:56</time>
      </trkpt>
      <trkpt lat="41.57865" lon="-0.93674">
        <ele>286.2</ele>
        <time>2022-08-23 18:30:57</time>
      </trkpt>
      <trkpt lat="41.57862" lon="-0.93675">
        <ele>286.2</ele>
        <time>2022-08-23 18:30:58</time>
      </trkpt>
      <trkpt lat="41.5786" lon="-0.93677">
        <ele>286</ele>
        <time>2022-08-23 18:30:59</time>
      </trkpt>
      <trkpt lat="41.57858" lon="-0.93679">
        <ele>286</ele>
        <time>2022-08-23 18:31:00</time>
      </trkpt>
      <trkpt lat="41.57855" lon="-0.9368">
        <ele>286</ele>
        <time>2022-08-23 18:31:01</time>
      </trkpt>
      <trkpt lat="41.57853" lon="-0.93682">
        <ele>286</ele>
        <time>2022-08-23 18:31:02</time>
      </trkpt>
      <trkpt lat="41.5785" lon="-0.93683">
        <ele>286.2</ele>
        <time>2022-08-23 18:31:03</time>
      </trkpt>
      <trkpt lat="41.57848" lon="-0.93685">
        <ele>286.2</ele>
        <time>2022-08-23 18:31:04</time>
      </trkpt>
      <trkpt lat="41.57846" lon="-0.93687">
        <ele>286.2</ele>
        <time>2022-08-23 18:31:05</time>
      </trkpt>
      <trkpt lat="41.57844" lon="-0.93689">
        <ele>286.2</ele>
        <time>2022-08-23 18:31:06</time>
      </trkpt>
      <trkpt lat="41.57841" lon="-0.93691">
        <ele>286.2</ele>
        <time>2022-08-23 18:31:07</time>
      </trkpt>
      <trkpt lat="41.57839" lon="-0.93692">
        <ele>286.4</ele>
        <time>2022-08-23 18:31:08</time>
      </trkpt>
      <trkpt lat="41.57837" lon="-0.93694">
        <ele>286.4</ele>
        <time>2022-08-23 18:31:09</time>
      </trkpt>
      <trkpt lat="41.57834" lon="-0.93696">
        <ele>286.4</ele>
        <time>2022-08-23 18:31:10</time>
      </trkpt>
      <trkpt lat="41.57832" lon="-0.93697">
        <ele>286.4</ele>
        <time>2022-08-23 18:31:11</time>
      </trkpt>
      <trkpt lat="41.5783" lon="-0.93699">
        <ele>286.4</ele>
        <time>2022-08-23 18:31:12</time>
      </trkpt>
      <trkpt lat="41.57827" lon="-0.937">
        <ele>286.4</ele>
        <time>2022-08-23 18:31:13</time>
      </trkpt>
      <trkpt lat="41.57825" lon="-0.93702">
        <ele>286.4</ele>
        <time>2022-08-23 18:31:14</time>
      </trkpt>
      <trkpt lat="41.57822" lon="-0.93703">
        <ele>286.4</ele>
        <time>2022-08-23 18:31:15</time>
      </trkpt>
      <trkpt lat="41.5782" lon="-0.93705">
        <ele>286.4</ele>
        <time>2022-08-23 18:31:16</time>
      </trkpt>
      <trkpt lat="41.57818" lon="-0.93707">
        <ele>286.4</ele>
        <time>2022-08-23 18:31:17</time>
      </trkpt>
      <trkpt lat="41.57816" lon="-0.93708">
        <ele>286.4</ele>
        <time>2022-08-23 18:31:18</time>
      </trkpt>
      <trkpt lat="41.57813" lon="-0.9371">
        <ele>286.4</ele>
        <time>2022-08-23 18:31:19</time>
      </trkpt>
      <trkpt lat="41.57811" lon="-0.93712">
        <ele>286.4</ele>
        <time>2022-08-23 18:31:20</time>
      </trkpt>
      <trkpt lat="41.57809" lon="-0.93714">
        <ele>286.6</ele>
        <time>2022-08-23 18:31:21</time>
      </trkpt>
      <trkpt lat="41.57807" lon="-0.93715">
        <ele>286.6</ele>
        <time>2022-08-23 18:31:22</time>
      </trkpt>
      <trkpt lat="41.57805" lon="-0.93718">
        <ele>286.6</ele>
        <time>2022-08-23 18:31:23</time>
      </trkpt>
      <trkpt lat="41.57802" lon="-0.9372">
        <ele>286.8</ele>
        <time>2022-08-23 18:31:24</time>
      </trkpt>
      <trkpt lat="41.578" lon="-0.93722">
        <ele>286.8</ele>
        <time>2022-08-23 18:31:25</time>
      </trkpt>
      <trkpt lat="41.57799" lon="-0.93725">
        <ele>286.6</ele>
        <time>2022-08-23 18:31:26</time>
      </trkpt>
      <trkpt lat="41.57797" lon="-0.93727">
        <ele>286.8</ele>
        <time>2022-08-23 18:31:27</time>
      </trkpt>
      <trkpt lat="41.57795" lon="-0.93729">
        <ele>286.8</ele>
        <time>2022-08-23 18:31:28</time>
      </trkpt>
      <trkpt lat="41.57793" lon="-0.93731">
        <ele>286.6</ele>
        <time>2022-08-23 18:31:29</time>
      </trkpt>
      <trkpt lat="41.57791" lon="-0.93733">
        <ele>286.6</ele>
        <time>2022-08-23 18:31:30</time>
      </trkpt>
      <trkpt lat="41.57789" lon="-0.93736">
        <ele>286.6</ele>
        <time>2022-08-23 18:31:31</time>
      </trkpt>
      <trkpt lat="41.57787" lon="-0.93738">
        <ele>286.8</ele>
        <time>2022-08-23 18:31:32</time>
      </trkpt>
      <trkpt lat="41.57785" lon="-0.9374">
        <ele>286.8</ele>
        <time>2022-08-23 18:31:33</time>
      </trkpt>
      <trkpt lat="41.57783" lon="-0.93742">
        <ele>287</ele>
        <time>2022-08-23 18:31:34</time>
      </trkpt>
      <trkpt lat="41.57781" lon="-0.93745">
        <ele>287</ele>
        <time>2022-08-23 18:31:35</time>
      </trkpt>
      <trkpt lat="41.57779" lon="-0.93747">
        <ele>287</ele>
        <time>2022-08-23 18:31:36</time>
      </trkpt>
      <trkpt lat="41.57777" lon="-0.93749">
        <ele>287.2</ele>
        <time>2022-08-23 18:31:37</time>
      </trkpt>
      <trkpt lat="41.57775" lon="-0.93751">
        <ele>287.2</ele>
        <time>2022-08-23 18:31:38</time>
      </trkpt>
      <trkpt lat="41.57773" lon="-0.93753">
        <ele>287.4</ele>
        <time>2022-08-23 18:31:39</time>
      </trkpt>
      <trkpt lat="41.57771" lon="-0.93755">
        <ele>287.4</ele>
        <time>2022-08-23 18:31:40</time>
      </trkpt>
      <trkpt lat="41.57769" lon="-0.93757">
        <ele>287.4</ele>
        <time>2022-08-23 18:31:41</time>
      </trkpt>
      <trkpt lat="41.57768" lon="-0.93759">
        <ele>287.4</ele>
        <time>2022-08-23 18:31:42</time>
      </trkpt>
      <trkpt lat="41.57766" lon="-0.93761">
        <ele>287.6</ele>
        <time>2022-08-23 18:31:43</time>
      </trkpt>
      <trkpt lat="41.57764" lon="-0.93763">
        <ele>287.6</ele>
        <time>2022-08-23 18:31:44</time>
      </trkpt>
      <trkpt lat="41.57762" lon="-0.93765">
        <ele>287.6</ele>
        <time>2022-08-23 18:31:45</time>
      </trkpt>
      <trkpt lat="41.5776" lon="-0.93768">
        <ele>287.6</ele>
        <time>2022-08-23 18:31:46</time>
      </trkpt>
      <trkpt lat="41.57758" lon="-0.9377">
        <ele>287.6</ele>
        <time>2022-08-23 18:31:47</time>
      </trkpt>
      <trkpt lat="41.57756" lon="-0.93772">
        <ele>287.6</ele>
        <time>2022-08-23 18:31:48</time>
      </trkpt>
      <trkpt lat="41.57754" lon="-0.93774">
        <ele>287.4</ele>
        <time>2022-08-23 18:31:49</time>
      </trkpt>
      <trkpt lat="41.57752" lon="-0.93776">
        <ele>287.4</ele>
        <time>2022-08-23 18:31:50</time>
      </trkpt>
      <trkpt lat="41.57749" lon="-0.93778">
        <ele>287.4</ele>
        <time>2022-08-23 18:31:51</time>
      </trkpt>
      <trkpt lat="41.57747" lon="-0.9378">
        <ele>287.6</ele>
        <time>2022-08-23 18:31:52</time>
      </trkpt>
      <trkpt lat="41.57745" lon="-0.93782">
        <ele>287.6</ele>
        <time>2022-08-23 18:31:53</time>
      </trkpt>
      <trkpt lat="41.57743" lon="-0.93784">
        <ele>287.6</ele>
        <time>2022-08-23 18:31:54</time>
      </trkpt>
      <trkpt lat="41.57741" lon="-0.93787">
        <ele>287.6</ele>
        <time>2022-08-23 18:31:55</time>
      </trkpt>
      <trkpt lat="41.57739" lon="-0.93789">
        <ele>287.6</ele>
        <time>2022-08-23 18:31:56</time>
      </trkpt>
      <trkpt lat="41.57737" lon="-0.93791">
        <ele>287.6</ele>
        <time>2022-08-23 18:31:57</time>
      </trkpt>
      <trkpt lat="41.57735" lon="-0.93794">
        <ele>287.6</ele>
        <time>2022-08-23 18:31:58</time>
      </trkpt>
      <trkpt lat="41.57733" lon="-0.93796">
        <ele>287.6</ele>
        <time>2022-08-23 18:31:59</time>
      </trkpt>
      <trkpt lat="41.57731" lon="-0.93798">
        <ele>287.6</ele>
        <time>2022-08-23 18:32:00</time>
      </trkpt>
      <trkpt lat="41.57729" lon="-0.938">
        <ele>287.6</ele>
        <time>2022-08-23 18:32:01</time>
      </trkpt>
      <trkpt lat="41.57727" lon="-0.93802">
        <ele>287.6</ele>
        <time>2022-08-23 18:32:02</time>
      </trkpt>
      <trkpt lat="41.57725" lon="-0.93803">
        <ele>287.6</ele>
        <time>2022-08-23 18:32:03</time>
      </trkpt>
      <trkpt lat="41.57723" lon="-0.93805">
        <ele>287.8</ele>
        <time>2022-08-23 18:32:04</time>
      </trkpt>
      <trkpt lat="41.5772" lon="-0.93807">
        <ele>287.8</ele>
        <time>2022-08-23 18:32:05</time>
      </trkpt>
      <trkpt lat="41.57718" lon="-0.93808">
        <ele>287.8</ele>
        <time>2022-08-23 18:32:06</time>
      </trkpt>
      <trkpt lat="41.57716" lon="-0.93809">
        <ele>287.8</ele>
        <time>2022-08-23 18:32:07</time>
      </trkpt>
      <trkpt lat="41.57714" lon="-0.93811">
        <ele>287.8</ele>
        <time>2022-08-23 18:32:08</time>
      </trkpt>
      <trkpt lat="41.57712" lon="-0.93812">
        <ele>287.6</ele>
        <time>2022-08-23 18:32:09</time>
      </trkpt>
      <trkpt lat="41.5771" lon="-0.93813">
        <ele>287.8</ele>
        <time>2022-08-23 18:32:10</time>
      </trkpt>
      <trkpt lat="41.57708" lon="-0.93814">
        <ele>287.6</ele>
        <time>2022-08-23 18:32:11</time>
      </trkpt>
      <trkpt lat="41.57705" lon="-0.93815">
        <ele>287.6</ele>
        <time>2022-08-23 18:32:12</time>
      </trkpt>
      <trkpt lat="41.57703" lon="-0.93815">
        <ele>287.6</ele>
        <time>2022-08-23 18:32:13</time>
      </trkpt>
      <trkpt lat="41.577" lon="-0.93816">
        <ele>287.6</ele>
        <time>2022-08-23 18:32:14</time>
      </trkpt>
      <trkpt lat="41.57698" lon="-0.93817">
        <ele>287.6</ele>
        <time>2022-08-23 18:32:15</time>
      </trkpt>
      <trkpt lat="41.57696" lon="-0.93818">
        <ele>287.6</ele>
        <time>2022-08-23 18:32:16</time>
      </trkpt>
      <trkpt lat="41.57694" lon="-0.9382">
        <ele>287.6</ele>
        <time>2022-08-23 18:32:17</time>
      </trkpt>
      <trkpt lat="41.57691" lon="-0.9382">
        <ele>287.6</ele>
        <time>2022-08-23 18:32:18</time>
      </trkpt>
      <trkpt lat="41.57689" lon="-0.93821">
        <ele>287.6</ele>
        <time>2022-08-23 18:32:19</time>
      </trkpt>
      <trkpt lat="41.57687" lon="-0.93822">
        <ele>287.4</ele>
        <time>2022-08-23 18:32:20</time>
      </trkpt>
      <trkpt lat="41.57685" lon="-0.93823">
        <ele>287.4</ele>
        <time>2022-08-23 18:32:21</time>
      </trkpt>
      <trkpt lat="41.57682" lon="-0.93824">
        <ele>287.4</ele>
        <time>2022-08-23 18:32:22</time>
      </trkpt>
      <trkpt lat="41.5768" lon="-0.93825">
        <ele>287.6</ele>
        <time>2022-08-23 18:32:23</time>
      </trkpt>
      <trkpt lat="41.57678" lon="-0.93826">
        <ele>287.6</ele>
        <time>2022-08-23 18:32:24</time>
      </trkpt>
      <trkpt lat="41.57675" lon="-0.93827">
        <ele>287.6</ele>
        <time>2022-08-23 18:32:25</time>
      </trkpt>
      <trkpt lat="41.57673" lon="-0.93828">
        <ele>287.6</ele>
        <time>2022-08-23 18:32:26</time>
      </trkpt>
      <trkpt lat="41.57671" lon="-0.93828">
        <ele>287.6</ele>
        <time>2022-08-23 18:32:27</time>
      </trkpt>
      <trkpt lat="41.57668" lon="-0.93829">
        <ele>287.6</ele>
        <time>2022-08-23 18:32:28</time>
      </trkpt>
      <trkpt lat="41.57666" lon="-0.9383">
        <ele>287.6</ele>
        <time>2022-08-23 18:32:29</time>
      </trkpt>
      <trkpt lat="41.57663" lon="-0.93831">
        <ele>287.6</ele>
        <time>2022-08-23 18:32:30</time>
      </trkpt>
      <trkpt lat="41.57661" lon="-0.93832">
        <ele>287.6</ele>
        <time>2022-08-23 18:32:31</time>
      </trkpt>
      <trkpt lat="41.57659" lon="-0.93833">
        <ele>287.4</ele>
        <time>2022-08-23 18:32:32</time>
      </trkpt>
      <trkpt lat="41.57656" lon="-0.93834">
        <ele>287.4</ele>
        <time>2022-08-23 18:32:33</time>
      </trkpt>
      <trkpt lat="41.57654" lon="-0.93835">
        <ele>287.4</ele>
        <time>2022-08-23 18:32:34</time>
      </trkpt>
      <trkpt lat="41.57652" lon="-0.93837">
        <ele>287.4</ele>
        <time>2022-08-23 18:32:35</time>
      </trkpt>
      <trkpt lat="41.57649" lon="-0.93838">
        <ele>287.6</ele>
        <time>2022-08-23 18:32:36</time>
      </trkpt>
      <trkpt lat="41.57647" lon="-0.93839">
        <ele>287.6</ele>
        <time>2022-08-23 18:32:37</time>
      </trkpt>
      <trkpt lat="41.57644" lon="-0.9384">
        <ele>287.6</ele>
        <time>2022-08-23 18:32:38</time>
      </trkpt>
      <trkpt lat="41.57642" lon="-0.93841">
        <ele>287.8</ele>
        <time>2022-08-23 18:32:39</time>
      </trkpt>
      <trkpt lat="41.5764" lon="-0.93843">
        <ele>287.8</ele>
        <time>2022-08-23 18:32:40</time>
      </trkpt>
      <trkpt lat="41.57637" lon="-0.93844">
        <ele>287.8</ele>
        <time>2022-08-23 18:32:41</time>
      </trkpt>
      <trkpt lat="41.57635" lon="-0.93846">
        <ele>287.8</ele>
        <time>2022-08-23 18:32:42</time>
      </trkpt>
      <trkpt lat="41.57632" lon="-0.93847">
        <ele>287.8</ele>
        <time>2022-08-23 18:32:43</time>
      </trkpt>
      <trkpt lat="41.57629" lon="-0.93849">
        <ele>287.8</ele>
        <time>2022-08-23 18:32:44</time>
      </trkpt>
      <trkpt lat="41.57627" lon="-0.9385">
        <ele>287.6</ele>
        <time>2022-08-23 18:32:45</time>
      </trkpt>
      <trkpt lat="41.57625" lon="-0.93852">
        <ele>287.6</ele>
        <time>2022-08-23 18:32:46</time>
      </trkpt>
      <trkpt lat="41.57622" lon="-0.93853">
        <ele>287.6</ele>
        <time>2022-08-23 18:32:47</time>
      </trkpt>
      <trkpt lat="41.5762" lon="-0.93855">
        <ele>287.6</ele>
        <time>2022-08-23 18:32:48</time>
      </trkpt>
      <trkpt lat="41.57618" lon="-0.93857">
        <ele>287.6</ele>
        <time>2022-08-23 18:32:49</time>
      </trkpt>
      <trkpt lat="41.57615" lon="-0.93859">
        <ele>287.6</ele>
        <time>2022-08-23 18:32:50</time>
      </trkpt>
      <trkpt lat="41.57613" lon="-0.93861">
        <ele>287.6</ele>
        <time>2022-08-23 18:32:51</time>
      </trkpt>
      <trkpt lat="41.57611" lon="-0.93863">
        <ele>287.6</ele>
        <time>2022-08-23 18:32:52</time>
      </trkpt>
      <trkpt lat="41.57608" lon="-0.93865">
        <ele>287.6</ele>
        <time>2022-08-23 18:32:53</time>
      </trkpt>
      <trkpt lat="41.57606" lon="-0.93867">
        <ele>287.6</ele>
        <time>2022-08-23 18:32:54</time>
      </trkpt>
      <trkpt lat="41.57604" lon="-0.93869">
        <ele>287.6</ele>
        <time>2022-08-23 18:32:55</time>
      </trkpt>
      <trkpt lat="41.57601" lon="-0.93871">
        <ele>287.6</ele>
        <time>2022-08-23 18:32:56</time>
      </trkpt>
      <trkpt lat="41.57599" lon="-0.93873">
        <ele>287.8</ele>
        <time>2022-08-23 18:32:57</time>
      </trkpt>
      <trkpt lat="41.57597" lon="-0.93875">
        <ele>287.8</ele>
        <time>2022-08-23 18:32:58</time>
      </trkpt>
      <trkpt lat="41.57595" lon="-0.93877">
        <ele>287.8</ele>
        <time>2022-08-23 18:32:59</time>
      </trkpt>
      <trkpt lat="41.57593" lon="-0.93879">
        <ele>287.8</ele>
        <time>2022-08-23 18:33:00</time>
      </trkpt>
      <trkpt lat="41.57591" lon="-0.93881">
        <ele>287.8</ele>
        <time>2022-08-23 18:33:01</time>
      </trkpt>
      <trkpt lat="41.57589" lon="-0.93883">
        <ele>288</ele>
        <time>2022-08-23 18:33:02</time>
      </trkpt>
      <trkpt lat="41.57587" lon="-0.93886">
        <ele>288</ele>
        <time>2022-08-23 18:33:03</time>
      </trkpt>
      <trkpt lat="41.57585" lon="-0.93888">
        <ele>288</ele>
        <time>2022-08-23 18:33:04</time>
      </trkpt>
      <trkpt lat="41.57582" lon="-0.9389">
        <ele>287.8</ele>
        <time>2022-08-23 18:33:05</time>
      </trkpt>
      <trkpt lat="41.5758" lon="-0.93892">
        <ele>287.8</ele>
        <time>2022-08-23 18:33:06</time>
      </trkpt>
      <trkpt lat="41.57578" lon="-0.93894">
        <ele>287.8</ele>
        <time>2022-08-23 18:33:07</time>
      </trkpt>
      <trkpt lat="41.57576" lon="-0.93896">
        <ele>287.8</ele>
        <time>2022-08-23 18:33:08</time>
      </trkpt>
      <trkpt lat="41.57574" lon="-0.93898">
        <ele>287.8</ele>
        <time>2022-08-23 18:33:09</time>
      </trkpt>
      <trkpt lat="41.57572" lon="-0.939">
        <ele>287.8</ele>
        <time>2022-08-23 18:33:10</time>
      </trkpt>
      <trkpt lat="41.5757" lon="-0.93903">
        <ele>288</ele>
        <time>2022-08-23 18:33:11</time>
      </trkpt>
      <trkpt lat="41.57568" lon="-0.93905">
        <ele>288</ele>
        <time>2022-08-23 18:33:12</time>
      </trkpt>
      <trkpt lat="41.57566" lon="-0.93907">
        <ele>288</ele>
        <time>2022-08-23 18:33:13</time>
      </trkpt>
      <trkpt lat="41.57564" lon="-0.9391">
        <ele>288</ele>
        <time>2022-08-23 18:33:14</time>
      </trkpt>
      <trkpt lat="41.57562" lon="-0.93912">
        <ele>288</ele>
        <time>2022-08-23 18:33:15</time>
      </trkpt>
      <trkpt lat="41.5756" lon="-0.93914">
        <ele>288</ele>
        <time>2022-08-23 18:33:16</time>
      </trkpt>
      <trkpt lat="41.57558" lon="-0.93917">
        <ele>288</ele>
        <time>2022-08-23 18:33:17</time>
      </trkpt>
      <trkpt lat="41.57556" lon="-0.93918">
        <ele>288</ele>
        <time>2022-08-23 18:33:18</time>
      </trkpt>
      <trkpt lat="41.57554" lon="-0.9392">
        <ele>288</ele>
        <time>2022-08-23 18:33:19</time>
      </trkpt>
      <trkpt lat="41.57551" lon="-0.93921">
        <ele>288</ele>
        <time>2022-08-23 18:33:20</time>
      </trkpt>
      <trkpt lat="41.57549" lon="-0.93923">
        <ele>288.2</ele>
        <time>2022-08-23 18:33:21</time>
      </trkpt>
      <trkpt lat="41.57547" lon="-0.93924">
        <ele>288.2</ele>
        <time>2022-08-23 18:33:22</time>
      </trkpt>
      <trkpt lat="41.57544" lon="-0.93926">
        <ele>288.2</ele>
        <time>2022-08-23 18:33:23</time>
      </trkpt>
      <trkpt lat="41.57542" lon="-0.93927">
        <ele>288.4</ele>
        <time>2022-08-23 18:33:24</time>
      </trkpt>
      <trkpt lat="41.5754" lon="-0.93928">
        <ele>288.4</ele>
        <time>2022-08-23 18:33:25</time>
      </trkpt>
      <trkpt lat="41.57537" lon="-0.93929">
        <ele>288.6</ele>
        <time>2022-08-23 18:33:26</time>
      </trkpt>
      <trkpt lat="41.57534" lon="-0.9393">
        <ele>288.6</ele>
        <time>2022-08-23 18:33:27</time>
      </trkpt>
      <trkpt lat="41.57532" lon="-0.93932">
        <ele>288.8</ele>
        <time>2022-08-23 18:33:28</time>
      </trkpt>
      <trkpt lat="41.5753" lon="-0.93933">
        <ele>288.8</ele>
        <time>2022-08-23 18:33:29</time>
      </trkpt>
      <trkpt lat="41.57527" lon="-0.93935">
        <ele>289</ele>
        <time>2022-08-23 18:33:30</time>
      </trkpt>
      <trkpt lat="41.57525" lon="-0.93937">
        <ele>289.2</ele>
        <time>2022-08-23 18:33:31</time>
      </trkpt>
      <trkpt lat="41.57523" lon="-0.93938">
        <ele>289.4</ele>
        <time>2022-08-23 18:33:32</time>
      </trkpt>
      <trkpt lat="41.57521" lon="-0.9394">
        <ele>289.6</ele>
        <time>2022-08-23 18:33:33</time>
      </trkpt>
      <trkpt lat="41.57519" lon="-0.93942">
        <ele>289.6</ele>
        <time>2022-08-23 18:33:34</time>
      </trkpt>
      <trkpt lat="41.57517" lon="-0.93943">
        <ele>289.8</ele>
        <time>2022-08-23 18:33:35</time>
      </trkpt>
      <trkpt lat="41.57515" lon="-0.93945">
        <ele>289.8</ele>
        <time>2022-08-23 18:33:36</time>
      </trkpt>
      <trkpt lat="41.57513" lon="-0.93947">
        <ele>289.8</ele>
        <time>2022-08-23 18:33:37</time>
      </trkpt>
      <trkpt lat="41.57511" lon="-0.93948">
        <ele>289.8</ele>
        <time>2022-08-23 18:33:38</time>
      </trkpt>
      <trkpt lat="41.57508" lon="-0.9395">
        <ele>290</ele>
        <time>2022-08-23 18:33:39</time>
      </trkpt>
      <trkpt lat="41.57506" lon="-0.93952">
        <ele>290</ele>
        <time>2022-08-23 18:33:40</time>
      </trkpt>
      <trkpt lat="41.57504" lon="-0.93954">
        <ele>290</ele>
        <time>2022-08-23 18:33:41</time>
      </trkpt>
      <trkpt lat="41.57502" lon="-0.93956">
        <ele>290</ele>
        <time>2022-08-23 18:33:42</time>
      </trkpt>
      <trkpt lat="41.575" lon="-0.93957">
        <ele>290</ele>
        <time>2022-08-23 18:33:43</time>
      </trkpt>
      <trkpt lat="41.57498" lon="-0.93959">
        <ele>290.2</ele>
        <time>2022-08-23 18:33:44</time>
      </trkpt>
      <trkpt lat="41.57495" lon="-0.93961">
        <ele>290.2</ele>
        <time>2022-08-23 18:33:45</time>
      </trkpt>
      <trkpt lat="41.57493" lon="-0.93962">
        <ele>290.2</ele>
        <time>2022-08-23 18:33:46</time>
      </trkpt>
      <trkpt lat="41.57491" lon="-0.93964">
        <ele>290.4</ele>
        <time>2022-08-23 18:33:47</time>
      </trkpt>
      <trkpt lat="41.57488" lon="-0.93965">
        <ele>290.4</ele>
        <time>2022-08-23 18:33:48</time>
      </trkpt>
      <trkpt lat="41.57486" lon="-0.93967">
        <ele>290.4</ele>
        <time>2022-08-23 18:33:49</time>
      </trkpt>
      <trkpt lat="41.57484" lon="-0.93969">
        <ele>290.4</ele>
        <time>2022-08-23 18:33:50</time>
      </trkpt>
      <trkpt lat="41.57482" lon="-0.93971">
        <ele>290.4</ele>
        <time>2022-08-23 18:33:51</time>
      </trkpt>
      <trkpt lat="41.5748" lon="-0.93973">
        <ele>290.4</ele>
        <time>2022-08-23 18:33:52</time>
      </trkpt>
      <trkpt lat="41.57478" lon="-0.93975">
        <ele>290.6</ele>
        <time>2022-08-23 18:33:53</time>
      </trkpt>
      <trkpt lat="41.57476" lon="-0.93977">
        <ele>290.6</ele>
        <time>2022-08-23 18:33:54</time>
      </trkpt>
      <trkpt lat="41.57473" lon="-0.93979">
        <ele>290.6</ele>
        <time>2022-08-23 18:33:55</time>
      </trkpt>
      <trkpt lat="41.57471" lon="-0.93981">
        <ele>290.8</ele>
        <time>2022-08-23 18:33:56</time>
      </trkpt>
      <trkpt lat="41.57469" lon="-0.93982">
        <ele>290.8</ele>
        <time>2022-08-23 18:33:57</time>
      </trkpt>
      <trkpt lat="41.57467" lon="-0.93984">
        <ele>290.8</ele>
        <time>2022-08-23 18:33:58</time>
      </trkpt>
      <trkpt lat="41.57465" lon="-0.93985">
        <ele>290.8</ele>
        <time>2022-08-23 18:33:59</time>
      </trkpt>
      <trkpt lat="41.57462" lon="-0.93987">
        <ele>291</ele>
        <time>2022-08-23 18:34:00</time>
      </trkpt>
      <trkpt lat="41.5746" lon="-0.93988">
        <ele>291</ele>
        <time>2022-08-23 18:34:01</time>
      </trkpt>
      <trkpt lat="41.57458" lon="-0.9399">
        <ele>291</ele>
        <time>2022-08-23 18:34:02</time>
      </trkpt>
      <trkpt lat="41.57456" lon="-0.93991">
        <ele>291</ele>
        <time>2022-08-23 18:34:03</time>
      </trkpt>
      <trkpt lat="41.57453" lon="-0.93993">
        <ele>291.2</ele>
        <time>2022-08-23 18:34:04</time>
      </trkpt>
      <trkpt lat="41.57451" lon="-0.93994">
        <ele>291.4</ele>
        <time>2022-08-23 18:34:05</time>
      </trkpt>
      <trkpt lat="41.57449" lon="-0.93996">
        <ele>291.4</ele>
        <time>2022-08-23 18:34:06</time>
      </trkpt>
      <trkpt lat="41.57446" lon="-0.93997">
        <ele>291.6</ele>
        <time>2022-08-23 18:34:07</time>
      </trkpt>
      <trkpt lat="41.57444" lon="-0.93999">
        <ele>291.6</ele>
        <time>2022-08-23 18:34:08</time>
      </trkpt>
      <trkpt lat="41.57442" lon="-0.94001">
        <ele>291.6</ele>
        <time>2022-08-23 18:34:09</time>
      </trkpt>
      <trkpt lat="41.5744" lon="-0.94002">
        <ele>291.6</ele>
        <time>2022-08-23 18:34:10</time>
      </trkpt>
      <trkpt lat="41.57438" lon="-0.94004">
        <ele>291.8</ele>
        <time>2022-08-23 18:34:11</time>
      </trkpt>
      <trkpt lat="41.57436" lon="-0.94005">
        <ele>291.8</ele>
        <time>2022-08-23 18:34:12</time>
      </trkpt>
      <trkpt lat="41.57433" lon="-0.94007">
        <ele>292</ele>
        <time>2022-08-23 18:34:13</time>
      </trkpt>
      <trkpt lat="41.57431" lon="-0.94008">
        <ele>292</ele>
        <time>2022-08-23 18:34:14</time>
      </trkpt>
      <trkpt lat="41.57428" lon="-0.94009">
        <ele>292</ele>
        <time>2022-08-23 18:34:15</time>
      </trkpt>
      <trkpt lat="41.57426" lon="-0.94011">
        <ele>292</ele>
        <time>2022-08-23 18:34:16</time>
      </trkpt>
      <trkpt lat="41.57424" lon="-0.94013">
        <ele>292</ele>
        <time>2022-08-23 18:34:17</time>
      </trkpt>
      <trkpt lat="41.57422" lon="-0.94015">
        <ele>292.2</ele>
        <time>2022-08-23 18:34:18</time>
      </trkpt>
      <trkpt lat="41.5742" lon="-0.94017">
        <ele>292.2</ele>
        <time>2022-08-23 18:34:19</time>
      </trkpt>
      <trkpt lat="41.57418" lon="-0.94019">
        <ele>292.2</ele>
        <time>2022-08-23 18:34:20</time>
      </trkpt>
      <trkpt lat="41.57416" lon="-0.94021">
        <ele>292.4</ele>
        <time>2022-08-23 18:34:21</time>
      </trkpt>
      <trkpt lat="41.57414" lon="-0.94023">
        <ele>292.6</ele>
        <time>2022-08-23 18:34:22</time>
      </trkpt>
      <trkpt lat="41.57411" lon="-0.94024">
        <ele>292.4</ele>
        <time>2022-08-23 18:34:23</time>
      </trkpt>
      <trkpt lat="41.57409" lon="-0.94026">
        <ele>292.6</ele>
        <time>2022-08-23 18:34:24</time>
      </trkpt>
      <trkpt lat="41.57407" lon="-0.94027">
        <ele>292.6</ele>
        <time>2022-08-23 18:34:25</time>
      </trkpt>
      <trkpt lat="41.57405" lon="-0.94029">
        <ele>292.6</ele>
        <time>2022-08-23 18:34:26</time>
      </trkpt>
      <trkpt lat="41.57403" lon="-0.9403">
        <ele>292.6</ele>
        <time>2022-08-23 18:34:27</time>
      </trkpt>
      <trkpt lat="41.57401" lon="-0.94032">
        <ele>292.6</ele>
        <time>2022-08-23 18:34:28</time>
      </trkpt>
      <trkpt lat="41.57398" lon="-0.94033">
        <ele>292.6</ele>
        <time>2022-08-23 18:34:29</time>
      </trkpt>
      <trkpt lat="41.57396" lon="-0.94034">
        <ele>292.8</ele>
        <time>2022-08-23 18:34:30</time>
      </trkpt>
      <trkpt lat="41.57393" lon="-0.94034">
        <ele>292.8</ele>
        <time>2022-08-23 18:34:31</time>
      </trkpt>
      <trkpt lat="41.57391" lon="-0.94035">
        <ele>292.8</ele>
        <time>2022-08-23 18:34:32</time>
      </trkpt>
      <trkpt lat="41.57389" lon="-0.94036">
        <ele>293</ele>
        <time>2022-08-23 18:34:33</time>
      </trkpt>
      <trkpt lat="41.57387" lon="-0.94037">
        <ele>293</ele>
        <time>2022-08-23 18:34:34</time>
      </trkpt>
      <trkpt lat="41.57385" lon="-0.94038">
        <ele>293</ele>
        <time>2022-08-23 18:34:35</time>
      </trkpt>
      <trkpt lat="41.57382" lon="-0.94038">
        <ele>293</ele>
        <time>2022-08-23 18:34:36</time>
      </trkpt>
      <trkpt lat="41.57381" lon="-0.9404">
        <ele>293.2</ele>
        <time>2022-08-23 18:34:37</time>
      </trkpt>
      <trkpt lat="41.57378" lon="-0.94042">
        <ele>293.2</ele>
        <time>2022-08-23 18:34:38</time>
      </trkpt>
      <trkpt lat="41.57376" lon="-0.94043">
        <ele>293.2</ele>
        <time>2022-08-23 18:34:39</time>
      </trkpt>
      <trkpt lat="41.57374" lon="-0.94043">
        <ele>293.4</ele>
        <time>2022-08-23 18:34:40</time>
      </trkpt>
      <trkpt lat="41.57371" lon="-0.94044">
        <ele>293.4</ele>
        <time>2022-08-23 18:34:41</time>
      </trkpt>
      <trkpt lat="41.57369" lon="-0.94043">
        <ele>293.4</ele>
        <time>2022-08-23 18:34:42</time>
      </trkpt>
      <trkpt lat="41.57366" lon="-0.94046">
        <ele>293.6</ele>
        <time>2022-08-23 18:34:43</time>
      </trkpt>
      <trkpt lat="41.57364" lon="-0.94047">
        <ele>293.6</ele>
        <time>2022-08-23 18:34:44</time>
      </trkpt>
      <trkpt lat="41.57361" lon="-0.94049">
        <ele>293.6</ele>
        <time>2022-08-23 18:34:45</time>
      </trkpt>
      <trkpt lat="41.57359" lon="-0.94051">
        <ele>293.8</ele>
        <time>2022-08-23 18:34:46</time>
      </trkpt>
      <trkpt lat="41.57356" lon="-0.94052">
        <ele>293.8</ele>
        <time>2022-08-23 18:34:47</time>
      </trkpt>
      <trkpt lat="41.57354" lon="-0.94053">
        <ele>293.8</ele>
        <time>2022-08-23 18:34:48</time>
      </trkpt>
      <trkpt lat="41.57351" lon="-0.94055">
        <ele>293.8</ele>
        <time>2022-08-23 18:34:49</time>
      </trkpt>
      <trkpt lat="41.57349" lon="-0.94055">
        <ele>293.8</ele>
        <time>2022-08-23 18:34:50</time>
      </trkpt>
      <trkpt lat="41.57347" lon="-0.94056">
        <ele>293.8</ele>
        <time>2022-08-23 18:34:51</time>
      </trkpt>
      <trkpt lat="41.57345" lon="-0.94058">
        <ele>293.8</ele>
        <time>2022-08-23 18:34:52</time>
      </trkpt>
      <trkpt lat="41.57342" lon="-0.94058">
        <ele>293.8</ele>
        <time>2022-08-23 18:34:53</time>
      </trkpt>
      <trkpt lat="41.5734" lon="-0.9406">
        <ele>293.8</ele>
        <time>2022-08-23 18:34:54</time>
      </trkpt>
      <trkpt lat="41.57337" lon="-0.94061">
        <ele>293.8</ele>
        <time>2022-08-23 18:34:55</time>
      </trkpt>
      <trkpt lat="41.57334" lon="-0.94062">
        <ele>294</ele>
        <time>2022-08-23 18:34:56</time>
      </trkpt>
      <trkpt lat="41.57332" lon="-0.94063">
        <ele>294</ele>
        <time>2022-08-23 18:34:57</time>
      </trkpt>
      <trkpt lat="41.5733" lon="-0.94064">
        <ele>294.2</ele>
        <time>2022-08-23 18:34:58</time>
      </trkpt>
      <trkpt lat="41.57327" lon="-0.94065">
        <ele>294.2</ele>
        <time>2022-08-23 18:34:59</time>
      </trkpt>
      <trkpt lat="41.57325" lon="-0.94066">
        <ele>294.2</ele>
        <time>2022-08-23 18:35:00</time>
      </trkpt>
      <trkpt lat="41.57324" lon="-0.94067">
        <ele>294.4</ele>
        <time>2022-08-23 18:35:01</time>
      </trkpt>
      <trkpt lat="41.57322" lon="-0.94068">
        <ele>294.4</ele>
        <time>2022-08-23 18:35:02</time>
      </trkpt>
      <trkpt lat="41.5732" lon="-0.94069">
        <ele>294.4</ele>
        <time>2022-08-23 18:35:03</time>
      </trkpt>
      <trkpt lat="41.57318" lon="-0.9407">
        <ele>294.4</ele>
        <time>2022-08-23 18:35:04</time>
      </trkpt>
      <trkpt lat="41.57315" lon="-0.9407">
        <ele>294.6</ele>
        <time>2022-08-23 18:35:05</time>
      </trkpt>
      <trkpt lat="41.57312" lon="-0.94071">
        <ele>294.8</ele>
        <time>2022-08-23 18:35:06</time>
      </trkpt>
      <trkpt lat="41.5731" lon="-0.94073">
        <ele>294.8</ele>
        <time>2022-08-23 18:35:07</time>
      </trkpt>
      <trkpt lat="41.57307" lon="-0.94075">
        <ele>295</ele>
        <time>2022-08-23 18:35:08</time>
      </trkpt>
      <trkpt lat="41.57305" lon="-0.94076">
        <ele>295</ele>
        <time>2022-08-23 18:35:09</time>
      </trkpt>
      <trkpt lat="41.57303" lon="-0.94077">
        <ele>295.2</ele>
        <time>2022-08-23 18:35:10</time>
      </trkpt>
      <trkpt lat="41.573" lon="-0.94078">
        <ele>295.2</ele>
        <time>2022-08-23 18:35:11</time>
      </trkpt>
      <trkpt lat="41.57298" lon="-0.94079">
        <ele>295.2</ele>
        <time>2022-08-23 18:35:12</time>
      </trkpt>
      <trkpt lat="41.57296" lon="-0.9408">
        <ele>295.2</ele>
        <time>2022-08-23 18:35:13</time>
      </trkpt>
      <trkpt lat="41.57293" lon="-0.94081">
        <ele>295.2</ele>
        <time>2022-08-23 18:35:14</time>
      </trkpt>
      <trkpt lat="41.57291" lon="-0.94081">
        <ele>295.2</ele>
        <time>2022-08-23 18:35:15</time>
      </trkpt>
      <trkpt lat="41.57288" lon="-0.94082">
        <ele>295.4</ele>
        <time>2022-08-23 18:35:16</time>
      </trkpt>
      <trkpt lat="41.57286" lon="-0.94083">
        <ele>295.4</ele>
        <time>2022-08-23 18:35:17</time>
      </trkpt>
      <trkpt lat="41.57284" lon="-0.94084">
        <ele>295.6</ele>
        <time>2022-08-23 18:35:18</time>
      </trkpt>
      <trkpt lat="41.57281" lon="-0.94086">
        <ele>295.6</ele>
        <time>2022-08-23 18:35:19</time>
      </trkpt>
      <trkpt lat="41.57279" lon="-0.94087">
        <ele>295.8</ele>
        <time>2022-08-23 18:35:20</time>
      </trkpt>
      <trkpt lat="41.57277" lon="-0.94088">
        <ele>295.8</ele>
        <time>2022-08-23 18:35:21</time>
      </trkpt>
      <trkpt lat="41.57275" lon="-0.94089">
        <ele>295.8</ele>
        <time>2022-08-23 18:35:22</time>
      </trkpt>
      <trkpt lat="41.57272" lon="-0.9409">
        <ele>295.6</ele>
        <time>2022-08-23 18:35:23</time>
      </trkpt>
      <trkpt lat="41.5727" lon="-0.9409">
        <ele>295.8</ele>
        <time>2022-08-23 18:35:24</time>
      </trkpt>
      <trkpt lat="41.57268" lon="-0.94092">
        <ele>295.8</ele>
        <time>2022-08-23 18:35:25</time>
      </trkpt>
      <trkpt lat="41.57265" lon="-0.94093">
        <ele>295.8</ele>
        <time>2022-08-23 18:35:26</time>
      </trkpt>
      <trkpt lat="41.57263" lon="-0.94094">
        <ele>296</ele>
        <time>2022-08-23 18:35:27</time>
      </trkpt>
      <trkpt lat="41.5726" lon="-0.94095">
        <ele>296</ele>
        <time>2022-08-23 18:35:28</time>
      </trkpt>
      <trkpt lat="41.57258" lon="-0.94096">
        <ele>296</ele>
        <time>2022-08-23 18:35:29</time>
      </trkpt>
      <trkpt lat="41.57255" lon="-0.94097">
        <ele>296.2</ele>
        <time>2022-08-23 18:35:30</time>
      </trkpt>
      <trkpt lat="41.57253" lon="-0.94098">
        <ele>296.4</ele>
        <time>2022-08-23 18:35:31</time>
      </trkpt>
      <trkpt lat="41.57251" lon="-0.941">
        <ele>296.4</ele>
        <time>2022-08-23 18:35:32</time>
      </trkpt>
      <trkpt lat="41.57289" lon="-0.94215">
        <ele>295.8</ele>
        <time>2022-08-23 18:38:05</time>
      </trkpt>
      <trkpt lat="41.57293" lon="-0.94219">
        <ele>295.8</ele>
        <time>2022-08-23 18:38:06</time>
      </trkpt>
      <trkpt lat="41.57293" lon="-0.9422">
        <ele>295.8</ele>
        <time>2022-08-23 18:38:07</time>
      </trkpt>
      <trkpt lat="41.57293" lon="-0.94221">
        <ele>295.8</ele>
        <time>2022-08-23 18:38:08</time>
      </trkpt>
      <trkpt lat="41.57291" lon="-0.94222">
        <ele>295.6</ele>
        <time>2022-08-23 18:38:09</time>
      </trkpt>
      <trkpt lat="41.5729" lon="-0.94223">
        <ele>295.6</ele>
        <time>2022-08-23 18:38:10</time>
      </trkpt>
      <trkpt lat="41.57287" lon="-0.94226">
        <ele>295.4</ele>
        <time>2022-08-23 18:38:11</time>
      </trkpt>
      <trkpt lat="41.57285" lon="-0.94228">
        <ele>295.4</ele>
        <time>2022-08-23 18:38:12</time>
      </trkpt>
      <trkpt lat="41.57283" lon="-0.9423">
        <ele>295.4</ele>
        <time>2022-08-23 18:38:13</time>
      </trkpt>
      <trkpt lat="41.57281" lon="-0.94233">
        <ele>295.4</ele>
        <time>2022-08-23 18:38:14</time>
      </trkpt>
      <trkpt lat="41.5728" lon="-0.94235">
        <ele>295.4</ele>
        <time>2022-08-23 18:38:15</time>
      </trkpt>
      <trkpt lat="41.57278" lon="-0.94237">
        <ele>295.6</ele>
        <time>2022-08-23 18:38:16</time>
      </trkpt>
      <trkpt lat="41.57276" lon="-0.94239">
        <ele>295.6</ele>
        <time>2022-08-23 18:38:17</time>
      </trkpt>
      <trkpt lat="41.57274" lon="-0.94241">
        <ele>295.6</ele>
        <time>2022-08-23 18:38:18</time>
      </trkpt>
      <trkpt lat="41.57272" lon="-0.94244">
        <ele>295.4</ele>
        <time>2022-08-23 18:38:19</time>
      </trkpt>
      <trkpt lat="41.5727" lon="-0.94247">
        <ele>295.4</ele>
        <time>2022-08-23 18:38:20</time>
      </trkpt>
      <trkpt lat="41.57269" lon="-0.94249">
        <ele>295.2</ele>
        <time>2022-08-23 18:38:21</time>
      </trkpt>
      <trkpt lat="41.57267" lon="-0.94252">
        <ele>295.2</ele>
        <time>2022-08-23 18:38:22</time>
      </trkpt>
      <trkpt lat="41.57265" lon="-0.94254">
        <ele>295.2</ele>
        <time>2022-08-23 18:38:23</time>
      </trkpt>
      <trkpt lat="41.57264" lon="-0.94257">
        <ele>295.2</ele>
        <time>2022-08-23 18:38:24</time>
      </trkpt>
      <trkpt lat="41.57262" lon="-0.94259">
        <ele>295.2</ele>
        <time>2022-08-23 18:38:25</time>
      </trkpt>
      <trkpt lat="41.5726" lon="-0.94261">
        <ele>295</ele>
        <time>2022-08-23 18:38:26</time>
      </trkpt>
      <trkpt lat="41.57258" lon="-0.94263">
        <ele>295</ele>
        <time>2022-08-23 18:38:27</time>
      </trkpt>
      <trkpt lat="41.57256" lon="-0.94265">
        <ele>295</ele>
        <time>2022-08-23 18:38:28</time>
      </trkpt>
      <trkpt lat="41.57254" lon="-0.94267">
        <ele>294.8</ele>
        <time>2022-08-23 18:38:29</time>
      </trkpt>
      <trkpt lat="41.57252" lon="-0.94269">
        <ele>294.8</ele>
        <time>2022-08-23 18:38:30</time>
      </trkpt>
      <trkpt lat="41.5725" lon="-0.9427">
        <ele>294.8</ele>
        <time>2022-08-23 18:38:31</time>
      </trkpt>
      <trkpt lat="41.57248" lon="-0.94272">
        <ele>294.8</ele>
        <time>2022-08-23 18:38:32</time>
      </trkpt>
      <trkpt lat="41.57246" lon="-0.94274">
        <ele>294.8</ele>
        <time>2022-08-23 18:38:33</time>
      </trkpt>
      <trkpt lat="41.57244" lon="-0.94276">
        <ele>294.8</ele>
        <time>2022-08-23 18:38:34</time>
      </trkpt>
      <trkpt lat="41.57242" lon="-0.94277">
        <ele>294.8</ele>
        <time>2022-08-23 18:38:35</time>
      </trkpt>
      <trkpt lat="41.5724" lon="-0.94279">
        <ele>294.8</ele>
        <time>2022-08-23 18:38:36</time>
      </trkpt>
      <trkpt lat="41.57238" lon="-0.94282">
        <ele>294.8</ele>
        <time>2022-08-23 18:38:37</time>
      </trkpt>
      <trkpt lat="41.57236" lon="-0.94284">
        <ele>294.8</ele>
        <time>2022-08-23 18:38:38</time>
      </trkpt>
      <trkpt lat="41.57234" lon="-0.94286">
        <ele>294.6</ele>
        <time>2022-08-23 18:38:39</time>
      </trkpt>
      <trkpt lat="41.57232" lon="-0.94288">
        <ele>294.6</ele>
        <time>2022-08-23 18:38:40</time>
      </trkpt>
      <trkpt lat="41.57231" lon="-0.9429">
        <ele>294.6</ele>
        <time>2022-08-23 18:38:41</time>
      </trkpt>
      <trkpt lat="41.57229" lon="-0.94292">
        <ele>294.6</ele>
        <time>2022-08-23 18:38:42</time>
      </trkpt>
      <trkpt lat="41.57226" lon="-0.94294">
        <ele>294.6</ele>
        <time>2022-08-23 18:38:43</time>
      </trkpt>
      <trkpt lat="41.57224" lon="-0.94295">
        <ele>294.6</ele>
        <time>2022-08-23 18:38:44</time>
      </trkpt>
      <trkpt lat="41.57222" lon="-0.94297">
        <ele>294.6</ele>
        <time>2022-08-23 18:38:45</time>
      </trkpt>
      <trkpt lat="41.5722" lon="-0.94299">
        <ele>294.6</ele>
        <time>2022-08-23 18:38:46</time>
      </trkpt>
      <trkpt lat="41.57218" lon="-0.94301">
        <ele>294.4</ele>
        <time>2022-08-23 18:38:47</time>
      </trkpt>
      <trkpt lat="41.57215" lon="-0.94303">
        <ele>294.4</ele>
        <time>2022-08-23 18:38:48</time>
      </trkpt>
      <trkpt lat="41.57213" lon="-0.94305">
        <ele>294.4</ele>
        <time>2022-08-23 18:38:49</time>
      </trkpt>
      <trkpt lat="41.57211" lon="-0.94307">
        <ele>294.2</ele>
        <time>2022-08-23 18:38:50</time>
      </trkpt>
      <trkpt lat="41.57209" lon="-0.94309">
        <ele>294.2</ele>
        <time>2022-08-23 18:38:51</time>
      </trkpt>
      <trkpt lat="41.57206" lon="-0.94311">
        <ele>294.2</ele>
        <time>2022-08-23 18:38:52</time>
      </trkpt>
      <trkpt lat="41.57204" lon="-0.94314">
        <ele>294.2</ele>
        <time>2022-08-23 18:38:53</time>
      </trkpt>
      <trkpt lat="41.57202" lon="-0.94316">
        <ele>294.2</ele>
        <time>2022-08-23 18:38:54</time>
      </trkpt>
      <trkpt lat="41.572" lon="-0.94318">
        <ele>294.2</ele>
        <time>2022-08-23 18:38:55</time>
      </trkpt>
      <trkpt lat="41.57197" lon="-0.9432">
        <ele>294.2</ele>
        <time>2022-08-23 18:38:56</time>
      </trkpt>
      <trkpt lat="41.57195" lon="-0.94321">
        <ele>294.2</ele>
        <time>2022-08-23 18:38:57</time>
      </trkpt>
      <trkpt lat="41.57193" lon="-0.94323">
        <ele>294.2</ele>
        <time>2022-08-23 18:38:58</time>
      </trkpt>
      <trkpt lat="41.57191" lon="-0.94325">
        <ele>294.2</ele>
        <time>2022-08-23 18:38:59</time>
      </trkpt>
      <trkpt lat="41.57188" lon="-0.94326">
        <ele>294.2</ele>
        <time>2022-08-23 18:39:00</time>
      </trkpt>
      <trkpt lat="41.57186" lon="-0.94328">
        <ele>294.2</ele>
        <time>2022-08-23 18:39:01</time>
      </trkpt>
      <trkpt lat="41.57184" lon="-0.94329">
        <ele>294.2</ele>
        <time>2022-08-23 18:39:02</time>
      </trkpt>
      <trkpt lat="41.57181" lon="-0.9433">
        <ele>294.2</ele>
        <time>2022-08-23 18:39:03</time>
      </trkpt>
      <trkpt lat="41.57178" lon="-0.94332">
        <ele>294.2</ele>
        <time>2022-08-23 18:39:04</time>
      </trkpt>
      <trkpt lat="41.57176" lon="-0.94333">
        <ele>294.2</ele>
        <time>2022-08-23 18:39:05</time>
      </trkpt>
      <trkpt lat="41.57174" lon="-0.94334">
        <ele>294.2</ele>
        <time>2022-08-23 18:39:06</time>
      </trkpt>
      <trkpt lat="41.57171" lon="-0.94336">
        <ele>294.2</ele>
        <time>2022-08-23 18:39:07</time>
      </trkpt>
      <trkpt lat="41.57169" lon="-0.94338">
        <ele>294.2</ele>
        <time>2022-08-23 18:39:08</time>
      </trkpt>
      <trkpt lat="41.57167" lon="-0.9434">
        <ele>294.2</ele>
        <time>2022-08-23 18:39:09</time>
      </trkpt>
      <trkpt lat="41.57164" lon="-0.94341">
        <ele>294.2</ele>
        <time>2022-08-23 18:39:10</time>
      </trkpt>
      <trkpt lat="41.57162" lon="-0.94342">
        <ele>294.2</ele>
        <time>2022-08-23 18:39:11</time>
      </trkpt>
      <trkpt lat="41.5716" lon="-0.94344">
        <ele>294.2</ele>
        <time>2022-08-23 18:39:12</time>
      </trkpt>
      <trkpt lat="41.57158" lon="-0.94345">
        <ele>294.2</ele>
        <time>2022-08-23 18:39:13</time>
      </trkpt>
      <trkpt lat="41.57155" lon="-0.94347">
        <ele>294.2</ele>
        <time>2022-08-23 18:39:14</time>
      </trkpt>
      <trkpt lat="41.57153" lon="-0.94349">
        <ele>294.4</ele>
        <time>2022-08-23 18:39:15</time>
      </trkpt>
      <trkpt lat="41.57151" lon="-0.94351">
        <ele>294.4</ele>
        <time>2022-08-23 18:39:16</time>
      </trkpt>
      <trkpt lat="41.57148" lon="-0.94353">
        <ele>294.4</ele>
        <time>2022-08-23 18:39:17</time>
      </trkpt>
      <trkpt lat="41.57146" lon="-0.94356">
        <ele>294.6</ele>
        <time>2022-08-23 18:39:18</time>
      </trkpt>
      <trkpt lat="41.57144" lon="-0.94358">
        <ele>294.6</ele>
        <time>2022-08-23 18:39:19</time>
      </trkpt>
      <trkpt lat="41.57142" lon="-0.94361">
        <ele>294.6</ele>
        <time>2022-08-23 18:39:20</time>
      </trkpt>
      <trkpt lat="41.5714" lon="-0.94363">
        <ele>294.8</ele>
        <time>2022-08-23 18:39:21</time>
      </trkpt>
      <trkpt lat="41.57138" lon="-0.94365">
        <ele>294.8</ele>
        <time>2022-08-23 18:39:22</time>
      </trkpt>
      <trkpt lat="41.57136" lon="-0.94367">
        <ele>295</ele>
        <time>2022-08-23 18:39:23</time>
      </trkpt>
      <trkpt lat="41.57134" lon="-0.94369">
        <ele>295</ele>
        <time>2022-08-23 18:39:24</time>
      </trkpt>
      <trkpt lat="41.57132" lon="-0.94371">
        <ele>295</ele>
        <time>2022-08-23 18:39:25</time>
      </trkpt>
      <trkpt lat="41.57129" lon="-0.94373">
        <ele>295</ele>
        <time>2022-08-23 18:39:26</time>
      </trkpt>
      <trkpt lat="41.57127" lon="-0.94374">
        <ele>295</ele>
        <time>2022-08-23 18:39:27</time>
      </trkpt>
      <trkpt lat="41.57125" lon="-0.94376">
        <ele>295</ele>
        <time>2022-08-23 18:39:28</time>
      </trkpt>
      <trkpt lat="41.57122" lon="-0.94378">
        <ele>295</ele>
        <time>2022-08-23 18:39:29</time>
      </trkpt>
      <trkpt lat="41.5712" lon="-0.9438">
        <ele>295</ele>
        <time>2022-08-23 18:39:30</time>
      </trkpt>
      <trkpt lat="41.57118" lon="-0.94381">
        <ele>295</ele>
        <time>2022-08-23 18:39:31</time>
      </trkpt>
      <trkpt lat="41.57116" lon="-0.94383">
        <ele>295</ele>
        <time>2022-08-23 18:39:32</time>
      </trkpt>
      <trkpt lat="41.57114" lon="-0.94385">
        <ele>295.2</ele>
        <time>2022-08-23 18:39:33</time>
      </trkpt>
      <trkpt lat="41.57112" lon="-0.94386">
        <ele>295.2</ele>
        <time>2022-08-23 18:39:34</time>
      </trkpt>
      <trkpt lat="41.57109" lon="-0.94388">
        <ele>295.2</ele>
        <time>2022-08-23 18:39:35</time>
      </trkpt>
      <trkpt lat="41.57107" lon="-0.94389">
        <ele>295.4</ele>
        <time>2022-08-23 18:39:36</time>
      </trkpt>
      <trkpt lat="41.57105" lon="-0.94391">
        <ele>295.4</ele>
        <time>2022-08-23 18:39:37</time>
      </trkpt>
      <trkpt lat="41.57103" lon="-0.94392">
        <ele>295.4</ele>
        <time>2022-08-23 18:39:38</time>
      </trkpt>
      <trkpt lat="41.57101" lon="-0.94394">
        <ele>295.6</ele>
        <time>2022-08-23 18:39:39</time>
      </trkpt>
      <trkpt lat="41.57098" lon="-0.94395">
        <ele>295.6</ele>
        <time>2022-08-23 18:39:40</time>
      </trkpt>
      <trkpt lat="41.57096" lon="-0.94396">
        <ele>295.8</ele>
        <time>2022-08-23 18:39:41</time>
      </trkpt>
      <trkpt lat="41.57094" lon="-0.94398">
        <ele>295.8</ele>
        <time>2022-08-23 18:39:42</time>
      </trkpt>
      <trkpt lat="41.57092" lon="-0.944">
        <ele>295.8</ele>
        <time>2022-08-23 18:39:43</time>
      </trkpt>
      <trkpt lat="41.5709" lon="-0.94401">
        <ele>296</ele>
        <time>2022-08-23 18:39:44</time>
      </trkpt>
      <trkpt lat="41.57087" lon="-0.94403">
        <ele>296</ele>
        <time>2022-08-23 18:39:45</time>
      </trkpt>
      <trkpt lat="41.57085" lon="-0.94404">
        <ele>296</ele>
        <time>2022-08-23 18:39:46</time>
      </trkpt>
      <trkpt lat="41.57083" lon="-0.94406">
        <ele>296.2</ele>
        <time>2022-08-23 18:39:47</time>
      </trkpt>
      <trkpt lat="41.5708" lon="-0.94408">
        <ele>296.2</ele>
        <time>2022-08-23 18:39:48</time>
      </trkpt>
      <trkpt lat="41.57078" lon="-0.94409">
        <ele>296.2</ele>
        <time>2022-08-23 18:39:49</time>
      </trkpt>
      <trkpt lat="41.57076" lon="-0.94411">
        <ele>296.2</ele>
        <time>2022-08-23 18:39:50</time>
      </trkpt>
      <trkpt lat="41.57074" lon="-0.94412">
        <ele>296.4</ele>
        <time>2022-08-23 18:39:51</time>
      </trkpt>
      <trkpt lat="41.57072" lon="-0.94414">
        <ele>296.4</ele>
        <time>2022-08-23 18:39:52</time>
      </trkpt>
      <trkpt lat="41.5707" lon="-0.94416">
        <ele>296.4</ele>
        <time>2022-08-23 18:39:53</time>
      </trkpt>
      <trkpt lat="41.57067" lon="-0.94417">
        <ele>296.4</ele>
        <time>2022-08-23 18:39:54</time>
      </trkpt>
      <trkpt lat="41.57065" lon="-0.94419">
        <ele>296.4</ele>
        <time>2022-08-23 18:39:55</time>
      </trkpt>
      <trkpt lat="41.57063" lon="-0.94421">
        <ele>296.6</ele>
        <time>2022-08-23 18:39:56</time>
      </trkpt>
      <trkpt lat="41.57061" lon="-0.94422">
        <ele>296.6</ele>
        <time>2022-08-23 18:39:57</time>
      </trkpt>
      <trkpt lat="41.57059" lon="-0.94424">
        <ele>296.6</ele>
        <time>2022-08-23 18:39:58</time>
      </trkpt>
      <trkpt lat="41.57057" lon="-0.94425">
        <ele>296.8</ele>
        <time>2022-08-23 18:39:59</time>
      </trkpt>
      <trkpt lat="41.57054" lon="-0.94427">
        <ele>297</ele>
        <time>2022-08-23 18:40:00</time>
      </trkpt>
      <trkpt lat="41.57052" lon="-0.94428">
        <ele>297</ele>
        <time>2022-08-23 18:40:01</time>
      </trkpt>
      <trkpt lat="41.5705" lon="-0.9443">
        <ele>297</ele>
        <time>2022-08-23 18:40:02</time>
      </trkpt>
      <trkpt lat="41.57048" lon="-0.94431">
        <ele>297</ele>
        <time>2022-08-23 18:40:03</time>
      </trkpt>
      <trkpt lat="41.57045" lon="-0.94432">
        <ele>297</ele>
        <time>2022-08-23 18:40:04</time>
      </trkpt>
      <trkpt lat="41.57043" lon="-0.94434">
        <ele>297.2</ele>
        <time>2022-08-23 18:40:05</time>
      </trkpt>
      <trkpt lat="41.57041" lon="-0.94436">
        <ele>297</ele>
        <time>2022-08-23 18:40:06</time>
      </trkpt>
      <trkpt lat="41.57038" lon="-0.94438">
        <ele>297.2</ele>
        <time>2022-08-23 18:40:07</time>
      </trkpt>
      <trkpt lat="41.57036" lon="-0.9444">
        <ele>297.2</ele>
        <time>2022-08-23 18:40:08</time>
      </trkpt>
      <trkpt lat="41.57034" lon="-0.94441">
        <ele>297.2</ele>
        <time>2022-08-23 18:40:09</time>
      </trkpt>
      <trkpt lat="41.57032" lon="-0.94443">
        <ele>297.2</ele>
        <time>2022-08-23 18:40:10</time>
      </trkpt>
      <trkpt lat="41.5703" lon="-0.94445">
        <ele>297</ele>
        <time>2022-08-23 18:40:11</time>
      </trkpt>
      <trkpt lat="41.57028" lon="-0.94446">
        <ele>297</ele>
        <time>2022-08-23 18:40:12</time>
      </trkpt>
      <trkpt lat="41.57026" lon="-0.94448">
        <ele>297</ele>
        <time>2022-08-23 18:40:13</time>
      </trkpt>
      <trkpt lat="41.57024" lon="-0.9445">
        <ele>297</ele>
        <time>2022-08-23 18:40:14</time>
      </trkpt>
      <trkpt lat="41.57022" lon="-0.94452">
        <ele>297</ele>
        <time>2022-08-23 18:40:15</time>
      </trkpt>
      <trkpt lat="41.5702" lon="-0.94454">
        <ele>297</ele>
        <time>2022-08-23 18:40:16</time>
      </trkpt>
      <trkpt lat="41.57018" lon="-0.94455">
        <ele>297</ele>
        <time>2022-08-23 18:40:17</time>
      </trkpt>
      <trkpt lat="41.57016" lon="-0.94457">
        <ele>297</ele>
        <time>2022-08-23 18:40:18</time>
      </trkpt>
      <trkpt lat="41.57015" lon="-0.94459">
        <ele>297</ele>
        <time>2022-08-23 18:40:19</time>
      </trkpt>
      <trkpt lat="41.57013" lon="-0.94461">
        <ele>297.2</ele>
        <time>2022-08-23 18:40:20</time>
      </trkpt>
      <trkpt lat="41.57011" lon="-0.94463">
        <ele>297.2</ele>
        <time>2022-08-23 18:40:21</time>
      </trkpt>
      <trkpt lat="41.57009" lon="-0.94465">
        <ele>297.2</ele>
        <time>2022-08-23 18:40:22</time>
      </trkpt>
      <trkpt lat="41.57007" lon="-0.94467">
        <ele>297.4</ele>
        <time>2022-08-23 18:40:23</time>
      </trkpt>
      <trkpt lat="41.57006" lon="-0.94469">
        <ele>297.4</ele>
        <time>2022-08-23 18:40:24</time>
      </trkpt>
      <trkpt lat="41.57003" lon="-0.94471">
        <ele>297.6</ele>
        <time>2022-08-23 18:40:25</time>
      </trkpt>
      <trkpt lat="41.57002" lon="-0.94473">
        <ele>297.6</ele>
        <time>2022-08-23 18:40:26</time>
      </trkpt>
      <trkpt lat="41.57" lon="-0.94475">
        <ele>297.6</ele>
        <time>2022-08-23 18:40:27</time>
      </trkpt>
      <trkpt lat="41.56997" lon="-0.94477">
        <ele>297.6</ele>
        <time>2022-08-23 18:40:28</time>
      </trkpt>
      <trkpt lat="41.56995" lon="-0.94479">
        <ele>297.6</ele>
        <time>2022-08-23 18:40:29</time>
      </trkpt>
      <trkpt lat="41.56993" lon="-0.94481">
        <ele>297.6</ele>
        <time>2022-08-23 18:40:30</time>
      </trkpt>
      <trkpt lat="41.56991" lon="-0.94483">
        <ele>297.6</ele>
        <time>2022-08-23 18:40:31</time>
      </trkpt>
      <trkpt lat="41.5699" lon="-0.94485">
        <ele>297.6</ele>
        <time>2022-08-23 18:40:32</time>
      </trkpt>
      <trkpt lat="41.56987" lon="-0.94487">
        <ele>297.4</ele>
        <time>2022-08-23 18:40:33</time>
      </trkpt>
      <trkpt lat="41.56985" lon="-0.94489">
        <ele>297.4</ele>
        <time>2022-08-23 18:40:34</time>
      </trkpt>
      <trkpt lat="41.56983" lon="-0.9449">
        <ele>297.4</ele>
        <time>2022-08-23 18:40:35</time>
      </trkpt>
      <trkpt lat="41.56982" lon="-0.94493">
        <ele>297.6</ele>
        <time>2022-08-23 18:40:36</time>
      </trkpt>
      <trkpt lat="41.5698" lon="-0.94495">
        <ele>297.6</ele>
        <time>2022-08-23 18:40:37</time>
      </trkpt>
      <trkpt lat="41.56978" lon="-0.94497">
        <ele>297.8</ele>
        <time>2022-08-23 18:40:38</time>
      </trkpt>
      <trkpt lat="41.56976" lon="-0.94499">
        <ele>297.8</ele>
        <time>2022-08-23 18:40:39</time>
      </trkpt>
      <trkpt lat="41.56974" lon="-0.94501">
        <ele>297.8</ele>
        <time>2022-08-23 18:40:40</time>
      </trkpt>
      <trkpt lat="41.56972" lon="-0.94503">
        <ele>297.8</ele>
        <time>2022-08-23 18:40:41</time>
      </trkpt>
      <trkpt lat="41.5697" lon="-0.94506">
        <ele>297.8</ele>
        <time>2022-08-23 18:40:42</time>
      </trkpt>
      <trkpt lat="41.56969" lon="-0.94509">
        <ele>297.8</ele>
        <time>2022-08-23 18:40:43</time>
      </trkpt>
      <trkpt lat="41.56967" lon="-0.94511">
        <ele>297.8</ele>
        <time>2022-08-23 18:40:44</time>
      </trkpt>
      <trkpt lat="41.56965" lon="-0.94513">
        <ele>297.8</ele>
        <time>2022-08-23 18:40:45</time>
      </trkpt>
      <trkpt lat="41.56963" lon="-0.94516">
        <ele>297.8</ele>
        <time>2022-08-23 18:40:46</time>
      </trkpt>
      <trkpt lat="41.56962" lon="-0.94519">
        <ele>297.8</ele>
        <time>2022-08-23 18:40:47</time>
      </trkpt>
      <trkpt lat="41.5696" lon="-0.94521">
        <ele>298</ele>
        <time>2022-08-23 18:40:48</time>
      </trkpt>
      <trkpt lat="41.56959" lon="-0.94524">
        <ele>298.2</ele>
        <time>2022-08-23 18:40:49</time>
      </trkpt>
      <trkpt lat="41.56957" lon="-0.94526">
        <ele>298.2</ele>
        <time>2022-08-23 18:40:50</time>
      </trkpt>
      <trkpt lat="41.56956" lon="-0.94529">
        <ele>298.2</ele>
        <time>2022-08-23 18:40:51</time>
      </trkpt>
      <trkpt lat="41.56954" lon="-0.94531">
        <ele>298.2</ele>
        <time>2022-08-23 18:40:52</time>
      </trkpt>
      <trkpt lat="41.56953" lon="-0.94534">
        <ele>298.2</ele>
        <time>2022-08-23 18:40:53</time>
      </trkpt>
      <trkpt lat="41.56952" lon="-0.94537">
        <ele>298.2</ele>
        <time>2022-08-23 18:40:54</time>
      </trkpt>
      <trkpt lat="41.5695" lon="-0.9454">
        <ele>298.2</ele>
        <time>2022-08-23 18:40:55</time>
      </trkpt>
      <trkpt lat="41.56949" lon="-0.94543">
        <ele>298.2</ele>
        <time>2022-08-23 18:40:56</time>
      </trkpt>
      <trkpt lat="41.56947" lon="-0.94546">
        <ele>298.2</ele>
        <time>2022-08-23 18:40:57</time>
      </trkpt>
      <trkpt lat="41.56946" lon="-0.94549">
        <ele>298.2</ele>
        <time>2022-08-23 18:40:58</time>
      </trkpt>
      <trkpt lat="41.56944" lon="-0.94552">
        <ele>298.4</ele>
        <time>2022-08-23 18:40:59</time>
      </trkpt>
      <trkpt lat="41.56942" lon="-0.94554">
        <ele>298.6</ele>
        <time>2022-08-23 18:41:00</time>
      </trkpt>
      <trkpt lat="41.5694" lon="-0.94557">
        <ele>298.6</ele>
        <time>2022-08-23 18:41:01</time>
      </trkpt>
      <trkpt lat="41.56939" lon="-0.94559">
        <ele>298.6</ele>
        <time>2022-08-23 18:41:02</time>
      </trkpt>
      <trkpt lat="41.56938" lon="-0.94562">
        <ele>298.6</ele>
        <time>2022-08-23 18:41:03</time>
      </trkpt>
      <trkpt lat="41.56936" lon="-0.94565">
        <ele>298.8</ele>
        <time>2022-08-23 18:41:04</time>
      </trkpt>
      <trkpt lat="41.56935" lon="-0.94567">
        <ele>298.8</ele>
        <time>2022-08-23 18:41:05</time>
      </trkpt>
      <trkpt lat="41.56934" lon="-0.9457">
        <ele>298.8</ele>
        <time>2022-08-23 18:41:06</time>
      </trkpt>
      <trkpt lat="41.56933" lon="-0.94573">
        <ele>299</ele>
        <time>2022-08-23 18:41:07</time>
      </trkpt>
      <trkpt lat="41.56931" lon="-0.94576">
        <ele>299</ele>
        <time>2022-08-23 18:41:08</time>
      </trkpt>
      <trkpt lat="41.5693" lon="-0.94578">
        <ele>299.2</ele>
        <time>2022-08-23 18:41:09</time>
      </trkpt>
      <trkpt lat="41.56928" lon="-0.94581">
        <ele>299.2</ele>
        <time>2022-08-23 18:41:10</time>
      </trkpt>
      <trkpt lat="41.56927" lon="-0.94583">
        <ele>299.2</ele>
        <time>2022-08-23 18:41:11</time>
      </trkpt>
      <trkpt lat="41.56925" lon="-0.94586">
        <ele>299.4</ele>
        <time>2022-08-23 18:41:12</time>
      </trkpt>
      <trkpt lat="41.56924" lon="-0.94589">
        <ele>299.4</ele>
        <time>2022-08-23 18:41:13</time>
      </trkpt>
      <trkpt lat="41.56922" lon="-0.94591">
        <ele>299.4</ele>
        <time>2022-08-23 18:41:14</time>
      </trkpt>
      <trkpt lat="41.5692" lon="-0.94593">
        <ele>299.4</ele>
        <time>2022-08-23 18:41:15</time>
      </trkpt>
      <trkpt lat="41.56919" lon="-0.94596">
        <ele>299.4</ele>
        <time>2022-08-23 18:41:16</time>
      </trkpt>
      <trkpt lat="41.56917" lon="-0.94598">
        <ele>299.4</ele>
        <time>2022-08-23 18:41:17</time>
      </trkpt>
      <trkpt lat="41.56915" lon="-0.946">
        <ele>299.6</ele>
        <time>2022-08-23 18:41:18</time>
      </trkpt>
      <trkpt lat="41.56913" lon="-0.94602">
        <ele>299.6</ele>
        <time>2022-08-23 18:41:19</time>
      </trkpt>
      <trkpt lat="41.56912" lon="-0.94604">
        <ele>299.8</ele>
        <time>2022-08-23 18:41:20</time>
      </trkpt>
      <trkpt lat="41.5691" lon="-0.94606">
        <ele>299.8</ele>
        <time>2022-08-23 18:41:21</time>
      </trkpt>
      <trkpt lat="41.56908" lon="-0.94609">
        <ele>299.8</ele>
        <time>2022-08-23 18:41:22</time>
      </trkpt>
      <trkpt lat="41.56906" lon="-0.94611">
        <ele>299.8</ele>
        <time>2022-08-23 18:41:23</time>
      </trkpt>
      <trkpt lat="41.56904" lon="-0.94613">
        <ele>299.8</ele>
        <time>2022-08-23 18:41:24</time>
      </trkpt>
      <trkpt lat="41.56903" lon="-0.94615">
        <ele>299.8</ele>
        <time>2022-08-23 18:41:25</time>
      </trkpt>
      <trkpt lat="41.569" lon="-0.94617">
        <ele>299.8</ele>
        <time>2022-08-23 18:41:26</time>
      </trkpt>
      <trkpt lat="41.56898" lon="-0.94619">
        <ele>299.8</ele>
        <time>2022-08-23 18:41:27</time>
      </trkpt>
      <trkpt lat="41.56897" lon="-0.94621">
        <ele>299.8</ele>
        <time>2022-08-23 18:41:28</time>
      </trkpt>
      <trkpt lat="41.56894" lon="-0.94623">
        <ele>300</ele>
        <time>2022-08-23 18:41:29</time>
      </trkpt>
      <trkpt lat="41.56892" lon="-0.94625">
        <ele>300.2</ele>
        <time>2022-08-23 18:41:30</time>
      </trkpt>
      <trkpt lat="41.5689" lon="-0.94627">
        <ele>300.2</ele>
        <time>2022-08-23 18:41:31</time>
      </trkpt>
      <trkpt lat="41.56888" lon="-0.94629">
        <ele>300.2</ele>
        <time>2022-08-23 18:41:32</time>
      </trkpt>
      <trkpt lat="41.56886" lon="-0.94631">
        <ele>300.4</ele>
        <time>2022-08-23 18:41:33</time>
      </trkpt>
      <trkpt lat="41.56884" lon="-0.94633">
        <ele>300.4</ele>
        <time>2022-08-23 18:41:34</time>
      </trkpt>
      <trkpt lat="41.56882" lon="-0.94635">
        <ele>300.4</ele>
        <time>2022-08-23 18:41:35</time>
      </trkpt>
      <trkpt lat="41.5688" lon="-0.94637">
        <ele>300.4</ele>
        <time>2022-08-23 18:41:36</time>
      </trkpt>
      <trkpt lat="41.56878" lon="-0.94639">
        <ele>300.4</ele>
        <time>2022-08-23 18:41:37</time>
      </trkpt>
      <trkpt lat="41.56876" lon="-0.94641">
        <ele>300.6</ele>
        <time>2022-08-23 18:41:38</time>
      </trkpt>
      <trkpt lat="41.56875" lon="-0.94643">
        <ele>300.6</ele>
        <time>2022-08-23 18:41:39</time>
      </trkpt>
      <trkpt lat="41.56872" lon="-0.94646">
        <ele>300.6</ele>
        <time>2022-08-23 18:41:40</time>
      </trkpt>
      <trkpt lat="41.5687" lon="-0.94648">
        <ele>300.6</ele>
        <time>2022-08-23 18:41:41</time>
      </trkpt>
      <trkpt lat="41.56868" lon="-0.9465">
        <ele>300.6</ele>
        <time>2022-08-23 18:41:42</time>
      </trkpt>
      <trkpt lat="41.56866" lon="-0.94653">
        <ele>300.8</ele>
        <time>2022-08-23 18:41:43</time>
      </trkpt>
      <trkpt lat="41.56864" lon="-0.94655">
        <ele>300.8</ele>
        <time>2022-08-23 18:41:44</time>
      </trkpt>
      <trkpt lat="41.56862" lon="-0.94657">
        <ele>301</ele>
        <time>2022-08-23 18:41:45</time>
      </trkpt>
      <trkpt lat="41.56859" lon="-0.94659">
        <ele>301</ele>
        <time>2022-08-23 18:41:46</time>
      </trkpt>
      <trkpt lat="41.56857" lon="-0.94661">
        <ele>301</ele>
        <time>2022-08-23 18:41:47</time>
      </trkpt>
      <trkpt lat="41.56855" lon="-0.94664">
        <ele>301</ele>
        <time>2022-08-23 18:41:48</time>
      </trkpt>
      <trkpt lat="41.56853" lon="-0.94667">
        <ele>301</ele>
        <time>2022-08-23 18:41:49</time>
      </trkpt>
      <trkpt lat="41.56851" lon="-0.9467">
        <ele>301</ele>
        <time>2022-08-23 18:41:50</time>
      </trkpt>
      <trkpt lat="41.5685" lon="-0.94673">
        <ele>301</ele>
        <time>2022-08-23 18:41:51</time>
      </trkpt>
      <trkpt lat="41.56848" lon="-0.94676">
        <ele>300.8</ele>
        <time>2022-08-23 18:41:52</time>
      </trkpt>
      <trkpt lat="41.56846" lon="-0.94679">
        <ele>300.8</ele>
        <time>2022-08-23 18:41:53</time>
      </trkpt>
      <trkpt lat="41.56845" lon="-0.94682">
        <ele>300.8</ele>
        <time>2022-08-23 18:41:54</time>
      </trkpt>
      <trkpt lat="41.56843" lon="-0.94684">
        <ele>300.8</ele>
        <time>2022-08-23 18:41:55</time>
      </trkpt>
      <trkpt lat="41.56841" lon="-0.94687">
        <ele>300.8</ele>
        <time>2022-08-23 18:41:56</time>
      </trkpt>
      <trkpt lat="41.56839" lon="-0.94689">
        <ele>300.8</ele>
        <time>2022-08-23 18:41:57</time>
      </trkpt>
      <trkpt lat="41.56837" lon="-0.94692">
        <ele>300.8</ele>
        <time>2022-08-23 18:41:58</time>
      </trkpt>
      <trkpt lat="41.56835" lon="-0.94694">
        <ele>300.8</ele>
        <time>2022-08-23 18:41:59</time>
      </trkpt>
      <trkpt lat="41.56833" lon="-0.94696">
        <ele>300.8</ele>
        <time>2022-08-23 18:42:00</time>
      </trkpt>
      <trkpt lat="41.56831" lon="-0.94698">
        <ele>300.8</ele>
        <time>2022-08-23 18:42:01</time>
      </trkpt>
      <trkpt lat="41.56829" lon="-0.947">
        <ele>300.8</ele>
        <time>2022-08-23 18:42:02</time>
      </trkpt>
      <trkpt lat="41.56827" lon="-0.94702">
        <ele>300.6</ele>
        <time>2022-08-23 18:42:03</time>
      </trkpt>
      <trkpt lat="41.56826" lon="-0.94704">
        <ele>300.6</ele>
        <time>2022-08-23 18:42:04</time>
      </trkpt>
      <trkpt lat="41.56824" lon="-0.94706">
        <ele>300.4</ele>
        <time>2022-08-23 18:42:05</time>
      </trkpt>
      <trkpt lat="41.56822" lon="-0.94708">
        <ele>300.4</ele>
        <time>2022-08-23 18:42:06</time>
      </trkpt>
      <trkpt lat="41.5682" lon="-0.9471">
        <ele>300.4</ele>
        <time>2022-08-23 18:42:07</time>
      </trkpt>
      <trkpt lat="41.56818" lon="-0.94712">
        <ele>300.4</ele>
        <time>2022-08-23 18:42:08</time>
      </trkpt>
      <trkpt lat="41.56816" lon="-0.94714">
        <ele>300.4</ele>
        <time>2022-08-23 18:42:09</time>
      </trkpt>
      <trkpt lat="41.56813" lon="-0.94716">
        <ele>300.4</ele>
        <time>2022-08-23 18:42:10</time>
      </trkpt>
      <trkpt lat="41.56811" lon="-0.94718">
        <ele>300.4</ele>
        <time>2022-08-23 18:42:11</time>
      </trkpt>
      <trkpt lat="41.56809" lon="-0.94719">
        <ele>300.4</ele>
        <time>2022-08-23 18:42:12</time>
      </trkpt>
      <trkpt lat="41.56807" lon="-0.94721">
        <ele>300.4</ele>
        <time>2022-08-23 18:42:13</time>
      </trkpt>
      <trkpt lat="41.56805" lon="-0.94723">
        <ele>300.6</ele>
        <time>2022-08-23 18:42:14</time>
      </trkpt>
      <trkpt lat="41.56803" lon="-0.94725">
        <ele>300.4</ele>
        <time>2022-08-23 18:42:15</time>
      </trkpt>
      <trkpt lat="41.56802" lon="-0.94726">
        <ele>300.6</ele>
        <time>2022-08-23 18:42:16</time>
      </trkpt>
      <trkpt lat="41.56783" lon="-0.94744">
        <ele>299.2</ele>
        <time>2022-08-23 18:44:02</time>
      </trkpt>
      <trkpt lat="41.56781" lon="-0.94745">
        <ele>299.2</ele>
        <time>2022-08-23 18:44:03</time>
      </trkpt>
      <trkpt lat="41.5678" lon="-0.94746">
        <ele>299.2</ele>
        <time>2022-08-23 18:44:04</time>
      </trkpt>
      <trkpt lat="41.56778" lon="-0.94747">
        <ele>299.2</ele>
        <time>2022-08-23 18:44:05</time>
      </trkpt>
      <trkpt lat="41.56775" lon="-0.94749">
        <ele>299.2</ele>
        <time>2022-08-23 18:44:06</time>
      </trkpt>
      <trkpt lat="41.56773" lon="-0.9475">
        <ele>299.4</ele>
        <time>2022-08-23 18:44:07</time>
      </trkpt>
      <trkpt lat="41.56771" lon="-0.94752">
        <ele>299.2</ele>
        <time>2022-08-23 18:44:08</time>
      </trkpt>
      <trkpt lat="41.56768" lon="-0.94754">
        <ele>299.2</ele>
        <time>2022-08-23 18:44:09</time>
      </trkpt>
      <trkpt lat="41.56766" lon="-0.94756">
        <ele>299.2</ele>
        <time>2022-08-23 18:44:10</time>
      </trkpt>
      <trkpt lat="41.56763" lon="-0.94759">
        <ele>299.2</ele>
        <time>2022-08-23 18:44:11</time>
      </trkpt>
      <trkpt lat="41.56761" lon="-0.94761">
        <ele>299.4</ele>
        <time>2022-08-23 18:44:12</time>
      </trkpt>
      <trkpt lat="41.56759" lon="-0.94764">
        <ele>299.2</ele>
        <time>2022-08-23 18:44:13</time>
      </trkpt>
      <trkpt lat="41.56756" lon="-0.94766">
        <ele>299.2</ele>
        <time>2022-08-23 18:44:14</time>
      </trkpt>
      <trkpt lat="41.56754" lon="-0.94769">
        <ele>299.2</ele>
        <time>2022-08-23 18:44:15</time>
      </trkpt>
      <trkpt lat="41.56752" lon="-0.94772">
        <ele>299</ele>
        <time>2022-08-23 18:44:16</time>
      </trkpt>
      <trkpt lat="41.5675" lon="-0.94775">
        <ele>299</ele>
        <time>2022-08-23 18:44:17</time>
      </trkpt>
      <trkpt lat="41.56748" lon="-0.94778">
        <ele>299</ele>
        <time>2022-08-23 18:44:18</time>
      </trkpt>
      <trkpt lat="41.56746" lon="-0.94781">
        <ele>298.8</ele>
        <time>2022-08-23 18:44:19</time>
      </trkpt>
      <trkpt lat="41.56744" lon="-0.94784">
        <ele>298.8</ele>
        <time>2022-08-23 18:44:20</time>
      </trkpt>
      <trkpt lat="41.56742" lon="-0.94787">
        <ele>298.8</ele>
        <time>2022-08-23 18:44:21</time>
      </trkpt>
      <trkpt lat="41.5674" lon="-0.9479">
        <ele>298.8</ele>
        <time>2022-08-23 18:44:22</time>
      </trkpt>
      <trkpt lat="41.56738" lon="-0.94794">
        <ele>298.6</ele>
        <time>2022-08-23 18:44:23</time>
      </trkpt>
      <trkpt lat="41.56736" lon="-0.94797">
        <ele>298.4</ele>
        <time>2022-08-23 18:44:24</time>
      </trkpt>
      <trkpt lat="41.56734" lon="-0.948">
        <ele>298.2</ele>
        <time>2022-08-23 18:44:25</time>
      </trkpt>
      <trkpt lat="41.56731" lon="-0.94803">
        <ele>298</ele>
        <time>2022-08-23 18:44:26</time>
      </trkpt>
      <trkpt lat="41.56729" lon="-0.94806">
        <ele>297.8</ele>
        <time>2022-08-23 18:44:27</time>
      </trkpt>
      <trkpt lat="41.56727" lon="-0.94809">
        <ele>297.8</ele>
        <time>2022-08-23 18:44:28</time>
      </trkpt>
      <trkpt lat="41.56725" lon="-0.94812">
        <ele>297.6</ele>
        <time>2022-08-23 18:44:29</time>
      </trkpt>
      <trkpt lat="41.56723" lon="-0.94815">
        <ele>297.6</ele>
        <time>2022-08-23 18:44:30</time>
      </trkpt>
      <trkpt lat="41.56721" lon="-0.94818">
        <ele>297.4</ele>
        <time>2022-08-23 18:44:31</time>
      </trkpt>
      <trkpt lat="41.56719" lon="-0.94821">
        <ele>297.4</ele>
        <time>2022-08-23 18:44:32</time>
      </trkpt>
      <trkpt lat="41.56717" lon="-0.94824">
        <ele>297.2</ele>
        <time>2022-08-23 18:44:33</time>
      </trkpt>
      <trkpt lat="41.56715" lon="-0.94826">
        <ele>297</ele>
        <time>2022-08-23 18:44:34</time>
      </trkpt>
      <trkpt lat="41.56712" lon="-0.94829">
        <ele>296.8</ele>
        <time>2022-08-23 18:44:35</time>
      </trkpt>
      <trkpt lat="41.56711" lon="-0.94832">
        <ele>296.8</ele>
        <time>2022-08-23 18:44:36</time>
      </trkpt>
      <trkpt lat="41.56709" lon="-0.94835">
        <ele>296.6</ele>
        <time>2022-08-23 18:44:37</time>
      </trkpt>
      <trkpt lat="41.56707" lon="-0.94838">
        <ele>296.4</ele>
        <time>2022-08-23 18:44:38</time>
      </trkpt>
      <trkpt lat="41.56705" lon="-0.94841">
        <ele>296.4</ele>
        <time>2022-08-23 18:44:39</time>
      </trkpt>
      <trkpt lat="41.56704" lon="-0.94845">
        <ele>296.4</ele>
        <time>2022-08-23 18:44:40</time>
      </trkpt>
      <trkpt lat="41.56703" lon="-0.94849">
        <ele>296.4</ele>
        <time>2022-08-23 18:44:41</time>
      </trkpt>
      <trkpt lat="41.56702" lon="-0.94853">
        <ele>296.2</ele>
        <time>2022-08-23 18:44:42</time>
      </trkpt>
      <trkpt lat="41.56702" lon="-0.94857">
        <ele>296.2</ele>
        <time>2022-08-23 18:44:43</time>
      </trkpt>
      <trkpt lat="41.56702" lon="-0.94861">
        <ele>296</ele>
        <time>2022-08-23 18:44:44</time>
      </trkpt>
      <trkpt lat="41.56702" lon="-0.94865">
        <ele>296</ele>
        <time>2022-08-23 18:44:45</time>
      </trkpt>
      <trkpt lat="41.56703" lon="-0.94868">
        <ele>295.8</ele>
        <time>2022-08-23 18:44:46</time>
      </trkpt>
      <trkpt lat="41.56704" lon="-0.94872">
        <ele>295.8</ele>
        <time>2022-08-23 18:44:47</time>
      </trkpt>
      <trkpt lat="41.56706" lon="-0.94874">
        <ele>295.6</ele>
        <time>2022-08-23 18:44:48</time>
      </trkpt>
      <trkpt lat="41.56707" lon="-0.94877">
        <ele>295.6</ele>
        <time>2022-08-23 18:44:49</time>
      </trkpt>
      <trkpt lat="41.56709" lon="-0.9488">
        <ele>295.4</ele>
        <time>2022-08-23 18:44:50</time>
      </trkpt>
      <trkpt lat="41.56711" lon="-0.94882">
        <ele>295.4</ele>
        <time>2022-08-23 18:44:51</time>
      </trkpt>
      <trkpt lat="41.56713" lon="-0.94884">
        <ele>295.4</ele>
        <time>2022-08-23 18:44:52</time>
      </trkpt>
      <trkpt lat="41.56715" lon="-0.94886">
        <ele>295.2</ele>
        <time>2022-08-23 18:44:53</time>
      </trkpt>
      <trkpt lat="41.56718" lon="-0.94888">
        <ele>295.2</ele>
        <time>2022-08-23 18:44:54</time>
      </trkpt>
      <trkpt lat="41.5672" lon="-0.94889">
        <ele>295.2</ele>
        <time>2022-08-23 18:44:55</time>
      </trkpt>
      <trkpt lat="41.56723" lon="-0.9489">
        <ele>295.2</ele>
        <time>2022-08-23 18:44:56</time>
      </trkpt>
      <trkpt lat="41.56726" lon="-0.94891">
        <ele>295.4</ele>
        <time>2022-08-23 18:44:57</time>
      </trkpt>
      <trkpt lat="41.56728" lon="-0.94892">
        <ele>295.2</ele>
        <time>2022-08-23 18:44:58</time>
      </trkpt>
      <trkpt lat="41.56731" lon="-0.94893">
        <ele>295.2</ele>
        <time>2022-08-23 18:44:59</time>
      </trkpt>
      <trkpt lat="41.56734" lon="-0.94893">
        <ele>295.2</ele>
        <time>2022-08-23 18:45:00</time>
      </trkpt>
      <trkpt lat="41.56736" lon="-0.94894">
        <ele>295.4</ele>
        <time>2022-08-23 18:45:01</time>
      </trkpt>
      <trkpt lat="41.56739" lon="-0.94894">
        <ele>295.2</ele>
        <time>2022-08-23 18:45:02</time>
      </trkpt>
      <trkpt lat="41.56742" lon="-0.94895">
        <ele>295.2</ele>
        <time>2022-08-23 18:45:03</time>
      </trkpt>
      <trkpt lat="41.56745" lon="-0.94895">
        <ele>295.2</ele>
        <time>2022-08-23 18:45:04</time>
      </trkpt>
      <trkpt lat="41.56748" lon="-0.94894">
        <ele>295.2</ele>
        <time>2022-08-23 18:45:05</time>
      </trkpt>
      <trkpt lat="41.5675" lon="-0.94893">
        <ele>295</ele>
        <time>2022-08-23 18:45:06</time>
      </trkpt>
      <trkpt lat="41.56753" lon="-0.94893">
        <ele>295</ele>
        <time>2022-08-23 18:45:07</time>
      </trkpt>
      <trkpt lat="41.56756" lon="-0.94892">
        <ele>295</ele>
        <time>2022-08-23 18:45:08</time>
      </trkpt>
      <trkpt lat="41.56759" lon="-0.94892">
        <ele>294.8</ele>
        <time>2022-08-23 18:45:09</time>
      </trkpt>
      <trkpt lat="41.56762" lon="-0.94892">
        <ele>294.8</ele>
        <time>2022-08-23 18:45:10</time>
      </trkpt>
      <trkpt lat="41.56764" lon="-0.94892">
        <ele>294.8</ele>
        <time>2022-08-23 18:45:11</time>
      </trkpt>
      <trkpt lat="41.56767" lon="-0.94893">
        <ele>294.8</ele>
        <time>2022-08-23 18:45:12</time>
      </trkpt>
      <trkpt lat="41.5677" lon="-0.94894">
        <ele>294.8</ele>
        <time>2022-08-23 18:45:13</time>
      </trkpt>
      <trkpt lat="41.56773" lon="-0.94896">
        <ele>294.8</ele>
        <time>2022-08-23 18:45:14</time>
      </trkpt>
      <trkpt lat="41.56776" lon="-0.94898">
        <ele>294.8</ele>
        <time>2022-08-23 18:45:15</time>
      </trkpt>
      <trkpt lat="41.56778" lon="-0.949">
        <ele>294.8</ele>
        <time>2022-08-23 18:45:16</time>
      </trkpt>
      <trkpt lat="41.5678" lon="-0.94902">
        <ele>294.6</ele>
        <time>2022-08-23 18:45:17</time>
      </trkpt>
      <trkpt lat="41.56783" lon="-0.94904">
        <ele>294.4</ele>
        <time>2022-08-23 18:45:18</time>
      </trkpt>
      <trkpt lat="41.56785" lon="-0.94907">
        <ele>294.2</ele>
        <time>2022-08-23 18:45:19</time>
      </trkpt>
      <trkpt lat="41.56787" lon="-0.9491">
        <ele>294</ele>
        <time>2022-08-23 18:45:20</time>
      </trkpt>
      <trkpt lat="41.56789" lon="-0.94914">
        <ele>293.8</ele>
        <time>2022-08-23 18:45:21</time>
      </trkpt>
      <trkpt lat="41.5679" lon="-0.94917">
        <ele>293.6</ele>
        <time>2022-08-23 18:45:22</time>
      </trkpt>
      <trkpt lat="41.56791" lon="-0.94921">
        <ele>293.6</ele>
        <time>2022-08-23 18:45:23</time>
      </trkpt>
      <trkpt lat="41.56793" lon="-0.94925">
        <ele>293.6</ele>
        <time>2022-08-23 18:45:24</time>
      </trkpt>
      <trkpt lat="41.56793" lon="-0.94928">
        <ele>293.4</ele>
        <time>2022-08-23 18:45:25</time>
      </trkpt>
      <trkpt lat="41.56794" lon="-0.94931">
        <ele>293.4</ele>
        <time>2022-08-23 18:45:26</time>
      </trkpt>
      <trkpt lat="41.56796" lon="-0.94934">
        <ele>293.2</ele>
        <time>2022-08-23 18:45:27</time>
      </trkpt>
      <trkpt lat="41.56797" lon="-0.94937">
        <ele>293</ele>
        <time>2022-08-23 18:45:28</time>
      </trkpt>
      <trkpt lat="41.56798" lon="-0.9494">
        <ele>293</ele>
        <time>2022-08-23 18:45:29</time>
      </trkpt>
      <trkpt lat="41.56799" lon="-0.94943">
        <ele>292.8</ele>
        <time>2022-08-23 18:45:30</time>
      </trkpt>
      <trkpt lat="41.568" lon="-0.94946">
        <ele>292.6</ele>
        <time>2022-08-23 18:45:31</time>
      </trkpt>
      <trkpt lat="41.56801" lon="-0.94949">
        <ele>292.6</ele>
        <time>2022-08-23 18:45:32</time>
      </trkpt>
      <trkpt lat="41.56802" lon="-0.94952">
        <ele>292.6</ele>
        <time>2022-08-23 18:45:33</time>
      </trkpt>
      <trkpt lat="41.56804" lon="-0.94955">
        <ele>292.6</ele>
        <time>2022-08-23 18:45:34</time>
      </trkpt>
      <trkpt lat="41.56805" lon="-0.94959">
        <ele>292.6</ele>
        <time>2022-08-23 18:45:35</time>
      </trkpt>
      <trkpt lat="41.56807" lon="-0.94962">
        <ele>292.6</ele>
        <time>2022-08-23 18:45:36</time>
      </trkpt>
      <trkpt lat="41.56808" lon="-0.94965">
        <ele>292.6</ele>
        <time>2022-08-23 18:45:37</time>
      </trkpt>
      <trkpt lat="41.5681" lon="-0.94968">
        <ele>292.6</ele>
        <time>2022-08-23 18:45:38</time>
      </trkpt>
      <trkpt lat="41.56811" lon="-0.94971">
        <ele>292.6</ele>
        <time>2022-08-23 18:45:39</time>
      </trkpt>
      <trkpt lat="41.56813" lon="-0.94974">
        <ele>292.8</ele>
        <time>2022-08-23 18:45:40</time>
      </trkpt>
      <trkpt lat="41.56815" lon="-0.94977">
        <ele>292.6</ele>
        <time>2022-08-23 18:45:41</time>
      </trkpt>
      <trkpt lat="41.56817" lon="-0.9498">
        <ele>292.6</ele>
        <time>2022-08-23 18:45:42</time>
      </trkpt>
      <trkpt lat="41.56819" lon="-0.94983">
        <ele>292.6</ele>
        <time>2022-08-23 18:45:43</time>
      </trkpt>
      <trkpt lat="41.56821" lon="-0.94986">
        <ele>292.6</ele>
        <time>2022-08-23 18:45:44</time>
      </trkpt>
      <trkpt lat="41.56823" lon="-0.94988">
        <ele>292.6</ele>
        <time>2022-08-23 18:45:45</time>
      </trkpt>
      <trkpt lat="41.56825" lon="-0.9499">
        <ele>292.4</ele>
        <time>2022-08-23 18:45:46</time>
      </trkpt>
      <trkpt lat="41.56827" lon="-0.94993">
        <ele>292.4</ele>
        <time>2022-08-23 18:45:47</time>
      </trkpt>
      <trkpt lat="41.56829" lon="-0.94995">
        <ele>292.6</ele>
        <time>2022-08-23 18:45:48</time>
      </trkpt>
      <trkpt lat="41.56831" lon="-0.94998">
        <ele>292.6</ele>
        <time>2022-08-23 18:45:49</time>
      </trkpt>
      <trkpt lat="41.56834" lon="-0.95">
        <ele>292.6</ele>
        <time>2022-08-23 18:45:50</time>
      </trkpt>
      <trkpt lat="41.56836" lon="-0.95002">
        <ele>292.6</ele>
        <time>2022-08-23 18:45:51</time>
      </trkpt>
      <trkpt lat="41.56838" lon="-0.95004">
        <ele>292.4</ele>
        <time>2022-08-23 18:45:52</time>
      </trkpt>
      <trkpt lat="41.56841" lon="-0.95006">
        <ele>292.4</ele>
        <time>2022-08-23 18:45:53</time>
      </trkpt>
      <trkpt lat="41.56843" lon="-0.95008">
        <ele>292.4</ele>
        <time>2022-08-23 18:45:54</time>
      </trkpt>
      <trkpt lat="41.56846" lon="-0.9501">
        <ele>292.2</ele>
        <time>2022-08-23 18:45:55</time>
      </trkpt>
      <trkpt lat="41.56848" lon="-0.95012">
        <ele>292.2</ele>
        <time>2022-08-23 18:45:56</time>
      </trkpt>
      <trkpt lat="41.56851" lon="-0.95013">
        <ele>292</ele>
        <time>2022-08-23 18:45:57</time>
      </trkpt>
      <trkpt lat="41.56853" lon="-0.95014">
        <ele>292</ele>
        <time>2022-08-23 18:45:58</time>
      </trkpt>
      <trkpt lat="41.56856" lon="-0.95016">
        <ele>292</ele>
        <time>2022-08-23 18:45:59</time>
      </trkpt>
      <trkpt lat="41.56859" lon="-0.95017">
        <ele>292</ele>
        <time>2022-08-23 18:46:00</time>
      </trkpt>
      <trkpt lat="41.56861" lon="-0.95018">
        <ele>292</ele>
        <time>2022-08-23 18:46:01</time>
      </trkpt>
      <trkpt lat="41.56864" lon="-0.95019">
        <ele>291.8</ele>
        <time>2022-08-23 18:46:02</time>
      </trkpt>
      <trkpt lat="41.56867" lon="-0.95019">
        <ele>292</ele>
        <time>2022-08-23 18:46:03</time>
      </trkpt>
      <trkpt lat="41.5687" lon="-0.9502">
        <ele>292</ele>
        <time>2022-08-23 18:46:04</time>
      </trkpt>
      <trkpt lat="41.56873" lon="-0.95021">
        <ele>292</ele>
        <time>2022-08-23 18:46:05</time>
      </trkpt>
      <trkpt lat="41.56875" lon="-0.95021">
        <ele>291.8</ele>
        <time>2022-08-23 18:46:06</time>
      </trkpt>
      <trkpt lat="41.56878" lon="-0.95022">
        <ele>291.6</ele>
        <time>2022-08-23 18:46:07</time>
      </trkpt>
      <trkpt lat="41.56881" lon="-0.95022">
        <ele>291.4</ele>
        <time>2022-08-23 18:46:08</time>
      </trkpt>
      <trkpt lat="41.56884" lon="-0.95023">
        <ele>291.6</ele>
        <time>2022-08-23 18:46:09</time>
      </trkpt>
      <trkpt lat="41.56887" lon="-0.95023">
        <ele>291.4</ele>
        <time>2022-08-23 18:46:10</time>
      </trkpt>
      <trkpt lat="41.56889" lon="-0.95023">
        <ele>291.2</ele>
        <time>2022-08-23 18:46:11</time>
      </trkpt>
      <trkpt lat="41.56892" lon="-0.95024">
        <ele>291.2</ele>
        <time>2022-08-23 18:46:12</time>
      </trkpt>
      <trkpt lat="41.56895" lon="-0.95023">
        <ele>291.2</ele>
        <time>2022-08-23 18:46:13</time>
      </trkpt>
      <trkpt lat="41.56898" lon="-0.95024">
        <ele>291.2</ele>
        <time>2022-08-23 18:46:14</time>
      </trkpt>
      <trkpt lat="41.56901" lon="-0.95024">
        <ele>291.2</ele>
        <time>2022-08-23 18:46:15</time>
      </trkpt>
      <trkpt lat="41.56904" lon="-0.95025">
        <ele>291.2</ele>
        <time>2022-08-23 18:46:16</time>
      </trkpt>
      <trkpt lat="41.56907" lon="-0.95025">
        <ele>291.2</ele>
        <time>2022-08-23 18:46:17</time>
      </trkpt>
      <trkpt lat="41.56909" lon="-0.95027">
        <ele>291.2</ele>
        <time>2022-08-23 18:46:18</time>
      </trkpt>
      <trkpt lat="41.56912" lon="-0.95028">
        <ele>291.2</ele>
        <time>2022-08-23 18:46:19</time>
      </trkpt>
      <trkpt lat="41.56914" lon="-0.9503">
        <ele>291.2</ele>
        <time>2022-08-23 18:46:20</time>
      </trkpt>
      <trkpt lat="41.56916" lon="-0.95033">
        <ele>291</ele>
        <time>2022-08-23 18:46:21</time>
      </trkpt>
      <trkpt lat="41.56918" lon="-0.95035">
        <ele>291</ele>
        <time>2022-08-23 18:46:22</time>
      </trkpt>
      <trkpt lat="41.56919" lon="-0.95038">
        <ele>290.8</ele>
        <time>2022-08-23 18:46:23</time>
      </trkpt>
      <trkpt lat="41.56921" lon="-0.95042">
        <ele>290.8</ele>
        <time>2022-08-23 18:46:24</time>
      </trkpt>
      <trkpt lat="41.56922" lon="-0.95045">
        <ele>290.8</ele>
        <time>2022-08-23 18:46:25</time>
      </trkpt>
      <trkpt lat="41.56922" lon="-0.95049">
        <ele>290.6</ele>
        <time>2022-08-23 18:46:26</time>
      </trkpt>
      <trkpt lat="41.56922" lon="-0.95053">
        <ele>290.6</ele>
        <time>2022-08-23 18:46:27</time>
      </trkpt>
      <trkpt lat="41.56923" lon="-0.95057">
        <ele>290.6</ele>
        <time>2022-08-23 18:46:28</time>
      </trkpt>
      <trkpt lat="41.56922" lon="-0.95061">
        <ele>290.6</ele>
        <time>2022-08-23 18:46:29</time>
      </trkpt>
      <trkpt lat="41.56922" lon="-0.95065">
        <ele>290.6</ele>
        <time>2022-08-23 18:46:30</time>
      </trkpt>
      <trkpt lat="41.56922" lon="-0.95069">
        <ele>290.6</ele>
        <time>2022-08-23 18:46:31</time>
      </trkpt>
      <trkpt lat="41.56921" lon="-0.95072">
        <ele>290.6</ele>
        <time>2022-08-23 18:46:32</time>
      </trkpt>
      <trkpt lat="41.56921" lon="-0.95076">
        <ele>290.6</ele>
        <time>2022-08-23 18:46:33</time>
      </trkpt>
      <trkpt lat="41.56921" lon="-0.9508">
        <ele>290.6</ele>
        <time>2022-08-23 18:46:34</time>
      </trkpt>
      <trkpt lat="41.5692" lon="-0.95084">
        <ele>290.6</ele>
        <time>2022-08-23 18:46:35</time>
      </trkpt>
      <trkpt lat="41.5692" lon="-0.95088">
        <ele>290.4</ele>
        <time>2022-08-23 18:46:36</time>
      </trkpt>
      <trkpt lat="41.5692" lon="-0.95092">
        <ele>290.4</ele>
        <time>2022-08-23 18:46:37</time>
      </trkpt>
      <trkpt lat="41.5692" lon="-0.95095">
        <ele>290.2</ele>
        <time>2022-08-23 18:46:38</time>
      </trkpt>
      <trkpt lat="41.5692" lon="-0.95099">
        <ele>290.2</ele>
        <time>2022-08-23 18:46:39</time>
      </trkpt>
      <trkpt lat="41.56921" lon="-0.95103">
        <ele>290.2</ele>
        <time>2022-08-23 18:46:40</time>
      </trkpt>
      <trkpt lat="41.56923" lon="-0.95106">
        <ele>290.2</ele>
        <time>2022-08-23 18:46:41</time>
      </trkpt>
      <trkpt lat="41.56924" lon="-0.95108">
        <ele>290.2</ele>
        <time>2022-08-23 18:46:42</time>
      </trkpt>
      <trkpt lat="41.56926" lon="-0.95108">
        <ele>290.2</ele>
        <time>2022-08-23 18:46:43</time>
      </trkpt>
      <trkpt lat="41.56927" lon="-0.95108">
        <ele>290.2</ele>
        <time>2022-08-23 18:46:44</time>
      </trkpt>
      <trkpt lat="41.56928" lon="-0.95106">
        <ele>290.4</ele>
        <time>2022-08-23 18:46:45</time>
      </trkpt>
      <trkpt lat="41.56929" lon="-0.95105">
        <ele>290.6</ele>
        <time>2022-08-23 18:46:46</time>
      </trkpt>
      <trkpt lat="41.56929" lon="-0.95103">
        <ele>290.8</ele>
        <time>2022-08-23 18:46:47</time>
      </trkpt>
      <trkpt lat="41.5693" lon="-0.95101">
        <ele>291</ele>
        <time>2022-08-23 18:46:48</time>
      </trkpt>
      <trkpt lat="41.56931" lon="-0.951">
        <ele>291.4</ele>
        <time>2022-08-23 18:46:49</time>
      </trkpt>
      <trkpt lat="41.56932" lon="-0.951">
        <ele>291.4</ele>
        <time>2022-08-23 18:46:50</time>
      </trkpt>
      <trkpt lat="41.56933" lon="-0.951">
        <ele>291.6</ele>
        <time>2022-08-23 18:46:51</time>
      </trkpt>
      <trkpt lat="41.56934" lon="-0.95102">
        <ele>291.8</ele>
        <time>2022-08-23 18:46:52</time>
      </trkpt>
      <trkpt lat="41.56936" lon="-0.95104">
        <ele>292</ele>
        <time>2022-08-23 18:46:53</time>
      </trkpt>
      <trkpt lat="41.56937" lon="-0.95107">
        <ele>292</ele>
        <time>2022-08-23 18:46:54</time>
      </trkpt>
      <trkpt lat="41.56939" lon="-0.95109">
        <ele>292</ele>
        <time>2022-08-23 18:46:55</time>
      </trkpt>
      <trkpt lat="41.56941" lon="-0.95112">
        <ele>292.2</ele>
        <time>2022-08-23 18:46:56</time>
      </trkpt>
      <trkpt lat="41.56943" lon="-0.95114">
        <ele>292.2</ele>
        <time>2022-08-23 18:46:57</time>
      </trkpt>
      <trkpt lat="41.56946" lon="-0.95117">
        <ele>292</ele>
        <time>2022-08-23 18:46:58</time>
      </trkpt>
      <trkpt lat="41.56948" lon="-0.95119">
        <ele>292</ele>
        <time>2022-08-23 18:46:59</time>
      </trkpt>
      <trkpt lat="41.56951" lon="-0.95121">
        <ele>291.8</ele>
        <time>2022-08-23 18:47:00</time>
      </trkpt>
      <trkpt lat="41.56953" lon="-0.95122">
        <ele>291.6</ele>
        <time>2022-08-23 18:47:01</time>
      </trkpt>
      <trkpt lat="41.56956" lon="-0.95124">
        <ele>291.6</ele>
        <time>2022-08-23 18:47:02</time>
      </trkpt>
      <trkpt lat="41.56958" lon="-0.95126">
        <ele>291.6</ele>
        <time>2022-08-23 18:47:03</time>
      </trkpt>
      <trkpt lat="41.56961" lon="-0.95128">
        <ele>291.6</ele>
        <time>2022-08-23 18:47:04</time>
      </trkpt>
      <trkpt lat="41.56963" lon="-0.9513">
        <ele>291.6</ele>
        <time>2022-08-23 18:47:05</time>
      </trkpt>
      <trkpt lat="41.56966" lon="-0.95131">
        <ele>291.4</ele>
        <time>2022-08-23 18:47:06</time>
      </trkpt>
      <trkpt lat="41.56969" lon="-0.95132">
        <ele>291.4</ele>
        <time>2022-08-23 18:47:07</time>
      </trkpt>
      <trkpt lat="41.56972" lon="-0.95133">
        <ele>291.2</ele>
        <time>2022-08-23 18:47:08</time>
      </trkpt>
      <trkpt lat="41.56975" lon="-0.95133">
        <ele>291</ele>
        <time>2022-08-23 18:47:09</time>
      </trkpt>
      <trkpt lat="41.56978" lon="-0.95133">
        <ele>290.8</ele>
        <time>2022-08-23 18:47:10</time>
      </trkpt>
      <trkpt lat="41.56981" lon="-0.95134">
        <ele>290.6</ele>
        <time>2022-08-23 18:47:11</time>
      </trkpt>
      <trkpt lat="41.56984" lon="-0.95133">
        <ele>290.4</ele>
        <time>2022-08-23 18:47:12</time>
      </trkpt>
      <trkpt lat="41.56987" lon="-0.95133">
        <ele>290.2</ele>
        <time>2022-08-23 18:47:13</time>
      </trkpt>
      <trkpt lat="41.5699" lon="-0.95132">
        <ele>290.2</ele>
        <time>2022-08-23 18:47:14</time>
      </trkpt>
      <trkpt lat="41.56992" lon="-0.95132">
        <ele>290</ele>
        <time>2022-08-23 18:47:15</time>
      </trkpt>
      <trkpt lat="41.56995" lon="-0.95131">
        <ele>290</ele>
        <time>2022-08-23 18:47:16</time>
      </trkpt>
      <trkpt lat="41.56998" lon="-0.9513">
        <ele>290</ele>
        <time>2022-08-23 18:47:17</time>
      </trkpt>
      <trkpt lat="41.57001" lon="-0.95129">
        <ele>289.8</ele>
        <time>2022-08-23 18:47:18</time>
      </trkpt>
      <trkpt lat="41.57004" lon="-0.95128">
        <ele>289.6</ele>
        <time>2022-08-23 18:47:19</time>
      </trkpt>
      <trkpt lat="41.57007" lon="-0.95127">
        <ele>289.6</ele>
        <time>2022-08-23 18:47:20</time>
      </trkpt>
      <trkpt lat="41.5701" lon="-0.95126">
        <ele>289.4</ele>
        <time>2022-08-23 18:47:21</time>
      </trkpt>
      <trkpt lat="41.57013" lon="-0.95125">
        <ele>289.4</ele>
        <time>2022-08-23 18:47:22</time>
      </trkpt>
      <trkpt lat="41.57015" lon="-0.95123">
        <ele>289.4</ele>
        <time>2022-08-23 18:47:23</time>
      </trkpt>
      <trkpt lat="41.57017" lon="-0.95121">
        <ele>289.4</ele>
        <time>2022-08-23 18:47:24</time>
      </trkpt>
      <trkpt lat="41.57019" lon="-0.95118">
        <ele>289.2</ele>
        <time>2022-08-23 18:47:25</time>
      </trkpt>
      <trkpt lat="41.5702" lon="-0.95114">
        <ele>289</ele>
        <time>2022-08-23 18:47:26</time>
      </trkpt>
      <trkpt lat="41.57021" lon="-0.9511">
        <ele>289</ele>
        <time>2022-08-23 18:47:27</time>
      </trkpt>
      <trkpt lat="41.57022" lon="-0.95106">
        <ele>288.8</ele>
        <time>2022-08-23 18:47:28</time>
      </trkpt>
      <trkpt lat="41.57023" lon="-0.95102">
        <ele>288.8</ele>
        <time>2022-08-23 18:47:29</time>
      </trkpt>
      <trkpt lat="41.57024" lon="-0.95099">
        <ele>288.8</ele>
        <time>2022-08-23 18:47:30</time>
      </trkpt>
      <trkpt lat="41.57024" lon="-0.95095">
        <ele>288.8</ele>
        <time>2022-08-23 18:47:31</time>
      </trkpt>
      <trkpt lat="41.57024" lon="-0.95091">
        <ele>288.8</ele>
        <time>2022-08-23 18:47:32</time>
      </trkpt>
      <trkpt lat="41.57024" lon="-0.95087">
        <ele>288.8</ele>
        <time>2022-08-23 18:47:33</time>
      </trkpt>
      <trkpt lat="41.57024" lon="-0.95083">
        <ele>288.8</ele>
        <time>2022-08-23 18:47:34</time>
      </trkpt>
      <trkpt lat="41.57024" lon="-0.9508">
        <ele>289</ele>
        <time>2022-08-23 18:47:35</time>
      </trkpt>
      <trkpt lat="41.57024" lon="-0.95076">
        <ele>289</ele>
        <time>2022-08-23 18:47:36</time>
      </trkpt>
      <trkpt lat="41.57024" lon="-0.95072">
        <ele>289</ele>
        <time>2022-08-23 18:47:37</time>
      </trkpt>
      <trkpt lat="41.57024" lon="-0.95068">
        <ele>289.2</ele>
        <time>2022-08-23 18:47:38</time>
      </trkpt>
      <trkpt lat="41.57024" lon="-0.95064">
        <ele>289.2</ele>
        <time>2022-08-23 18:47:39</time>
      </trkpt>
      <trkpt lat="41.57024" lon="-0.95059">
        <ele>289.2</ele>
        <time>2022-08-23 18:47:40</time>
      </trkpt>
      <trkpt lat="41.57023" lon="-0.95056">
        <ele>289.2</ele>
        <time>2022-08-23 18:47:41</time>
      </trkpt>
      <trkpt lat="41.57023" lon="-0.95052">
        <ele>289.2</ele>
        <time>2022-08-23 18:47:42</time>
      </trkpt>
      <trkpt lat="41.57023" lon="-0.95048">
        <ele>289.2</ele>
        <time>2022-08-23 18:47:43</time>
      </trkpt>
      <trkpt lat="41.57023" lon="-0.95045">
        <ele>289.2</ele>
        <time>2022-08-23 18:47:44</time>
      </trkpt>
      <trkpt lat="41.57022" lon="-0.95041">
        <ele>289</ele>
        <time>2022-08-23 18:47:45</time>
      </trkpt>
      <trkpt lat="41.57022" lon="-0.95037">
        <ele>289.2</ele>
        <time>2022-08-23 18:47:46</time>
      </trkpt>
      <trkpt lat="41.57023" lon="-0.95034">
        <ele>289.2</ele>
        <time>2022-08-23 18:47:47</time>
      </trkpt>
      <trkpt lat="41.57023" lon="-0.9503">
        <ele>289</ele>
        <time>2022-08-23 18:47:48</time>
      </trkpt>
      <trkpt lat="41.57023" lon="-0.95027">
        <ele>289</ele>
        <time>2022-08-23 18:47:49</time>
      </trkpt>
      <trkpt lat="41.57023" lon="-0.95023">
        <ele>289</ele>
        <time>2022-08-23 18:47:50</time>
      </trkpt>
      <trkpt lat="41.57023" lon="-0.95019">
        <ele>289</ele>
        <time>2022-08-23 18:47:51</time>
      </trkpt>
      <trkpt lat="41.57023" lon="-0.95015">
        <ele>289</ele>
        <time>2022-08-23 18:47:52</time>
      </trkpt>
      <trkpt lat="41.57023" lon="-0.95011">
        <ele>289</ele>
        <time>2022-08-23 18:47:53</time>
      </trkpt>
      <trkpt lat="41.57023" lon="-0.95008">
        <ele>289</ele>
        <time>2022-08-23 18:47:54</time>
      </trkpt>
      <trkpt lat="41.57023" lon="-0.95004">
        <ele>289</ele>
        <time>2022-08-23 18:47:55</time>
      </trkpt>
      <trkpt lat="41.57023" lon="-0.95">
        <ele>289</ele>
        <time>2022-08-23 18:47:56</time>
      </trkpt>
      <trkpt lat="41.57023" lon="-0.94996">
        <ele>289</ele>
        <time>2022-08-23 18:47:57</time>
      </trkpt>
      <trkpt lat="41.57022" lon="-0.94992">
        <ele>289</ele>
        <time>2022-08-23 18:47:58</time>
      </trkpt>
      <trkpt lat="41.57022" lon="-0.94989">
        <ele>289</ele>
        <time>2022-08-23 18:47:59</time>
      </trkpt>
      <trkpt lat="41.57022" lon="-0.94985">
        <ele>289</ele>
        <time>2022-08-23 18:48:00</time>
      </trkpt>
      <trkpt lat="41.57022" lon="-0.94981">
        <ele>289</ele>
        <time>2022-08-23 18:48:01</time>
      </trkpt>
      <trkpt lat="41.57022" lon="-0.94978">
        <ele>289</ele>
        <time>2022-08-23 18:48:02</time>
      </trkpt>
      <trkpt lat="41.57022" lon="-0.94974">
        <ele>289</ele>
        <time>2022-08-23 18:48:03</time>
      </trkpt>
      <trkpt lat="41.57022" lon="-0.94971">
        <ele>288.8</ele>
        <time>2022-08-23 18:48:04</time>
      </trkpt>
      <trkpt lat="41.57022" lon="-0.94968">
        <ele>288.8</ele>
        <time>2022-08-23 18:48:05</time>
      </trkpt>
      <trkpt lat="41.57021" lon="-0.94964">
        <ele>288.8</ele>
        <time>2022-08-23 18:48:06</time>
      </trkpt>
      <trkpt lat="41.57021" lon="-0.94961">
        <ele>288.8</ele>
        <time>2022-08-23 18:48:07</time>
      </trkpt>
      <trkpt lat="41.57021" lon="-0.94957">
        <ele>288.6</ele>
        <time>2022-08-23 18:48:08</time>
      </trkpt>
      <trkpt lat="41.5702" lon="-0.94953">
        <ele>288.6</ele>
        <time>2022-08-23 18:48:09</time>
      </trkpt>
      <trkpt lat="41.5702" lon="-0.94949">
        <ele>288.6</ele>
        <time>2022-08-23 18:48:10</time>
      </trkpt>
      <trkpt lat="41.5702" lon="-0.94945">
        <ele>288.6</ele>
        <time>2022-08-23 18:48:11</time>
      </trkpt>
      <trkpt lat="41.5702" lon="-0.94942">
        <ele>288.6</ele>
        <time>2022-08-23 18:48:12</time>
      </trkpt>
      <trkpt lat="41.57021" lon="-0.94938">
        <ele>288.4</ele>
        <time>2022-08-23 18:48:13</time>
      </trkpt>
      <trkpt lat="41.57021" lon="-0.94934">
        <ele>288.4</ele>
        <time>2022-08-23 18:48:14</time>
      </trkpt>
      <trkpt lat="41.57021" lon="-0.9493">
        <ele>288.4</ele>
        <time>2022-08-23 18:48:15</time>
      </trkpt>
      <trkpt lat="41.57021" lon="-0.94926">
        <ele>288.2</ele>
        <time>2022-08-23 18:48:16</time>
      </trkpt>
      <trkpt lat="41.57021" lon="-0.94922">
        <ele>288.2</ele>
        <time>2022-08-23 18:48:17</time>
      </trkpt>
      <trkpt lat="41.57021" lon="-0.94918">
        <ele>288</ele>
        <time>2022-08-23 18:48:18</time>
      </trkpt>
      <trkpt lat="41.57021" lon="-0.94914">
        <ele>287.8</ele>
        <time>2022-08-23 18:48:19</time>
      </trkpt>
      <trkpt lat="41.57021" lon="-0.94911">
        <ele>287.8</ele>
        <time>2022-08-23 18:48:20</time>
      </trkpt>
      <trkpt lat="41.57021" lon="-0.94907">
        <ele>287.8</ele>
        <time>2022-08-23 18:48:21</time>
      </trkpt>
      <trkpt lat="41.57021" lon="-0.94903">
        <ele>287.8</ele>
        <time>2022-08-23 18:48:22</time>
      </trkpt>
      <trkpt lat="41.57021" lon="-0.949">
        <ele>287.8</ele>
        <time>2022-08-23 18:48:23</time>
      </trkpt>
      <trkpt lat="41.57022" lon="-0.94897">
        <ele>287.8</ele>
        <time>2022-08-23 18:48:24</time>
      </trkpt>
      <trkpt lat="41.57022" lon="-0.94893">
        <ele>288</ele>
        <time>2022-08-23 18:48:25</time>
      </trkpt>
      <trkpt lat="41.57023" lon="-0.94889">
        <ele>288</ele>
        <time>2022-08-23 18:48:26</time>
      </trkpt>
      <trkpt lat="41.57023" lon="-0.94886">
        <ele>287.8</ele>
        <time>2022-08-23 18:48:27</time>
      </trkpt>
      <trkpt lat="41.57024" lon="-0.94882">
        <ele>288</ele>
        <time>2022-08-23 18:48:28</time>
      </trkpt>
      <trkpt lat="41.57025" lon="-0.94879">
        <ele>288</ele>
        <time>2022-08-23 18:48:29</time>
      </trkpt>
      <trkpt lat="41.57026" lon="-0.94875">
        <ele>288</ele>
        <time>2022-08-23 18:48:30</time>
      </trkpt>
      <trkpt lat="41.57027" lon="-0.94872">
        <ele>288</ele>
        <time>2022-08-23 18:48:31</time>
      </trkpt>
      <trkpt lat="41.57028" lon="-0.94868">
        <ele>287.8</ele>
        <time>2022-08-23 18:48:32</time>
      </trkpt>
      <trkpt lat="41.57029" lon="-0.94865">
        <ele>287.8</ele>
        <time>2022-08-23 18:48:33</time>
      </trkpt>
      <trkpt lat="41.5703" lon="-0.94861">
        <ele>287.8</ele>
        <time>2022-08-23 18:48:34</time>
      </trkpt>
      <trkpt lat="41.57031" lon="-0.94858">
        <ele>287.8</ele>
        <time>2022-08-23 18:48:35</time>
      </trkpt>
      <trkpt lat="41.57032" lon="-0.94854">
        <ele>287.8</ele>
        <time>2022-08-23 18:48:36</time>
      </trkpt>
      <trkpt lat="41.57033" lon="-0.94851">
        <ele>287.8</ele>
        <time>2022-08-23 18:48:37</time>
      </trkpt>
      <trkpt lat="41.57034" lon="-0.94848">
        <ele>287.8</ele>
        <time>2022-08-23 18:48:38</time>
      </trkpt>
      <trkpt lat="41.57035" lon="-0.94844">
        <ele>288</ele>
        <time>2022-08-23 18:48:39</time>
      </trkpt>
      <trkpt lat="41.57036" lon="-0.94841">
        <ele>288</ele>
        <time>2022-08-23 18:48:40</time>
      </trkpt>
      <trkpt lat="41.57037" lon="-0.94838">
        <ele>288</ele>
        <time>2022-08-23 18:48:41</time>
      </trkpt>
      <trkpt lat="41.57039" lon="-0.94834">
        <ele>288</ele>
        <time>2022-08-23 18:48:42</time>
      </trkpt>
      <trkpt lat="41.5704" lon="-0.94831">
        <ele>288</ele>
        <time>2022-08-23 18:48:43</time>
      </trkpt>
      <trkpt lat="41.57042" lon="-0.94828">
        <ele>288</ele>
        <time>2022-08-23 18:48:44</time>
      </trkpt>
      <trkpt lat="41.57043" lon="-0.94825">
        <ele>288</ele>
        <time>2022-08-23 18:48:45</time>
      </trkpt>
      <trkpt lat="41.57045" lon="-0.94823">
        <ele>287.8</ele>
        <time>2022-08-23 18:48:46</time>
      </trkpt>
      <trkpt lat="41.57047" lon="-0.9482">
        <ele>287.8</ele>
        <time>2022-08-23 18:48:47</time>
      </trkpt>
      <trkpt lat="41.57048" lon="-0.94818">
        <ele>288</ele>
        <time>2022-08-23 18:48:48</time>
      </trkpt>
      <trkpt lat="41.5705" lon="-0.94816">
        <ele>287.8</ele>
        <time>2022-08-23 18:48:49</time>
      </trkpt>
      <trkpt lat="41.57052" lon="-0.94813">
        <ele>287.8</ele>
        <time>2022-08-23 18:48:50</time>
      </trkpt>
      <trkpt lat="41.57053" lon="-0.94811">
        <ele>288</ele>
        <time>2022-08-23 18:48:51</time>
      </trkpt>
      <trkpt lat="41.57055" lon="-0.94808">
        <ele>288</ele>
        <time>2022-08-23 18:48:52</time>
      </trkpt>
      <trkpt lat="41.57056" lon="-0.94806">
        <ele>288</ele>
        <time>2022-08-23 18:48:53</time>
      </trkpt>
      <trkpt lat="41.57058" lon="-0.94803">
        <ele>288</ele>
        <time>2022-08-23 18:48:54</time>
      </trkpt>
      <trkpt lat="41.5706" lon="-0.94802">
        <ele>288</ele>
        <time>2022-08-23 18:48:55</time>
      </trkpt>
      <trkpt lat="41.57063" lon="-0.948">
        <ele>288.2</ele>
        <time>2022-08-23 18:48:56</time>
      </trkpt>
      <trkpt lat="41.57065" lon="-0.94798">
        <ele>288.2</ele>
        <time>2022-08-23 18:48:57</time>
      </trkpt>
      <trkpt lat="41.57067" lon="-0.94797">
        <ele>288.2</ele>
        <time>2022-08-23 18:48:58</time>
      </trkpt>
      <trkpt lat="41.5707" lon="-0.94795">
        <ele>288.2</ele>
        <time>2022-08-23 18:48:59</time>
      </trkpt>
      <trkpt lat="41.57072" lon="-0.94794">
        <ele>288.2</ele>
        <time>2022-08-23 18:49:00</time>
      </trkpt>
      <trkpt lat="41.57075" lon="-0.94793">
        <ele>288.4</ele>
        <time>2022-08-23 18:49:01</time>
      </trkpt>
      <trkpt lat="41.57077" lon="-0.94791">
        <ele>288.4</ele>
        <time>2022-08-23 18:49:02</time>
      </trkpt>
      <trkpt lat="41.57079" lon="-0.9479">
        <ele>288.4</ele>
        <time>2022-08-23 18:49:03</time>
      </trkpt>
      <trkpt lat="41.57082" lon="-0.94789">
        <ele>288.4</ele>
        <time>2022-08-23 18:49:04</time>
      </trkpt>
      <trkpt lat="41.57084" lon="-0.94788">
        <ele>288.4</ele>
        <time>2022-08-23 18:49:05</time>
      </trkpt>
      <trkpt lat="41.57086" lon="-0.94786">
        <ele>288.4</ele>
        <time>2022-08-23 18:49:06</time>
      </trkpt>
      <trkpt lat="41.57089" lon="-0.94785">
        <ele>288.4</ele>
        <time>2022-08-23 18:49:07</time>
      </trkpt>
      <trkpt lat="41.57091" lon="-0.94784">
        <ele>288.4</ele>
        <time>2022-08-23 18:49:08</time>
      </trkpt>
      <trkpt lat="41.57093" lon="-0.94784">
        <ele>288.4</ele>
        <time>2022-08-23 18:49:09</time>
      </trkpt>
      <trkpt lat="41.57096" lon="-0.94783">
        <ele>288.4</ele>
        <time>2022-08-23 18:49:10</time>
      </trkpt>
      <trkpt lat="41.57098" lon="-0.94782">
        <ele>288.4</ele>
        <time>2022-08-23 18:49:11</time>
      </trkpt>
      <trkpt lat="41.57101" lon="-0.94782">
        <ele>288.4</ele>
        <time>2022-08-23 18:49:12</time>
      </trkpt>
      <trkpt lat="41.57104" lon="-0.94781">
        <ele>288.2</ele>
        <time>2022-08-23 18:49:13</time>
      </trkpt>
      <trkpt lat="41.57106" lon="-0.9478">
        <ele>288.2</ele>
        <time>2022-08-23 18:49:14</time>
      </trkpt>
      <trkpt lat="41.57109" lon="-0.9478">
        <ele>288.2</ele>
        <time>2022-08-23 18:49:15</time>
      </trkpt>
      <trkpt lat="41.57111" lon="-0.94779">
        <ele>288.2</ele>
        <time>2022-08-23 18:49:16</time>
      </trkpt>
      <trkpt lat="41.57114" lon="-0.94779">
        <ele>288.4</ele>
        <time>2022-08-23 18:49:17</time>
      </trkpt>
      <trkpt lat="41.57116" lon="-0.94779">
        <ele>288.4</ele>
        <time>2022-08-23 18:49:18</time>
      </trkpt>
      <trkpt lat="41.57119" lon="-0.94778">
        <ele>288.4</ele>
        <time>2022-08-23 18:49:19</time>
      </trkpt>
      <trkpt lat="41.57122" lon="-0.94779">
        <ele>288.6</ele>
        <time>2022-08-23 18:49:20</time>
      </trkpt>
      <trkpt lat="41.57124" lon="-0.94779">
        <ele>288.6</ele>
        <time>2022-08-23 18:49:21</time>
      </trkpt>
      <trkpt lat="41.57127" lon="-0.94779">
        <ele>288.6</ele>
        <time>2022-08-23 18:49:22</time>
      </trkpt>
      <trkpt lat="41.5713" lon="-0.94779">
        <ele>288.6</ele>
        <time>2022-08-23 18:49:23</time>
      </trkpt>
      <trkpt lat="41.57132" lon="-0.94779">
        <ele>288.6</ele>
        <time>2022-08-23 18:49:24</time>
      </trkpt>
      <trkpt lat="41.57135" lon="-0.94779">
        <ele>288.6</ele>
        <time>2022-08-23 18:49:25</time>
      </trkpt>
      <trkpt lat="41.57138" lon="-0.94779">
        <ele>288.6</ele>
        <time>2022-08-23 18:49:26</time>
      </trkpt>
      <trkpt lat="41.5714" lon="-0.94779">
        <ele>288.6</ele>
        <time>2022-08-23 18:49:27</time>
      </trkpt>
      <trkpt lat="41.57143" lon="-0.9478">
        <ele>288.6</ele>
        <time>2022-08-23 18:49:28</time>
      </trkpt>
      <trkpt lat="41.57146" lon="-0.94781">
        <ele>288.6</ele>
        <time>2022-08-23 18:49:29</time>
      </trkpt>
      <trkpt lat="41.57148" lon="-0.94782">
        <ele>288.6</ele>
        <time>2022-08-23 18:49:30</time>
      </trkpt>
      <trkpt lat="41.57151" lon="-0.94783">
        <ele>288.6</ele>
        <time>2022-08-23 18:49:31</time>
      </trkpt>
      <trkpt lat="41.57153" lon="-0.94784">
        <ele>288.6</ele>
        <time>2022-08-23 18:49:32</time>
      </trkpt>
      <trkpt lat="41.57155" lon="-0.94785">
        <ele>288.6</ele>
        <time>2022-08-23 18:49:33</time>
      </trkpt>
      <trkpt lat="41.57158" lon="-0.94787">
        <ele>288.6</ele>
        <time>2022-08-23 18:49:34</time>
      </trkpt>
      <trkpt lat="41.5716" lon="-0.94788">
        <ele>288.8</ele>
        <time>2022-08-23 18:49:35</time>
      </trkpt>
      <trkpt lat="41.57162" lon="-0.94789">
        <ele>288.8</ele>
        <time>2022-08-23 18:49:36</time>
      </trkpt>
      <trkpt lat="41.57164" lon="-0.9479">
        <ele>288.8</ele>
        <time>2022-08-23 18:49:37</time>
      </trkpt>
      <trkpt lat="41.57166" lon="-0.94791">
        <ele>288.8</ele>
        <time>2022-08-23 18:49:38</time>
      </trkpt>
      <trkpt lat="41.57179" lon="-0.94788">
        <ele>289.8</ele>
        <time>2022-08-23 18:49:48</time>
      </trkpt>
      <trkpt lat="41.5718" lon="-0.94788">
        <ele>290</ele>
        <time>2022-08-23 18:49:49</time>
      </trkpt>
      <trkpt lat="41.57182" lon="-0.94789">
        <ele>290.2</ele>
        <time>2022-08-23 18:49:50</time>
      </trkpt>
      <trkpt lat="41.57185" lon="-0.94791">
        <ele>290.4</ele>
        <time>2022-08-23 18:49:51</time>
      </trkpt>
      <trkpt lat="41.57187" lon="-0.94792">
        <ele>290.6</ele>
        <time>2022-08-23 18:49:52</time>
      </trkpt>
      <trkpt lat="41.5719" lon="-0.94794">
        <ele>290.8</ele>
        <time>2022-08-23 18:49:53</time>
      </trkpt>
      <trkpt lat="41.57192" lon="-0.94795">
        <ele>290.8</ele>
        <time>2022-08-23 18:49:54</time>
      </trkpt>
      <trkpt lat="41.57194" lon="-0.94796">
        <ele>290.8</ele>
        <time>2022-08-23 18:49:55</time>
      </trkpt>
      <trkpt lat="41.57196" lon="-0.94798">
        <ele>290.8</ele>
        <time>2022-08-23 18:49:56</time>
      </trkpt>
      <trkpt lat="41.57199" lon="-0.94799">
        <ele>290.8</ele>
        <time>2022-08-23 18:49:57</time>
      </trkpt>
      <trkpt lat="41.57201" lon="-0.94801">
        <ele>290.8</ele>
        <time>2022-08-23 18:49:58</time>
      </trkpt>
      <trkpt lat="41.57204" lon="-0.94802">
        <ele>290.8</ele>
        <time>2022-08-23 18:49:59</time>
      </trkpt>
      <trkpt lat="41.57206" lon="-0.94803">
        <ele>290.8</ele>
        <time>2022-08-23 18:50:00</time>
      </trkpt>
      <trkpt lat="41.57209" lon="-0.94804">
        <ele>290.8</ele>
        <time>2022-08-23 18:50:01</time>
      </trkpt>
      <trkpt lat="41.57211" lon="-0.94805">
        <ele>290.8</ele>
        <time>2022-08-23 18:50:02</time>
      </trkpt>
      <trkpt lat="41.57213" lon="-0.94806">
        <ele>290.8</ele>
        <time>2022-08-23 18:50:03</time>
      </trkpt>
      <trkpt lat="41.57215" lon="-0.94808">
        <ele>290.6</ele>
        <time>2022-08-23 18:50:04</time>
      </trkpt>
      <trkpt lat="41.57218" lon="-0.94809">
        <ele>290.6</ele>
        <time>2022-08-23 18:50:05</time>
      </trkpt>
      <trkpt lat="41.57221" lon="-0.94811">
        <ele>290.6</ele>
        <time>2022-08-23 18:50:06</time>
      </trkpt>
      <trkpt lat="41.57223" lon="-0.94812">
        <ele>290.6</ele>
        <time>2022-08-23 18:50:07</time>
      </trkpt>
      <trkpt lat="41.57226" lon="-0.94813">
        <ele>290.6</ele>
        <time>2022-08-23 18:50:08</time>
      </trkpt>
      <trkpt lat="41.57229" lon="-0.94814">
        <ele>290.4</ele>
        <time>2022-08-23 18:50:09</time>
      </trkpt>
      <trkpt lat="41.57232" lon="-0.94816">
        <ele>290.4</ele>
        <time>2022-08-23 18:50:10</time>
      </trkpt>
      <trkpt lat="41.57234" lon="-0.94817">
        <ele>290.2</ele>
        <time>2022-08-23 18:50:11</time>
      </trkpt>
      <trkpt lat="41.57237" lon="-0.94818">
        <ele>290.2</ele>
        <time>2022-08-23 18:50:12</time>
      </trkpt>
      <trkpt lat="41.5724" lon="-0.94819">
        <ele>290.2</ele>
        <time>2022-08-23 18:50:13</time>
      </trkpt>
      <trkpt lat="41.57243" lon="-0.94821">
        <ele>290.2</ele>
        <time>2022-08-23 18:50:14</time>
      </trkpt>
      <trkpt lat="41.57245" lon="-0.94822">
        <ele>290</ele>
        <time>2022-08-23 18:50:15</time>
      </trkpt>
      <trkpt lat="41.57248" lon="-0.94824">
        <ele>290</ele>
        <time>2022-08-23 18:50:16</time>
      </trkpt>
      <trkpt lat="41.5725" lon="-0.94825">
        <ele>290</ele>
        <time>2022-08-23 18:50:17</time>
      </trkpt>
      <trkpt lat="41.57253" lon="-0.94827">
        <ele>290</ele>
        <time>2022-08-23 18:50:18</time>
      </trkpt>
      <trkpt lat="41.57255" lon="-0.94828">
        <ele>290</ele>
        <time>2022-08-23 18:50:19</time>
      </trkpt>
      <trkpt lat="41.57258" lon="-0.94829">
        <ele>290</ele>
        <time>2022-08-23 18:50:20</time>
      </trkpt>
      <trkpt lat="41.57261" lon="-0.9483">
        <ele>289.8</ele>
        <time>2022-08-23 18:50:21</time>
      </trkpt>
      <trkpt lat="41.57263" lon="-0.94831">
        <ele>289.8</ele>
        <time>2022-08-23 18:50:22</time>
      </trkpt>
      <trkpt lat="41.57266" lon="-0.94832">
        <ele>289.6</ele>
        <time>2022-08-23 18:50:23</time>
      </trkpt>
      <trkpt lat="41.57269" lon="-0.94833">
        <ele>289.4</ele>
        <time>2022-08-23 18:50:24</time>
      </trkpt>
      <trkpt lat="41.57271" lon="-0.94835">
        <ele>289.4</ele>
        <time>2022-08-23 18:50:25</time>
      </trkpt>
      <trkpt lat="41.57274" lon="-0.94836">
        <ele>289.2</ele>
        <time>2022-08-23 18:50:26</time>
      </trkpt>
      <trkpt lat="41.57277" lon="-0.94837">
        <ele>289.2</ele>
        <time>2022-08-23 18:50:27</time>
      </trkpt>
      <trkpt lat="41.57279" lon="-0.94838">
        <ele>289.2</ele>
        <time>2022-08-23 18:50:28</time>
      </trkpt>
      <trkpt lat="41.57282" lon="-0.94839">
        <ele>289.2</ele>
        <time>2022-08-23 18:50:29</time>
      </trkpt>
      <trkpt lat="41.57285" lon="-0.94841">
        <ele>289.2</ele>
        <time>2022-08-23 18:50:30</time>
      </trkpt>
      <trkpt lat="41.57288" lon="-0.94842">
        <ele>289.2</ele>
        <time>2022-08-23 18:50:31</time>
      </trkpt>
      <trkpt lat="41.57291" lon="-0.94843">
        <ele>289.2</ele>
        <time>2022-08-23 18:50:32</time>
      </trkpt>
      <trkpt lat="41.57293" lon="-0.94844">
        <ele>289.2</ele>
        <time>2022-08-23 18:50:33</time>
      </trkpt>
      <trkpt lat="41.57296" lon="-0.94845">
        <ele>289.2</ele>
        <time>2022-08-23 18:50:34</time>
      </trkpt>
      <trkpt lat="41.57299" lon="-0.94846">
        <ele>289.2</ele>
        <time>2022-08-23 18:50:35</time>
      </trkpt>
      <trkpt lat="41.57302" lon="-0.94847">
        <ele>289</ele>
        <time>2022-08-23 18:50:36</time>
      </trkpt>
      <trkpt lat="41.57305" lon="-0.94847">
        <ele>289</ele>
        <time>2022-08-23 18:50:37</time>
      </trkpt>
      <trkpt lat="41.57308" lon="-0.94848">
        <ele>288.8</ele>
        <time>2022-08-23 18:50:38</time>
      </trkpt>
      <trkpt lat="41.57311" lon="-0.94849">
        <ele>288.8</ele>
        <time>2022-08-23 18:50:39</time>
      </trkpt>
      <trkpt lat="41.57313" lon="-0.94849">
        <ele>288.6</ele>
        <time>2022-08-23 18:50:40</time>
      </trkpt>
      <trkpt lat="41.57316" lon="-0.9485">
        <ele>288.6</ele>
        <time>2022-08-23 18:50:41</time>
      </trkpt>
      <trkpt lat="41.57319" lon="-0.9485">
        <ele>288.6</ele>
        <time>2022-08-23 18:50:42</time>
      </trkpt>
      <trkpt lat="41.57322" lon="-0.94851">
        <ele>288.4</ele>
        <time>2022-08-23 18:50:43</time>
      </trkpt>
      <trkpt lat="41.57325" lon="-0.94852">
        <ele>288.4</ele>
        <time>2022-08-23 18:50:44</time>
      </trkpt>
      <trkpt lat="41.57328" lon="-0.94852">
        <ele>288.4</ele>
        <time>2022-08-23 18:50:45</time>
      </trkpt>
      <trkpt lat="41.57331" lon="-0.94852">
        <ele>288.4</ele>
        <time>2022-08-23 18:50:46</time>
      </trkpt>
      <trkpt lat="41.57334" lon="-0.94852">
        <ele>288.2</ele>
        <time>2022-08-23 18:50:47</time>
      </trkpt>
      <trkpt lat="41.57336" lon="-0.94853">
        <ele>288.2</ele>
        <time>2022-08-23 18:50:48</time>
      </trkpt>
      <trkpt lat="41.57339" lon="-0.94853">
        <ele>288</ele>
        <time>2022-08-23 18:50:49</time>
      </trkpt>
      <trkpt lat="41.57342" lon="-0.94852">
        <ele>288</ele>
        <time>2022-08-23 18:50:50</time>
      </trkpt>
      <trkpt lat="41.57345" lon="-0.94852">
        <ele>287.8</ele>
        <time>2022-08-23 18:50:51</time>
      </trkpt>
      <trkpt lat="41.57347" lon="-0.94852">
        <ele>287.8</ele>
        <time>2022-08-23 18:50:52</time>
      </trkpt>
      <trkpt lat="41.5735" lon="-0.94852">
        <ele>287.6</ele>
        <time>2022-08-23 18:50:53</time>
      </trkpt>
      <trkpt lat="41.57353" lon="-0.94852">
        <ele>287.6</ele>
        <time>2022-08-23 18:50:54</time>
      </trkpt>
      <trkpt lat="41.57356" lon="-0.94852">
        <ele>287.4</ele>
        <time>2022-08-23 18:50:55</time>
      </trkpt>
      <trkpt lat="41.57359" lon="-0.94852">
        <ele>287.2</ele>
        <time>2022-08-23 18:50:56</time>
      </trkpt>
      <trkpt lat="41.57362" lon="-0.94853">
        <ele>287.2</ele>
        <time>2022-08-23 18:50:57</time>
      </trkpt>
      <trkpt lat="41.57364" lon="-0.94853">
        <ele>287.2</ele>
        <time>2022-08-23 18:50:58</time>
      </trkpt>
      <trkpt lat="41.57367" lon="-0.94854">
        <ele>287.2</ele>
        <time>2022-08-23 18:50:59</time>
      </trkpt>
      <trkpt lat="41.5737" lon="-0.94854">
        <ele>287.2</ele>
        <time>2022-08-23 18:51:00</time>
      </trkpt>
      <trkpt lat="41.57373" lon="-0.94854">
        <ele>287</ele>
        <time>2022-08-23 18:51:01</time>
      </trkpt>
      <trkpt lat="41.57375" lon="-0.94854">
        <ele>286.8</ele>
        <time>2022-08-23 18:51:02</time>
      </trkpt>
      <trkpt lat="41.57378" lon="-0.94855">
        <ele>286.8</ele>
        <time>2022-08-23 18:51:03</time>
      </trkpt>
      <trkpt lat="41.57381" lon="-0.94855">
        <ele>286.8</ele>
        <time>2022-08-23 18:51:04</time>
      </trkpt>
      <trkpt lat="41.57384" lon="-0.94855">
        <ele>286.6</ele>
        <time>2022-08-23 18:51:05</time>
      </trkpt>
      <trkpt lat="41.57386" lon="-0.94855">
        <ele>286.6</ele>
        <time>2022-08-23 18:51:06</time>
      </trkpt>
      <trkpt lat="41.57389" lon="-0.94855">
        <ele>286.6</ele>
        <time>2022-08-23 18:51:07</time>
      </trkpt>
      <trkpt lat="41.57392" lon="-0.94855">
        <ele>286.6</ele>
        <time>2022-08-23 18:51:08</time>
      </trkpt>
      <trkpt lat="41.57395" lon="-0.94855">
        <ele>286.6</ele>
        <time>2022-08-23 18:51:09</time>
      </trkpt>
      <trkpt lat="41.57397" lon="-0.94855">
        <ele>286.8</ele>
        <time>2022-08-23 18:51:10</time>
      </trkpt>
      <trkpt lat="41.574" lon="-0.94856">
        <ele>286.8</ele>
        <time>2022-08-23 18:51:11</time>
      </trkpt>
      <trkpt lat="41.57403" lon="-0.94857">
        <ele>286.8</ele>
        <time>2022-08-23 18:51:12</time>
      </trkpt>
      <trkpt lat="41.57405" lon="-0.94857">
        <ele>286.8</ele>
        <time>2022-08-23 18:51:13</time>
      </trkpt>
      <trkpt lat="41.57408" lon="-0.94858">
        <ele>286.8</ele>
        <time>2022-08-23 18:51:14</time>
      </trkpt>
      <trkpt lat="41.57411" lon="-0.94858">
        <ele>286.8</ele>
        <time>2022-08-23 18:51:15</time>
      </trkpt>
      <trkpt lat="41.57414" lon="-0.94858">
        <ele>286.8</ele>
        <time>2022-08-23 18:51:16</time>
      </trkpt>
      <trkpt lat="41.57416" lon="-0.94859">
        <ele>286.8</ele>
        <time>2022-08-23 18:51:17</time>
      </trkpt>
      <trkpt lat="41.57419" lon="-0.94859">
        <ele>286.8</ele>
        <time>2022-08-23 18:51:18</time>
      </trkpt>
      <trkpt lat="41.57421" lon="-0.94859">
        <ele>286.8</ele>
        <time>2022-08-23 18:51:19</time>
      </trkpt>
      <trkpt lat="41.57424" lon="-0.94859">
        <ele>286.8</ele>
        <time>2022-08-23 18:51:20</time>
      </trkpt>
      <trkpt lat="41.57427" lon="-0.94859">
        <ele>286.8</ele>
        <time>2022-08-23 18:51:21</time>
      </trkpt>
      <trkpt lat="41.57429" lon="-0.9486">
        <ele>286.8</ele>
        <time>2022-08-23 18:51:22</time>
      </trkpt>
      <trkpt lat="41.57431" lon="-0.9486">
        <ele>286.6</ele>
        <time>2022-08-23 18:51:23</time>
      </trkpt>
      <trkpt lat="41.57433" lon="-0.94861">
        <ele>286.6</ele>
        <time>2022-08-23 18:51:24</time>
      </trkpt>
      <trkpt lat="41.57435" lon="-0.94861">
        <ele>286.6</ele>
        <time>2022-08-23 18:51:25</time>
      </trkpt>
      <trkpt lat="41.57438" lon="-0.94861">
        <ele>286.6</ele>
        <time>2022-08-23 18:51:26</time>
      </trkpt>
      <trkpt lat="41.57441" lon="-0.94862">
        <ele>286.6</ele>
        <time>2022-08-23 18:51:27</time>
      </trkpt>
      <trkpt lat="41.57443" lon="-0.94862">
        <ele>286.6</ele>
        <time>2022-08-23 18:51:28</time>
      </trkpt>
      <trkpt lat="41.57446" lon="-0.94863">
        <ele>286.6</ele>
        <time>2022-08-23 18:51:29</time>
      </trkpt>
      <trkpt lat="41.57449" lon="-0.94863">
        <ele>286.6</ele>
        <time>2022-08-23 18:51:30</time>
      </trkpt>
      <trkpt lat="41.57452" lon="-0.94863">
        <ele>286.6</ele>
        <time>2022-08-23 18:51:31</time>
      </trkpt>
      <trkpt lat="41.57456" lon="-0.94863">
        <ele>286.6</ele>
        <time>2022-08-23 18:51:32</time>
      </trkpt>
      <trkpt lat="41.57459" lon="-0.94864">
        <ele>286.6</ele>
        <time>2022-08-23 18:51:33</time>
      </trkpt>
      <trkpt lat="41.57462" lon="-0.94864">
        <ele>286.6</ele>
        <time>2022-08-23 18:51:34</time>
      </trkpt>
      <trkpt lat="41.57464" lon="-0.94864">
        <ele>286.6</ele>
        <time>2022-08-23 18:51:35</time>
      </trkpt>
      <trkpt lat="41.57467" lon="-0.94865">
        <ele>286.4</ele>
        <time>2022-08-23 18:51:36</time>
      </trkpt>
      <trkpt lat="41.5747" lon="-0.94865">
        <ele>286.4</ele>
        <time>2022-08-23 18:51:37</time>
      </trkpt>
      <trkpt lat="41.57473" lon="-0.94866">
        <ele>286.4</ele>
        <time>2022-08-23 18:51:38</time>
      </trkpt>
      <trkpt lat="41.57476" lon="-0.94866">
        <ele>286.6</ele>
        <time>2022-08-23 18:51:39</time>
      </trkpt>
      <trkpt lat="41.57479" lon="-0.94866">
        <ele>286.4</ele>
        <time>2022-08-23 18:51:40</time>
      </trkpt>
      <trkpt lat="41.57481" lon="-0.94867">
        <ele>286.4</ele>
        <time>2022-08-23 18:51:41</time>
      </trkpt>
      <trkpt lat="41.57484" lon="-0.94867">
        <ele>286.4</ele>
        <time>2022-08-23 18:51:42</time>
      </trkpt>
      <trkpt lat="41.57487" lon="-0.94868">
        <ele>286.4</ele>
        <time>2022-08-23 18:51:43</time>
      </trkpt>
      <trkpt lat="41.5749" lon="-0.94868">
        <ele>286.4</ele>
        <time>2022-08-23 18:51:44</time>
      </trkpt>
      <trkpt lat="41.57492" lon="-0.94869">
        <ele>286.4</ele>
        <time>2022-08-23 18:51:45</time>
      </trkpt>
      <trkpt lat="41.57495" lon="-0.94869">
        <ele>286.4</ele>
        <time>2022-08-23 18:51:46</time>
      </trkpt>
      <trkpt lat="41.57498" lon="-0.9487">
        <ele>286.4</ele>
        <time>2022-08-23 18:51:47</time>
      </trkpt>
      <trkpt lat="41.575" lon="-0.9487">
        <ele>286.4</ele>
        <time>2022-08-23 18:51:48</time>
      </trkpt>
      <trkpt lat="41.57503" lon="-0.94871">
        <ele>286.2</ele>
        <time>2022-08-23 18:51:49</time>
      </trkpt>
      <trkpt lat="41.57506" lon="-0.9487">
        <ele>286.2</ele>
        <time>2022-08-23 18:51:50</time>
      </trkpt>
      <trkpt lat="41.57509" lon="-0.9487">
        <ele>286.2</ele>
        <time>2022-08-23 18:51:51</time>
      </trkpt>
      <trkpt lat="41.57511" lon="-0.9487">
        <ele>286.2</ele>
        <time>2022-08-23 18:51:52</time>
      </trkpt>
      <trkpt lat="41.57514" lon="-0.94871">
        <ele>286.2</ele>
        <time>2022-08-23 18:51:53</time>
      </trkpt>
      <trkpt lat="41.57517" lon="-0.94871">
        <ele>286.2</ele>
        <time>2022-08-23 18:51:54</time>
      </trkpt>
      <trkpt lat="41.5752" lon="-0.94871">
        <ele>286.2</ele>
        <time>2022-08-23 18:51:55</time>
      </trkpt>
      <trkpt lat="41.57522" lon="-0.94872">
        <ele>286.2</ele>
        <time>2022-08-23 18:51:56</time>
      </trkpt>
      <trkpt lat="41.57525" lon="-0.94872">
        <ele>286.2</ele>
        <time>2022-08-23 18:51:57</time>
      </trkpt>
      <trkpt lat="41.57528" lon="-0.94873">
        <ele>286.2</ele>
        <time>2022-08-23 18:51:58</time>
      </trkpt>
      <trkpt lat="41.5753" lon="-0.94873">
        <ele>286.4</ele>
        <time>2022-08-23 18:51:59</time>
      </trkpt>
      <trkpt lat="41.57533" lon="-0.94874">
        <ele>286.2</ele>
        <time>2022-08-23 18:52:00</time>
      </trkpt>
      <trkpt lat="41.57535" lon="-0.94874">
        <ele>286.4</ele>
        <time>2022-08-23 18:52:01</time>
      </trkpt>
      <trkpt lat="41.57538" lon="-0.94874">
        <ele>286.4</ele>
        <time>2022-08-23 18:52:02</time>
      </trkpt>
      <trkpt lat="41.5754" lon="-0.94874">
        <ele>286.4</ele>
        <time>2022-08-23 18:52:03</time>
      </trkpt>
      <trkpt lat="41.57543" lon="-0.94874">
        <ele>286.2</ele>
        <time>2022-08-23 18:52:04</time>
      </trkpt>
      <trkpt lat="41.57545" lon="-0.94875">
        <ele>286.4</ele>
        <time>2022-08-23 18:52:05</time>
      </trkpt>
      <trkpt lat="41.57548" lon="-0.94875">
        <ele>286.2</ele>
        <time>2022-08-23 18:52:06</time>
      </trkpt>
      <trkpt lat="41.5755" lon="-0.94876">
        <ele>286.2</ele>
        <time>2022-08-23 18:52:07</time>
      </trkpt>
      <trkpt lat="41.57553" lon="-0.94877">
        <ele>286</ele>
        <time>2022-08-23 18:52:08</time>
      </trkpt>
      <trkpt lat="41.57555" lon="-0.94877">
        <ele>286</ele>
        <time>2022-08-23 18:52:09</time>
      </trkpt>
      <trkpt lat="41.57557" lon="-0.94877">
        <ele>286</ele>
        <time>2022-08-23 18:52:10</time>
      </trkpt>
      <trkpt lat="41.57559" lon="-0.94877">
        <ele>286</ele>
        <time>2022-08-23 18:52:11</time>
      </trkpt>
      <trkpt lat="41.57561" lon="-0.94878">
        <ele>286</ele>
        <time>2022-08-23 18:52:12</time>
      </trkpt>
      <trkpt lat="41.57563" lon="-0.94879">
        <ele>286</ele>
        <time>2022-08-23 18:52:13</time>
      </trkpt>
      <trkpt lat="41.57565" lon="-0.94877">
        <ele>284.2</ele>
        <time>2022-08-23 18:55:03</time>
      </trkpt>
      <trkpt lat="41.57565" lon="-0.94878">
        <ele>284.2</ele>
        <time>2022-08-23 18:55:04</time>
      </trkpt>
      <trkpt lat="41.57568" lon="-0.9488">
        <ele>284.4</ele>
        <time>2022-08-23 18:55:05</time>
      </trkpt>
      <trkpt lat="41.5757" lon="-0.94881">
        <ele>284.4</ele>
        <time>2022-08-23 18:55:06</time>
      </trkpt>
      <trkpt lat="41.57571" lon="-0.94883">
        <ele>284.4</ele>
        <time>2022-08-23 18:55:07</time>
      </trkpt>
      <trkpt lat="41.57573" lon="-0.94884">
        <ele>284.6</ele>
        <time>2022-08-23 18:55:08</time>
      </trkpt>
      <trkpt lat="41.57574" lon="-0.94887">
        <ele>284.8</ele>
        <time>2022-08-23 18:55:09</time>
      </trkpt>
      <trkpt lat="41.57575" lon="-0.94889">
        <ele>285</ele>
        <time>2022-08-23 18:55:10</time>
      </trkpt>
      <trkpt lat="41.57576" lon="-0.94892">
        <ele>285</ele>
        <time>2022-08-23 18:55:11</time>
      </trkpt>
      <trkpt lat="41.57577" lon="-0.94895">
        <ele>285.2</ele>
        <time>2022-08-23 18:55:12</time>
      </trkpt>
      <trkpt lat="41.57578" lon="-0.94898">
        <ele>285.4</ele>
        <time>2022-08-23 18:55:13</time>
      </trkpt>
      <trkpt lat="41.57578" lon="-0.94901">
        <ele>285.6</ele>
        <time>2022-08-23 18:55:14</time>
      </trkpt>
      <trkpt lat="41.57579" lon="-0.94904">
        <ele>285.8</ele>
        <time>2022-08-23 18:55:15</time>
      </trkpt>
      <trkpt lat="41.5758" lon="-0.94907">
        <ele>286</ele>
        <time>2022-08-23 18:55:16</time>
      </trkpt>
      <trkpt lat="41.57582" lon="-0.9491">
        <ele>286</ele>
        <time>2022-08-23 18:55:17</time>
      </trkpt>
      <trkpt lat="41.57584" lon="-0.94913">
        <ele>286.2</ele>
        <time>2022-08-23 18:55:18</time>
      </trkpt>
      <trkpt lat="41.57586" lon="-0.94915">
        <ele>286</ele>
        <time>2022-08-23 18:55:19</time>
      </trkpt>
      <trkpt lat="41.57588" lon="-0.94918">
        <ele>286</ele>
        <time>2022-08-23 18:55:20</time>
      </trkpt>
      <trkpt lat="41.57591" lon="-0.9492">
        <ele>285.8</ele>
        <time>2022-08-23 18:55:21</time>
      </trkpt>
      <trkpt lat="41.57593" lon="-0.94923">
        <ele>285.8</ele>
        <time>2022-08-23 18:55:22</time>
      </trkpt>
      <trkpt lat="41.57594" lon="-0.94926">
        <ele>285.6</ele>
        <time>2022-08-23 18:55:23</time>
      </trkpt>
      <trkpt lat="41.57596" lon="-0.94929">
        <ele>285.6</ele>
        <time>2022-08-23 18:55:24</time>
      </trkpt>
      <trkpt lat="41.57597" lon="-0.94932">
        <ele>285.4</ele>
        <time>2022-08-23 18:55:25</time>
      </trkpt>
      <trkpt lat="41.57599" lon="-0.94934">
        <ele>285.4</ele>
        <time>2022-08-23 18:55:26</time>
      </trkpt>
      <trkpt lat="41.576" lon="-0.94937">
        <ele>285.4</ele>
        <time>2022-08-23 18:55:27</time>
      </trkpt>
      <trkpt lat="41.57602" lon="-0.9494">
        <ele>285.4</ele>
        <time>2022-08-23 18:55:28</time>
      </trkpt>
      <trkpt lat="41.57603" lon="-0.94943">
        <ele>285.4</ele>
        <time>2022-08-23 18:55:29</time>
      </trkpt>
      <trkpt lat="41.57605" lon="-0.94945">
        <ele>285.4</ele>
        <time>2022-08-23 18:55:30</time>
      </trkpt>
      <trkpt lat="41.57607" lon="-0.94947">
        <ele>285.4</ele>
        <time>2022-08-23 18:55:31</time>
      </trkpt>
      <trkpt lat="41.57609" lon="-0.9495">
        <ele>285.4</ele>
        <time>2022-08-23 18:55:32</time>
      </trkpt>
      <trkpt lat="41.57611" lon="-0.94953">
        <ele>285.4</ele>
        <time>2022-08-23 18:55:33</time>
      </trkpt>
      <trkpt lat="41.57612" lon="-0.94956">
        <ele>285.4</ele>
        <time>2022-08-23 18:55:34</time>
      </trkpt>
      <trkpt lat="41.57614" lon="-0.94959">
        <ele>285.4</ele>
        <time>2022-08-23 18:55:35</time>
      </trkpt>
      <trkpt lat="41.57616" lon="-0.94961">
        <ele>285.4</ele>
        <time>2022-08-23 18:55:36</time>
      </trkpt>
      <trkpt lat="41.57618" lon="-0.94964">
        <ele>285.4</ele>
        <time>2022-08-23 18:55:37</time>
      </trkpt>
      <trkpt lat="41.5762" lon="-0.94967">
        <ele>285.4</ele>
        <time>2022-08-23 18:55:38</time>
      </trkpt>
      <trkpt lat="41.57622" lon="-0.94969">
        <ele>285.2</ele>
        <time>2022-08-23 18:55:39</time>
      </trkpt>
      <trkpt lat="41.57623" lon="-0.94972">
        <ele>285.4</ele>
        <time>2022-08-23 18:55:40</time>
      </trkpt>
      <trkpt lat="41.57625" lon="-0.94975">
        <ele>285.4</ele>
        <time>2022-08-23 18:55:41</time>
      </trkpt>
      <trkpt lat="41.57627" lon="-0.94977">
        <ele>285.2</ele>
        <time>2022-08-23 18:55:42</time>
      </trkpt>
      <trkpt lat="41.57629" lon="-0.94979">
        <ele>285</ele>
        <time>2022-08-23 18:55:43</time>
      </trkpt>
      <trkpt lat="41.57632" lon="-0.9498">
        <ele>285</ele>
        <time>2022-08-23 18:55:44</time>
      </trkpt>
      <trkpt lat="41.57634" lon="-0.94981">
        <ele>284.8</ele>
        <time>2022-08-23 18:55:45</time>
      </trkpt>
      <trkpt lat="41.57637" lon="-0.94982">
        <ele>284.8</ele>
        <time>2022-08-23 18:55:46</time>
      </trkpt>
      <trkpt lat="41.57639" lon="-0.94982">
        <ele>284.8</ele>
        <time>2022-08-23 18:55:47</time>
      </trkpt>
      <trkpt lat="41.57642" lon="-0.94983">
        <ele>284.6</ele>
        <time>2022-08-23 18:55:48</time>
      </trkpt>
      <trkpt lat="41.57645" lon="-0.94983">
        <ele>284.6</ele>
        <time>2022-08-23 18:55:49</time>
      </trkpt>
      <trkpt lat="41.57648" lon="-0.94983">
        <ele>284.6</ele>
        <time>2022-08-23 18:55:50</time>
      </trkpt>
      <trkpt lat="41.57651" lon="-0.94983">
        <ele>284.6</ele>
        <time>2022-08-23 18:55:51</time>
      </trkpt>
      <trkpt lat="41.57654" lon="-0.94983">
        <ele>284.6</ele>
        <time>2022-08-23 18:55:52</time>
      </trkpt>
      <trkpt lat="41.57656" lon="-0.94983">
        <ele>284.6</ele>
        <time>2022-08-23 18:55:53</time>
      </trkpt>
      <trkpt lat="41.57659" lon="-0.94983">
        <ele>284.8</ele>
        <time>2022-08-23 18:55:54</time>
      </trkpt>
      <trkpt lat="41.57661" lon="-0.94984">
        <ele>284.8</ele>
        <time>2022-08-23 18:55:55</time>
      </trkpt>
      <trkpt lat="41.57663" lon="-0.94983">
        <ele>285</ele>
        <time>2022-08-23 18:55:56</time>
      </trkpt>
      <trkpt lat="41.57665" lon="-0.94982">
        <ele>285.2</ele>
        <time>2022-08-23 18:55:57</time>
      </trkpt>
      <trkpt lat="41.57668" lon="-0.94982">
        <ele>285.2</ele>
        <time>2022-08-23 18:55:58</time>
      </trkpt>
      <trkpt lat="41.5767" lon="-0.94981">
        <ele>285.2</ele>
        <time>2022-08-23 18:55:59</time>
      </trkpt>
      <trkpt lat="41.57672" lon="-0.9498">
        <ele>285.4</ele>
        <time>2022-08-23 18:56:00</time>
      </trkpt>
      <trkpt lat="41.57674" lon="-0.94978">
        <ele>285.8</ele>
        <time>2022-08-23 18:56:01</time>
      </trkpt>
      <trkpt lat="41.57677" lon="-0.94977">
        <ele>286</ele>
        <time>2022-08-23 18:56:02</time>
      </trkpt>
      <trkpt lat="41.57679" lon="-0.94976">
        <ele>286</ele>
        <time>2022-08-23 18:56:03</time>
      </trkpt>
      <trkpt lat="41.57681" lon="-0.94975">
        <ele>286.2</ele>
        <time>2022-08-23 18:56:04</time>
      </trkpt>
      <trkpt lat="41.57683" lon="-0.94974">
        <ele>286.4</ele>
        <time>2022-08-23 18:56:05</time>
      </trkpt>
      <trkpt lat="41.57686" lon="-0.94973">
        <ele>286.6</ele>
        <time>2022-08-23 18:56:06</time>
      </trkpt>
      <trkpt lat="41.57688" lon="-0.94972">
        <ele>286.8</ele>
        <time>2022-08-23 18:56:07</time>
      </trkpt>
      <trkpt lat="41.5769" lon="-0.9497">
        <ele>287</ele>
        <time>2022-08-23 18:56:08</time>
      </trkpt>
      <trkpt lat="41.57693" lon="-0.94969">
        <ele>287</ele>
        <time>2022-08-23 18:56:09</time>
      </trkpt>
      <trkpt lat="41.57695" lon="-0.94968">
        <ele>287.2</ele>
        <time>2022-08-23 18:56:10</time>
      </trkpt>
      <trkpt lat="41.57697" lon="-0.94967">
        <ele>287.4</ele>
        <time>2022-08-23 18:56:11</time>
      </trkpt>
      <trkpt lat="41.57699" lon="-0.94965">
        <ele>287.6</ele>
        <time>2022-08-23 18:56:12</time>
      </trkpt>
      <trkpt lat="41.57702" lon="-0.94964">
        <ele>287.8</ele>
        <time>2022-08-23 18:56:13</time>
      </trkpt>
      <trkpt lat="41.57704" lon="-0.94963">
        <ele>288.2</ele>
        <time>2022-08-23 18:56:14</time>
      </trkpt>
      <trkpt lat="41.57706" lon="-0.94961">
        <ele>288.4</ele>
        <time>2022-08-23 18:56:15</time>
      </trkpt>
      <trkpt lat="41.57708" lon="-0.9496">
        <ele>288.8</ele>
        <time>2022-08-23 18:56:16</time>
      </trkpt>
      <trkpt lat="41.57711" lon="-0.94959">
        <ele>289</ele>
        <time>2022-08-23 18:56:17</time>
      </trkpt>
      <trkpt lat="41.57713" lon="-0.94958">
        <ele>289.2</ele>
        <time>2022-08-23 18:56:18</time>
      </trkpt>
      <trkpt lat="41.57715" lon="-0.94957">
        <ele>289.4</ele>
        <time>2022-08-23 18:56:19</time>
      </trkpt>
      <trkpt lat="41.57718" lon="-0.94956">
        <ele>289.6</ele>
        <time>2022-08-23 18:56:20</time>
      </trkpt>
      <trkpt lat="41.5772" lon="-0.94955">
        <ele>289.8</ele>
        <time>2022-08-23 18:56:21</time>
      </trkpt>
      <trkpt lat="41.57721" lon="-0.94955">
        <ele>290</ele>
        <time>2022-08-23 18:56:22</time>
      </trkpt>
      <trkpt lat="41.5773" lon="-0.9496">
        <ele>288.8</ele>
        <time>2022-08-23 18:57:18</time>
      </trkpt>
      <trkpt lat="41.5773" lon="-0.94961">
        <ele>288.8</ele>
        <time>2022-08-23 18:57:19</time>
      </trkpt>
      <trkpt lat="41.57731" lon="-0.94964">
        <ele>288.8</ele>
        <time>2022-08-23 18:57:20</time>
      </trkpt>
      <trkpt lat="41.57732" lon="-0.94966">
        <ele>289</ele>
        <time>2022-08-23 18:57:21</time>
      </trkpt>
      <trkpt lat="41.57733" lon="-0.94969">
        <ele>289</ele>
        <time>2022-08-23 18:57:22</time>
      </trkpt>
      <trkpt lat="41.57734" lon="-0.94972">
        <ele>289</ele>
        <time>2022-08-23 18:57:23</time>
      </trkpt>
      <trkpt lat="41.57735" lon="-0.94974">
        <ele>289</ele>
        <time>2022-08-23 18:57:24</time>
      </trkpt>
      <trkpt lat="41.57736" lon="-0.94977">
        <ele>289</ele>
        <time>2022-08-23 18:57:25</time>
      </trkpt>
      <trkpt lat="41.57738" lon="-0.94979">
        <ele>289.2</ele>
        <time>2022-08-23 18:57:26</time>
      </trkpt>
      <trkpt lat="41.5774" lon="-0.94981">
        <ele>289.2</ele>
        <time>2022-08-23 18:57:27</time>
      </trkpt>
      <trkpt lat="41.57741" lon="-0.94983">
        <ele>289.2</ele>
        <time>2022-08-23 18:57:28</time>
      </trkpt>
      <trkpt lat="41.57743" lon="-0.94985">
        <ele>289.2</ele>
        <time>2022-08-23 18:57:29</time>
      </trkpt>
      <trkpt lat="41.57745" lon="-0.94988">
        <ele>289.2</ele>
        <time>2022-08-23 18:57:30</time>
      </trkpt>
      <trkpt lat="41.57746" lon="-0.9499">
        <ele>289.4</ele>
        <time>2022-08-23 18:57:31</time>
      </trkpt>
      <trkpt lat="41.57748" lon="-0.94992">
        <ele>289.4</ele>
        <time>2022-08-23 18:57:32</time>
      </trkpt>
      <trkpt lat="41.5775" lon="-0.94995">
        <ele>289.4</ele>
        <time>2022-08-23 18:57:33</time>
      </trkpt>
      <trkpt lat="41.57751" lon="-0.94997">
        <ele>289.4</ele>
        <time>2022-08-23 18:57:34</time>
      </trkpt>
      <trkpt lat="41.57753" lon="-0.94999">
        <ele>289.2</ele>
        <time>2022-08-23 18:57:35</time>
      </trkpt>
      <trkpt lat="41.57755" lon="-0.95">
        <ele>289.2</ele>
        <time>2022-08-23 18:57:36</time>
      </trkpt>
      <trkpt lat="41.57757" lon="-0.95002">
        <ele>289.2</ele>
        <time>2022-08-23 18:57:37</time>
      </trkpt>
      <trkpt lat="41.57759" lon="-0.95004">
        <ele>289.2</ele>
        <time>2022-08-23 18:57:38</time>
      </trkpt>
      <trkpt lat="41.57761" lon="-0.95006">
        <ele>289.2</ele>
        <time>2022-08-23 18:57:39</time>
      </trkpt>
      <trkpt lat="41.57762" lon="-0.95008">
        <ele>289.2</ele>
        <time>2022-08-23 18:57:40</time>
      </trkpt>
      <trkpt lat="41.57764" lon="-0.9501">
        <ele>289.2</ele>
        <time>2022-08-23 18:57:41</time>
      </trkpt>
      <trkpt lat="41.57766" lon="-0.95012">
        <ele>289.2</ele>
        <time>2022-08-23 18:57:42</time>
      </trkpt>
      <trkpt lat="41.57768" lon="-0.95014">
        <ele>289.2</ele>
        <time>2022-08-23 18:57:43</time>
      </trkpt>
      <trkpt lat="41.5777" lon="-0.95016">
        <ele>289.2</ele>
        <time>2022-08-23 18:57:44</time>
      </trkpt>
      <trkpt lat="41.57771" lon="-0.95019">
        <ele>289</ele>
        <time>2022-08-23 18:57:45</time>
      </trkpt>
      <trkpt lat="41.57773" lon="-0.95021">
        <ele>289</ele>
        <time>2022-08-23 18:57:46</time>
      </trkpt>
      <trkpt lat="41.57775" lon="-0.95023">
        <ele>289</ele>
        <time>2022-08-23 18:57:47</time>
      </trkpt>
      <trkpt lat="41.57777" lon="-0.95025">
        <ele>289</ele>
        <time>2022-08-23 18:57:48</time>
      </trkpt>
      <trkpt lat="41.5778" lon="-0.95027">
        <ele>289</ele>
        <time>2022-08-23 18:57:49</time>
      </trkpt>
      <trkpt lat="41.57782" lon="-0.95028">
        <ele>289</ele>
        <time>2022-08-23 18:57:50</time>
      </trkpt>
      <trkpt lat="41.57784" lon="-0.9503">
        <ele>289.2</ele>
        <time>2022-08-23 18:57:51</time>
      </trkpt>
      <trkpt lat="41.57787" lon="-0.95031">
        <ele>289.2</ele>
        <time>2022-08-23 18:57:52</time>
      </trkpt>
      <trkpt lat="41.57789" lon="-0.95031">
        <ele>289</ele>
        <time>2022-08-23 18:57:53</time>
      </trkpt>
      <trkpt lat="41.57792" lon="-0.95031">
        <ele>289</ele>
        <time>2022-08-23 18:57:54</time>
      </trkpt>
      <trkpt lat="41.57795" lon="-0.95031">
        <ele>289</ele>
        <time>2022-08-23 18:57:55</time>
      </trkpt>
      <trkpt lat="41.57798" lon="-0.95031">
        <ele>289</ele>
        <time>2022-08-23 18:57:56</time>
      </trkpt>
      <trkpt lat="41.57801" lon="-0.9503">
        <ele>289</ele>
        <time>2022-08-23 18:57:57</time>
      </trkpt>
      <trkpt lat="41.57803" lon="-0.95029">
        <ele>289</ele>
        <time>2022-08-23 18:57:58</time>
      </trkpt>
      <trkpt lat="41.57806" lon="-0.95029">
        <ele>289</ele>
        <time>2022-08-23 18:57:59</time>
      </trkpt>
      <trkpt lat="41.57808" lon="-0.95028">
        <ele>289</ele>
        <time>2022-08-23 18:58:00</time>
      </trkpt>
      <trkpt lat="41.57811" lon="-0.95028">
        <ele>289</ele>
        <time>2022-08-23 18:58:01</time>
      </trkpt>
      <trkpt lat="41.57813" lon="-0.95027">
        <ele>289</ele>
        <time>2022-08-23 18:58:02</time>
      </trkpt>
      <trkpt lat="41.57816" lon="-0.95026">
        <ele>289</ele>
        <time>2022-08-23 18:58:03</time>
      </trkpt>
      <trkpt lat="41.57819" lon="-0.95026">
        <ele>289</ele>
        <time>2022-08-23 18:58:04</time>
      </trkpt>
      <trkpt lat="41.57821" lon="-0.95026">
        <ele>289</ele>
        <time>2022-08-23 18:58:05</time>
      </trkpt>
      <trkpt lat="41.57824" lon="-0.95025">
        <ele>288.8</ele>
        <time>2022-08-23 18:58:06</time>
      </trkpt>
      <trkpt lat="41.57827" lon="-0.95025">
        <ele>288.8</ele>
        <time>2022-08-23 18:58:07</time>
      </trkpt>
      <trkpt lat="41.5783" lon="-0.95024">
        <ele>288.8</ele>
        <time>2022-08-23 18:58:08</time>
      </trkpt>
      <trkpt lat="41.57832" lon="-0.95024">
        <ele>288.8</ele>
        <time>2022-08-23 18:58:09</time>
      </trkpt>
      <trkpt lat="41.57835" lon="-0.95023">
        <ele>288.8</ele>
        <time>2022-08-23 18:58:10</time>
      </trkpt>
      <trkpt lat="41.57838" lon="-0.95023">
        <ele>288.8</ele>
        <time>2022-08-23 18:58:11</time>
      </trkpt>
      <trkpt lat="41.57841" lon="-0.95022">
        <ele>288.8</ele>
        <time>2022-08-23 18:58:12</time>
      </trkpt>
      <trkpt lat="41.57843" lon="-0.95021">
        <ele>288.8</ele>
        <time>2022-08-23 18:58:13</time>
      </trkpt>
      <trkpt lat="41.57846" lon="-0.95021">
        <ele>288.8</ele>
        <time>2022-08-23 18:58:14</time>
      </trkpt>
      <trkpt lat="41.57848" lon="-0.9502">
        <ele>288.6</ele>
        <time>2022-08-23 18:58:15</time>
      </trkpt>
      <trkpt lat="41.57851" lon="-0.9502">
        <ele>288.6</ele>
        <time>2022-08-23 18:58:16</time>
      </trkpt>
      <trkpt lat="41.57853" lon="-0.9502">
        <ele>288.6</ele>
        <time>2022-08-23 18:58:17</time>
      </trkpt>
      <trkpt lat="41.57856" lon="-0.9502">
        <ele>288.4</ele>
        <time>2022-08-23 18:58:18</time>
      </trkpt>
      <trkpt lat="41.57858" lon="-0.95019">
        <ele>288.4</ele>
        <time>2022-08-23 18:58:19</time>
      </trkpt>
      <trkpt lat="41.57861" lon="-0.95019">
        <ele>288.2</ele>
        <time>2022-08-23 18:58:20</time>
      </trkpt>
      <trkpt lat="41.57864" lon="-0.95018">
        <ele>288.2</ele>
        <time>2022-08-23 18:58:21</time>
      </trkpt>
      <trkpt lat="41.57866" lon="-0.95018">
        <ele>288</ele>
        <time>2022-08-23 18:58:22</time>
      </trkpt>
      <trkpt lat="41.57869" lon="-0.95018">
        <ele>288</ele>
        <time>2022-08-23 18:58:23</time>
      </trkpt>
      <trkpt lat="41.57871" lon="-0.95017">
        <ele>288</ele>
        <time>2022-08-23 18:58:24</time>
      </trkpt>
      <trkpt lat="41.57873" lon="-0.95015">
        <ele>288</ele>
        <time>2022-08-23 18:58:25</time>
      </trkpt>
      <trkpt lat="41.57876" lon="-0.95014">
        <ele>288</ele>
        <time>2022-08-23 18:58:26</time>
      </trkpt>
      <trkpt lat="41.57878" lon="-0.95013">
        <ele>288.2</ele>
        <time>2022-08-23 18:58:27</time>
      </trkpt>
      <trkpt lat="41.5788" lon="-0.95012">
        <ele>288.2</ele>
        <time>2022-08-23 18:58:28</time>
      </trkpt>
      <trkpt lat="41.57883" lon="-0.95012">
        <ele>288.2</ele>
        <time>2022-08-23 18:58:29</time>
      </trkpt>
      <trkpt lat="41.57886" lon="-0.95012">
        <ele>288.4</ele>
        <time>2022-08-23 18:58:30</time>
      </trkpt>
      <trkpt lat="41.57888" lon="-0.95011">
        <ele>288.4</ele>
        <time>2022-08-23 18:58:31</time>
      </trkpt>
      <trkpt lat="41.57891" lon="-0.95011">
        <ele>288.4</ele>
        <time>2022-08-23 18:58:32</time>
      </trkpt>
      <trkpt lat="41.57893" lon="-0.9501">
        <ele>288.4</ele>
        <time>2022-08-23 18:58:33</time>
      </trkpt>
      <trkpt lat="41.57896" lon="-0.9501">
        <ele>288.6</ele>
        <time>2022-08-23 18:58:34</time>
      </trkpt>
      <trkpt lat="41.57899" lon="-0.9501">
        <ele>288.4</ele>
        <time>2022-08-23 18:58:35</time>
      </trkpt>
      <trkpt lat="41.57901" lon="-0.95009">
        <ele>288.4</ele>
        <time>2022-08-23 18:58:36</time>
      </trkpt>
      <trkpt lat="41.57904" lon="-0.95009">
        <ele>288.4</ele>
        <time>2022-08-23 18:58:37</time>
      </trkpt>
      <trkpt lat="41.57906" lon="-0.95008">
        <ele>288.4</ele>
        <time>2022-08-23 18:58:38</time>
      </trkpt>
      <trkpt lat="41.57909" lon="-0.95008">
        <ele>288.2</ele>
        <time>2022-08-23 18:58:39</time>
      </trkpt>
      <trkpt lat="41.57911" lon="-0.95008">
        <ele>288.2</ele>
        <time>2022-08-23 18:58:40</time>
      </trkpt>
      <trkpt lat="41.57914" lon="-0.95007">
        <ele>288.2</ele>
        <time>2022-08-23 18:58:41</time>
      </trkpt>
      <trkpt lat="41.57916" lon="-0.95007">
        <ele>288.2</ele>
        <time>2022-08-23 18:58:42</time>
      </trkpt>
      <trkpt lat="41.57919" lon="-0.95007">
        <ele>288.2</ele>
        <time>2022-08-23 18:58:43</time>
      </trkpt>
      <trkpt lat="41.57922" lon="-0.95006">
        <ele>288.2</ele>
        <time>2022-08-23 18:58:44</time>
      </trkpt>
      <trkpt lat="41.57924" lon="-0.95006">
        <ele>288.2</ele>
        <time>2022-08-23 18:58:45</time>
      </trkpt>
      <trkpt lat="41.57927" lon="-0.95005">
        <ele>288.2</ele>
        <time>2022-08-23 18:58:46</time>
      </trkpt>
      <trkpt lat="41.5793" lon="-0.95005">
        <ele>288.2</ele>
        <time>2022-08-23 18:58:47</time>
      </trkpt>
      <trkpt lat="41.57932" lon="-0.95005">
        <ele>288.2</ele>
        <time>2022-08-23 18:58:48</time>
      </trkpt>
      <trkpt lat="41.57935" lon="-0.95004">
        <ele>288.2</ele>
        <time>2022-08-23 18:58:49</time>
      </trkpt>
      <trkpt lat="41.57937" lon="-0.95004">
        <ele>288.2</ele>
        <time>2022-08-23 18:58:50</time>
      </trkpt>
      <trkpt lat="41.5794" lon="-0.95003">
        <ele>288.2</ele>
        <time>2022-08-23 18:58:51</time>
      </trkpt>
      <trkpt lat="41.57942" lon="-0.95003">
        <ele>288.2</ele>
        <time>2022-08-23 18:58:52</time>
      </trkpt>
      <trkpt lat="41.57945" lon="-0.95003">
        <ele>288.2</ele>
        <time>2022-08-23 18:58:53</time>
      </trkpt>
      <trkpt lat="41.57948" lon="-0.95002">
        <ele>288.2</ele>
        <time>2022-08-23 18:58:54</time>
      </trkpt>
      <trkpt lat="41.57951" lon="-0.95002">
        <ele>288.2</ele>
        <time>2022-08-23 18:58:55</time>
      </trkpt>
      <trkpt lat="41.57953" lon="-0.95002">
        <ele>288.2</ele>
        <time>2022-08-23 18:58:56</time>
      </trkpt>
      <trkpt lat="41.57955" lon="-0.95002">
        <ele>288.2</ele>
        <time>2022-08-23 18:58:57</time>
      </trkpt>
      <trkpt lat="41.57958" lon="-0.95001">
        <ele>288.2</ele>
        <time>2022-08-23 18:58:58</time>
      </trkpt>
      <trkpt lat="41.5796" lon="-0.95001">
        <ele>288.2</ele>
        <time>2022-08-23 18:58:59</time>
      </trkpt>
      <trkpt lat="41.57962" lon="-0.95">
        <ele>288.2</ele>
        <time>2022-08-23 18:59:00</time>
      </trkpt>
      <trkpt lat="41.57964" lon="-0.94999">
        <ele>288.2</ele>
        <time>2022-08-23 18:59:01</time>
      </trkpt>
      <trkpt lat="41.57969" lon="-0.94998">
        <ele>287.6</ele>
        <time>2022-08-23 18:59:14</time>
      </trkpt>
      <trkpt lat="41.5797" lon="-0.94998">
        <ele>287.6</ele>
        <time>2022-08-23 18:59:15</time>
      </trkpt>
      <trkpt lat="41.57972" lon="-0.94998">
        <ele>287.8</ele>
        <time>2022-08-23 18:59:16</time>
      </trkpt>
      <trkpt lat="41.57974" lon="-0.94997">
        <ele>287.6</ele>
        <time>2022-08-23 18:59:17</time>
      </trkpt>
      <trkpt lat="41.57976" lon="-0.94997">
        <ele>287.8</ele>
        <time>2022-08-23 18:59:18</time>
      </trkpt>
      <trkpt lat="41.57978" lon="-0.94997">
        <ele>288</ele>
        <time>2022-08-23 18:59:19</time>
      </trkpt>
      <trkpt lat="41.5798" lon="-0.94997">
        <ele>287.8</ele>
        <time>2022-08-23 18:59:20</time>
      </trkpt>
      <trkpt lat="41.57983" lon="-0.94996">
        <ele>287.8</ele>
        <time>2022-08-23 18:59:21</time>
      </trkpt>
      <trkpt lat="41.57985" lon="-0.94996">
        <ele>287.8</ele>
        <time>2022-08-23 18:59:22</time>
      </trkpt>
      <trkpt lat="41.57987" lon="-0.94995">
        <ele>287.6</ele>
        <time>2022-08-23 18:59:23</time>
      </trkpt>
      <trkpt lat="41.57989" lon="-0.94994">
        <ele>287.6</ele>
        <time>2022-08-23 18:59:24</time>
      </trkpt>
      <trkpt lat="41.57992" lon="-0.94993">
        <ele>287.6</ele>
        <time>2022-08-23 18:59:25</time>
      </trkpt>
      <trkpt lat="41.57994" lon="-0.94992">
        <ele>287.6</ele>
        <time>2022-08-23 18:59:26</time>
      </trkpt>
      <trkpt lat="41.57996" lon="-0.94992">
        <ele>287.6</ele>
        <time>2022-08-23 18:59:27</time>
      </trkpt>
      <trkpt lat="41.57998" lon="-0.94991">
        <ele>287.6</ele>
        <time>2022-08-23 18:59:28</time>
      </trkpt>
      <trkpt lat="41.58" lon="-0.94991">
        <ele>287.6</ele>
        <time>2022-08-23 18:59:29</time>
      </trkpt>
      <trkpt lat="41.58003" lon="-0.9499">
        <ele>287.6</ele>
        <time>2022-08-23 18:59:30</time>
      </trkpt>
      <trkpt lat="41.58005" lon="-0.9499">
        <ele>287.8</ele>
        <time>2022-08-23 18:59:31</time>
      </trkpt>
      <trkpt lat="41.58007" lon="-0.94989">
        <ele>287.6</ele>
        <time>2022-08-23 18:59:32</time>
      </trkpt>
      <trkpt lat="41.58009" lon="-0.94989">
        <ele>287.6</ele>
        <time>2022-08-23 18:59:33</time>
      </trkpt>
      <trkpt lat="41.58011" lon="-0.94988">
        <ele>287.6</ele>
        <time>2022-08-23 18:59:34</time>
      </trkpt>
      <trkpt lat="41.58013" lon="-0.94987">
        <ele>287.6</ele>
        <time>2022-08-23 18:59:35</time>
      </trkpt>
      <trkpt lat="41.58015" lon="-0.94987">
        <ele>287.6</ele>
        <time>2022-08-23 18:59:36</time>
      </trkpt>
      <trkpt lat="41.58017" lon="-0.94986">
        <ele>287.6</ele>
        <time>2022-08-23 18:59:37</time>
      </trkpt>
      <trkpt lat="41.58019" lon="-0.94986">
        <ele>287.6</ele>
        <time>2022-08-23 18:59:38</time>
      </trkpt>
      <trkpt lat="41.58021" lon="-0.94985">
        <ele>287.6</ele>
        <time>2022-08-23 18:59:39</time>
      </trkpt>
      <trkpt lat="41.58023" lon="-0.94985">
        <ele>287.6</ele>
        <time>2022-08-23 18:59:40</time>
      </trkpt>
      <trkpt lat="41.58025" lon="-0.94984">
        <ele>287.8</ele>
        <time>2022-08-23 18:59:41</time>
      </trkpt>
      <trkpt lat="41.58027" lon="-0.94984">
        <ele>287.8</ele>
        <time>2022-08-23 18:59:42</time>
      </trkpt>
      <trkpt lat="41.5803" lon="-0.94983">
        <ele>287.8</ele>
        <time>2022-08-23 18:59:43</time>
      </trkpt>
      <trkpt lat="41.58032" lon="-0.94982">
        <ele>287.8</ele>
        <time>2022-08-23 18:59:44</time>
      </trkpt>
      <trkpt lat="41.58034" lon="-0.94982">
        <ele>288</ele>
        <time>2022-08-23 18:59:45</time>
      </trkpt>
      <trkpt lat="41.58036" lon="-0.94982">
        <ele>288</ele>
        <time>2022-08-23 18:59:46</time>
      </trkpt>
      <trkpt lat="41.58038" lon="-0.94981">
        <ele>288</ele>
        <time>2022-08-23 18:59:47</time>
      </trkpt>
      <trkpt lat="41.5804" lon="-0.94981">
        <ele>288</ele>
        <time>2022-08-23 18:59:48</time>
      </trkpt>
      <trkpt lat="41.58043" lon="-0.9498">
        <ele>288.2</ele>
        <time>2022-08-23 18:59:49</time>
      </trkpt>
      <trkpt lat="41.58045" lon="-0.94979">
        <ele>288.2</ele>
        <time>2022-08-23 18:59:50</time>
      </trkpt>
      <trkpt lat="41.58047" lon="-0.94979">
        <ele>288.2</ele>
        <time>2022-08-23 18:59:51</time>
      </trkpt>
      <trkpt lat="41.58049" lon="-0.94978">
        <ele>288.2</ele>
        <time>2022-08-23 18:59:52</time>
      </trkpt>
      <trkpt lat="41.58051" lon="-0.94978">
        <ele>288.2</ele>
        <time>2022-08-23 18:59:53</time>
      </trkpt>
      <trkpt lat="41.58054" lon="-0.94977">
        <ele>288.2</ele>
        <time>2022-08-23 18:59:54</time>
      </trkpt>
      <trkpt lat="41.58056" lon="-0.94977">
        <ele>288.2</ele>
        <time>2022-08-23 18:59:55</time>
      </trkpt>
      <trkpt lat="41.58058" lon="-0.94976">
        <ele>288.4</ele>
        <time>2022-08-23 18:59:56</time>
      </trkpt>
      <trkpt lat="41.5806" lon="-0.94976">
        <ele>288.4</ele>
        <time>2022-08-23 18:59:57</time>
      </trkpt>
      <trkpt lat="41.58062" lon="-0.94975">
        <ele>288.4</ele>
        <time>2022-08-23 18:59:58</time>
      </trkpt>
      <trkpt lat="41.58064" lon="-0.94975">
        <ele>288.4</ele>
        <time>2022-08-23 18:59:59</time>
      </trkpt>
      <trkpt lat="41.58066" lon="-0.94975">
        <ele>288.4</ele>
        <time>2022-08-23 19:00:00</time>
      </trkpt>
      <trkpt lat="41.58069" lon="-0.94975">
        <ele>288.4</ele>
        <time>2022-08-23 19:00:01</time>
      </trkpt>
      <trkpt lat="41.58071" lon="-0.94974">
        <ele>288.4</ele>
        <time>2022-08-23 19:00:02</time>
      </trkpt>
      <trkpt lat="41.58073" lon="-0.94973">
        <ele>288.2</ele>
        <time>2022-08-23 19:00:03</time>
      </trkpt>
      <trkpt lat="41.58075" lon="-0.94972">
        <ele>287.8</ele>
        <time>2022-08-23 19:00:04</time>
      </trkpt>
      <trkpt lat="41.58077" lon="-0.9497">
        <ele>287.8</ele>
        <time>2022-08-23 19:00:05</time>
      </trkpt>
      <trkpt lat="41.58078" lon="-0.94968">
        <ele>287.8</ele>
        <time>2022-08-23 19:00:06</time>
      </trkpt>
      <trkpt lat="41.58079" lon="-0.94965">
        <ele>287.6</ele>
        <time>2022-08-23 19:00:07</time>
      </trkpt>
      <trkpt lat="41.58079" lon="-0.94962">
        <ele>287.6</ele>
        <time>2022-08-23 19:00:08</time>
      </trkpt>
      <trkpt lat="41.58079" lon="-0.94959">
        <ele>287.4</ele>
        <time>2022-08-23 19:00:09</time>
      </trkpt>
      <trkpt lat="41.58078" lon="-0.94956">
        <ele>287.4</ele>
        <time>2022-08-23 19:00:10</time>
      </trkpt>
      <trkpt lat="41.58077" lon="-0.94954">
        <ele>287.4</ele>
        <time>2022-08-23 19:00:11</time>
      </trkpt>
      <trkpt lat="41.58076" lon="-0.94951">
        <ele>287.4</ele>
        <time>2022-08-23 19:00:12</time>
      </trkpt>
      <trkpt lat="41.58074" lon="-0.94948">
        <ele>287.4</ele>
        <time>2022-08-23 19:00:13</time>
      </trkpt>
      <trkpt lat="41.58073" lon="-0.94945">
        <ele>287.4</ele>
        <time>2022-08-23 19:00:14</time>
      </trkpt>
      <trkpt lat="41.58072" lon="-0.94943">
        <ele>287.4</ele>
        <time>2022-08-23 19:00:15</time>
      </trkpt>
      <trkpt lat="41.58071" lon="-0.9494">
        <ele>287.4</ele>
        <time>2022-08-23 19:00:16</time>
      </trkpt>
      <trkpt lat="41.5807" lon="-0.94938">
        <ele>287.4</ele>
        <time>2022-08-23 19:00:17</time>
      </trkpt>
      <trkpt lat="41.58069" lon="-0.94935">
        <ele>287.4</ele>
        <time>2022-08-23 19:00:18</time>
      </trkpt>
      <trkpt lat="41.58068" lon="-0.94932">
        <ele>287.2</ele>
        <time>2022-08-23 19:00:19</time>
      </trkpt>
      <trkpt lat="41.58068" lon="-0.94929">
        <ele>287.2</ele>
        <time>2022-08-23 19:00:20</time>
      </trkpt>
      <trkpt lat="41.58067" lon="-0.94926">
        <ele>287</ele>
        <time>2022-08-23 19:00:21</time>
      </trkpt>
      <trkpt lat="41.58066" lon="-0.94923">
        <ele>287</ele>
        <time>2022-08-23 19:00:22</time>
      </trkpt>
      <trkpt lat="41.58066" lon="-0.9492">
        <ele>287</ele>
        <time>2022-08-23 19:00:23</time>
      </trkpt>
      <trkpt lat="41.58065" lon="-0.94917">
        <ele>287</ele>
        <time>2022-08-23 19:00:24</time>
      </trkpt>
      <trkpt lat="41.58064" lon="-0.94914">
        <ele>287</ele>
        <time>2022-08-23 19:00:25</time>
      </trkpt>
      <trkpt lat="41.58064" lon="-0.94911">
        <ele>287</ele>
        <time>2022-08-23 19:00:26</time>
      </trkpt>
      <trkpt lat="41.58063" lon="-0.94908">
        <ele>287</ele>
        <time>2022-08-23 19:00:27</time>
      </trkpt>
      <trkpt lat="41.58063" lon="-0.94905">
        <ele>287</ele>
        <time>2022-08-23 19:00:28</time>
      </trkpt>
      <trkpt lat="41.58063" lon="-0.94903">
        <ele>287</ele>
        <time>2022-08-23 19:00:29</time>
      </trkpt>
      <trkpt lat="41.58063" lon="-0.949">
        <ele>287</ele>
        <time>2022-08-23 19:00:30</time>
      </trkpt>
      <trkpt lat="41.58063" lon="-0.94897">
        <ele>286.8</ele>
        <time>2022-08-23 19:00:31</time>
      </trkpt>
      <trkpt lat="41.58063" lon="-0.94895">
        <ele>286.8</ele>
        <time>2022-08-23 19:00:32</time>
      </trkpt>
      <trkpt lat="41.58062" lon="-0.94891">
        <ele>286.8</ele>
        <time>2022-08-23 19:00:33</time>
      </trkpt>
      <trkpt lat="41.58063" lon="-0.94888">
        <ele>286.8</ele>
        <time>2022-08-23 19:00:34</time>
      </trkpt>
      <trkpt lat="41.58063" lon="-0.94884">
        <ele>286.8</ele>
        <time>2022-08-23 19:00:35</time>
      </trkpt>
      <trkpt lat="41.58063" lon="-0.94881">
        <ele>286.8</ele>
        <time>2022-08-23 19:00:36</time>
      </trkpt>
      <trkpt lat="41.58065" lon="-0.94877">
        <ele>287</ele>
        <time>2022-08-23 19:00:37</time>
      </trkpt>
      <trkpt lat="41.58065" lon="-0.94874">
        <ele>287</ele>
        <time>2022-08-23 19:00:38</time>
      </trkpt>
      <trkpt lat="41.58066" lon="-0.9487">
        <ele>287</ele>
        <time>2022-08-23 19:00:39</time>
      </trkpt>
      <trkpt lat="41.58067" lon="-0.94867">
        <ele>287</ele>
        <time>2022-08-23 19:00:40</time>
      </trkpt>
      <trkpt lat="41.58068" lon="-0.94863">
        <ele>287</ele>
        <time>2022-08-23 19:00:41</time>
      </trkpt>
      <trkpt lat="41.58068" lon="-0.9486">
        <ele>287</ele>
        <time>2022-08-23 19:00:42</time>
      </trkpt>
      <trkpt lat="41.58069" lon="-0.94857">
        <ele>287</ele>
        <time>2022-08-23 19:00:43</time>
      </trkpt>
      <trkpt lat="41.5807" lon="-0.94854">
        <ele>287</ele>
        <time>2022-08-23 19:00:44</time>
      </trkpt>
      <trkpt lat="41.5807" lon="-0.94852">
        <ele>287</ele>
        <time>2022-08-23 19:00:45</time>
      </trkpt>
      <trkpt lat="41.58071" lon="-0.94849">
        <ele>286.8</ele>
        <time>2022-08-23 19:00:46</time>
      </trkpt>
      <trkpt lat="41.58072" lon="-0.94846">
        <ele>286.8</ele>
        <time>2022-08-23 19:00:47</time>
      </trkpt>
      <trkpt lat="41.58073" lon="-0.94844">
        <ele>286.6</ele>
        <time>2022-08-23 19:00:48</time>
      </trkpt>
      <trkpt lat="41.58074" lon="-0.94841">
        <ele>286.6</ele>
        <time>2022-08-23 19:00:49</time>
      </trkpt>
      <trkpt lat="41.58075" lon="-0.94838">
        <ele>286.6</ele>
        <time>2022-08-23 19:00:50</time>
      </trkpt>
      <trkpt lat="41.58076" lon="-0.94835">
        <ele>286.4</ele>
        <time>2022-08-23 19:00:51</time>
      </trkpt>
      <trkpt lat="41.58077" lon="-0.94833">
        <ele>286.4</ele>
        <time>2022-08-23 19:00:52</time>
      </trkpt>
      <trkpt lat="41.58078" lon="-0.9483">
        <ele>286.4</ele>
        <time>2022-08-23 19:00:53</time>
      </trkpt>
      <trkpt lat="41.5808" lon="-0.94828">
        <ele>286.4</ele>
        <time>2022-08-23 19:00:54</time>
      </trkpt>
      <trkpt lat="41.58082" lon="-0.94825">
        <ele>286.4</ele>
        <time>2022-08-23 19:00:55</time>
      </trkpt>
      <trkpt lat="41.58083" lon="-0.94823">
        <ele>286.4</ele>
        <time>2022-08-23 19:00:56</time>
      </trkpt>
      <trkpt lat="41.58085" lon="-0.9482">
        <ele>286.4</ele>
        <time>2022-08-23 19:00:57</time>
      </trkpt>
      <trkpt lat="41.58086" lon="-0.94818">
        <ele>286.4</ele>
        <time>2022-08-23 19:00:58</time>
      </trkpt>
      <trkpt lat="41.58087" lon="-0.94815">
        <ele>286.4</ele>
        <time>2022-08-23 19:00:59</time>
      </trkpt>
      <trkpt lat="41.58089" lon="-0.94813">
        <ele>286.6</ele>
        <time>2022-08-23 19:01:00</time>
      </trkpt>
      <trkpt lat="41.58091" lon="-0.94811">
        <ele>286.6</ele>
        <time>2022-08-23 19:01:01</time>
      </trkpt>
      <trkpt lat="41.58093" lon="-0.94809">
        <ele>286.6</ele>
        <time>2022-08-23 19:01:02</time>
      </trkpt>
      <trkpt lat="41.58095" lon="-0.94806">
        <ele>286.6</ele>
        <time>2022-08-23 19:01:03</time>
      </trkpt>
      <trkpt lat="41.58097" lon="-0.94804">
        <ele>286.6</ele>
        <time>2022-08-23 19:01:04</time>
      </trkpt>
      <trkpt lat="41.58099" lon="-0.94801">
        <ele>286.6</ele>
        <time>2022-08-23 19:01:05</time>
      </trkpt>
      <trkpt lat="41.58101" lon="-0.94799">
        <ele>286.8</ele>
        <time>2022-08-23 19:01:06</time>
      </trkpt>
      <trkpt lat="41.58103" lon="-0.94796">
        <ele>286.6</ele>
        <time>2022-08-23 19:01:07</time>
      </trkpt>
      <trkpt lat="41.58105" lon="-0.94794">
        <ele>286.6</ele>
        <time>2022-08-23 19:01:08</time>
      </trkpt>
      <trkpt lat="41.58107" lon="-0.94792">
        <ele>286.4</ele>
        <time>2022-08-23 19:01:09</time>
      </trkpt>
      <trkpt lat="41.58109" lon="-0.9479">
        <ele>286.4</ele>
        <time>2022-08-23 19:01:10</time>
      </trkpt>
      <trkpt lat="41.58111" lon="-0.94789">
        <ele>286.4</ele>
        <time>2022-08-23 19:01:11</time>
      </trkpt>
      <trkpt lat="41.58113" lon="-0.94787">
        <ele>286.4</ele>
        <time>2022-08-23 19:01:12</time>
      </trkpt>
      <trkpt lat="41.58115" lon="-0.94785">
        <ele>286.2</ele>
        <time>2022-08-23 19:01:13</time>
      </trkpt>
      <trkpt lat="41.58117" lon="-0.94784">
        <ele>286.2</ele>
        <time>2022-08-23 19:01:14</time>
      </trkpt>
      <trkpt lat="41.58119" lon="-0.94782">
        <ele>286</ele>
        <time>2022-08-23 19:01:15</time>
      </trkpt>
      <trkpt lat="41.58121" lon="-0.9478">
        <ele>286</ele>
        <time>2022-08-23 19:01:16</time>
      </trkpt>
      <trkpt lat="41.58123" lon="-0.94778">
        <ele>286</ele>
        <time>2022-08-23 19:01:17</time>
      </trkpt>
      <trkpt lat="41.58125" lon="-0.94777">
        <ele>285.8</ele>
        <time>2022-08-23 19:01:18</time>
      </trkpt>
      <trkpt lat="41.58127" lon="-0.94775">
        <ele>285.8</ele>
        <time>2022-08-23 19:01:19</time>
      </trkpt>
      <trkpt lat="41.5813" lon="-0.94773">
        <ele>285.8</ele>
        <time>2022-08-23 19:01:20</time>
      </trkpt>
      <trkpt lat="41.58132" lon="-0.94771">
        <ele>285.8</ele>
        <time>2022-08-23 19:01:21</time>
      </trkpt>
      <trkpt lat="41.58135" lon="-0.9477">
        <ele>285.8</ele>
        <time>2022-08-23 19:01:22</time>
      </trkpt>
      <trkpt lat="41.58137" lon="-0.94768">
        <ele>285.8</ele>
        <time>2022-08-23 19:01:23</time>
      </trkpt>
      <trkpt lat="41.58139" lon="-0.94766">
        <ele>285.8</ele>
        <time>2022-08-23 19:01:24</time>
      </trkpt>
      <trkpt lat="41.58141" lon="-0.94764">
        <ele>285.8</ele>
        <time>2022-08-23 19:01:25</time>
      </trkpt>
      <trkpt lat="41.58143" lon="-0.94761">
        <ele>285.8</ele>
        <time>2022-08-23 19:01:26</time>
      </trkpt>
      <trkpt lat="41.58144" lon="-0.94759">
        <ele>285.8</ele>
        <time>2022-08-23 19:01:27</time>
      </trkpt>
      <trkpt lat="41.58146" lon="-0.94756">
        <ele>285.8</ele>
        <time>2022-08-23 19:01:28</time>
      </trkpt>
      <trkpt lat="41.58147" lon="-0.94754">
        <ele>285.8</ele>
        <time>2022-08-23 19:01:29</time>
      </trkpt>
      <trkpt lat="41.58149" lon="-0.94751">
        <ele>285.8</ele>
        <time>2022-08-23 19:01:30</time>
      </trkpt>
      <trkpt lat="41.5815" lon="-0.94748">
        <ele>285.8</ele>
        <time>2022-08-23 19:01:31</time>
      </trkpt>
      <trkpt lat="41.58151" lon="-0.94745">
        <ele>285.8</ele>
        <time>2022-08-23 19:01:32</time>
      </trkpt>
      <trkpt lat="41.58152" lon="-0.94742">
        <ele>285.8</ele>
        <time>2022-08-23 19:01:33</time>
      </trkpt>
      <trkpt lat="41.58154" lon="-0.94738">
        <ele>285.8</ele>
        <time>2022-08-23 19:01:34</time>
      </trkpt>
      <trkpt lat="41.58155" lon="-0.94735">
        <ele>285.8</ele>
        <time>2022-08-23 19:01:35</time>
      </trkpt>
      <trkpt lat="41.58156" lon="-0.94731">
        <ele>285.8</ele>
        <time>2022-08-23 19:01:36</time>
      </trkpt>
      <trkpt lat="41.58157" lon="-0.94728">
        <ele>285.8</ele>
        <time>2022-08-23 19:01:37</time>
      </trkpt>
      <trkpt lat="41.58157" lon="-0.94725">
        <ele>285.8</ele>
        <time>2022-08-23 19:01:38</time>
      </trkpt>
      <trkpt lat="41.58158" lon="-0.94722">
        <ele>285.8</ele>
        <time>2022-08-23 19:01:39</time>
      </trkpt>
      <trkpt lat="41.58159" lon="-0.94719">
        <ele>285.8</ele>
        <time>2022-08-23 19:01:40</time>
      </trkpt>
      <trkpt lat="41.5816" lon="-0.94716">
        <ele>285.6</ele>
        <time>2022-08-23 19:01:41</time>
      </trkpt>
      <trkpt lat="41.58161" lon="-0.94713">
        <ele>285.8</ele>
        <time>2022-08-23 19:01:42</time>
      </trkpt>
      <trkpt lat="41.58163" lon="-0.9471">
        <ele>285.6</ele>
        <time>2022-08-23 19:01:43</time>
      </trkpt>
      <trkpt lat="41.58164" lon="-0.94707">
        <ele>285.8</ele>
        <time>2022-08-23 19:01:44</time>
      </trkpt>
      <trkpt lat="41.58165" lon="-0.94704">
        <ele>285.8</ele>
        <time>2022-08-23 19:01:45</time>
      </trkpt>
      <trkpt lat="41.58167" lon="-0.94701">
        <ele>285.8</ele>
        <time>2022-08-23 19:01:46</time>
      </trkpt>
      <trkpt lat="41.58168" lon="-0.94698">
        <ele>285.8</ele>
        <time>2022-08-23 19:01:47</time>
      </trkpt>
      <trkpt lat="41.5817" lon="-0.94695">
        <ele>285.8</ele>
        <time>2022-08-23 19:01:48</time>
      </trkpt>
      <trkpt lat="41.58171" lon="-0.94692">
        <ele>285.8</ele>
        <time>2022-08-23 19:01:49</time>
      </trkpt>
      <trkpt lat="41.58172" lon="-0.94689">
        <ele>285.8</ele>
        <time>2022-08-23 19:01:50</time>
      </trkpt>
      <trkpt lat="41.58174" lon="-0.94687">
        <ele>285.6</ele>
        <time>2022-08-23 19:01:51</time>
      </trkpt>
      <trkpt lat="41.58175" lon="-0.94684">
        <ele>285.4</ele>
        <time>2022-08-23 19:01:52</time>
      </trkpt>
      <trkpt lat="41.58177" lon="-0.94681">
        <ele>285.4</ele>
        <time>2022-08-23 19:01:53</time>
      </trkpt>
      <trkpt lat="41.58178" lon="-0.94679">
        <ele>285.4</ele>
        <time>2022-08-23 19:01:54</time>
      </trkpt>
      <trkpt lat="41.58179" lon="-0.94676">
        <ele>285.4</ele>
        <time>2022-08-23 19:01:55</time>
      </trkpt>
      <trkpt lat="41.58181" lon="-0.94673">
        <ele>285.4</ele>
        <time>2022-08-23 19:01:56</time>
      </trkpt>
      <trkpt lat="41.58182" lon="-0.9467">
        <ele>285.4</ele>
        <time>2022-08-23 19:01:57</time>
      </trkpt>
      <trkpt lat="41.58183" lon="-0.94668">
        <ele>285.4</ele>
        <time>2022-08-23 19:01:58</time>
      </trkpt>
      <trkpt lat="41.58185" lon="-0.94665">
        <ele>285.4</ele>
        <time>2022-08-23 19:01:59</time>
      </trkpt>
      <trkpt lat="41.58186" lon="-0.94663">
        <ele>285.4</ele>
        <time>2022-08-23 19:02:00</time>
      </trkpt>
      <trkpt lat="41.58187" lon="-0.9466">
        <ele>285.4</ele>
        <time>2022-08-23 19:02:01</time>
      </trkpt>
      <trkpt lat="41.58189" lon="-0.94658">
        <ele>285.4</ele>
        <time>2022-08-23 19:02:02</time>
      </trkpt>
      <trkpt lat="41.5819" lon="-0.94655">
        <ele>285.2</ele>
        <time>2022-08-23 19:02:03</time>
      </trkpt>
      <trkpt lat="41.58192" lon="-0.94652">
        <ele>285.2</ele>
        <time>2022-08-23 19:02:04</time>
      </trkpt>
      <trkpt lat="41.58193" lon="-0.94649">
        <ele>285</ele>
        <time>2022-08-23 19:02:05</time>
      </trkpt>
      <trkpt lat="41.58195" lon="-0.94646">
        <ele>285</ele>
        <time>2022-08-23 19:02:06</time>
      </trkpt>
      <trkpt lat="41.58196" lon="-0.94643">
        <ele>285</ele>
        <time>2022-08-23 19:02:07</time>
      </trkpt>
      <trkpt lat="41.58198" lon="-0.94641">
        <ele>285</ele>
        <time>2022-08-23 19:02:08</time>
      </trkpt>
      <trkpt lat="41.582" lon="-0.94638">
        <ele>285</ele>
        <time>2022-08-23 19:02:09</time>
      </trkpt>
      <trkpt lat="41.58201" lon="-0.94636">
        <ele>284.8</ele>
        <time>2022-08-23 19:02:10</time>
      </trkpt>
      <trkpt lat="41.58203" lon="-0.94633">
        <ele>284.8</ele>
        <time>2022-08-23 19:02:11</time>
      </trkpt>
      <trkpt lat="41.58205" lon="-0.94631">
        <ele>284.8</ele>
        <time>2022-08-23 19:02:12</time>
      </trkpt>
      <trkpt lat="41.58207" lon="-0.94628">
        <ele>284.6</ele>
        <time>2022-08-23 19:02:13</time>
      </trkpt>
      <trkpt lat="41.58209" lon="-0.94626">
        <ele>284.6</ele>
        <time>2022-08-23 19:02:14</time>
      </trkpt>
      <trkpt lat="41.58211" lon="-0.94623">
        <ele>284.6</ele>
        <time>2022-08-23 19:02:15</time>
      </trkpt>
      <trkpt lat="41.58213" lon="-0.9462">
        <ele>284.4</ele>
        <time>2022-08-23 19:02:16</time>
      </trkpt>
      <trkpt lat="41.58215" lon="-0.94617">
        <ele>284.6</ele>
        <time>2022-08-23 19:02:17</time>
      </trkpt>
      <trkpt lat="41.58217" lon="-0.94615">
        <ele>284.6</ele>
        <time>2022-08-23 19:02:18</time>
      </trkpt>
      <trkpt lat="41.58219" lon="-0.94613">
        <ele>284.6</ele>
        <time>2022-08-23 19:02:19</time>
      </trkpt>
      <trkpt lat="41.58221" lon="-0.94611">
        <ele>284.8</ele>
        <time>2022-08-23 19:02:20</time>
      </trkpt>
      <trkpt lat="41.58224" lon="-0.9461">
        <ele>284.8</ele>
        <time>2022-08-23 19:02:21</time>
      </trkpt>
      <trkpt lat="41.58225" lon="-0.94608">
        <ele>284.8</ele>
        <time>2022-08-23 19:02:22</time>
      </trkpt>
      <trkpt lat="41.58227" lon="-0.94606">
        <ele>284.8</ele>
        <time>2022-08-23 19:02:23</time>
      </trkpt>
      <trkpt lat="41.5823" lon="-0.94605">
        <ele>284.8</ele>
        <time>2022-08-23 19:02:24</time>
      </trkpt>
      <trkpt lat="41.58232" lon="-0.94604">
        <ele>284.8</ele>
        <time>2022-08-23 19:02:25</time>
      </trkpt>
      <trkpt lat="41.58234" lon="-0.94602">
        <ele>284.6</ele>
        <time>2022-08-23 19:02:26</time>
      </trkpt>
      <trkpt lat="41.58236" lon="-0.94601">
        <ele>284.6</ele>
        <time>2022-08-23 19:02:27</time>
      </trkpt>
      <trkpt lat="41.58239" lon="-0.946">
        <ele>284.6</ele>
        <time>2022-08-23 19:02:28</time>
      </trkpt>
      <trkpt lat="41.58241" lon="-0.94599">
        <ele>284.6</ele>
        <time>2022-08-23 19:02:29</time>
      </trkpt>
      <trkpt lat="41.58244" lon="-0.94598">
        <ele>284.4</ele>
        <time>2022-08-23 19:02:30</time>
      </trkpt>
      <trkpt lat="41.58246" lon="-0.94596">
        <ele>284.4</ele>
        <time>2022-08-23 19:02:31</time>
      </trkpt>
      <trkpt lat="41.58248" lon="-0.94594">
        <ele>284.4</ele>
        <time>2022-08-23 19:02:32</time>
      </trkpt>
      <trkpt lat="41.58251" lon="-0.94593">
        <ele>284.4</ele>
        <time>2022-08-23 19:02:33</time>
      </trkpt>
      <trkpt lat="41.58253" lon="-0.94591">
        <ele>284.4</ele>
        <time>2022-08-23 19:02:34</time>
      </trkpt>
      <trkpt lat="41.58256" lon="-0.9459">
        <ele>284.4</ele>
        <time>2022-08-23 19:02:35</time>
      </trkpt>
      <trkpt lat="41.58258" lon="-0.94588">
        <ele>284.6</ele>
        <time>2022-08-23 19:02:36</time>
      </trkpt>
      <trkpt lat="41.58261" lon="-0.94587">
        <ele>284.6</ele>
        <time>2022-08-23 19:02:37</time>
      </trkpt>
      <trkpt lat="41.58263" lon="-0.94585">
        <ele>284.6</ele>
        <time>2022-08-23 19:02:38</time>
      </trkpt>
      <trkpt lat="41.58265" lon="-0.94584">
        <ele>284.4</ele>
        <time>2022-08-23 19:02:39</time>
      </trkpt>
      <trkpt lat="41.58268" lon="-0.94582">
        <ele>284.4</ele>
        <time>2022-08-23 19:02:40</time>
      </trkpt>
      <trkpt lat="41.5827" lon="-0.94581">
        <ele>284.2</ele>
        <time>2022-08-23 19:02:41</time>
      </trkpt>
      <trkpt lat="41.58273" lon="-0.94579">
        <ele>284.2</ele>
        <time>2022-08-23 19:02:42</time>
      </trkpt>
      <trkpt lat="41.58275" lon="-0.94578">
        <ele>284</ele>
        <time>2022-08-23 19:02:43</time>
      </trkpt>
      <trkpt lat="41.58277" lon="-0.94577">
        <ele>283.8</ele>
        <time>2022-08-23 19:02:44</time>
      </trkpt>
      <trkpt lat="41.5828" lon="-0.94575">
        <ele>283.8</ele>
        <time>2022-08-23 19:02:45</time>
      </trkpt>
      <trkpt lat="41.58282" lon="-0.94573">
        <ele>283.8</ele>
        <time>2022-08-23 19:02:46</time>
      </trkpt>
      <trkpt lat="41.58284" lon="-0.94572">
        <ele>283.6</ele>
        <time>2022-08-23 19:02:47</time>
      </trkpt>
      <trkpt lat="41.58286" lon="-0.9457">
        <ele>283.6</ele>
        <time>2022-08-23 19:02:48</time>
      </trkpt>
      <trkpt lat="41.58288" lon="-0.94569">
        <ele>283.6</ele>
        <time>2022-08-23 19:02:49</time>
      </trkpt>
      <trkpt lat="41.58291" lon="-0.94567">
        <ele>283.6</ele>
        <time>2022-08-23 19:02:50</time>
      </trkpt>
      <trkpt lat="41.58293" lon="-0.94565">
        <ele>283.6</ele>
        <time>2022-08-23 19:02:51</time>
      </trkpt>
      <trkpt lat="41.58295" lon="-0.94564">
        <ele>283.6</ele>
        <time>2022-08-23 19:02:52</time>
      </trkpt>
      <trkpt lat="41.58297" lon="-0.94562">
        <ele>283.6</ele>
        <time>2022-08-23 19:02:53</time>
      </trkpt>
      <trkpt lat="41.583" lon="-0.94561">
        <ele>283.6</ele>
        <time>2022-08-23 19:02:54</time>
      </trkpt>
      <trkpt lat="41.58302" lon="-0.9456">
        <ele>283.6</ele>
        <time>2022-08-23 19:02:55</time>
      </trkpt>
      <trkpt lat="41.58305" lon="-0.94558">
        <ele>283.6</ele>
        <time>2022-08-23 19:02:56</time>
      </trkpt>
      <trkpt lat="41.58307" lon="-0.94557">
        <ele>283.4</ele>
        <time>2022-08-23 19:02:57</time>
      </trkpt>
      <trkpt lat="41.5831" lon="-0.94555">
        <ele>283.4</ele>
        <time>2022-08-23 19:02:58</time>
      </trkpt>
      <trkpt lat="41.58312" lon="-0.94553">
        <ele>283.2</ele>
        <time>2022-08-23 19:02:59</time>
      </trkpt>
      <trkpt lat="41.58315" lon="-0.94552">
        <ele>283</ele>
        <time>2022-08-23 19:03:00</time>
      </trkpt>
      <trkpt lat="41.58317" lon="-0.9455">
        <ele>283</ele>
        <time>2022-08-23 19:03:01</time>
      </trkpt>
      <trkpt lat="41.5832" lon="-0.94549">
        <ele>283</ele>
        <time>2022-08-23 19:03:02</time>
      </trkpt>
      <trkpt lat="41.58322" lon="-0.94547">
        <ele>282.8</ele>
        <time>2022-08-23 19:03:03</time>
      </trkpt>
      <trkpt lat="41.58325" lon="-0.94546">
        <ele>282.8</ele>
        <time>2022-08-23 19:03:04</time>
      </trkpt>
      <trkpt lat="41.58327" lon="-0.94545">
        <ele>282.8</ele>
        <time>2022-08-23 19:03:05</time>
      </trkpt>
      <trkpt lat="41.5833" lon="-0.94543">
        <ele>282.6</ele>
        <time>2022-08-23 19:03:06</time>
      </trkpt>
      <trkpt lat="41.58332" lon="-0.94541">
        <ele>282.6</ele>
        <time>2022-08-23 19:03:07</time>
      </trkpt>
      <trkpt lat="41.58334" lon="-0.94539">
        <ele>282.6</ele>
        <time>2022-08-23 19:03:08</time>
      </trkpt>
      <trkpt lat="41.58336" lon="-0.94537">
        <ele>282.6</ele>
        <time>2022-08-23 19:03:09</time>
      </trkpt>
      <trkpt lat="41.58338" lon="-0.94534">
        <ele>282.6</ele>
        <time>2022-08-23 19:03:10</time>
      </trkpt>
      <trkpt lat="41.5834" lon="-0.94532">
        <ele>282.4</ele>
        <time>2022-08-23 19:03:11</time>
      </trkpt>
      <trkpt lat="41.58343" lon="-0.94529">
        <ele>282.4</ele>
        <time>2022-08-23 19:03:12</time>
      </trkpt>
      <trkpt lat="41.58345" lon="-0.94526">
        <ele>282.2</ele>
        <time>2022-08-23 19:03:13</time>
      </trkpt>
      <trkpt lat="41.58347" lon="-0.94524">
        <ele>282.2</ele>
        <time>2022-08-23 19:03:14</time>
      </trkpt>
      <trkpt lat="41.58349" lon="-0.9452">
        <ele>282</ele>
        <time>2022-08-23 19:03:15</time>
      </trkpt>
      <trkpt lat="41.58351" lon="-0.94517">
        <ele>282</ele>
        <time>2022-08-23 19:03:16</time>
      </trkpt>
      <trkpt lat="41.58353" lon="-0.94513">
        <ele>281.8</ele>
        <time>2022-08-23 19:03:17</time>
      </trkpt>
      <trkpt lat="41.58354" lon="-0.9451">
        <ele>281.8</ele>
        <time>2022-08-23 19:03:18</time>
      </trkpt>
      <trkpt lat="41.58355" lon="-0.94506">
        <ele>281.8</ele>
        <time>2022-08-23 19:03:19</time>
      </trkpt>
      <trkpt lat="41.58355" lon="-0.94502">
        <ele>281.8</ele>
        <time>2022-08-23 19:03:20</time>
      </trkpt>
      <trkpt lat="41.58355" lon="-0.94498">
        <ele>281.6</ele>
        <time>2022-08-23 19:03:21</time>
      </trkpt>
      <trkpt lat="41.58355" lon="-0.94494">
        <ele>281.6</ele>
        <time>2022-08-23 19:03:22</time>
      </trkpt>
      <trkpt lat="41.58355" lon="-0.9449">
        <ele>281.6</ele>
        <time>2022-08-23 19:03:23</time>
      </trkpt>
      <trkpt lat="41.58355" lon="-0.94485">
        <ele>281.6</ele>
        <time>2022-08-23 19:03:24</time>
      </trkpt>
      <trkpt lat="41.58355" lon="-0.94481">
        <ele>281.4</ele>
        <time>2022-08-23 19:03:25</time>
      </trkpt>
      <trkpt lat="41.58354" lon="-0.94477">
        <ele>281.4</ele>
        <time>2022-08-23 19:03:26</time>
      </trkpt>
      <trkpt lat="41.58353" lon="-0.94473">
        <ele>281.4</ele>
        <time>2022-08-23 19:03:27</time>
      </trkpt>
      <trkpt lat="41.58353" lon="-0.94469">
        <ele>281.4</ele>
        <time>2022-08-23 19:03:28</time>
      </trkpt>
      <trkpt lat="41.58351" lon="-0.94465">
        <ele>281.4</ele>
        <time>2022-08-23 19:03:29</time>
      </trkpt>
      <trkpt lat="41.5835" lon="-0.94462">
        <ele>281.2</ele>
        <time>2022-08-23 19:03:30</time>
      </trkpt>
      <trkpt lat="41.5835" lon="-0.94458">
        <ele>281</ele>
        <time>2022-08-23 19:03:31</time>
      </trkpt>
      <trkpt lat="41.58349" lon="-0.94454">
        <ele>281</ele>
        <time>2022-08-23 19:03:32</time>
      </trkpt>
      <trkpt lat="41.58348" lon="-0.9445">
        <ele>281</ele>
        <time>2022-08-23 19:03:33</time>
      </trkpt>
      <trkpt lat="41.58347" lon="-0.94446">
        <ele>280.8</ele>
        <time>2022-08-23 19:03:34</time>
      </trkpt>
      <trkpt lat="41.58346" lon="-0.94442">
        <ele>280.8</ele>
        <time>2022-08-23 19:03:35</time>
      </trkpt>
      <trkpt lat="41.58345" lon="-0.94439">
        <ele>280.8</ele>
        <time>2022-08-23 19:03:36</time>
      </trkpt>
      <trkpt lat="41.58344" lon="-0.94435">
        <ele>280.6</ele>
        <time>2022-08-23 19:03:37</time>
      </trkpt>
      <trkpt lat="41.58343" lon="-0.94431">
        <ele>280.6</ele>
        <time>2022-08-23 19:03:38</time>
      </trkpt>
      <trkpt lat="41.58342" lon="-0.94428">
        <ele>280.6</ele>
        <time>2022-08-23 19:03:39</time>
      </trkpt>
      <trkpt lat="41.5834" lon="-0.94424">
        <ele>280.4</ele>
        <time>2022-08-23 19:03:40</time>
      </trkpt>
      <trkpt lat="41.58339" lon="-0.94421">
        <ele>280.4</ele>
        <time>2022-08-23 19:03:41</time>
      </trkpt>
      <trkpt lat="41.58338" lon="-0.94417">
        <ele>280.2</ele>
        <time>2022-08-23 19:03:42</time>
      </trkpt>
      <trkpt lat="41.58336" lon="-0.94414">
        <ele>280.2</ele>
        <time>2022-08-23 19:03:43</time>
      </trkpt>
      <trkpt lat="41.58335" lon="-0.94411">
        <ele>280.2</ele>
        <time>2022-08-23 19:03:44</time>
      </trkpt>
      <trkpt lat="41.58334" lon="-0.94407">
        <ele>280.2</ele>
        <time>2022-08-23 19:03:45</time>
      </trkpt>
      <trkpt lat="41.58333" lon="-0.94403">
        <ele>280.2</ele>
        <time>2022-08-23 19:03:46</time>
      </trkpt>
      <trkpt lat="41.58331" lon="-0.944">
        <ele>280.2</ele>
        <time>2022-08-23 19:03:47</time>
      </trkpt>
      <trkpt lat="41.5833" lon="-0.94396">
        <ele>280.2</ele>
        <time>2022-08-23 19:03:48</time>
      </trkpt>
      <trkpt lat="41.58329" lon="-0.94393">
        <ele>280.2</ele>
        <time>2022-08-23 19:03:49</time>
      </trkpt>
      <trkpt lat="41.58328" lon="-0.94389">
        <ele>280.2</ele>
        <time>2022-08-23 19:03:50</time>
      </trkpt>
      <trkpt lat="41.58327" lon="-0.94386">
        <ele>280.2</ele>
        <time>2022-08-23 19:03:51</time>
      </trkpt>
      <trkpt lat="41.58327" lon="-0.94382">
        <ele>280.2</ele>
        <time>2022-08-23 19:03:52</time>
      </trkpt>
      <trkpt lat="41.58326" lon="-0.94379">
        <ele>280</ele>
        <time>2022-08-23 19:03:53</time>
      </trkpt>
      <trkpt lat="41.58325" lon="-0.94375">
        <ele>279.8</ele>
        <time>2022-08-23 19:03:54</time>
      </trkpt>
      <trkpt lat="41.58325" lon="-0.94372">
        <ele>279.8</ele>
        <time>2022-08-23 19:03:55</time>
      </trkpt>
      <trkpt lat="41.58324" lon="-0.94368">
        <ele>279.6</ele>
        <time>2022-08-23 19:03:56</time>
      </trkpt>
      <trkpt lat="41.58324" lon="-0.94365">
        <ele>279.6</ele>
        <time>2022-08-23 19:03:57</time>
      </trkpt>
      <trkpt lat="41.58323" lon="-0.94361">
        <ele>279.6</ele>
        <time>2022-08-23 19:03:58</time>
      </trkpt>
      <trkpt lat="41.58323" lon="-0.94358">
        <ele>279.6</ele>
        <time>2022-08-23 19:03:59</time>
      </trkpt>
      <trkpt lat="41.58323" lon="-0.94355">
        <ele>279.6</ele>
        <time>2022-08-23 19:04:00</time>
      </trkpt>
      <trkpt lat="41.58323" lon="-0.94351">
        <ele>279.4</ele>
        <time>2022-08-23 19:04:01</time>
      </trkpt>
      <trkpt lat="41.58323" lon="-0.94348">
        <ele>279.4</ele>
        <time>2022-08-23 19:04:02</time>
      </trkpt>
      <trkpt lat="41.58323" lon="-0.94344">
        <ele>279.4</ele>
        <time>2022-08-23 19:04:03</time>
      </trkpt>
      <trkpt lat="41.58323" lon="-0.94341">
        <ele>279.4</ele>
        <time>2022-08-23 19:04:04</time>
      </trkpt>
      <trkpt lat="41.58324" lon="-0.94337">
        <ele>279.2</ele>
        <time>2022-08-23 19:04:05</time>
      </trkpt>
      <trkpt lat="41.58324" lon="-0.94334">
        <ele>279.2</ele>
        <time>2022-08-23 19:04:06</time>
      </trkpt>
      <trkpt lat="41.58324" lon="-0.9433">
        <ele>279.2</ele>
        <time>2022-08-23 19:04:07</time>
      </trkpt>
      <trkpt lat="41.58325" lon="-0.94327">
        <ele>279</ele>
        <time>2022-08-23 19:04:08</time>
      </trkpt>
      <trkpt lat="41.58325" lon="-0.94324">
        <ele>279</ele>
        <time>2022-08-23 19:04:09</time>
      </trkpt>
      <trkpt lat="41.58326" lon="-0.9432">
        <ele>279</ele>
        <time>2022-08-23 19:04:10</time>
      </trkpt>
      <trkpt lat="41.58326" lon="-0.94317">
        <ele>279</ele>
        <time>2022-08-23 19:04:11</time>
      </trkpt>
      <trkpt lat="41.58327" lon="-0.94314">
        <ele>279</ele>
        <time>2022-08-23 19:04:12</time>
      </trkpt>
      <trkpt lat="41.58328" lon="-0.9431">
        <ele>279</ele>
        <time>2022-08-23 19:04:13</time>
      </trkpt>
      <trkpt lat="41.58329" lon="-0.94307">
        <ele>279.2</ele>
        <time>2022-08-23 19:04:14</time>
      </trkpt>
      <trkpt lat="41.5833" lon="-0.94304">
        <ele>279.2</ele>
        <time>2022-08-23 19:04:15</time>
      </trkpt>
      <trkpt lat="41.58331" lon="-0.94301">
        <ele>279.2</ele>
        <time>2022-08-23 19:04:16</time>
      </trkpt>
      <trkpt lat="41.58332" lon="-0.94297">
        <ele>279.2</ele>
        <time>2022-08-23 19:04:17</time>
      </trkpt>
      <trkpt lat="41.58333" lon="-0.94294">
        <ele>279.2</ele>
        <time>2022-08-23 19:04:18</time>
      </trkpt>
      <trkpt lat="41.58334" lon="-0.94291">
        <ele>279.2</ele>
        <time>2022-08-23 19:04:19</time>
      </trkpt>
      <trkpt lat="41.58336" lon="-0.94288">
        <ele>279</ele>
        <time>2022-08-23 19:04:20</time>
      </trkpt>
      <trkpt lat="41.58337" lon="-0.94285">
        <ele>279</ele>
        <time>2022-08-23 19:04:21</time>
      </trkpt>
      <trkpt lat="41.58338" lon="-0.94282">
        <ele>278.8</ele>
        <time>2022-08-23 19:04:22</time>
      </trkpt>
      <trkpt lat="41.58339" lon="-0.94279">
        <ele>278.8</ele>
        <time>2022-08-23 19:04:23</time>
      </trkpt>
      <trkpt lat="41.58341" lon="-0.94276">
        <ele>278.8</ele>
        <time>2022-08-23 19:04:24</time>
      </trkpt>
      <trkpt lat="41.58342" lon="-0.94273">
        <ele>278.6</ele>
        <time>2022-08-23 19:04:25</time>
      </trkpt>
      <trkpt lat="41.58344" lon="-0.9427">
        <ele>278.6</ele>
        <time>2022-08-23 19:04:26</time>
      </trkpt>
      <trkpt lat="41.58346" lon="-0.94267">
        <ele>278.6</ele>
        <time>2022-08-23 19:04:27</time>
      </trkpt>
      <trkpt lat="41.58348" lon="-0.94265">
        <ele>278.6</ele>
        <time>2022-08-23 19:04:28</time>
      </trkpt>
      <trkpt lat="41.58349" lon="-0.94262">
        <ele>278.6</ele>
        <time>2022-08-23 19:04:29</time>
      </trkpt>
      <trkpt lat="41.58352" lon="-0.94259">
        <ele>278.6</ele>
        <time>2022-08-23 19:04:30</time>
      </trkpt>
      <trkpt lat="41.58354" lon="-0.94257">
        <ele>278.6</ele>
        <time>2022-08-23 19:04:31</time>
      </trkpt>
      <trkpt lat="41.58356" lon="-0.94255">
        <ele>278.6</ele>
        <time>2022-08-23 19:04:32</time>
      </trkpt>
      <trkpt lat="41.58358" lon="-0.94253">
        <ele>278.6</ele>
        <time>2022-08-23 19:04:33</time>
      </trkpt>
      <trkpt lat="41.58361" lon="-0.94251">
        <ele>278.6</ele>
        <time>2022-08-23 19:04:34</time>
      </trkpt>
      <trkpt lat="41.58363" lon="-0.94249">
        <ele>278.6</ele>
        <time>2022-08-23 19:04:35</time>
      </trkpt>
      <trkpt lat="41.58365" lon="-0.94247">
        <ele>278.8</ele>
        <time>2022-08-23 19:04:36</time>
      </trkpt>
      <trkpt lat="41.58367" lon="-0.94245">
        <ele>278.6</ele>
        <time>2022-08-23 19:04:37</time>
      </trkpt>
      <trkpt lat="41.58369" lon="-0.94243">
        <ele>278.6</ele>
        <time>2022-08-23 19:04:38</time>
      </trkpt>
      <trkpt lat="41.58372" lon="-0.94242">
        <ele>278.6</ele>
        <time>2022-08-23 19:04:39</time>
      </trkpt>
      <trkpt lat="41.58374" lon="-0.9424">
        <ele>278.6</ele>
        <time>2022-08-23 19:04:40</time>
      </trkpt>
      <trkpt lat="41.58376" lon="-0.94239">
        <ele>278.6</ele>
        <time>2022-08-23 19:04:41</time>
      </trkpt>
      <trkpt lat="41.58378" lon="-0.94237">
        <ele>278.6</ele>
        <time>2022-08-23 19:04:42</time>
      </trkpt>
      <trkpt lat="41.58381" lon="-0.94236">
        <ele>278.6</ele>
        <time>2022-08-23 19:04:43</time>
      </trkpt>
      <trkpt lat="41.58383" lon="-0.94235">
        <ele>278.6</ele>
        <time>2022-08-23 19:04:44</time>
      </trkpt>
      <trkpt lat="41.58386" lon="-0.94233">
        <ele>278.6</ele>
        <time>2022-08-23 19:04:45</time>
      </trkpt>
      <trkpt lat="41.58388" lon="-0.94232">
        <ele>278.6</ele>
        <time>2022-08-23 19:04:46</time>
      </trkpt>
      <trkpt lat="41.5839" lon="-0.94231">
        <ele>278.8</ele>
        <time>2022-08-23 19:04:47</time>
      </trkpt>
      <trkpt lat="41.58393" lon="-0.94229">
        <ele>278.8</ele>
        <time>2022-08-23 19:04:48</time>
      </trkpt>
      <trkpt lat="41.58395" lon="-0.94228">
        <ele>278.6</ele>
        <time>2022-08-23 19:04:49</time>
      </trkpt>
      <trkpt lat="41.58397" lon="-0.94227">
        <ele>278.8</ele>
        <time>2022-08-23 19:04:50</time>
      </trkpt>
      <trkpt lat="41.584" lon="-0.94225">
        <ele>278.8</ele>
        <time>2022-08-23 19:04:51</time>
      </trkpt>
      <trkpt lat="41.58402" lon="-0.94224">
        <ele>278.8</ele>
        <time>2022-08-23 19:04:52</time>
      </trkpt>
      <trkpt lat="41.58404" lon="-0.94222">
        <ele>278.6</ele>
        <time>2022-08-23 19:04:53</time>
      </trkpt>
      <trkpt lat="41.58406" lon="-0.94221">
        <ele>278.6</ele>
        <time>2022-08-23 19:04:54</time>
      </trkpt>
      <trkpt lat="41.58408" lon="-0.94219">
        <ele>278.6</ele>
        <time>2022-08-23 19:04:55</time>
      </trkpt>
      <trkpt lat="41.5841" lon="-0.94217">
        <ele>278.6</ele>
        <time>2022-08-23 19:04:56</time>
      </trkpt>
      <trkpt lat="41.58412" lon="-0.94216">
        <ele>278.6</ele>
        <time>2022-08-23 19:04:57</time>
      </trkpt>
      <trkpt lat="41.58414" lon="-0.94214">
        <ele>278.6</ele>
        <time>2022-08-23 19:04:58</time>
      </trkpt>
      <trkpt lat="41.58416" lon="-0.94213">
        <ele>278.4</ele>
        <time>2022-08-23 19:04:59</time>
      </trkpt>
      <trkpt lat="41.58419" lon="-0.94211">
        <ele>278.4</ele>
        <time>2022-08-23 19:05:00</time>
      </trkpt>
      <trkpt lat="41.58421" lon="-0.94209">
        <ele>278.2</ele>
        <time>2022-08-23 19:05:01</time>
      </trkpt>
      <trkpt lat="41.58423" lon="-0.94208">
        <ele>278.2</ele>
        <time>2022-08-23 19:05:02</time>
      </trkpt>
      <trkpt lat="41.58425" lon="-0.94206">
        <ele>278.2</ele>
        <time>2022-08-23 19:05:03</time>
      </trkpt>
      <trkpt lat="41.58427" lon="-0.94205">
        <ele>278.2</ele>
        <time>2022-08-23 19:05:04</time>
      </trkpt>
      <trkpt lat="41.58429" lon="-0.94203">
        <ele>278.2</ele>
        <time>2022-08-23 19:05:05</time>
      </trkpt>
      <trkpt lat="41.58432" lon="-0.94201">
        <ele>278.2</ele>
        <time>2022-08-23 19:05:06</time>
      </trkpt>
      <trkpt lat="41.58434" lon="-0.942">
        <ele>278.2</ele>
        <time>2022-08-23 19:05:07</time>
      </trkpt>
      <trkpt lat="41.58436" lon="-0.94198">
        <ele>278.2</ele>
        <time>2022-08-23 19:05:08</time>
      </trkpt>
      <trkpt lat="41.58438" lon="-0.94197">
        <ele>278.2</ele>
        <time>2022-08-23 19:05:09</time>
      </trkpt>
      <trkpt lat="41.5844" lon="-0.94195">
        <ele>278.2</ele>
        <time>2022-08-23 19:05:10</time>
      </trkpt>
      <trkpt lat="41.58442" lon="-0.94193">
        <ele>278.2</ele>
        <time>2022-08-23 19:05:11</time>
      </trkpt>
      <trkpt lat="41.58445" lon="-0.94192">
        <ele>278.2</ele>
        <time>2022-08-23 19:05:12</time>
      </trkpt>
      <trkpt lat="41.58447" lon="-0.9419">
        <ele>278.2</ele>
        <time>2022-08-23 19:05:13</time>
      </trkpt>
      <trkpt lat="41.58449" lon="-0.94189">
        <ele>278</ele>
        <time>2022-08-23 19:05:14</time>
      </trkpt>
      <trkpt lat="41.58451" lon="-0.94187">
        <ele>278</ele>
        <time>2022-08-23 19:05:15</time>
      </trkpt>
      <trkpt lat="41.58453" lon="-0.94186">
        <ele>278</ele>
        <time>2022-08-23 19:05:16</time>
      </trkpt>
      <trkpt lat="41.58455" lon="-0.94184">
        <ele>278.2</ele>
        <time>2022-08-23 19:05:17</time>
      </trkpt>
      <trkpt lat="41.58458" lon="-0.94183">
        <ele>278</ele>
        <time>2022-08-23 19:05:18</time>
      </trkpt>
      <trkpt lat="41.5846" lon="-0.94181">
        <ele>278</ele>
        <time>2022-08-23 19:05:19</time>
      </trkpt>
      <trkpt lat="41.58463" lon="-0.94179">
        <ele>278</ele>
        <time>2022-08-23 19:05:20</time>
      </trkpt>
      <trkpt lat="41.58465" lon="-0.94178">
        <ele>278</ele>
        <time>2022-08-23 19:05:21</time>
      </trkpt>
      <trkpt lat="41.58467" lon="-0.94176">
        <ele>278</ele>
        <time>2022-08-23 19:05:22</time>
      </trkpt>
      <trkpt lat="41.58469" lon="-0.94175">
        <ele>278</ele>
        <time>2022-08-23 19:05:23</time>
      </trkpt>
      <trkpt lat="41.58471" lon="-0.94173">
        <ele>278</ele>
        <time>2022-08-23 19:05:24</time>
      </trkpt>
      <trkpt lat="41.58473" lon="-0.94172">
        <ele>278</ele>
        <time>2022-08-23 19:05:25</time>
      </trkpt>
      <trkpt lat="41.58475" lon="-0.9417">
        <ele>278</ele>
        <time>2022-08-23 19:05:26</time>
      </trkpt>
      <trkpt lat="41.58476" lon="-0.94169">
        <ele>276.4</ele>
        <time>2022-08-23 19:05:38</time>
      </trkpt>
      <trkpt lat="41.58475" lon="-0.94169">
        <ele>276.4</ele>
        <time>2022-08-23 19:05:39</time>
      </trkpt>
      <trkpt lat="41.58474" lon="-0.9417">
        <ele>276.4</ele>
        <time>2022-08-23 19:05:40</time>
      </trkpt>
      <trkpt lat="41.58472" lon="-0.94171">
        <ele>276.4</ele>
        <time>2022-08-23 19:05:41</time>
      </trkpt>
      <trkpt lat="41.58471" lon="-0.94171">
        <ele>276.4</ele>
        <time>2022-08-23 19:05:42</time>
      </trkpt>
      <trkpt lat="41.58469" lon="-0.94172">
        <ele>276.6</ele>
        <time>2022-08-23 19:05:43</time>
      </trkpt>
      <trkpt lat="41.58467" lon="-0.94174">
        <ele>276.6</ele>
        <time>2022-08-23 19:05:44</time>
      </trkpt>
      <trkpt lat="41.58465" lon="-0.94175">
        <ele>276.6</ele>
        <time>2022-08-23 19:05:45</time>
      </trkpt>
      <trkpt lat="41.58463" lon="-0.94176">
        <ele>276.6</ele>
        <time>2022-08-23 19:05:46</time>
      </trkpt>
      <trkpt lat="41.58461" lon="-0.94177">
        <ele>276.6</ele>
        <time>2022-08-23 19:05:47</time>
      </trkpt>
      <trkpt lat="41.58459" lon="-0.94179">
        <ele>276.6</ele>
        <time>2022-08-23 19:05:48</time>
      </trkpt>
      <trkpt lat="41.58457" lon="-0.9418">
        <ele>276.6</ele>
        <time>2022-08-23 19:05:49</time>
      </trkpt>
      <trkpt lat="41.58455" lon="-0.94182">
        <ele>276.6</ele>
        <time>2022-08-23 19:05:50</time>
      </trkpt>
      <trkpt lat="41.58452" lon="-0.94183">
        <ele>276.8</ele>
        <time>2022-08-23 19:05:51</time>
      </trkpt>
      <trkpt lat="41.5845" lon="-0.94185">
        <ele>276.8</ele>
        <time>2022-08-23 19:05:52</time>
      </trkpt>
      <trkpt lat="41.58448" lon="-0.94186">
        <ele>276.8</ele>
        <time>2022-08-23 19:05:53</time>
      </trkpt>
      <trkpt lat="41.58446" lon="-0.94188">
        <ele>276.8</ele>
        <time>2022-08-23 19:05:54</time>
      </trkpt>
      <trkpt lat="41.58444" lon="-0.9419">
        <ele>277</ele>
        <time>2022-08-23 19:05:55</time>
      </trkpt>
      <trkpt lat="41.58442" lon="-0.94192">
        <ele>277</ele>
        <time>2022-08-23 19:05:56</time>
      </trkpt>
      <trkpt lat="41.5844" lon="-0.94193">
        <ele>277</ele>
        <time>2022-08-23 19:05:57</time>
      </trkpt>
      <trkpt lat="41.58438" lon="-0.94195">
        <ele>277.2</ele>
        <time>2022-08-23 19:05:58</time>
      </trkpt>
      <trkpt lat="41.58436" lon="-0.94196">
        <ele>277.2</ele>
        <time>2022-08-23 19:05:59</time>
      </trkpt>
      <trkpt lat="41.58434" lon="-0.94197">
        <ele>277.4</ele>
        <time>2022-08-23 19:06:00</time>
      </trkpt>
      <trkpt lat="41.58431" lon="-0.94198">
        <ele>277.4</ele>
        <time>2022-08-23 19:06:01</time>
      </trkpt>
      <trkpt lat="41.58429" lon="-0.942">
        <ele>277.4</ele>
        <time>2022-08-23 19:06:02</time>
      </trkpt>
      <trkpt lat="41.58427" lon="-0.94201">
        <ele>277.4</ele>
        <time>2022-08-23 19:06:03</time>
      </trkpt>
      <trkpt lat="41.58424" lon="-0.94202">
        <ele>277.6</ele>
        <time>2022-08-23 19:06:04</time>
      </trkpt>
      <trkpt lat="41.58422" lon="-0.94204">
        <ele>277.6</ele>
        <time>2022-08-23 19:06:05</time>
      </trkpt>
      <trkpt lat="41.5842" lon="-0.94205">
        <ele>277.6</ele>
        <time>2022-08-23 19:06:06</time>
      </trkpt>
      <trkpt lat="41.58418" lon="-0.94207">
        <ele>277.8</ele>
        <time>2022-08-23 19:06:07</time>
      </trkpt>
      <trkpt lat="41.58416" lon="-0.94208">
        <ele>277.8</ele>
        <time>2022-08-23 19:06:08</time>
      </trkpt>
      <trkpt lat="41.58414" lon="-0.9421">
        <ele>277.8</ele>
        <time>2022-08-23 19:06:09</time>
      </trkpt>
      <trkpt lat="41.58412" lon="-0.94212">
        <ele>277.8</ele>
        <time>2022-08-23 19:06:10</time>
      </trkpt>
      <trkpt lat="41.5841" lon="-0.94213">
        <ele>277.8</ele>
        <time>2022-08-23 19:06:11</time>
      </trkpt>
      <trkpt lat="41.58408" lon="-0.94214">
        <ele>277.8</ele>
        <time>2022-08-23 19:06:12</time>
      </trkpt>
      <trkpt lat="41.58406" lon="-0.94216">
        <ele>277.8</ele>
        <time>2022-08-23 19:06:13</time>
      </trkpt>
      <trkpt lat="41.58404" lon="-0.94218">
        <ele>277.8</ele>
        <time>2022-08-23 19:06:14</time>
      </trkpt>
      <trkpt lat="41.58402" lon="-0.94219">
        <ele>277.8</ele>
        <time>2022-08-23 19:06:15</time>
      </trkpt>
      <trkpt lat="41.584" lon="-0.94221">
        <ele>277.8</ele>
        <time>2022-08-23 19:06:16</time>
      </trkpt>
      <trkpt lat="41.58398" lon="-0.94222">
        <ele>277.8</ele>
        <time>2022-08-23 19:06:17</time>
      </trkpt>
      <trkpt lat="41.58396" lon="-0.94224">
        <ele>277.8</ele>
        <time>2022-08-23 19:06:18</time>
      </trkpt>
      <trkpt lat="41.58394" lon="-0.94226">
        <ele>277.8</ele>
        <time>2022-08-23 19:06:19</time>
      </trkpt>
      <trkpt lat="41.58392" lon="-0.94227">
        <ele>277.8</ele>
        <time>2022-08-23 19:06:20</time>
      </trkpt>
      <trkpt lat="41.5839" lon="-0.94229">
        <ele>277.8</ele>
        <time>2022-08-23 19:06:21</time>
      </trkpt>
      <trkpt lat="41.58388" lon="-0.94231">
        <ele>277.8</ele>
        <time>2022-08-23 19:06:22</time>
      </trkpt>
      <trkpt lat="41.58386" lon="-0.94232">
        <ele>277.8</ele>
        <time>2022-08-23 19:06:23</time>
      </trkpt>
      <trkpt lat="41.58384" lon="-0.94234">
        <ele>277.8</ele>
        <time>2022-08-23 19:06:24</time>
      </trkpt>
      <trkpt lat="41.58382" lon="-0.94235">
        <ele>277.8</ele>
        <time>2022-08-23 19:06:25</time>
      </trkpt>
      <trkpt lat="41.58381" lon="-0.94237">
        <ele>277.8</ele>
        <time>2022-08-23 19:06:26</time>
      </trkpt>
      <trkpt lat="41.58379" lon="-0.94239">
        <ele>277.8</ele>
        <time>2022-08-23 19:06:27</time>
      </trkpt>
      <trkpt lat="41.58378" lon="-0.9424">
        <ele>277.8</ele>
        <time>2022-08-23 19:06:28</time>
      </trkpt>
      <trkpt lat="41.58377" lon="-0.9424">
        <ele>277.8</ele>
        <time>2022-08-23 19:06:29</time>
      </trkpt>
      <trkpt lat="41.58376" lon="-0.9424">
        <ele>277.8</ele>
        <time>2022-08-23 19:06:30</time>
      </trkpt>
      <trkpt lat="41.58376" lon="-0.9424">
        <ele>277.8</ele>
        <time>2022-08-23 19:06:31</time>
      </trkpt>
      <trkpt lat="41.58377" lon="-0.94239">
        <ele>277.8</ele>
        <time>2022-08-23 19:06:32</time>
      </trkpt>
      <trkpt lat="41.58378" lon="-0.94237">
        <ele>277.8</ele>
        <time>2022-08-23 19:06:33</time>
      </trkpt>
      <trkpt lat="41.5838" lon="-0.94236">
        <ele>277.8</ele>
        <time>2022-08-23 19:06:34</time>
      </trkpt>
      <trkpt lat="41.58382" lon="-0.94235">
        <ele>277.8</ele>
        <time>2022-08-23 19:06:35</time>
      </trkpt>
      <trkpt lat="41.58384" lon="-0.94233">
        <ele>277.8</ele>
        <time>2022-08-23 19:06:36</time>
      </trkpt>
      <trkpt lat="41.58386" lon="-0.94232">
        <ele>278</ele>
        <time>2022-08-23 19:06:37</time>
      </trkpt>
      <trkpt lat="41.58389" lon="-0.9423">
        <ele>278</ele>
        <time>2022-08-23 19:06:38</time>
      </trkpt>
      <trkpt lat="41.58391" lon="-0.94229">
        <ele>278.2</ele>
        <time>2022-08-23 19:06:39</time>
      </trkpt>
      <trkpt lat="41.58393" lon="-0.94227">
        <ele>278.2</ele>
        <time>2022-08-23 19:06:40</time>
      </trkpt>
      <trkpt lat="41.58396" lon="-0.94226">
        <ele>278.2</ele>
        <time>2022-08-23 19:06:41</time>
      </trkpt>
      <trkpt lat="41.58398" lon="-0.94225">
        <ele>278.2</ele>
        <time>2022-08-23 19:06:42</time>
      </trkpt>
      <trkpt lat="41.584" lon="-0.94224">
        <ele>278.2</ele>
        <time>2022-08-23 19:06:43</time>
      </trkpt>
      <trkpt lat="41.58402" lon="-0.94223">
        <ele>278.2</ele>
        <time>2022-08-23 19:06:44</time>
      </trkpt>
      <trkpt lat="41.58404" lon="-0.94222">
        <ele>278.2</ele>
        <time>2022-08-23 19:06:45</time>
      </trkpt>
      <trkpt lat="41.58406" lon="-0.9422">
        <ele>278.2</ele>
        <time>2022-08-23 19:06:46</time>
      </trkpt>
      <trkpt lat="41.58409" lon="-0.94219">
        <ele>278.2</ele>
        <time>2022-08-23 19:06:47</time>
      </trkpt>
      <trkpt lat="41.58411" lon="-0.94218">
        <ele>278.2</ele>
        <time>2022-08-23 19:06:48</time>
      </trkpt>
      <trkpt lat="41.58413" lon="-0.94216">
        <ele>278.2</ele>
        <time>2022-08-23 19:06:49</time>
      </trkpt>
      <trkpt lat="41.58415" lon="-0.94215">
        <ele>278.2</ele>
        <time>2022-08-23 19:06:50</time>
      </trkpt>
      <trkpt lat="41.58417" lon="-0.94214">
        <ele>278.2</ele>
        <time>2022-08-23 19:06:51</time>
      </trkpt>
      <trkpt lat="41.58419" lon="-0.94212">
        <ele>278.2</ele>
        <time>2022-08-23 19:06:52</time>
      </trkpt>
      <trkpt lat="41.58421" lon="-0.94211">
        <ele>278.2</ele>
        <time>2022-08-23 19:06:53</time>
      </trkpt>
      <trkpt lat="41.58423" lon="-0.94209">
        <ele>278.2</ele>
        <time>2022-08-23 19:06:54</time>
      </trkpt>
      <trkpt lat="41.58425" lon="-0.94207">
        <ele>278</ele>
        <time>2022-08-23 19:06:55</time>
      </trkpt>
      <trkpt lat="41.58427" lon="-0.94205">
        <ele>278</ele>
        <time>2022-08-23 19:06:56</time>
      </trkpt>
      <trkpt lat="41.58429" lon="-0.94204">
        <ele>277.8</ele>
        <time>2022-08-23 19:06:57</time>
      </trkpt>
      <trkpt lat="41.58431" lon="-0.94202">
        <ele>278.4</ele>
        <time>2022-08-23 19:06:58</time>
      </trkpt>
      <trkpt lat="41.58433" lon="-0.942">
        <ele>278.4</ele>
        <time>2022-08-23 19:06:59</time>
      </trkpt>
      <trkpt lat="41.58435" lon="-0.94199">
        <ele>278</ele>
        <time>2022-08-23 19:07:00</time>
      </trkpt>
      <trkpt lat="41.58437" lon="-0.94197">
        <ele>278.2</ele>
        <time>2022-08-23 19:07:01</time>
      </trkpt>
      <trkpt lat="41.58439" lon="-0.94196">
        <ele>278</ele>
        <time>2022-08-23 19:07:02</time>
      </trkpt>
      <trkpt lat="41.58441" lon="-0.94194">
        <ele>277.4</ele>
        <time>2022-08-23 19:07:03</time>
      </trkpt>
      <trkpt lat="41.58443" lon="-0.94193">
        <ele>277.8</ele>
        <time>2022-08-23 19:07:04</time>
      </trkpt>
      <trkpt lat="41.58446" lon="-0.94191">
        <ele>278</ele>
        <time>2022-08-23 19:07:05</time>
      </trkpt>
      <trkpt lat="41.58448" lon="-0.9419">
        <ele>278</ele>
        <time>2022-08-23 19:07:06</time>
      </trkpt>
      <trkpt lat="41.5845" lon="-0.94189">
        <ele>278.2</ele>
        <time>2022-08-23 19:07:07</time>
      </trkpt>
      <trkpt lat="41.58452" lon="-0.94187">
        <ele>278.2</ele>
        <time>2022-08-23 19:07:08</time>
      </trkpt>
      <trkpt lat="41.58454" lon="-0.94185">
        <ele>278.2</ele>
        <time>2022-08-23 19:07:09</time>
      </trkpt>
      <trkpt lat="41.58456" lon="-0.94183">
        <ele>278.2</ele>
        <time>2022-08-23 19:07:10</time>
      </trkpt>
      <trkpt lat="41.58458" lon="-0.94182">
        <ele>278.2</ele>
        <time>2022-08-23 19:07:11</time>
      </trkpt>
      <trkpt lat="41.5846" lon="-0.9418">
        <ele>278</ele>
        <time>2022-08-23 19:07:12</time>
      </trkpt>
      <trkpt lat="41.58462" lon="-0.94178">
        <ele>278</ele>
        <time>2022-08-23 19:07:13</time>
      </trkpt>
      <trkpt lat="41.58464" lon="-0.94177">
        <ele>278</ele>
        <time>2022-08-23 19:07:14</time>
      </trkpt>
      <trkpt lat="41.58466" lon="-0.94175">
        <ele>277.8</ele>
        <time>2022-08-23 19:07:15</time>
      </trkpt>
      <trkpt lat="41.58468" lon="-0.94174">
        <ele>278</ele>
        <time>2022-08-23 19:07:16</time>
      </trkpt>
      <trkpt lat="41.5847" lon="-0.94172">
        <ele>278</ele>
        <time>2022-08-23 19:07:17</time>
      </trkpt>
      <trkpt lat="41.58472" lon="-0.9417">
        <ele>278</ele>
        <time>2022-08-23 19:07:18</time>
      </trkpt>
      <trkpt lat="41.58475" lon="-0.94169">
        <ele>278</ele>
        <time>2022-08-23 19:07:19</time>
      </trkpt>
      <trkpt lat="41.58477" lon="-0.94167">
        <ele>276.6</ele>
        <time>2022-08-23 19:07:20</time>
      </trkpt>
      <trkpt lat="41.58478" lon="-0.94166">
        <ele>276.4</ele>
        <time>2022-08-23 19:07:21</time>
      </trkpt>
      <trkpt lat="41.58481" lon="-0.94164">
        <ele>276.4</ele>
        <time>2022-08-23 19:07:22</time>
      </trkpt>
      <trkpt lat="41.58483" lon="-0.94162">
        <ele>276</ele>
        <time>2022-08-23 19:07:23</time>
      </trkpt>
      <trkpt lat="41.58485" lon="-0.94161">
        <ele>276.2</ele>
        <time>2022-08-23 19:07:24</time>
      </trkpt>
      <trkpt lat="41.58487" lon="-0.94159">
        <ele>276.2</ele>
        <time>2022-08-23 19:07:25</time>
      </trkpt>
      <trkpt lat="41.58489" lon="-0.94158">
        <ele>276.2</ele>
        <time>2022-08-23 19:07:26</time>
      </trkpt>
      <trkpt lat="41.58491" lon="-0.94156">
        <ele>276.2</ele>
        <time>2022-08-23 19:07:27</time>
      </trkpt>
      <trkpt lat="41.58493" lon="-0.94155">
        <ele>276.2</ele>
        <time>2022-08-23 19:07:28</time>
      </trkpt>
      <trkpt lat="41.58495" lon="-0.94153">
        <ele>276.2</ele>
        <time>2022-08-23 19:07:29</time>
      </trkpt>
      <trkpt lat="41.58497" lon="-0.94152">
        <ele>276.2</ele>
        <time>2022-08-23 19:07:30</time>
      </trkpt>
      <trkpt lat="41.58499" lon="-0.9415">
        <ele>276.2</ele>
        <time>2022-08-23 19:07:31</time>
      </trkpt>
      <trkpt lat="41.58501" lon="-0.94149">
        <ele>276.2</ele>
        <time>2022-08-23 19:07:32</time>
      </trkpt>
      <trkpt lat="41.58503" lon="-0.94147">
        <ele>276.2</ele>
        <time>2022-08-23 19:07:33</time>
      </trkpt>
      <trkpt lat="41.58505" lon="-0.94146">
        <ele>276.2</ele>
        <time>2022-08-23 19:07:34</time>
      </trkpt>
      <trkpt lat="41.58508" lon="-0.94144">
        <ele>276.2</ele>
        <time>2022-08-23 19:07:35</time>
      </trkpt>
      <trkpt lat="41.5851" lon="-0.94142">
        <ele>276.2</ele>
        <time>2022-08-23 19:07:36</time>
      </trkpt>
      <trkpt lat="41.58512" lon="-0.94141">
        <ele>276.2</ele>
        <time>2022-08-23 19:07:37</time>
      </trkpt>
      <trkpt lat="41.58514" lon="-0.94139">
        <ele>276.2</ele>
        <time>2022-08-23 19:07:38</time>
      </trkpt>
      <trkpt lat="41.58517" lon="-0.94138">
        <ele>276</ele>
        <time>2022-08-23 19:07:39</time>
      </trkpt>
      <trkpt lat="41.58519" lon="-0.94136">
        <ele>276</ele>
        <time>2022-08-23 19:07:40</time>
      </trkpt>
      <trkpt lat="41.58521" lon="-0.94135">
        <ele>276</ele>
        <time>2022-08-23 19:07:41</time>
      </trkpt>
      <trkpt lat="41.58523" lon="-0.94133">
        <ele>276</ele>
        <time>2022-08-23 19:07:42</time>
      </trkpt>
      <trkpt lat="41.58525" lon="-0.94132">
        <ele>276</ele>
        <time>2022-08-23 19:07:43</time>
      </trkpt>
      <trkpt lat="41.58528" lon="-0.9413">
        <ele>275.8</ele>
        <time>2022-08-23 19:07:44</time>
      </trkpt>
      <trkpt lat="41.5853" lon="-0.94128">
        <ele>276</ele>
        <time>2022-08-23 19:07:45</time>
      </trkpt>
      <trkpt lat="41.58532" lon="-0.94127">
        <ele>276</ele>
        <time>2022-08-23 19:07:46</time>
      </trkpt>
      <trkpt lat="41.58534" lon="-0.94125">
        <ele>276</ele>
        <time>2022-08-23 19:07:47</time>
      </trkpt>
      <trkpt lat="41.58536" lon="-0.94124">
        <ele>276</ele>
        <time>2022-08-23 19:07:48</time>
      </trkpt>
      <trkpt lat="41.58539" lon="-0.94122">
        <ele>276</ele>
        <time>2022-08-23 19:07:49</time>
      </trkpt>
      <trkpt lat="41.58541" lon="-0.9412">
        <ele>275.8</ele>
        <time>2022-08-23 19:07:50</time>
      </trkpt>
      <trkpt lat="41.58543" lon="-0.94119">
        <ele>275.8</ele>
        <time>2022-08-23 19:07:51</time>
      </trkpt>
      <trkpt lat="41.58545" lon="-0.94117">
        <ele>275.8</ele>
        <time>2022-08-23 19:07:52</time>
      </trkpt>
      <trkpt lat="41.58547" lon="-0.94116">
        <ele>275.8</ele>
        <time>2022-08-23 19:07:53</time>
      </trkpt>
      <trkpt lat="41.58549" lon="-0.94114">
        <ele>275.8</ele>
        <time>2022-08-23 19:07:54</time>
      </trkpt>
      <trkpt lat="41.58551" lon="-0.94112">
        <ele>275.8</ele>
        <time>2022-08-23 19:07:55</time>
      </trkpt>
      <trkpt lat="41.58553" lon="-0.94111">
        <ele>275.6</ele>
        <time>2022-08-23 19:07:56</time>
      </trkpt>
      <trkpt lat="41.58556" lon="-0.94109">
        <ele>275.8</ele>
        <time>2022-08-23 19:07:57</time>
      </trkpt>
      <trkpt lat="41.58558" lon="-0.94107">
        <ele>275.8</ele>
        <time>2022-08-23 19:07:58</time>
      </trkpt>
      <trkpt lat="41.5856" lon="-0.94106">
        <ele>275.8</ele>
        <time>2022-08-23 19:07:59</time>
      </trkpt>
      <trkpt lat="41.58562" lon="-0.94105">
        <ele>275.8</ele>
        <time>2022-08-23 19:08:00</time>
      </trkpt>
      <trkpt lat="41.58564" lon="-0.94104">
        <ele>275.6</ele>
        <time>2022-08-23 19:08:01</time>
      </trkpt>
      <trkpt lat="41.58566" lon="-0.94102">
        <ele>275.6</ele>
        <time>2022-08-23 19:08:02</time>
      </trkpt>
      <trkpt lat="41.58568" lon="-0.94101">
        <ele>275.6</ele>
        <time>2022-08-23 19:08:03</time>
      </trkpt>
      <trkpt lat="41.58571" lon="-0.94099">
        <ele>275.6</ele>
        <time>2022-08-23 19:08:04</time>
      </trkpt>
      <trkpt lat="41.58573" lon="-0.94098">
        <ele>275.6</ele>
        <time>2022-08-23 19:08:05</time>
      </trkpt>
      <trkpt lat="41.58575" lon="-0.94097">
        <ele>275.6</ele>
        <time>2022-08-23 19:08:06</time>
      </trkpt>
      <trkpt lat="41.58577" lon="-0.94095">
        <ele>275.4</ele>
        <time>2022-08-23 19:08:07</time>
      </trkpt>
      <trkpt lat="41.58579" lon="-0.94094">
        <ele>275.4</ele>
        <time>2022-08-23 19:08:08</time>
      </trkpt>
      <trkpt lat="41.58581" lon="-0.94092">
        <ele>275.6</ele>
        <time>2022-08-23 19:08:09</time>
      </trkpt>
      <trkpt lat="41.58583" lon="-0.94091">
        <ele>275.6</ele>
        <time>2022-08-23 19:08:10</time>
      </trkpt>
      <trkpt lat="41.58585" lon="-0.94089">
        <ele>275.6</ele>
        <time>2022-08-23 19:08:11</time>
      </trkpt>
      <trkpt lat="41.58588" lon="-0.94088">
        <ele>275.6</ele>
        <time>2022-08-23 19:08:12</time>
      </trkpt>
      <trkpt lat="41.5859" lon="-0.94086">
        <ele>275.4</ele>
        <time>2022-08-23 19:08:13</time>
      </trkpt>
      <trkpt lat="41.58592" lon="-0.94085">
        <ele>275.4</ele>
        <time>2022-08-23 19:08:14</time>
      </trkpt>
      <trkpt lat="41.58594" lon="-0.94083">
        <ele>275.2</ele>
        <time>2022-08-23 19:08:15</time>
      </trkpt>
      <trkpt lat="41.58596" lon="-0.94082">
        <ele>275.2</ele>
        <time>2022-08-23 19:08:16</time>
      </trkpt>
      <trkpt lat="41.58599" lon="-0.94081">
        <ele>275.2</ele>
        <time>2022-08-23 19:08:17</time>
      </trkpt>
      <trkpt lat="41.58601" lon="-0.94079">
        <ele>275.2</ele>
        <time>2022-08-23 19:08:18</time>
      </trkpt>
      <trkpt lat="41.58603" lon="-0.94077">
        <ele>275.2</ele>
        <time>2022-08-23 19:08:19</time>
      </trkpt>
      <trkpt lat="41.58605" lon="-0.94075">
        <ele>275.4</ele>
        <time>2022-08-23 19:08:20</time>
      </trkpt>
      <trkpt lat="41.58607" lon="-0.94073">
        <ele>275.4</ele>
        <time>2022-08-23 19:08:21</time>
      </trkpt>
      <trkpt lat="41.5861" lon="-0.94072">
        <ele>275.4</ele>
        <time>2022-08-23 19:08:22</time>
      </trkpt>
      <trkpt lat="41.58612" lon="-0.9407">
        <ele>275.4</ele>
        <time>2022-08-23 19:08:23</time>
      </trkpt>
      <trkpt lat="41.58614" lon="-0.94068">
        <ele>275.4</ele>
        <time>2022-08-23 19:08:24</time>
      </trkpt>
      <trkpt lat="41.58616" lon="-0.94066">
        <ele>275.4</ele>
        <time>2022-08-23 19:08:25</time>
      </trkpt>
      <trkpt lat="41.58618" lon="-0.94064">
        <ele>275.4</ele>
        <time>2022-08-23 19:08:26</time>
      </trkpt>
      <trkpt lat="41.5862" lon="-0.94063">
        <ele>275.4</ele>
        <time>2022-08-23 19:08:27</time>
      </trkpt>
      <trkpt lat="41.58623" lon="-0.94061">
        <ele>275.2</ele>
        <time>2022-08-23 19:08:28</time>
      </trkpt>
      <trkpt lat="41.58625" lon="-0.94059">
        <ele>275.2</ele>
        <time>2022-08-23 19:08:29</time>
      </trkpt>
      <trkpt lat="41.58627" lon="-0.94058">
        <ele>275.2</ele>
        <time>2022-08-23 19:08:30</time>
      </trkpt>
      <trkpt lat="41.58629" lon="-0.94056">
        <ele>275.2</ele>
        <time>2022-08-23 19:08:31</time>
      </trkpt>
      <trkpt lat="41.58632" lon="-0.94055">
        <ele>275.2</ele>
        <time>2022-08-23 19:08:32</time>
      </trkpt>
      <trkpt lat="41.58634" lon="-0.94053">
        <ele>275.2</ele>
        <time>2022-08-23 19:08:33</time>
      </trkpt>
      <trkpt lat="41.58636" lon="-0.94051">
        <ele>275.2</ele>
        <time>2022-08-23 19:08:34</time>
      </trkpt>
      <trkpt lat="41.58638" lon="-0.9405">
        <ele>275.2</ele>
        <time>2022-08-23 19:08:35</time>
      </trkpt>
      <trkpt lat="41.5864" lon="-0.94049">
        <ele>275.2</ele>
        <time>2022-08-23 19:08:36</time>
      </trkpt>
      <trkpt lat="41.58642" lon="-0.94047">
        <ele>275.2</ele>
        <time>2022-08-23 19:08:37</time>
      </trkpt>
      <trkpt lat="41.58644" lon="-0.94046">
        <ele>275.2</ele>
        <time>2022-08-23 19:08:38</time>
      </trkpt>
      <trkpt lat="41.58646" lon="-0.94044">
        <ele>275.2</ele>
        <time>2022-08-23 19:08:39</time>
      </trkpt>
      <trkpt lat="41.58648" lon="-0.94043">
        <ele>275</ele>
        <time>2022-08-23 19:08:40</time>
      </trkpt>
      <trkpt lat="41.5865" lon="-0.94041">
        <ele>275</ele>
        <time>2022-08-23 19:08:41</time>
      </trkpt>
      <trkpt lat="41.58652" lon="-0.9404">
        <ele>275.2</ele>
        <time>2022-08-23 19:08:42</time>
      </trkpt>
      <trkpt lat="41.58654" lon="-0.94038">
        <ele>275</ele>
        <time>2022-08-23 19:08:43</time>
      </trkpt>
      <trkpt lat="41.58656" lon="-0.94036">
        <ele>275</ele>
        <time>2022-08-23 19:08:44</time>
      </trkpt>
      <trkpt lat="41.58658" lon="-0.94034">
        <ele>275</ele>
        <time>2022-08-23 19:08:45</time>
      </trkpt>
      <trkpt lat="41.5866" lon="-0.94032">
        <ele>274.8</ele>
        <time>2022-08-23 19:08:46</time>
      </trkpt>
      <trkpt lat="41.58662" lon="-0.94031">
        <ele>274.8</ele>
        <time>2022-08-23 19:08:47</time>
      </trkpt>
      <trkpt lat="41.58664" lon="-0.94029">
        <ele>275</ele>
        <time>2022-08-23 19:08:48</time>
      </trkpt>
      <trkpt lat="41.58666" lon="-0.94027">
        <ele>275</ele>
        <time>2022-08-23 19:08:49</time>
      </trkpt>
      <trkpt lat="41.58668" lon="-0.94026">
        <ele>275.2</ele>
        <time>2022-08-23 19:08:50</time>
      </trkpt>
      <trkpt lat="41.5867" lon="-0.94024">
        <ele>275.2</ele>
        <time>2022-08-23 19:08:51</time>
      </trkpt>
      <trkpt lat="41.58673" lon="-0.94023">
        <ele>275.2</ele>
        <time>2022-08-23 19:08:52</time>
      </trkpt>
      <trkpt lat="41.58675" lon="-0.94021">
        <ele>275.4</ele>
        <time>2022-08-23 19:08:53</time>
      </trkpt>
      <trkpt lat="41.58677" lon="-0.94019">
        <ele>275.2</ele>
        <time>2022-08-23 19:08:54</time>
      </trkpt>
      <trkpt lat="41.5868" lon="-0.94017">
        <ele>275.2</ele>
        <time>2022-08-23 19:08:55</time>
      </trkpt>
      <trkpt lat="41.58682" lon="-0.94015">
        <ele>275.2</ele>
        <time>2022-08-23 19:08:56</time>
      </trkpt>
      <trkpt lat="41.58684" lon="-0.94014">
        <ele>275.2</ele>
        <time>2022-08-23 19:08:57</time>
      </trkpt>
      <trkpt lat="41.58686" lon="-0.94012">
        <ele>275.2</ele>
        <time>2022-08-23 19:08:58</time>
      </trkpt>
      <trkpt lat="41.58688" lon="-0.9401">
        <ele>275.2</ele>
        <time>2022-08-23 19:08:59</time>
      </trkpt>
      <trkpt lat="41.5869" lon="-0.94008">
        <ele>275.2</ele>
        <time>2022-08-23 19:09:00</time>
      </trkpt>
      <trkpt lat="41.58692" lon="-0.94007">
        <ele>275</ele>
        <time>2022-08-23 19:09:01</time>
      </trkpt>
      <trkpt lat="41.58695" lon="-0.94005">
        <ele>275</ele>
        <time>2022-08-23 19:09:02</time>
      </trkpt>
      <trkpt lat="41.58697" lon="-0.94003">
        <ele>275</ele>
        <time>2022-08-23 19:09:03</time>
      </trkpt>
      <trkpt lat="41.58699" lon="-0.94001">
        <ele>274.8</ele>
        <time>2022-08-23 19:09:04</time>
      </trkpt>
      <trkpt lat="41.58701" lon="-0.93999">
        <ele>274.8</ele>
        <time>2022-08-23 19:09:05</time>
      </trkpt>
      <trkpt lat="41.58703" lon="-0.93997">
        <ele>274.8</ele>
        <time>2022-08-23 19:09:06</time>
      </trkpt>
      <trkpt lat="41.58705" lon="-0.93995">
        <ele>274.6</ele>
        <time>2022-08-23 19:09:07</time>
      </trkpt>
      <trkpt lat="41.58707" lon="-0.93993">
        <ele>274.6</ele>
        <time>2022-08-23 19:09:08</time>
      </trkpt>
      <trkpt lat="41.58709" lon="-0.93991">
        <ele>274.6</ele>
        <time>2022-08-23 19:09:09</time>
      </trkpt>
      <trkpt lat="41.58711" lon="-0.93989">
        <ele>274.6</ele>
        <time>2022-08-23 19:09:10</time>
      </trkpt>
      <trkpt lat="41.58713" lon="-0.93987">
        <ele>274.6</ele>
        <time>2022-08-23 19:09:11</time>
      </trkpt>
      <trkpt lat="41.58715" lon="-0.93985">
        <ele>274.6</ele>
        <time>2022-08-23 19:09:12</time>
      </trkpt>
      <trkpt lat="41.58717" lon="-0.93983">
        <ele>274.6</ele>
        <time>2022-08-23 19:09:13</time>
      </trkpt>
      <trkpt lat="41.58719" lon="-0.93981">
        <ele>274.6</ele>
        <time>2022-08-23 19:09:14</time>
      </trkpt>
      <trkpt lat="41.58721" lon="-0.93979">
        <ele>274.6</ele>
        <time>2022-08-23 19:09:15</time>
      </trkpt>
      <trkpt lat="41.58723" lon="-0.93976">
        <ele>274.4</ele>
        <time>2022-08-23 19:09:16</time>
      </trkpt>
      <trkpt lat="41.58726" lon="-0.93974">
        <ele>274.4</ele>
        <time>2022-08-23 19:09:17</time>
      </trkpt>
      <trkpt lat="41.58728" lon="-0.93972">
        <ele>274.4</ele>
        <time>2022-08-23 19:09:18</time>
      </trkpt>
      <trkpt lat="41.5873" lon="-0.93969">
        <ele>274.2</ele>
        <time>2022-08-23 19:09:19</time>
      </trkpt>
      <trkpt lat="41.58731" lon="-0.93967">
        <ele>274.2</ele>
        <time>2022-08-23 19:09:20</time>
      </trkpt>
      <trkpt lat="41.58733" lon="-0.93964">
        <ele>274.2</ele>
        <time>2022-08-23 19:09:21</time>
      </trkpt>
      <trkpt lat="41.58735" lon="-0.93962">
        <ele>274.2</ele>
        <time>2022-08-23 19:09:22</time>
      </trkpt>
      <trkpt lat="41.58736" lon="-0.9396">
        <ele>274.2</ele>
        <time>2022-08-23 19:09:23</time>
      </trkpt>
      <trkpt lat="41.58738" lon="-0.93958">
        <ele>274.2</ele>
        <time>2022-08-23 19:09:24</time>
      </trkpt>
      <trkpt lat="41.58739" lon="-0.93956">
        <ele>274.2</ele>
        <time>2022-08-23 19:09:25</time>
      </trkpt>
      <trkpt lat="41.58739" lon="-0.93954">
        <ele>274.2</ele>
        <time>2022-08-23 19:09:26</time>
      </trkpt>
      <trkpt lat="41.58637" lon="-0.94044">
        <ele>275</ele>
        <time>2022-08-23 19:12:18</time>
      </trkpt>
      <trkpt lat="41.58638" lon="-0.94043">
        <ele>275</ele>
        <time>2022-08-23 19:12:19</time>
      </trkpt>
      <trkpt lat="41.5864" lon="-0.94043">
        <ele>275</ele>
        <time>2022-08-23 19:12:20</time>
      </trkpt>
      <trkpt lat="41.58642" lon="-0.94042">
        <ele>275.2</ele>
        <time>2022-08-23 19:12:21</time>
      </trkpt>
      <trkpt lat="41.58643" lon="-0.94042">
        <ele>275.2</ele>
        <time>2022-08-23 19:12:22</time>
      </trkpt>
      <trkpt lat="41.58645" lon="-0.94041">
        <ele>275.2</ele>
        <time>2022-08-23 19:12:23</time>
      </trkpt>
      <trkpt lat="41.58648" lon="-0.94039">
        <ele>275.4</ele>
        <time>2022-08-23 19:12:24</time>
      </trkpt>
      <trkpt lat="41.5865" lon="-0.94038">
        <ele>275.4</ele>
        <time>2022-08-23 19:12:25</time>
      </trkpt>
      <trkpt lat="41.58653" lon="-0.94037">
        <ele>275.6</ele>
        <time>2022-08-23 19:12:26</time>
      </trkpt>
      <trkpt lat="41.58655" lon="-0.94036">
        <ele>275.6</ele>
        <time>2022-08-23 19:12:27</time>
      </trkpt>
      <trkpt lat="41.58657" lon="-0.94034">
        <ele>275.6</ele>
        <time>2022-08-23 19:12:28</time>
      </trkpt>
      <trkpt lat="41.5866" lon="-0.94032">
        <ele>275.6</ele>
        <time>2022-08-23 19:12:29</time>
      </trkpt>
      <trkpt lat="41.58662" lon="-0.9403">
        <ele>275.6</ele>
        <time>2022-08-23 19:12:30</time>
      </trkpt>
      <trkpt lat="41.58664" lon="-0.94029">
        <ele>275.6</ele>
        <time>2022-08-23 19:12:31</time>
      </trkpt>
      <trkpt lat="41.58666" lon="-0.94027">
        <ele>275.4</ele>
        <time>2022-08-23 19:12:32</time>
      </trkpt>
      <trkpt lat="41.58668" lon="-0.94025">
        <ele>275.4</ele>
        <time>2022-08-23 19:12:33</time>
      </trkpt>
      <trkpt lat="41.5867" lon="-0.94024">
        <ele>275.2</ele>
        <time>2022-08-23 19:12:34</time>
      </trkpt>
      <trkpt lat="41.58672" lon="-0.94022">
        <ele>275.2</ele>
        <time>2022-08-23 19:12:35</time>
      </trkpt>
      <trkpt lat="41.58674" lon="-0.94021">
        <ele>275.2</ele>
        <time>2022-08-23 19:12:36</time>
      </trkpt>
      <trkpt lat="41.58676" lon="-0.94019">
        <ele>275.2</ele>
        <time>2022-08-23 19:12:37</time>
      </trkpt>
      <trkpt lat="41.58678" lon="-0.94018">
        <ele>275</ele>
        <time>2022-08-23 19:12:38</time>
      </trkpt>
      <trkpt lat="41.5868" lon="-0.94016">
        <ele>274.8</ele>
        <time>2022-08-23 19:12:39</time>
      </trkpt>
      <trkpt lat="41.58682" lon="-0.94014">
        <ele>274.8</ele>
        <time>2022-08-23 19:12:40</time>
      </trkpt>
      <trkpt lat="41.58684" lon="-0.94013">
        <ele>274.8</ele>
        <time>2022-08-23 19:12:41</time>
      </trkpt>
      <trkpt lat="41.58686" lon="-0.94011">
        <ele>275</ele>
        <time>2022-08-23 19:12:42</time>
      </trkpt>
      <trkpt lat="41.58688" lon="-0.94009">
        <ele>274.8</ele>
        <time>2022-08-23 19:12:43</time>
      </trkpt>
      <trkpt lat="41.5869" lon="-0.94008">
        <ele>274.8</ele>
        <time>2022-08-23 19:12:44</time>
      </trkpt>
      <trkpt lat="41.58692" lon="-0.94007">
        <ele>274.8</ele>
        <time>2022-08-23 19:12:45</time>
      </trkpt>
      <trkpt lat="41.58695" lon="-0.94005">
        <ele>274.8</ele>
        <time>2022-08-23 19:12:46</time>
      </trkpt>
      <trkpt lat="41.58697" lon="-0.94004">
        <ele>274.8</ele>
        <time>2022-08-23 19:12:47</time>
      </trkpt>
      <trkpt lat="41.58699" lon="-0.94003">
        <ele>274.8</ele>
        <time>2022-08-23 19:12:48</time>
      </trkpt>
      <trkpt lat="41.58701" lon="-0.94001">
        <ele>274.8</ele>
        <time>2022-08-23 19:12:49</time>
      </trkpt>
      <trkpt lat="41.58703" lon="-0.93999">
        <ele>274.8</ele>
        <time>2022-08-23 19:12:50</time>
      </trkpt>
      <trkpt lat="41.58706" lon="-0.93997">
        <ele>274.8</ele>
        <time>2022-08-23 19:12:51</time>
      </trkpt>
      <trkpt lat="41.58708" lon="-0.93995">
        <ele>274.8</ele>
        <time>2022-08-23 19:12:52</time>
      </trkpt>
      <trkpt lat="41.5871" lon="-0.93993">
        <ele>274.8</ele>
        <time>2022-08-23 19:12:53</time>
      </trkpt>
      <trkpt lat="41.58712" lon="-0.93991">
        <ele>274.8</ele>
        <time>2022-08-23 19:12:54</time>
      </trkpt>
      <trkpt lat="41.58713" lon="-0.93989">
        <ele>274.8</ele>
        <time>2022-08-23 19:12:55</time>
      </trkpt>
      <trkpt lat="41.58715" lon="-0.93987">
        <ele>274.8</ele>
        <time>2022-08-23 19:12:56</time>
      </trkpt>
      <trkpt lat="41.58717" lon="-0.93985">
        <ele>274.8</ele>
        <time>2022-08-23 19:12:57</time>
      </trkpt>
      <trkpt lat="41.58719" lon="-0.93983">
        <ele>274.8</ele>
        <time>2022-08-23 19:12:58</time>
      </trkpt>
      <trkpt lat="41.58722" lon="-0.93981">
        <ele>274.8</ele>
        <time>2022-08-23 19:12:59</time>
      </trkpt>
      <trkpt lat="41.58724" lon="-0.93978">
        <ele>274.6</ele>
        <time>2022-08-23 19:13:00</time>
      </trkpt>
      <trkpt lat="41.58726" lon="-0.93976">
        <ele>274.6</ele>
        <time>2022-08-23 19:13:01</time>
      </trkpt>
      <trkpt lat="41.58728" lon="-0.93973">
        <ele>274.6</ele>
        <time>2022-08-23 19:13:02</time>
      </trkpt>
      <trkpt lat="41.5873" lon="-0.93971">
        <ele>274.4</ele>
        <time>2022-08-23 19:13:03</time>
      </trkpt>
      <trkpt lat="41.58732" lon="-0.93968">
        <ele>274.4</ele>
        <time>2022-08-23 19:13:04</time>
      </trkpt>
      <trkpt lat="41.58734" lon="-0.93966">
        <ele>274.4</ele>
        <time>2022-08-23 19:13:05</time>
      </trkpt>
      <trkpt lat="41.58735" lon="-0.93963">
        <ele>274.4</ele>
        <time>2022-08-23 19:13:06</time>
      </trkpt>
      <trkpt lat="41.58737" lon="-0.93961">
        <ele>274.4</ele>
        <time>2022-08-23 19:13:07</time>
      </trkpt>
      <trkpt lat="41.58739" lon="-0.93958">
        <ele>274.2</ele>
        <time>2022-08-23 19:13:08</time>
      </trkpt>
      <trkpt lat="41.58741" lon="-0.93956">
        <ele>274.2</ele>
        <time>2022-08-23 19:13:09</time>
      </trkpt>
      <trkpt lat="41.58743" lon="-0.93953">
        <ele>274.2</ele>
        <time>2022-08-23 19:13:10</time>
      </trkpt>
      <trkpt lat="41.58744" lon="-0.93951">
        <ele>274.2</ele>
        <time>2022-08-23 19:13:11</time>
      </trkpt>
      <trkpt lat="41.58746" lon="-0.93948">
        <ele>274.2</ele>
        <time>2022-08-23 19:13:12</time>
      </trkpt>
      <trkpt lat="41.58748" lon="-0.93945">
        <ele>274.2</ele>
        <time>2022-08-23 19:13:13</time>
      </trkpt>
      <trkpt lat="41.58749" lon="-0.93942">
        <ele>274.2</ele>
        <time>2022-08-23 19:13:14</time>
      </trkpt>
      <trkpt lat="41.58751" lon="-0.93939">
        <ele>274.2</ele>
        <time>2022-08-23 19:13:15</time>
      </trkpt>
      <trkpt lat="41.58752" lon="-0.93936">
        <ele>274.2</ele>
        <time>2022-08-23 19:13:16</time>
      </trkpt>
      <trkpt lat="41.58754" lon="-0.93934">
        <ele>274.2</ele>
        <time>2022-08-23 19:13:17</time>
      </trkpt>
      <trkpt lat="41.58755" lon="-0.93931">
        <ele>274</ele>
        <time>2022-08-23 19:13:18</time>
      </trkpt>
      <trkpt lat="41.58757" lon="-0.93929">
        <ele>274</ele>
        <time>2022-08-23 19:13:19</time>
      </trkpt>
      <trkpt lat="41.58758" lon="-0.93926">
        <ele>274</ele>
        <time>2022-08-23 19:13:20</time>
      </trkpt>
      <trkpt lat="41.5876" lon="-0.93923">
        <ele>274</ele>
        <time>2022-08-23 19:13:21</time>
      </trkpt>
      <trkpt lat="41.58761" lon="-0.93921">
        <ele>273.8</ele>
        <time>2022-08-23 19:13:22</time>
      </trkpt>
      <trkpt lat="41.58762" lon="-0.93918">
        <ele>273.8</ele>
        <time>2022-08-23 19:13:23</time>
      </trkpt>
      <trkpt lat="41.58764" lon="-0.93915">
        <ele>273.8</ele>
        <time>2022-08-23 19:13:24</time>
      </trkpt>
      <trkpt lat="41.58765" lon="-0.93913">
        <ele>273.8</ele>
        <time>2022-08-23 19:13:25</time>
      </trkpt>
      <trkpt lat="41.58766" lon="-0.93909">
        <ele>273.8</ele>
        <time>2022-08-23 19:13:26</time>
      </trkpt>
      <trkpt lat="41.58767" lon="-0.93906">
        <ele>273.8</ele>
        <time>2022-08-23 19:13:27</time>
      </trkpt>
      <trkpt lat="41.58768" lon="-0.93903">
        <ele>273.6</ele>
        <time>2022-08-23 19:13:28</time>
      </trkpt>
      <trkpt lat="41.58769" lon="-0.939">
        <ele>273.6</ele>
        <time>2022-08-23 19:13:29</time>
      </trkpt>
      <trkpt lat="41.5877" lon="-0.93897">
        <ele>273.4</ele>
        <time>2022-08-23 19:13:30</time>
      </trkpt>
      <trkpt lat="41.58771" lon="-0.93893">
        <ele>273.4</ele>
        <time>2022-08-23 19:13:31</time>
      </trkpt>
      <trkpt lat="41.58772" lon="-0.9389">
        <ele>273.2</ele>
        <time>2022-08-23 19:13:32</time>
      </trkpt>
      <trkpt lat="41.58773" lon="-0.93887">
        <ele>273.2</ele>
        <time>2022-08-23 19:13:33</time>
      </trkpt>
      <trkpt lat="41.58774" lon="-0.93883">
        <ele>273.2</ele>
        <time>2022-08-23 19:13:34</time>
      </trkpt>
      <trkpt lat="41.58775" lon="-0.9388">
        <ele>273.2</ele>
        <time>2022-08-23 19:13:35</time>
      </trkpt>
      <trkpt lat="41.58776" lon="-0.93877">
        <ele>273.2</ele>
        <time>2022-08-23 19:13:36</time>
      </trkpt>
      <trkpt lat="41.58777" lon="-0.93873">
        <ele>273.2</ele>
        <time>2022-08-23 19:13:37</time>
      </trkpt>
      <trkpt lat="41.58778" lon="-0.9387">
        <ele>273.2</ele>
        <time>2022-08-23 19:13:38</time>
      </trkpt>
      <trkpt lat="41.58779" lon="-0.93866">
        <ele>273.2</ele>
        <time>2022-08-23 19:13:39</time>
      </trkpt>
      <trkpt lat="41.5878" lon="-0.93863">
        <ele>273.2</ele>
        <time>2022-08-23 19:13:40</time>
      </trkpt>
      <trkpt lat="41.58781" lon="-0.93859">
        <ele>273</ele>
        <time>2022-08-23 19:13:41</time>
      </trkpt>
      <trkpt lat="41.58781" lon="-0.93856">
        <ele>273</ele>
        <time>2022-08-23 19:13:42</time>
      </trkpt>
      <trkpt lat="41.58782" lon="-0.93853">
        <ele>273</ele>
        <time>2022-08-23 19:13:43</time>
      </trkpt>
      <trkpt lat="41.58783" lon="-0.9385">
        <ele>273</ele>
        <time>2022-08-23 19:13:44</time>
      </trkpt>
      <trkpt lat="41.58784" lon="-0.93846">
        <ele>273</ele>
        <time>2022-08-23 19:13:45</time>
      </trkpt>
      <trkpt lat="41.58785" lon="-0.93843">
        <ele>273</ele>
        <time>2022-08-23 19:13:46</time>
      </trkpt>
      <trkpt lat="41.58786" lon="-0.9384">
        <ele>273</ele>
        <time>2022-08-23 19:13:47</time>
      </trkpt>
      <trkpt lat="41.58787" lon="-0.93836">
        <ele>273</ele>
        <time>2022-08-23 19:13:48</time>
      </trkpt>
      <trkpt lat="41.58788" lon="-0.93833">
        <ele>273</ele>
        <time>2022-08-23 19:13:49</time>
      </trkpt>
      <trkpt lat="41.58788" lon="-0.9383">
        <ele>273</ele>
        <time>2022-08-23 19:13:50</time>
      </trkpt>
      <trkpt lat="41.58789" lon="-0.93827">
        <ele>273</ele>
        <time>2022-08-23 19:13:51</time>
      </trkpt>
      <trkpt lat="41.5879" lon="-0.93824">
        <ele>273</ele>
        <time>2022-08-23 19:13:52</time>
      </trkpt>
      <trkpt lat="41.5879" lon="-0.93821">
        <ele>273</ele>
        <time>2022-08-23 19:13:53</time>
      </trkpt>
      <trkpt lat="41.58791" lon="-0.93818">
        <ele>273</ele>
        <time>2022-08-23 19:13:54</time>
      </trkpt>
      <trkpt lat="41.58791" lon="-0.93815">
        <ele>273</ele>
        <time>2022-08-23 19:13:55</time>
      </trkpt>
      <trkpt lat="41.58791" lon="-0.93811">
        <ele>272.8</ele>
        <time>2022-08-23 19:13:56</time>
      </trkpt>
      <trkpt lat="41.58792" lon="-0.93808">
        <ele>272.8</ele>
        <time>2022-08-23 19:13:57</time>
      </trkpt>
      <trkpt lat="41.58792" lon="-0.93805">
        <ele>272.8</ele>
        <time>2022-08-23 19:13:58</time>
      </trkpt>
      <trkpt lat="41.58793" lon="-0.93802">
        <ele>272.6</ele>
        <time>2022-08-23 19:13:59</time>
      </trkpt>
      <trkpt lat="41.58793" lon="-0.93799">
        <ele>272.6</ele>
        <time>2022-08-23 19:14:00</time>
      </trkpt>
      <trkpt lat="41.58794" lon="-0.93796">
        <ele>272.6</ele>
        <time>2022-08-23 19:14:01</time>
      </trkpt>
      <trkpt lat="41.58795" lon="-0.93792">
        <ele>272.6</ele>
        <time>2022-08-23 19:14:02</time>
      </trkpt>
      <trkpt lat="41.58795" lon="-0.93789">
        <ele>272.6</ele>
        <time>2022-08-23 19:14:03</time>
      </trkpt>
      <trkpt lat="41.58796" lon="-0.93786">
        <ele>272.6</ele>
        <time>2022-08-23 19:14:04</time>
      </trkpt>
      <trkpt lat="41.58796" lon="-0.93783">
        <ele>272.6</ele>
        <time>2022-08-23 19:14:05</time>
      </trkpt>
      <trkpt lat="41.58796" lon="-0.9378">
        <ele>272.6</ele>
        <time>2022-08-23 19:14:06</time>
      </trkpt>
      <trkpt lat="41.58797" lon="-0.93777">
        <ele>272.6</ele>
        <time>2022-08-23 19:14:07</time>
      </trkpt>
      <trkpt lat="41.58798" lon="-0.93774">
        <ele>272.6</ele>
        <time>2022-08-23 19:14:08</time>
      </trkpt>
      <trkpt lat="41.58798" lon="-0.93771">
        <ele>272.6</ele>
        <time>2022-08-23 19:14:09</time>
      </trkpt>
      <trkpt lat="41.58799" lon="-0.93768">
        <ele>272.6</ele>
        <time>2022-08-23 19:14:10</time>
      </trkpt>
      <trkpt lat="41.588" lon="-0.93765">
        <ele>272.6</ele>
        <time>2022-08-23 19:14:11</time>
      </trkpt>
      <trkpt lat="41.58801" lon="-0.93762">
        <ele>272.6</ele>
        <time>2022-08-23 19:14:12</time>
      </trkpt>
      <trkpt lat="41.58801" lon="-0.93759">
        <ele>272.6</ele>
        <time>2022-08-23 19:14:13</time>
      </trkpt>
      <trkpt lat="41.58802" lon="-0.93756">
        <ele>272.6</ele>
        <time>2022-08-23 19:14:14</time>
      </trkpt>
      <trkpt lat="41.58803" lon="-0.93753">
        <ele>272.6</ele>
        <time>2022-08-23 19:14:15</time>
      </trkpt>
      <trkpt lat="41.58804" lon="-0.9375">
        <ele>272.6</ele>
        <time>2022-08-23 19:14:16</time>
      </trkpt>
      <trkpt lat="41.58805" lon="-0.93747">
        <ele>272.6</ele>
        <time>2022-08-23 19:14:17</time>
      </trkpt>
      <trkpt lat="41.58806" lon="-0.93744">
        <ele>272.6</ele>
        <time>2022-08-23 19:14:18</time>
      </trkpt>
      <trkpt lat="41.58807" lon="-0.93741">
        <ele>272.6</ele>
        <time>2022-08-23 19:14:19</time>
      </trkpt>
      <trkpt lat="41.58807" lon="-0.93738">
        <ele>272.6</ele>
        <time>2022-08-23 19:14:20</time>
      </trkpt>
      <trkpt lat="41.58808" lon="-0.93735">
        <ele>272.6</ele>
        <time>2022-08-23 19:14:21</time>
      </trkpt>
      <trkpt lat="41.5881" lon="-0.93733">
        <ele>272.6</ele>
        <time>2022-08-23 19:14:22</time>
      </trkpt>
      <trkpt lat="41.58811" lon="-0.93731">
        <ele>272.4</ele>
        <time>2022-08-23 19:14:23</time>
      </trkpt>
      <trkpt lat="41.58812" lon="-0.93728">
        <ele>272.4</ele>
        <time>2022-08-23 19:14:24</time>
      </trkpt>
      <trkpt lat="41.58813" lon="-0.93726">
        <ele>272.4</ele>
        <time>2022-08-23 19:14:25</time>
      </trkpt>
      <trkpt lat="41.58814" lon="-0.93723">
        <ele>272.4</ele>
        <time>2022-08-23 19:14:26</time>
      </trkpt>
      <trkpt lat="41.58816" lon="-0.9372">
        <ele>272.4</ele>
        <time>2022-08-23 19:14:27</time>
      </trkpt>
      <trkpt lat="41.58817" lon="-0.93717">
        <ele>272.2</ele>
        <time>2022-08-23 19:14:28</time>
      </trkpt>
      <trkpt lat="41.58818" lon="-0.93714">
        <ele>272.2</ele>
        <time>2022-08-23 19:14:29</time>
      </trkpt>
      <trkpt lat="41.58819" lon="-0.93712">
        <ele>272.2</ele>
        <time>2022-08-23 19:14:30</time>
      </trkpt>
      <trkpt lat="41.58821" lon="-0.93709">
        <ele>272.2</ele>
        <time>2022-08-23 19:14:31</time>
      </trkpt>
      <trkpt lat="41.58823" lon="-0.93707">
        <ele>272.2</ele>
        <time>2022-08-23 19:14:32</time>
      </trkpt>
      <trkpt lat="41.58826" lon="-0.93705">
        <ele>272</ele>
        <time>2022-08-23 19:14:33</time>
      </trkpt>
      <trkpt lat="41.58828" lon="-0.93702">
        <ele>272</ele>
        <time>2022-08-23 19:14:34</time>
      </trkpt>
      <trkpt lat="41.58829" lon="-0.937">
        <ele>272.2</ele>
        <time>2022-08-23 19:14:35</time>
      </trkpt>
      <trkpt lat="41.5883" lon="-0.93698">
        <ele>272.2</ele>
        <time>2022-08-23 19:14:36</time>
      </trkpt>
      <trkpt lat="41.58832" lon="-0.93695">
        <ele>272.2</ele>
        <time>2022-08-23 19:14:37</time>
      </trkpt>
      <trkpt lat="41.58834" lon="-0.93692">
        <ele>272.2</ele>
        <time>2022-08-23 19:14:38</time>
      </trkpt>
      <trkpt lat="41.58835" lon="-0.9369">
        <ele>272.2</ele>
        <time>2022-08-23 19:14:39</time>
      </trkpt>
      <trkpt lat="41.58837" lon="-0.93687">
        <ele>272.2</ele>
        <time>2022-08-23 19:14:40</time>
      </trkpt>
      <trkpt lat="41.58839" lon="-0.93685">
        <ele>272.2</ele>
        <time>2022-08-23 19:14:41</time>
      </trkpt>
      <trkpt lat="41.58841" lon="-0.93683">
        <ele>272.2</ele>
        <time>2022-08-23 19:14:42</time>
      </trkpt>
      <trkpt lat="41.58843" lon="-0.93681">
        <ele>272.2</ele>
        <time>2022-08-23 19:14:43</time>
      </trkpt>
      <trkpt lat="41.58845" lon="-0.93679">
        <ele>272</ele>
        <time>2022-08-23 19:14:44</time>
      </trkpt>
      <trkpt lat="41.58847" lon="-0.93677">
        <ele>272.2</ele>
        <time>2022-08-23 19:14:45</time>
      </trkpt>
      <trkpt lat="41.58849" lon="-0.93675">
        <ele>272.2</ele>
        <time>2022-08-23 19:14:46</time>
      </trkpt>
      <trkpt lat="41.58851" lon="-0.93673">
        <ele>272.2</ele>
        <time>2022-08-23 19:14:47</time>
      </trkpt>
      <trkpt lat="41.58853" lon="-0.93671">
        <ele>272</ele>
        <time>2022-08-23 19:14:48</time>
      </trkpt>
      <trkpt lat="41.58855" lon="-0.93669">
        <ele>272</ele>
        <time>2022-08-23 19:14:49</time>
      </trkpt>
      <trkpt lat="41.58857" lon="-0.93667">
        <ele>272</ele>
        <time>2022-08-23 19:14:50</time>
      </trkpt>
      <trkpt lat="41.58859" lon="-0.93666">
        <ele>272</ele>
        <time>2022-08-23 19:14:51</time>
      </trkpt>
      <trkpt lat="41.58861" lon="-0.93664">
        <ele>272</ele>
        <time>2022-08-23 19:14:52</time>
      </trkpt>
      <trkpt lat="41.58864" lon="-0.93662">
        <ele>272</ele>
        <time>2022-08-23 19:14:53</time>
      </trkpt>
      <trkpt lat="41.58866" lon="-0.9366">
        <ele>272</ele>
        <time>2022-08-23 19:14:54</time>
      </trkpt>
      <trkpt lat="41.58868" lon="-0.93658">
        <ele>271.8</ele>
        <time>2022-08-23 19:14:55</time>
      </trkpt>
      <trkpt lat="41.5887" lon="-0.93656">
        <ele>271.8</ele>
        <time>2022-08-23 19:14:56</time>
      </trkpt>
      <trkpt lat="41.58872" lon="-0.93654">
        <ele>271.8</ele>
        <time>2022-08-23 19:14:57</time>
      </trkpt>
      <trkpt lat="41.58875" lon="-0.93652">
        <ele>271.6</ele>
        <time>2022-08-23 19:14:58</time>
      </trkpt>
      <trkpt lat="41.58876" lon="-0.9365">
        <ele>271.6</ele>
        <time>2022-08-23 19:14:59</time>
      </trkpt>
      <trkpt lat="41.58878" lon="-0.93648">
        <ele>271.6</ele>
        <time>2022-08-23 19:15:00</time>
      </trkpt>
      <trkpt lat="41.5888" lon="-0.93646">
        <ele>271.6</ele>
        <time>2022-08-23 19:15:01</time>
      </trkpt>
      <trkpt lat="41.58882" lon="-0.93644">
        <ele>271.6</ele>
        <time>2022-08-23 19:15:02</time>
      </trkpt>
      <trkpt lat="41.58884" lon="-0.93643">
        <ele>271.6</ele>
        <time>2022-08-23 19:15:03</time>
      </trkpt>
      <trkpt lat="41.58886" lon="-0.93642">
        <ele>271.6</ele>
        <time>2022-08-23 19:15:04</time>
      </trkpt>
      <trkpt lat="41.58888" lon="-0.93641">
        <ele>271.6</ele>
        <time>2022-08-23 19:15:05</time>
      </trkpt>
      <trkpt lat="41.5889" lon="-0.93639">
        <ele>271.6</ele>
        <time>2022-08-23 19:15:06</time>
      </trkpt>
      <trkpt lat="41.58892" lon="-0.93638">
        <ele>271.6</ele>
        <time>2022-08-23 19:15:07</time>
      </trkpt>
      <trkpt lat="41.58895" lon="-0.93636">
        <ele>271.8</ele>
        <time>2022-08-23 19:15:08</time>
      </trkpt>
      <trkpt lat="41.58897" lon="-0.93635">
        <ele>271.8</ele>
        <time>2022-08-23 19:15:09</time>
      </trkpt>
      <trkpt lat="41.58898" lon="-0.93633">
        <ele>271.8</ele>
        <time>2022-08-23 19:15:10</time>
      </trkpt>
      <trkpt lat="41.589" lon="-0.93632">
        <ele>271.8</ele>
        <time>2022-08-23 19:15:11</time>
      </trkpt>
      <trkpt lat="41.58902" lon="-0.93631">
        <ele>271.8</ele>
        <time>2022-08-23 19:15:12</time>
      </trkpt>
      <trkpt lat="41.58904" lon="-0.93629">
        <ele>271.6</ele>
        <time>2022-08-23 19:15:13</time>
      </trkpt>
      <trkpt lat="41.58906" lon="-0.93628">
        <ele>271.6</ele>
        <time>2022-08-23 19:15:14</time>
      </trkpt>
      <trkpt lat="41.58908" lon="-0.93628">
        <ele>271.6</ele>
        <time>2022-08-23 19:15:15</time>
      </trkpt>
      <trkpt lat="41.5891" lon="-0.93627">
        <ele>271.6</ele>
        <time>2022-08-23 19:15:16</time>
      </trkpt>
      <trkpt lat="41.58913" lon="-0.93626">
        <ele>271.6</ele>
        <time>2022-08-23 19:15:17</time>
      </trkpt>
      <trkpt lat="41.58915" lon="-0.93625">
        <ele>271.6</ele>
        <time>2022-08-23 19:15:18</time>
      </trkpt>
      <trkpt lat="41.58917" lon="-0.93624">
        <ele>271.6</ele>
        <time>2022-08-23 19:15:19</time>
      </trkpt>
      <trkpt lat="41.58919" lon="-0.93624">
        <ele>271.6</ele>
        <time>2022-08-23 19:15:20</time>
      </trkpt>
      <trkpt lat="41.58921" lon="-0.93623">
        <ele>271.6</ele>
        <time>2022-08-23 19:15:21</time>
      </trkpt>
      <trkpt lat="41.58923" lon="-0.93622">
        <ele>271.6</ele>
        <time>2022-08-23 19:15:22</time>
      </trkpt>
      <trkpt lat="41.58925" lon="-0.93621">
        <ele>271.4</ele>
        <time>2022-08-23 19:15:23</time>
      </trkpt>
      <trkpt lat="41.58928" lon="-0.93619">
        <ele>271.4</ele>
        <time>2022-08-23 19:15:24</time>
      </trkpt>
      <trkpt lat="41.5893" lon="-0.93618">
        <ele>271.4</ele>
        <time>2022-08-23 19:15:25</time>
      </trkpt>
      <trkpt lat="41.58932" lon="-0.93616">
        <ele>271.4</ele>
        <time>2022-08-23 19:15:26</time>
      </trkpt>
      <trkpt lat="41.58935" lon="-0.93615">
        <ele>271.2</ele>
        <time>2022-08-23 19:15:27</time>
      </trkpt>
      <trkpt lat="41.58937" lon="-0.93614">
        <ele>271.4</ele>
        <time>2022-08-23 19:15:28</time>
      </trkpt>
      <trkpt lat="41.58939" lon="-0.93614">
        <ele>271.2</ele>
        <time>2022-08-23 19:15:29</time>
      </trkpt>
      <trkpt lat="41.58942" lon="-0.93613">
        <ele>271.2</ele>
        <time>2022-08-23 19:15:30</time>
      </trkpt>
      <trkpt lat="41.58944" lon="-0.93612">
        <ele>271.2</ele>
        <time>2022-08-23 19:15:31</time>
      </trkpt>
      <trkpt lat="41.58946" lon="-0.93611">
        <ele>271.2</ele>
        <time>2022-08-23 19:15:32</time>
      </trkpt>
      <trkpt lat="41.58949" lon="-0.9361">
        <ele>271.2</ele>
        <time>2022-08-23 19:15:33</time>
      </trkpt>
      <trkpt lat="41.58951" lon="-0.93609">
        <ele>271.2</ele>
        <time>2022-08-23 19:15:34</time>
      </trkpt>
      <trkpt lat="41.58954" lon="-0.93608">
        <ele>271.2</ele>
        <time>2022-08-23 19:15:35</time>
      </trkpt>
      <trkpt lat="41.58956" lon="-0.93607">
        <ele>271.2</ele>
        <time>2022-08-23 19:15:36</time>
      </trkpt>
      <trkpt lat="41.58958" lon="-0.93606">
        <ele>271.2</ele>
        <time>2022-08-23 19:15:37</time>
      </trkpt>
      <trkpt lat="41.5896" lon="-0.93605">
        <ele>271</ele>
        <time>2022-08-23 19:15:38</time>
      </trkpt>
      <trkpt lat="41.58962" lon="-0.93605">
        <ele>271</ele>
        <time>2022-08-23 19:15:39</time>
      </trkpt>
      <trkpt lat="41.58963" lon="-0.93606">
        <ele>270.8</ele>
        <time>2022-08-23 19:15:40</time>
      </trkpt>
      <trkpt lat="41.58965" lon="-0.93605">
        <ele>270.6</ele>
        <time>2022-08-23 19:15:41</time>
      </trkpt>
      <trkpt lat="41.58967" lon="-0.93605">
        <ele>270.6</ele>
        <time>2022-08-23 19:15:42</time>
      </trkpt>
      <trkpt lat="41.58969" lon="-0.93605">
        <ele>270.6</ele>
        <time>2022-08-23 19:15:43</time>
      </trkpt>
      <trkpt lat="41.58971" lon="-0.93604">
        <ele>270.4</ele>
        <time>2022-08-23 19:15:44</time>
      </trkpt>
      <trkpt lat="41.58973" lon="-0.93603">
        <ele>270.4</ele>
        <time>2022-08-23 19:15:45</time>
      </trkpt>
      <trkpt lat="41.58976" lon="-0.93603">
        <ele>270.4</ele>
        <time>2022-08-23 19:15:46</time>
      </trkpt>
      <trkpt lat="41.58978" lon="-0.93602">
        <ele>270.4</ele>
        <time>2022-08-23 19:15:47</time>
      </trkpt>
      <trkpt lat="41.58981" lon="-0.93601">
        <ele>270.4</ele>
        <time>2022-08-23 19:15:48</time>
      </trkpt>
      <trkpt lat="41.58983" lon="-0.936">
        <ele>270.4</ele>
        <time>2022-08-23 19:15:49</time>
      </trkpt>
      <trkpt lat="41.58985" lon="-0.93599">
        <ele>270.2</ele>
        <time>2022-08-23 19:15:50</time>
      </trkpt>
      <trkpt lat="41.58988" lon="-0.93598">
        <ele>270</ele>
        <time>2022-08-23 19:15:51</time>
      </trkpt>
      <trkpt lat="41.5899" lon="-0.93596">
        <ele>270</ele>
        <time>2022-08-23 19:15:52</time>
      </trkpt>
      <trkpt lat="41.58992" lon="-0.93595">
        <ele>269.8</ele>
        <time>2022-08-23 19:15:53</time>
      </trkpt>
      <trkpt lat="41.58995" lon="-0.93593">
        <ele>270</ele>
        <time>2022-08-23 19:15:54</time>
      </trkpt>
      <trkpt lat="41.58997" lon="-0.93592">
        <ele>269.8</ele>
        <time>2022-08-23 19:15:55</time>
      </trkpt>
      <trkpt lat="41.59" lon="-0.9359">
        <ele>269.8</ele>
        <time>2022-08-23 19:15:56</time>
      </trkpt>
      <trkpt lat="41.59002" lon="-0.93589">
        <ele>269.8</ele>
        <time>2022-08-23 19:15:57</time>
      </trkpt>
      <trkpt lat="41.59004" lon="-0.93588">
        <ele>269.8</ele>
        <time>2022-08-23 19:15:58</time>
      </trkpt>
      <trkpt lat="41.59007" lon="-0.93586">
        <ele>269.6</ele>
        <time>2022-08-23 19:15:59</time>
      </trkpt>
      <trkpt lat="41.59009" lon="-0.93585">
        <ele>269.4</ele>
        <time>2022-08-23 19:16:00</time>
      </trkpt>
      <trkpt lat="41.59011" lon="-0.93583">
        <ele>269.4</ele>
        <time>2022-08-23 19:16:01</time>
      </trkpt>
      <trkpt lat="41.59014" lon="-0.93582">
        <ele>269.4</ele>
        <time>2022-08-23 19:16:02</time>
      </trkpt>
      <trkpt lat="41.59016" lon="-0.93581">
        <ele>269.4</ele>
        <time>2022-08-23 19:16:03</time>
      </trkpt>
      <trkpt lat="41.59018" lon="-0.93579">
        <ele>269.4</ele>
        <time>2022-08-23 19:16:04</time>
      </trkpt>
      <trkpt lat="41.59021" lon="-0.93578">
        <ele>269.4</ele>
        <time>2022-08-23 19:16:05</time>
      </trkpt>
      <trkpt lat="41.59024" lon="-0.93577">
        <ele>269.4</ele>
        <time>2022-08-23 19:16:06</time>
      </trkpt>
      <trkpt lat="41.59026" lon="-0.93576">
        <ele>269.4</ele>
        <time>2022-08-23 19:16:07</time>
      </trkpt>
      <trkpt lat="41.59028" lon="-0.93576">
        <ele>269.2</ele>
        <time>2022-08-23 19:16:08</time>
      </trkpt>
      <trkpt lat="41.5903" lon="-0.93575">
        <ele>269.2</ele>
        <time>2022-08-23 19:16:09</time>
      </trkpt>
      <trkpt lat="41.59032" lon="-0.93574">
        <ele>269</ele>
        <time>2022-08-23 19:16:10</time>
      </trkpt>
      <trkpt lat="41.59034" lon="-0.93573">
        <ele>269</ele>
        <time>2022-08-23 19:16:11</time>
      </trkpt>
      <trkpt lat="41.59037" lon="-0.93572">
        <ele>268.8</ele>
        <time>2022-08-23 19:16:12</time>
      </trkpt>
      <trkpt lat="41.59039" lon="-0.93571">
        <ele>268.8</ele>
        <time>2022-08-23 19:16:13</time>
      </trkpt>
      <trkpt lat="41.59041" lon="-0.9357">
        <ele>268.8</ele>
        <time>2022-08-23 19:16:14</time>
      </trkpt>
      <trkpt lat="41.59044" lon="-0.93569">
        <ele>268.8</ele>
        <time>2022-08-23 19:16:15</time>
      </trkpt>
      <trkpt lat="41.59046" lon="-0.93567">
        <ele>268.8</ele>
        <time>2022-08-23 19:16:16</time>
      </trkpt>
      <trkpt lat="41.59048" lon="-0.93566">
        <ele>268.8</ele>
        <time>2022-08-23 19:16:17</time>
      </trkpt>
      <trkpt lat="41.5905" lon="-0.93565">
        <ele>268.8</ele>
        <time>2022-08-23 19:16:18</time>
      </trkpt>
      <trkpt lat="41.59053" lon="-0.93565">
        <ele>268.8</ele>
        <time>2022-08-23 19:16:19</time>
      </trkpt>
      <trkpt lat="41.59055" lon="-0.93564">
        <ele>268.8</ele>
        <time>2022-08-23 19:16:20</time>
      </trkpt>
      <trkpt lat="41.59058" lon="-0.93563">
        <ele>268.8</ele>
        <time>2022-08-23 19:16:21</time>
      </trkpt>
      <trkpt lat="41.5906" lon="-0.93562">
        <ele>268.8</ele>
        <time>2022-08-23 19:16:22</time>
      </trkpt>
      <trkpt lat="41.59063" lon="-0.93561">
        <ele>268.8</ele>
        <time>2022-08-23 19:16:23</time>
      </trkpt>
      <trkpt lat="41.59065" lon="-0.9356">
        <ele>268.6</ele>
        <time>2022-08-23 19:16:24</time>
      </trkpt>
      <trkpt lat="41.59067" lon="-0.93559">
        <ele>268.6</ele>
        <time>2022-08-23 19:16:25</time>
      </trkpt>
      <trkpt lat="41.5907" lon="-0.93558">
        <ele>268.4</ele>
        <time>2022-08-23 19:16:26</time>
      </trkpt>
      <trkpt lat="41.59072" lon="-0.93556">
        <ele>268.2</ele>
        <time>2022-08-23 19:16:27</time>
      </trkpt>
      <trkpt lat="41.59074" lon="-0.93555">
        <ele>268.2</ele>
        <time>2022-08-23 19:16:28</time>
      </trkpt>
      <trkpt lat="41.59077" lon="-0.93554">
        <ele>268.2</ele>
        <time>2022-08-23 19:16:29</time>
      </trkpt>
      <trkpt lat="41.59079" lon="-0.93552">
        <ele>268.2</ele>
        <time>2022-08-23 19:16:30</time>
      </trkpt>
      <trkpt lat="41.59082" lon="-0.93551">
        <ele>268</ele>
        <time>2022-08-23 19:16:31</time>
      </trkpt>
      <trkpt lat="41.59084" lon="-0.9355">
        <ele>268</ele>
        <time>2022-08-23 19:16:32</time>
      </trkpt>
      <trkpt lat="41.59086" lon="-0.93549">
        <ele>268</ele>
        <time>2022-08-23 19:16:33</time>
      </trkpt>
      <trkpt lat="41.59089" lon="-0.93548">
        <ele>268</ele>
        <time>2022-08-23 19:16:34</time>
      </trkpt>
      <trkpt lat="41.59092" lon="-0.93548">
        <ele>268</ele>
        <time>2022-08-23 19:16:35</time>
      </trkpt>
      <trkpt lat="41.59095" lon="-0.93547">
        <ele>268</ele>
        <time>2022-08-23 19:16:36</time>
      </trkpt>
      <trkpt lat="41.59097" lon="-0.93546">
        <ele>268</ele>
        <time>2022-08-23 19:16:37</time>
      </trkpt>
      <trkpt lat="41.591" lon="-0.93545">
        <ele>268</ele>
        <time>2022-08-23 19:16:38</time>
      </trkpt>
      <trkpt lat="41.59102" lon="-0.93544">
        <ele>268</ele>
        <time>2022-08-23 19:16:39</time>
      </trkpt>
      <trkpt lat="41.59105" lon="-0.93544">
        <ele>268</ele>
        <time>2022-08-23 19:16:40</time>
      </trkpt>
      <trkpt lat="41.59107" lon="-0.93543">
        <ele>268.2</ele>
        <time>2022-08-23 19:16:41</time>
      </trkpt>
      <trkpt lat="41.59109" lon="-0.93542">
        <ele>268.2</ele>
        <time>2022-08-23 19:16:42</time>
      </trkpt>
      <trkpt lat="41.59112" lon="-0.93541">
        <ele>268.2</ele>
        <time>2022-08-23 19:16:43</time>
      </trkpt>
      <trkpt lat="41.59114" lon="-0.93541">
        <ele>268.2</ele>
        <time>2022-08-23 19:16:44</time>
      </trkpt>
      <trkpt lat="41.59117" lon="-0.9354">
        <ele>268.2</ele>
        <time>2022-08-23 19:16:45</time>
      </trkpt>
      <trkpt lat="41.59119" lon="-0.93539">
        <ele>268</ele>
        <time>2022-08-23 19:16:46</time>
      </trkpt>
      <trkpt lat="41.59122" lon="-0.93538">
        <ele>268</ele>
        <time>2022-08-23 19:16:47</time>
      </trkpt>
      <trkpt lat="41.59124" lon="-0.93537">
        <ele>267.8</ele>
        <time>2022-08-23 19:16:48</time>
      </trkpt>
      <trkpt lat="41.59127" lon="-0.93536">
        <ele>267.8</ele>
        <time>2022-08-23 19:16:49</time>
      </trkpt>
      <trkpt lat="41.59129" lon="-0.93535">
        <ele>267.6</ele>
        <time>2022-08-23 19:16:50</time>
      </trkpt>
      <trkpt lat="41.59131" lon="-0.93534">
        <ele>267.6</ele>
        <time>2022-08-23 19:16:51</time>
      </trkpt>
      <trkpt lat="41.59133" lon="-0.93533">
        <ele>267.6</ele>
        <time>2022-08-23 19:16:52</time>
      </trkpt>
      <trkpt lat="41.59135" lon="-0.93532">
        <ele>267.6</ele>
        <time>2022-08-23 19:16:53</time>
      </trkpt>
      <trkpt lat="41.59137" lon="-0.93531">
        <ele>267.6</ele>
        <time>2022-08-23 19:16:54</time>
      </trkpt>
      <trkpt lat="41.59139" lon="-0.9353">
        <ele>267.4</ele>
        <time>2022-08-23 19:16:55</time>
      </trkpt>
      <trkpt lat="41.59142" lon="-0.93529">
        <ele>267.4</ele>
        <time>2022-08-23 19:16:56</time>
      </trkpt>
      <trkpt lat="41.59144" lon="-0.93528">
        <ele>267.4</ele>
        <time>2022-08-23 19:16:57</time>
      </trkpt>
      <trkpt lat="41.59147" lon="-0.93526">
        <ele>267.4</ele>
        <time>2022-08-23 19:16:58</time>
      </trkpt>
      <trkpt lat="41.59149" lon="-0.93525">
        <ele>267.2</ele>
        <time>2022-08-23 19:16:59</time>
      </trkpt>
      <trkpt lat="41.59151" lon="-0.93524">
        <ele>267.2</ele>
        <time>2022-08-23 19:17:00</time>
      </trkpt>
      <trkpt lat="41.59154" lon="-0.93523">
        <ele>267.2</ele>
        <time>2022-08-23 19:17:01</time>
      </trkpt>
      <trkpt lat="41.59156" lon="-0.93521">
        <ele>267.2</ele>
        <time>2022-08-23 19:17:02</time>
      </trkpt>
      <trkpt lat="41.59159" lon="-0.9352">
        <ele>267.2</ele>
        <time>2022-08-23 19:17:03</time>
      </trkpt>
      <trkpt lat="41.59161" lon="-0.93519">
        <ele>267</ele>
        <time>2022-08-23 19:17:04</time>
      </trkpt>
      <trkpt lat="41.59164" lon="-0.93517">
        <ele>267</ele>
        <time>2022-08-23 19:17:05</time>
      </trkpt>
      <trkpt lat="41.59167" lon="-0.93515">
        <ele>266.8</ele>
        <time>2022-08-23 19:17:06</time>
      </trkpt>
      <trkpt lat="41.59169" lon="-0.93514">
        <ele>266.8</ele>
        <time>2022-08-23 19:17:07</time>
      </trkpt>
      <trkpt lat="41.59171" lon="-0.93513">
        <ele>266.6</ele>
        <time>2022-08-23 19:17:08</time>
      </trkpt>
      <trkpt lat="41.59173" lon="-0.93511">
        <ele>266.6</ele>
        <time>2022-08-23 19:17:09</time>
      </trkpt>
      <trkpt lat="41.59175" lon="-0.9351">
        <ele>266.6</ele>
        <time>2022-08-23 19:17:10</time>
      </trkpt>
      <trkpt lat="41.59178" lon="-0.93509">
        <ele>266.6</ele>
        <time>2022-08-23 19:17:11</time>
      </trkpt>
      <trkpt lat="41.5918" lon="-0.93508">
        <ele>266.6</ele>
        <time>2022-08-23 19:17:12</time>
      </trkpt>
      <trkpt lat="41.59182" lon="-0.93506">
        <ele>266.6</ele>
        <time>2022-08-23 19:17:13</time>
      </trkpt>
      <trkpt lat="41.59184" lon="-0.93505">
        <ele>266.6</ele>
        <time>2022-08-23 19:17:14</time>
      </trkpt>
      <trkpt lat="41.59187" lon="-0.93504">
        <ele>266.6</ele>
        <time>2022-08-23 19:17:15</time>
      </trkpt>
      <trkpt lat="41.59189" lon="-0.93503">
        <ele>266.6</ele>
        <time>2022-08-23 19:17:16</time>
      </trkpt>
      <trkpt lat="41.59192" lon="-0.93502">
        <ele>266.6</ele>
        <time>2022-08-23 19:17:17</time>
      </trkpt>
      <trkpt lat="41.59194" lon="-0.935">
        <ele>266.4</ele>
        <time>2022-08-23 19:17:18</time>
      </trkpt>
      <trkpt lat="41.59196" lon="-0.93499">
        <ele>266.4</ele>
        <time>2022-08-23 19:17:19</time>
      </trkpt>
      <trkpt lat="41.59198" lon="-0.93498">
        <ele>266.4</ele>
        <time>2022-08-23 19:17:20</time>
      </trkpt>
      <trkpt lat="41.59201" lon="-0.93497">
        <ele>266.4</ele>
        <time>2022-08-23 19:17:21</time>
      </trkpt>
      <trkpt lat="41.59204" lon="-0.93496">
        <ele>266.4</ele>
        <time>2022-08-23 19:17:22</time>
      </trkpt>
      <trkpt lat="41.59206" lon="-0.93495">
        <ele>266.4</ele>
        <time>2022-08-23 19:17:23</time>
      </trkpt>
      <trkpt lat="41.59209" lon="-0.93494">
        <ele>266.4</ele>
        <time>2022-08-23 19:17:24</time>
      </trkpt>
      <trkpt lat="41.59212" lon="-0.93493">
        <ele>266.4</ele>
        <time>2022-08-23 19:17:25</time>
      </trkpt>
      <trkpt lat="41.59214" lon="-0.93492">
        <ele>266.4</ele>
        <time>2022-08-23 19:17:26</time>
      </trkpt>
      <trkpt lat="41.59217" lon="-0.93491">
        <ele>266.4</ele>
        <time>2022-08-23 19:17:27</time>
      </trkpt>
      <trkpt lat="41.5922" lon="-0.9349">
        <ele>266.4</ele>
        <time>2022-08-23 19:17:28</time>
      </trkpt>
      <trkpt lat="41.59222" lon="-0.93489">
        <ele>266.4</ele>
        <time>2022-08-23 19:17:29</time>
      </trkpt>
      <trkpt lat="41.59225" lon="-0.93488">
        <ele>266.4</ele>
        <time>2022-08-23 19:17:30</time>
      </trkpt>
      <trkpt lat="41.59227" lon="-0.93488">
        <ele>266.4</ele>
        <time>2022-08-23 19:17:31</time>
      </trkpt>
      <trkpt lat="41.59229" lon="-0.93486">
        <ele>266.4</ele>
        <time>2022-08-23 19:17:32</time>
      </trkpt>
      <trkpt lat="41.59232" lon="-0.93485">
        <ele>266.4</ele>
        <time>2022-08-23 19:17:33</time>
      </trkpt>
      <trkpt lat="41.59235" lon="-0.93484">
        <ele>266.4</ele>
        <time>2022-08-23 19:17:34</time>
      </trkpt>
      <trkpt lat="41.59237" lon="-0.93482">
        <ele>266.2</ele>
        <time>2022-08-23 19:17:35</time>
      </trkpt>
      <trkpt lat="41.5924" lon="-0.93481">
        <ele>266.2</ele>
        <time>2022-08-23 19:17:36</time>
      </trkpt>
      <trkpt lat="41.59242" lon="-0.9348">
        <ele>266.2</ele>
        <time>2022-08-23 19:17:37</time>
      </trkpt>
      <trkpt lat="41.59245" lon="-0.93479">
        <ele>266.2</ele>
        <time>2022-08-23 19:17:38</time>
      </trkpt>
      <trkpt lat="41.59247" lon="-0.93478">
        <ele>266.2</ele>
        <time>2022-08-23 19:17:39</time>
      </trkpt>
      <trkpt lat="41.59249" lon="-0.93477">
        <ele>266.2</ele>
        <time>2022-08-23 19:17:40</time>
      </trkpt>
      <trkpt lat="41.59251" lon="-0.93475">
        <ele>266</ele>
        <time>2022-08-23 19:17:41</time>
      </trkpt>
      <trkpt lat="41.59254" lon="-0.93474">
        <ele>266</ele>
        <time>2022-08-23 19:17:42</time>
      </trkpt>
      <trkpt lat="41.59256" lon="-0.93473">
        <ele>266</ele>
        <time>2022-08-23 19:17:43</time>
      </trkpt>
      <trkpt lat="41.59259" lon="-0.93472">
        <ele>266</ele>
        <time>2022-08-23 19:17:44</time>
      </trkpt>
      <trkpt lat="41.59261" lon="-0.93471">
        <ele>265.8</ele>
        <time>2022-08-23 19:17:45</time>
      </trkpt>
      <trkpt lat="41.59264" lon="-0.93469">
        <ele>265.8</ele>
        <time>2022-08-23 19:17:46</time>
      </trkpt>
      <trkpt lat="41.59267" lon="-0.93468">
        <ele>265.8</ele>
        <time>2022-08-23 19:17:47</time>
      </trkpt>
      <trkpt lat="41.59269" lon="-0.93467">
        <ele>265.8</ele>
        <time>2022-08-23 19:17:48</time>
      </trkpt>
      <trkpt lat="41.59271" lon="-0.93466">
        <ele>265.8</ele>
        <time>2022-08-23 19:17:49</time>
      </trkpt>
      <trkpt lat="41.59274" lon="-0.93465">
        <ele>265.8</ele>
        <time>2022-08-23 19:17:50</time>
      </trkpt>
      <trkpt lat="41.59277" lon="-0.93464">
        <ele>265.8</ele>
        <time>2022-08-23 19:17:51</time>
      </trkpt>
      <trkpt lat="41.59279" lon="-0.93464">
        <ele>265.8</ele>
        <time>2022-08-23 19:17:52</time>
      </trkpt>
      <trkpt lat="41.59282" lon="-0.93463">
        <ele>265.8</ele>
        <time>2022-08-23 19:17:53</time>
      </trkpt>
      <trkpt lat="41.59284" lon="-0.93462">
        <ele>265.8</ele>
        <time>2022-08-23 19:17:54</time>
      </trkpt>
      <trkpt lat="41.59287" lon="-0.93461">
        <ele>265.8</ele>
        <time>2022-08-23 19:17:55</time>
      </trkpt>
      <trkpt lat="41.59289" lon="-0.9346">
        <ele>265.8</ele>
        <time>2022-08-23 19:17:56</time>
      </trkpt>
      <trkpt lat="41.59292" lon="-0.93459">
        <ele>265.8</ele>
        <time>2022-08-23 19:17:57</time>
      </trkpt>
      <trkpt lat="41.59294" lon="-0.93458">
        <ele>265.8</ele>
        <time>2022-08-23 19:17:58</time>
      </trkpt>
      <trkpt lat="41.59297" lon="-0.93457">
        <ele>265.8</ele>
        <time>2022-08-23 19:17:59</time>
      </trkpt>
      <trkpt lat="41.59299" lon="-0.93456">
        <ele>265.8</ele>
        <time>2022-08-23 19:18:00</time>
      </trkpt>
      <trkpt lat="41.59301" lon="-0.93455">
        <ele>265.8</ele>
        <time>2022-08-23 19:18:01</time>
      </trkpt>
      <trkpt lat="41.59303" lon="-0.93454">
        <ele>265.8</ele>
        <time>2022-08-23 19:18:02</time>
      </trkpt>
      <trkpt lat="41.59305" lon="-0.93453">
        <ele>265.8</ele>
        <time>2022-08-23 19:18:03</time>
      </trkpt>
      <trkpt lat="41.59308" lon="-0.93452">
        <ele>265.8</ele>
        <time>2022-08-23 19:18:04</time>
      </trkpt>
      <trkpt lat="41.5931" lon="-0.93451">
        <ele>265.8</ele>
        <time>2022-08-23 19:18:05</time>
      </trkpt>
      <trkpt lat="41.59312" lon="-0.9345">
        <ele>265.8</ele>
        <time>2022-08-23 19:18:06</time>
      </trkpt>
      <trkpt lat="41.59315" lon="-0.93449">
        <ele>265.6</ele>
        <time>2022-08-23 19:18:07</time>
      </trkpt>
      <trkpt lat="41.59317" lon="-0.93447">
        <ele>265.4</ele>
        <time>2022-08-23 19:18:08</time>
      </trkpt>
      <trkpt lat="41.59319" lon="-0.93446">
        <ele>265.4</ele>
        <time>2022-08-23 19:18:09</time>
      </trkpt>
      <trkpt lat="41.59321" lon="-0.93445">
        <ele>265.4</ele>
        <time>2022-08-23 19:18:10</time>
      </trkpt>
      <trkpt lat="41.59323" lon="-0.93445">
        <ele>265.4</ele>
        <time>2022-08-23 19:18:11</time>
      </trkpt>
      <trkpt lat="41.59326" lon="-0.93445">
        <ele>265.4</ele>
        <time>2022-08-23 19:18:12</time>
      </trkpt>
      <trkpt lat="41.59329" lon="-0.93445">
        <ele>265.4</ele>
        <time>2022-08-23 19:18:13</time>
      </trkpt>
      <trkpt lat="41.59332" lon="-0.93445">
        <ele>265.4</ele>
        <time>2022-08-23 19:18:14</time>
      </trkpt>
      <trkpt lat="41.59334" lon="-0.93446">
        <ele>265.4</ele>
        <time>2022-08-23 19:18:15</time>
      </trkpt>
      <trkpt lat="41.59337" lon="-0.93446">
        <ele>265.4</ele>
        <time>2022-08-23 19:18:16</time>
      </trkpt>
      <trkpt lat="41.5934" lon="-0.93447">
        <ele>265.4</ele>
        <time>2022-08-23 19:18:17</time>
      </trkpt>
      <trkpt lat="41.59342" lon="-0.93448">
        <ele>265.4</ele>
        <time>2022-08-23 19:18:18</time>
      </trkpt>
      <trkpt lat="41.59345" lon="-0.93449">
        <ele>265.4</ele>
        <time>2022-08-23 19:18:19</time>
      </trkpt>
      <trkpt lat="41.59347" lon="-0.93449">
        <ele>265.4</ele>
        <time>2022-08-23 19:18:20</time>
      </trkpt>
      <trkpt lat="41.5935" lon="-0.9345">
        <ele>265.4</ele>
        <time>2022-08-23 19:18:21</time>
      </trkpt>
      <trkpt lat="41.59351" lon="-0.9345">
        <ele>265.2</ele>
        <time>2022-08-23 19:18:22</time>
      </trkpt>
      <trkpt lat="41.59353" lon="-0.93451">
        <ele>265.2</ele>
        <time>2022-08-23 19:18:23</time>
      </trkpt>
      <trkpt lat="41.59354" lon="-0.93451">
        <ele>265.2</ele>
        <time>2022-08-23 19:18:24</time>
      </trkpt>
      <trkpt lat="41.59356" lon="-0.9345">
        <ele>265</ele>
        <time>2022-08-23 19:18:25</time>
      </trkpt>
      <trkpt lat="41.59359" lon="-0.93449">
        <ele>265.2</ele>
        <time>2022-08-23 19:18:26</time>
      </trkpt>
      <trkpt lat="41.59361" lon="-0.93449">
        <ele>265</ele>
        <time>2022-08-23 19:18:27</time>
      </trkpt>
      <trkpt lat="41.59364" lon="-0.93448">
        <ele>265</ele>
        <time>2022-08-23 19:18:28</time>
      </trkpt>
      <trkpt lat="41.59366" lon="-0.93448">
        <ele>265.2</ele>
        <time>2022-08-23 19:18:29</time>
      </trkpt>
      <trkpt lat="41.59367" lon="-0.93448">
        <ele>265.2</ele>
        <time>2022-08-23 19:18:30</time>
      </trkpt>
    </trkseg>
  </trk>
</gpx>
